<?xml version="1.0" encoding="UTF-8" standalone="no" ?>
<gpx xmlns="http://www.topografix.com/GPX/1/1" xmlns:xsi="http://www.w3.org/2001/XMLSchema-instance" xsi:schemaLocation="http://www.topografix.com/GPX/1/1 http://www.topografix.com/GPX/1/1/gpx.xsd" version="1.1" creator="VisuGPX - https://www.visugpx.com">
  <metadata>
    <name>Rando Zefal Jargeau 64km</name>
    <desc><![CDATA[Rando Zefal "Marc Doyen" 58km / 30-04-2017]]></desc>
  </metadata>
  <trk>
    <name><![CDATA[runtastic_20170430_1152_VTT]]></name>
    <desc><![CDATA[Total: 59.1km]]></desc>
    <trkseg>
      <trkpt lat="47.86016" lon="2.13403">
        <ele>102</ele>
        <time>2017-04-30T06:24:01Z</time>
      </trkpt>
      <trkpt lat="47.86016" lon="2.13403">
        <ele>102</ele>
        <time>2017-04-30T06:24:05Z</time>
      </trkpt>
      <trkpt lat="47.86016" lon="2.13403">
        <ele>102</ele>
        <time>2017-04-30T06:24:07Z</time>
      </trkpt>
      <trkpt lat="47.86016" lon="2.13399">
        <ele>108</ele>
        <time>2017-04-30T06:31:34Z</time>
      </trkpt>
      <trkpt lat="47.8601" lon="2.13382">
        <ele>108</ele>
        <time>2017-04-30T06:31:40Z</time>
      </trkpt>
      <trkpt lat="47.86004" lon="2.1337">
        <ele>108</ele>
        <time>2017-04-30T06:31:44Z</time>
      </trkpt>
      <trkpt lat="47.86004" lon="2.1337">
        <ele>108</ele>
        <time>2017-04-30T06:31:46Z</time>
      </trkpt>
      <trkpt lat="47.86004" lon="2.1337">
        <ele>108</ele>
        <time>2017-04-30T06:31:48Z</time>
      </trkpt>
      <trkpt lat="47.86004" lon="2.1337">
        <ele>108</ele>
        <time>2017-04-30T06:31:50Z</time>
      </trkpt>
      <trkpt lat="47.86001" lon="2.13335">
        <ele>106</ele>
        <time>2017-04-30T06:36:09Z</time>
      </trkpt>
      <trkpt lat="47.86009" lon="2.13326">
        <ele>106</ele>
        <time>2017-04-30T06:36:12Z</time>
      </trkpt>
      <trkpt lat="47.86024" lon="2.13317">
        <ele>106</ele>
        <time>2017-04-30T06:36:16Z</time>
      </trkpt>
      <trkpt lat="47.86033" lon="2.13316">
        <ele>106</ele>
        <time>2017-04-30T06:36:18Z</time>
      </trkpt>
      <trkpt lat="47.86043" lon="2.13315">
        <ele>106</ele>
        <time>2017-04-30T06:36:20Z</time>
      </trkpt>
      <trkpt lat="47.86053" lon="2.13313">
        <ele>106</ele>
        <time>2017-04-30T06:36:22Z</time>
      </trkpt>
      <trkpt lat="47.86063" lon="2.13311">
        <ele>106</ele>
        <time>2017-04-30T06:36:24Z</time>
      </trkpt>
      <trkpt lat="47.86073" lon="2.1331">
        <ele>106</ele>
        <time>2017-04-30T06:36:26Z</time>
      </trkpt>
      <trkpt lat="47.86084" lon="2.13308">
        <ele>106</ele>
        <time>2017-04-30T06:36:28Z</time>
      </trkpt>
      <trkpt lat="47.86095" lon="2.13306">
        <ele>106</ele>
        <time>2017-04-30T06:36:30Z</time>
      </trkpt>
      <trkpt lat="47.86105" lon="2.13304">
        <ele>106</ele>
        <time>2017-04-30T06:36:32Z</time>
      </trkpt>
      <trkpt lat="47.86116" lon="2.13302">
        <ele>106</ele>
        <time>2017-04-30T06:36:34Z</time>
      </trkpt>
      <trkpt lat="47.86128" lon="2.13299">
        <ele>106</ele>
        <time>2017-04-30T06:36:36Z</time>
      </trkpt>
      <trkpt lat="47.86139" lon="2.13296">
        <ele>106</ele>
        <time>2017-04-30T06:36:38Z</time>
      </trkpt>
      <trkpt lat="47.8615" lon="2.13292">
        <ele>105</ele>
        <time>2017-04-30T06:36:40Z</time>
      </trkpt>
      <trkpt lat="47.86161" lon="2.13288">
        <ele>106</ele>
        <time>2017-04-30T06:36:42Z</time>
      </trkpt>
      <trkpt lat="47.86172" lon="2.13285">
        <ele>105</ele>
        <time>2017-04-30T06:36:44Z</time>
      </trkpt>
      <trkpt lat="47.86184" lon="2.13282">
        <ele>105</ele>
        <time>2017-04-30T06:36:46Z</time>
      </trkpt>
      <trkpt lat="47.86195" lon="2.13278">
        <ele>105</ele>
        <time>2017-04-30T06:36:48Z</time>
      </trkpt>
      <trkpt lat="47.86206" lon="2.13274">
        <ele>105</ele>
        <time>2017-04-30T06:36:50Z</time>
      </trkpt>
      <trkpt lat="47.86217" lon="2.13269">
        <ele>105</ele>
        <time>2017-04-30T06:36:52Z</time>
      </trkpt>
      <trkpt lat="47.86228" lon="2.13265">
        <ele>105</ele>
        <time>2017-04-30T06:36:54Z</time>
      </trkpt>
      <trkpt lat="47.86239" lon="2.1326">
        <ele>105</ele>
        <time>2017-04-30T06:36:56Z</time>
      </trkpt>
      <trkpt lat="47.86249" lon="2.13255">
        <ele>105</ele>
        <time>2017-04-30T06:36:58Z</time>
      </trkpt>
      <trkpt lat="47.86249" lon="2.13255">
        <ele>105</ele>
        <time>2017-04-30T06:37:00Z</time>
      </trkpt>
      <trkpt lat="47.86249" lon="2.13255">
        <ele>105</ele>
        <time>2017-04-30T06:37:02Z</time>
      </trkpt>
      <trkpt lat="47.86249" lon="2.13255">
        <ele>105</ele>
        <time>2017-04-30T06:37:04Z</time>
      </trkpt>
      <trkpt lat="47.86249" lon="2.13255">
        <ele>105</ele>
        <time>2017-04-30T06:37:06Z</time>
      </trkpt>
      <trkpt lat="47.86319" lon="2.13229">
        <ele>105</ele>
        <time>2017-04-30T06:37:12Z</time>
      </trkpt>
      <trkpt lat="47.86328" lon="2.13222">
        <ele>105</ele>
        <time>2017-04-30T06:37:14Z</time>
      </trkpt>
      <trkpt lat="47.86328" lon="2.13222">
        <ele>105</ele>
        <time>2017-04-30T06:37:16Z</time>
      </trkpt>
      <trkpt lat="47.86328" lon="2.13222">
        <ele>105</ele>
        <time>2017-04-30T06:37:18Z</time>
      </trkpt>
      <trkpt lat="47.86354" lon="2.13199">
        <ele>105</ele>
        <time>2017-04-30T06:37:20Z</time>
      </trkpt>
      <trkpt lat="47.86363" lon="2.1319">
        <ele>105</ele>
        <time>2017-04-30T06:37:22Z</time>
      </trkpt>
      <trkpt lat="47.86372" lon="2.13182">
        <ele>105</ele>
        <time>2017-04-30T06:37:24Z</time>
      </trkpt>
      <trkpt lat="47.86372" lon="2.13182">
        <ele>105</ele>
        <time>2017-04-30T06:37:26Z</time>
      </trkpt>
      <trkpt lat="47.86372" lon="2.13182">
        <ele>105</ele>
        <time>2017-04-30T06:37:28Z</time>
      </trkpt>
      <trkpt lat="47.86372" lon="2.13182">
        <ele>105</ele>
        <time>2017-04-30T06:37:30Z</time>
      </trkpt>
      <trkpt lat="47.86372" lon="2.13182">
        <ele>105</ele>
        <time>2017-04-30T06:37:32Z</time>
      </trkpt>
      <trkpt lat="47.86372" lon="2.13182">
        <ele>105</ele>
        <time>2017-04-30T06:37:34Z</time>
      </trkpt>
      <trkpt lat="47.86372" lon="2.13182">
        <ele>105</ele>
        <time>2017-04-30T06:37:36Z</time>
      </trkpt>
      <trkpt lat="47.86425" lon="2.13118">
        <ele>106</ele>
        <time>2017-04-30T06:37:42Z</time>
      </trkpt>
      <trkpt lat="47.86432" lon="2.13107">
        <ele>106</ele>
        <time>2017-04-30T06:37:44Z</time>
      </trkpt>
      <trkpt lat="47.86438" lon="2.13095">
        <ele>106</ele>
        <time>2017-04-30T06:37:46Z</time>
      </trkpt>
      <trkpt lat="47.86446" lon="2.13084">
        <ele>105</ele>
        <time>2017-04-30T06:37:48Z</time>
      </trkpt>
      <trkpt lat="47.86453" lon="2.13072">
        <ele>105</ele>
        <time>2017-04-30T06:37:50Z</time>
      </trkpt>
      <trkpt lat="47.8646" lon="2.1306">
        <ele>106</ele>
        <time>2017-04-30T06:37:52Z</time>
      </trkpt>
      <trkpt lat="47.86468" lon="2.13048">
        <ele>106</ele>
        <time>2017-04-30T06:37:54Z</time>
      </trkpt>
      <trkpt lat="47.86475" lon="2.13036">
        <ele>105</ele>
        <time>2017-04-30T06:37:56Z</time>
      </trkpt>
      <trkpt lat="47.86483" lon="2.13024">
        <ele>105</ele>
        <time>2017-04-30T06:37:58Z</time>
      </trkpt>
      <trkpt lat="47.86491" lon="2.13012">
        <ele>105</ele>
        <time>2017-04-30T06:38:00Z</time>
      </trkpt>
      <trkpt lat="47.86499" lon="2.13">
        <ele>105</ele>
        <time>2017-04-30T06:38:02Z</time>
      </trkpt>
      <trkpt lat="47.86507" lon="2.12988">
        <ele>105</ele>
        <time>2017-04-30T06:38:04Z</time>
      </trkpt>
      <trkpt lat="47.86516" lon="2.12976">
        <ele>105</ele>
        <time>2017-04-30T06:38:06Z</time>
      </trkpt>
      <trkpt lat="47.86524" lon="2.12965">
        <ele>105</ele>
        <time>2017-04-30T06:38:08Z</time>
      </trkpt>
      <trkpt lat="47.86533" lon="2.12954">
        <ele>105</ele>
        <time>2017-04-30T06:38:10Z</time>
      </trkpt>
      <trkpt lat="47.86543" lon="2.12944">
        <ele>105</ele>
        <time>2017-04-30T06:38:12Z</time>
      </trkpt>
      <trkpt lat="47.86551" lon="2.12935">
        <ele>105</ele>
        <time>2017-04-30T06:38:14Z</time>
      </trkpt>
      <trkpt lat="47.8656" lon="2.12926">
        <ele>105</ele>
        <time>2017-04-30T06:38:16Z</time>
      </trkpt>
      <trkpt lat="47.86569" lon="2.12916">
        <ele>105</ele>
        <time>2017-04-30T06:38:18Z</time>
      </trkpt>
      <trkpt lat="47.86578" lon="2.12905">
        <ele>104</ele>
        <time>2017-04-30T06:38:20Z</time>
      </trkpt>
      <trkpt lat="47.86587" lon="2.12894">
        <ele>104</ele>
        <time>2017-04-30T06:38:22Z</time>
      </trkpt>
      <trkpt lat="47.86595" lon="2.12882">
        <ele>104</ele>
        <time>2017-04-30T06:38:24Z</time>
      </trkpt>
      <trkpt lat="47.86604" lon="2.1287">
        <ele>104</ele>
        <time>2017-04-30T06:38:26Z</time>
      </trkpt>
      <trkpt lat="47.86611" lon="2.12858">
        <ele>104</ele>
        <time>2017-04-30T06:38:28Z</time>
      </trkpt>
      <trkpt lat="47.86619" lon="2.12845">
        <ele>105</ele>
        <time>2017-04-30T06:38:30Z</time>
      </trkpt>
      <trkpt lat="47.86627" lon="2.12834">
        <ele>105</ele>
        <time>2017-04-30T06:38:32Z</time>
      </trkpt>
      <trkpt lat="47.86635" lon="2.12822">
        <ele>104</ele>
        <time>2017-04-30T06:38:34Z</time>
      </trkpt>
      <trkpt lat="47.86642" lon="2.12809">
        <ele>104</ele>
        <time>2017-04-30T06:38:36Z</time>
      </trkpt>
      <trkpt lat="47.86649" lon="2.12797">
        <ele>104</ele>
        <time>2017-04-30T06:38:38Z</time>
      </trkpt>
      <trkpt lat="47.86656" lon="2.12784">
        <ele>104</ele>
        <time>2017-04-30T06:38:40Z</time>
      </trkpt>
      <trkpt lat="47.86663" lon="2.12771">
        <ele>104</ele>
        <time>2017-04-30T06:38:42Z</time>
      </trkpt>
      <trkpt lat="47.86668" lon="2.12757">
        <ele>105</ele>
        <time>2017-04-30T06:38:44Z</time>
      </trkpt>
      <trkpt lat="47.86668" lon="2.12757">
        <ele>105</ele>
        <time>2017-04-30T06:38:46Z</time>
      </trkpt>
      <trkpt lat="47.86668" lon="2.12757">
        <ele>105</ele>
        <time>2017-04-30T06:38:48Z</time>
      </trkpt>
      <trkpt lat="47.86668" lon="2.12757">
        <ele>105</ele>
        <time>2017-04-30T06:38:50Z</time>
      </trkpt>
      <trkpt lat="47.86668" lon="2.12757">
        <ele>105</ele>
        <time>2017-04-30T06:38:52Z</time>
      </trkpt>
      <trkpt lat="47.86694" lon="2.12672">
        <ele>105</ele>
        <time>2017-04-30T06:38:56Z</time>
      </trkpt>
      <trkpt lat="47.86697" lon="2.12656">
        <ele>105</ele>
        <time>2017-04-30T06:38:58Z</time>
      </trkpt>
      <trkpt lat="47.867" lon="2.1264">
        <ele>105</ele>
        <time>2017-04-30T06:39:00Z</time>
      </trkpt>
      <trkpt lat="47.86702" lon="2.12624">
        <ele>105</ele>
        <time>2017-04-30T06:39:02Z</time>
      </trkpt>
      <trkpt lat="47.86703" lon="2.12609">
        <ele>105</ele>
        <time>2017-04-30T06:39:04Z</time>
      </trkpt>
      <trkpt lat="47.86703" lon="2.12609">
        <ele>105</ele>
        <time>2017-04-30T06:39:06Z</time>
      </trkpt>
      <trkpt lat="47.86703" lon="2.12609">
        <ele>105</ele>
        <time>2017-04-30T06:39:08Z</time>
      </trkpt>
      <trkpt lat="47.86703" lon="2.12609">
        <ele>105</ele>
        <time>2017-04-30T06:39:10Z</time>
      </trkpt>
      <trkpt lat="47.86715" lon="2.12532">
        <ele>105</ele>
        <time>2017-04-30T06:39:14Z</time>
      </trkpt>
      <trkpt lat="47.86717" lon="2.12516">
        <ele>104</ele>
        <time>2017-04-30T06:39:16Z</time>
      </trkpt>
      <trkpt lat="47.8672" lon="2.125">
        <ele>104</ele>
        <time>2017-04-30T06:39:18Z</time>
      </trkpt>
      <trkpt lat="47.86721" lon="2.12485">
        <ele>104</ele>
        <time>2017-04-30T06:39:20Z</time>
      </trkpt>
      <trkpt lat="47.86721" lon="2.12485">
        <ele>104</ele>
        <time>2017-04-30T06:39:22Z</time>
      </trkpt>
      <trkpt lat="47.86721" lon="2.12485">
        <ele>104</ele>
        <time>2017-04-30T06:39:24Z</time>
      </trkpt>
      <trkpt lat="47.86721" lon="2.12485">
        <ele>104</ele>
        <time>2017-04-30T06:39:26Z</time>
      </trkpt>
      <trkpt lat="47.86721" lon="2.12485">
        <ele>104</ele>
        <time>2017-04-30T06:39:28Z</time>
      </trkpt>
      <trkpt lat="47.86721" lon="2.12485">
        <ele>104</ele>
        <time>2017-04-30T06:39:30Z</time>
      </trkpt>
      <trkpt lat="47.86721" lon="2.12485">
        <ele>104</ele>
        <time>2017-04-30T06:39:32Z</time>
      </trkpt>
      <trkpt lat="47.86721" lon="2.12485">
        <ele>104</ele>
        <time>2017-04-30T06:39:34Z</time>
      </trkpt>
      <trkpt lat="47.86721" lon="2.12485">
        <ele>104</ele>
        <time>2017-04-30T06:39:36Z</time>
      </trkpt>
      <trkpt lat="47.8675" lon="2.12462">
        <ele>110</ele>
        <time>2017-04-30T06:39:40Z</time>
      </trkpt>
      <trkpt lat="47.86769" lon="2.12453">
        <ele>110</ele>
        <time>2017-04-30T06:39:42Z</time>
      </trkpt>
      <trkpt lat="47.86783" lon="2.12451">
        <ele>110</ele>
        <time>2017-04-30T06:39:44Z</time>
      </trkpt>
      <trkpt lat="47.86795" lon="2.12453">
        <ele>110</ele>
        <time>2017-04-30T06:39:46Z</time>
      </trkpt>
      <trkpt lat="47.86806" lon="2.12457">
        <ele>110</ele>
        <time>2017-04-30T06:39:48Z</time>
      </trkpt>
      <trkpt lat="47.86826" lon="2.12467">
        <ele>110</ele>
        <time>2017-04-30T06:39:50Z</time>
      </trkpt>
      <trkpt lat="47.86836" lon="2.12473">
        <ele>110</ele>
        <time>2017-04-30T06:39:52Z</time>
      </trkpt>
      <trkpt lat="47.86845" lon="2.12479">
        <ele>110</ele>
        <time>2017-04-30T06:39:54Z</time>
      </trkpt>
      <trkpt lat="47.86855" lon="2.12485">
        <ele>110</ele>
        <time>2017-04-30T06:39:56Z</time>
      </trkpt>
      <trkpt lat="47.86866" lon="2.1249">
        <ele>110</ele>
        <time>2017-04-30T06:39:58Z</time>
      </trkpt>
      <trkpt lat="47.86876" lon="2.12496">
        <ele>110</ele>
        <time>2017-04-30T06:40:00Z</time>
      </trkpt>
      <trkpt lat="47.86886" lon="2.12502">
        <ele>110</ele>
        <time>2017-04-30T06:40:02Z</time>
      </trkpt>
      <trkpt lat="47.86897" lon="2.12508">
        <ele>110</ele>
        <time>2017-04-30T06:40:04Z</time>
      </trkpt>
      <trkpt lat="47.86907" lon="2.12514">
        <ele>110</ele>
        <time>2017-04-30T06:40:06Z</time>
      </trkpt>
      <trkpt lat="47.86917" lon="2.1252">
        <ele>110</ele>
        <time>2017-04-30T06:40:08Z</time>
      </trkpt>
      <trkpt lat="47.86928" lon="2.12526">
        <ele>110</ele>
        <time>2017-04-30T06:40:10Z</time>
      </trkpt>
      <trkpt lat="47.86938" lon="2.12532">
        <ele>110</ele>
        <time>2017-04-30T06:40:12Z</time>
      </trkpt>
      <trkpt lat="47.8695" lon="2.12539">
        <ele>110</ele>
        <time>2017-04-30T06:40:14Z</time>
      </trkpt>
      <trkpt lat="47.8696" lon="2.12545">
        <ele>110</ele>
        <time>2017-04-30T06:40:16Z</time>
      </trkpt>
      <trkpt lat="47.86971" lon="2.1255">
        <ele>110</ele>
        <time>2017-04-30T06:40:18Z</time>
      </trkpt>
      <trkpt lat="47.8698" lon="2.12555">
        <ele>110</ele>
        <time>2017-04-30T06:40:20Z</time>
      </trkpt>
      <trkpt lat="47.8698" lon="2.12555">
        <ele>110</ele>
        <time>2017-04-30T06:40:22Z</time>
      </trkpt>
      <trkpt lat="47.8698" lon="2.12555">
        <ele>110</ele>
        <time>2017-04-30T06:40:24Z</time>
      </trkpt>
      <trkpt lat="47.87038" lon="2.1259">
        <ele>110</ele>
        <time>2017-04-30T06:40:32Z</time>
      </trkpt>
      <trkpt lat="47.87049" lon="2.12596">
        <ele>109</ele>
        <time>2017-04-30T06:40:34Z</time>
      </trkpt>
      <trkpt lat="47.87059" lon="2.12602">
        <ele>110</ele>
        <time>2017-04-30T06:40:36Z</time>
      </trkpt>
      <trkpt lat="47.8707" lon="2.12608">
        <ele>111</ele>
        <time>2017-04-30T06:40:38Z</time>
      </trkpt>
      <trkpt lat="47.8708" lon="2.12614">
        <ele>112</ele>
        <time>2017-04-30T06:40:40Z</time>
      </trkpt>
      <trkpt lat="47.8709" lon="2.12619">
        <ele>113</ele>
        <time>2017-04-30T06:40:42Z</time>
      </trkpt>
      <trkpt lat="47.8709" lon="2.12619">
        <ele>113</ele>
        <time>2017-04-30T06:40:44Z</time>
      </trkpt>
      <trkpt lat="47.8709" lon="2.12619">
        <ele>113</ele>
        <time>2017-04-30T06:40:46Z</time>
      </trkpt>
      <trkpt lat="47.8709" lon="2.12619">
        <ele>113</ele>
        <time>2017-04-30T06:40:48Z</time>
      </trkpt>
      <trkpt lat="47.8709" lon="2.12619">
        <ele>113</ele>
        <time>2017-04-30T06:40:50Z</time>
      </trkpt>
      <trkpt lat="47.8709" lon="2.12619">
        <ele>113</ele>
        <time>2017-04-30T06:40:52Z</time>
      </trkpt>
      <trkpt lat="47.8709" lon="2.12619">
        <ele>113</ele>
        <time>2017-04-30T06:40:54Z</time>
      </trkpt>
      <trkpt lat="47.8709" lon="2.12619">
        <ele>113</ele>
        <time>2017-04-30T06:40:56Z</time>
      </trkpt>
      <trkpt lat="47.8709" lon="2.12619">
        <ele>113</ele>
        <time>2017-04-30T06:40:58Z</time>
      </trkpt>
      <trkpt lat="47.8709" lon="2.12619">
        <ele>113</ele>
        <time>2017-04-30T06:41:00Z</time>
      </trkpt>
      <trkpt lat="47.8709" lon="2.12619">
        <ele>113</ele>
        <time>2017-04-30T06:41:02Z</time>
      </trkpt>
      <trkpt lat="47.87167" lon="2.12603">
        <ele>114</ele>
        <time>2017-04-30T06:41:06Z</time>
      </trkpt>
      <trkpt lat="47.87172" lon="2.1258">
        <ele>114</ele>
        <time>2017-04-30T06:41:10Z</time>
      </trkpt>
      <trkpt lat="47.87172" lon="2.1258">
        <ele>114</ele>
        <time>2017-04-30T06:41:12Z</time>
      </trkpt>
      <trkpt lat="47.87172" lon="2.1258">
        <ele>114</ele>
        <time>2017-04-30T06:41:14Z</time>
      </trkpt>
      <trkpt lat="47.87172" lon="2.1258">
        <ele>114</ele>
        <time>2017-04-30T06:41:16Z</time>
      </trkpt>
      <trkpt lat="47.87172" lon="2.1258">
        <ele>114</ele>
        <time>2017-04-30T06:41:18Z</time>
      </trkpt>
      <trkpt lat="47.87151" lon="2.1255">
        <ele>113</ele>
        <time>2017-04-30T06:41:22Z</time>
      </trkpt>
      <trkpt lat="47.87137" lon="2.12543">
        <ele>115</ele>
        <time>2017-04-30T06:41:26Z</time>
      </trkpt>
      <trkpt lat="47.8712" lon="2.1254">
        <ele>116</ele>
        <time>2017-04-30T06:41:30Z</time>
      </trkpt>
      <trkpt lat="47.8712" lon="2.1254">
        <ele>116</ele>
        <time>2017-04-30T06:41:32Z</time>
      </trkpt>
      <trkpt lat="47.8712" lon="2.1254">
        <ele>116</ele>
        <time>2017-04-30T06:41:34Z</time>
      </trkpt>
      <trkpt lat="47.8712" lon="2.1254">
        <ele>116</ele>
        <time>2017-04-30T06:41:36Z</time>
      </trkpt>
      <trkpt lat="47.8712" lon="2.1254">
        <ele>116</ele>
        <time>2017-04-30T06:41:38Z</time>
      </trkpt>
      <trkpt lat="47.8708" lon="2.12522">
        <ele>116</ele>
        <time>2017-04-30T06:41:42Z</time>
      </trkpt>
      <trkpt lat="47.87071" lon="2.12517">
        <ele>115</ele>
        <time>2017-04-30T06:41:44Z</time>
      </trkpt>
      <trkpt lat="47.87071" lon="2.12517">
        <ele>115</ele>
        <time>2017-04-30T06:41:48Z</time>
      </trkpt>
      <trkpt lat="47.87071" lon="2.12517">
        <ele>115</ele>
        <time>2017-04-30T06:41:50Z</time>
      </trkpt>
      <trkpt lat="47.87071" lon="2.12517">
        <ele>115</ele>
        <time>2017-04-30T06:41:52Z</time>
      </trkpt>
      <trkpt lat="47.87065" lon="2.12477">
        <ele>110</ele>
        <time>2017-04-30T06:42:21Z</time>
      </trkpt>
      <trkpt lat="47.87069" lon="2.12464">
        <ele>110</ele>
        <time>2017-04-30T06:42:24Z</time>
      </trkpt>
      <trkpt lat="47.87075" lon="2.12445">
        <ele>109</ele>
        <time>2017-04-30T06:42:28Z</time>
      </trkpt>
      <trkpt lat="47.8708" lon="2.12433">
        <ele>109</ele>
        <time>2017-04-30T06:42:30Z</time>
      </trkpt>
      <trkpt lat="47.87085" lon="2.12421">
        <ele>108</ele>
        <time>2017-04-30T06:42:32Z</time>
      </trkpt>
      <trkpt lat="47.87091" lon="2.12408">
        <ele>108</ele>
        <time>2017-04-30T06:42:34Z</time>
      </trkpt>
      <trkpt lat="47.87097" lon="2.12396">
        <ele>107</ele>
        <time>2017-04-30T06:42:36Z</time>
      </trkpt>
      <trkpt lat="47.87103" lon="2.12382">
        <ele>107</ele>
        <time>2017-04-30T06:42:38Z</time>
      </trkpt>
      <trkpt lat="47.87109" lon="2.12368">
        <ele>106</ele>
        <time>2017-04-30T06:42:40Z</time>
      </trkpt>
      <trkpt lat="47.87116" lon="2.12352">
        <ele>105</ele>
        <time>2017-04-30T06:42:42Z</time>
      </trkpt>
      <trkpt lat="47.87122" lon="2.12335">
        <ele>105</ele>
        <time>2017-04-30T06:42:44Z</time>
      </trkpt>
      <trkpt lat="47.87128" lon="2.12315">
        <ele>104</ele>
        <time>2017-04-30T06:42:46Z</time>
      </trkpt>
      <trkpt lat="47.87132" lon="2.12294">
        <ele>104</ele>
        <time>2017-04-30T06:42:48Z</time>
      </trkpt>
      <trkpt lat="47.87134" lon="2.12273">
        <ele>103</ele>
        <time>2017-04-30T06:42:50Z</time>
      </trkpt>
      <trkpt lat="47.87135" lon="2.12253">
        <ele>104</ele>
        <time>2017-04-30T06:42:52Z</time>
      </trkpt>
      <trkpt lat="47.87135" lon="2.12233">
        <ele>104</ele>
        <time>2017-04-30T06:42:54Z</time>
      </trkpt>
      <trkpt lat="47.87136" lon="2.12215">
        <ele>105</ele>
        <time>2017-04-30T06:42:56Z</time>
      </trkpt>
      <trkpt lat="47.87138" lon="2.12198">
        <ele>106</ele>
        <time>2017-04-30T06:42:58Z</time>
      </trkpt>
      <trkpt lat="47.8714" lon="2.12182">
        <ele>107</ele>
        <time>2017-04-30T06:43:00Z</time>
      </trkpt>
      <trkpt lat="47.87143" lon="2.12167">
        <ele>107</ele>
        <time>2017-04-30T06:43:02Z</time>
      </trkpt>
      <trkpt lat="47.87146" lon="2.12151">
        <ele>108</ele>
        <time>2017-04-30T06:43:04Z</time>
      </trkpt>
      <trkpt lat="47.8715" lon="2.12136">
        <ele>109</ele>
        <time>2017-04-30T06:43:06Z</time>
      </trkpt>
      <trkpt lat="47.8715" lon="2.12136">
        <ele>109</ele>
        <time>2017-04-30T06:43:08Z</time>
      </trkpt>
      <trkpt lat="47.8715" lon="2.12136">
        <ele>109</ele>
        <time>2017-04-30T06:43:10Z</time>
      </trkpt>
      <trkpt lat="47.8715" lon="2.12136">
        <ele>109</ele>
        <time>2017-04-30T06:43:12Z</time>
      </trkpt>
      <trkpt lat="47.8715" lon="2.12136">
        <ele>109</ele>
        <time>2017-04-30T06:43:14Z</time>
      </trkpt>
      <trkpt lat="47.8715" lon="2.12136">
        <ele>109</ele>
        <time>2017-04-30T06:43:16Z</time>
      </trkpt>
      <trkpt lat="47.8715" lon="2.12136">
        <ele>109</ele>
        <time>2017-04-30T06:43:18Z</time>
      </trkpt>
      <trkpt lat="47.87177" lon="2.12017">
        <ele>112</ele>
        <time>2017-04-30T06:43:24Z</time>
      </trkpt>
      <trkpt lat="47.87179" lon="2.12004">
        <ele>112</ele>
        <time>2017-04-30T06:43:26Z</time>
      </trkpt>
      <trkpt lat="47.87183" lon="2.11991">
        <ele>112</ele>
        <time>2017-04-30T06:43:28Z</time>
      </trkpt>
      <trkpt lat="47.87186" lon="2.11978">
        <ele>112</ele>
        <time>2017-04-30T06:43:30Z</time>
      </trkpt>
      <trkpt lat="47.87189" lon="2.11965">
        <ele>112</ele>
        <time>2017-04-30T06:43:32Z</time>
      </trkpt>
      <trkpt lat="47.87192" lon="2.11952">
        <ele>112</ele>
        <time>2017-04-30T06:43:34Z</time>
      </trkpt>
      <trkpt lat="47.87192" lon="2.11952">
        <ele>112</ele>
        <time>2017-04-30T06:43:36Z</time>
      </trkpt>
      <trkpt lat="47.87192" lon="2.11952">
        <ele>112</ele>
        <time>2017-04-30T06:43:38Z</time>
      </trkpt>
      <trkpt lat="47.87192" lon="2.11952">
        <ele>112</ele>
        <time>2017-04-30T06:43:40Z</time>
      </trkpt>
      <trkpt lat="47.87192" lon="2.11952">
        <ele>112</ele>
        <time>2017-04-30T06:43:42Z</time>
      </trkpt>
      <trkpt lat="47.87192" lon="2.11952">
        <ele>112</ele>
        <time>2017-04-30T06:43:44Z</time>
      </trkpt>
      <trkpt lat="47.87192" lon="2.11952">
        <ele>112</ele>
        <time>2017-04-30T06:43:46Z</time>
      </trkpt>
      <trkpt lat="47.87214" lon="2.11868">
        <ele>111</ele>
        <time>2017-04-30T06:43:52Z</time>
      </trkpt>
      <trkpt lat="47.87217" lon="2.11854">
        <ele>111</ele>
        <time>2017-04-30T06:43:54Z</time>
      </trkpt>
      <trkpt lat="47.87222" lon="2.11842">
        <ele>111</ele>
        <time>2017-04-30T06:43:56Z</time>
      </trkpt>
      <trkpt lat="47.87226" lon="2.11829">
        <ele>111</ele>
        <time>2017-04-30T06:43:58Z</time>
      </trkpt>
      <trkpt lat="47.8723" lon="2.11817">
        <ele>111</ele>
        <time>2017-04-30T06:44:00Z</time>
      </trkpt>
      <trkpt lat="47.87234" lon="2.11805">
        <ele>111</ele>
        <time>2017-04-30T06:44:02Z</time>
      </trkpt>
      <trkpt lat="47.87234" lon="2.11805">
        <ele>111</ele>
        <time>2017-04-30T06:44:04Z</time>
      </trkpt>
      <trkpt lat="47.87247" lon="2.11767">
        <ele>111</ele>
        <time>2017-04-30T06:44:08Z</time>
      </trkpt>
      <trkpt lat="47.87251" lon="2.11754">
        <ele>110</ele>
        <time>2017-04-30T06:44:10Z</time>
      </trkpt>
      <trkpt lat="47.87254" lon="2.11741">
        <ele>110</ele>
        <time>2017-04-30T06:44:12Z</time>
      </trkpt>
      <trkpt lat="47.87259" lon="2.11729">
        <ele>110</ele>
        <time>2017-04-30T06:44:14Z</time>
      </trkpt>
      <trkpt lat="47.87262" lon="2.11715">
        <ele>110</ele>
        <time>2017-04-30T06:44:16Z</time>
      </trkpt>
      <trkpt lat="47.87266" lon="2.11702">
        <ele>111</ele>
        <time>2017-04-30T06:44:18Z</time>
      </trkpt>
      <trkpt lat="47.87271" lon="2.11689">
        <ele>111</ele>
        <time>2017-04-30T06:44:20Z</time>
      </trkpt>
      <trkpt lat="47.87275" lon="2.11677">
        <ele>111</ele>
        <time>2017-04-30T06:44:22Z</time>
      </trkpt>
      <trkpt lat="47.87275" lon="2.11677">
        <ele>111</ele>
        <time>2017-04-30T06:44:24Z</time>
      </trkpt>
      <trkpt lat="47.87275" lon="2.11677">
        <ele>111</ele>
        <time>2017-04-30T06:44:26Z</time>
      </trkpt>
      <trkpt lat="47.87275" lon="2.11677">
        <ele>111</ele>
        <time>2017-04-30T06:44:34Z</time>
      </trkpt>
      <trkpt lat="47.8732" lon="2.11585">
        <ele>112</ele>
        <time>2017-04-30T06:44:38Z</time>
      </trkpt>
      <trkpt lat="47.87327" lon="2.11576">
        <ele>112</ele>
        <time>2017-04-30T06:44:40Z</time>
      </trkpt>
      <trkpt lat="47.87336" lon="2.11566">
        <ele>111</ele>
        <time>2017-04-30T06:44:42Z</time>
      </trkpt>
      <trkpt lat="47.87344" lon="2.11558">
        <ele>111</ele>
        <time>2017-04-30T06:44:44Z</time>
      </trkpt>
      <trkpt lat="47.87353" lon="2.11548">
        <ele>112</ele>
        <time>2017-04-30T06:44:46Z</time>
      </trkpt>
      <trkpt lat="47.87362" lon="2.1154">
        <ele>112</ele>
        <time>2017-04-30T06:44:48Z</time>
      </trkpt>
      <trkpt lat="47.8737" lon="2.11531">
        <ele>111</ele>
        <time>2017-04-30T06:44:50Z</time>
      </trkpt>
      <trkpt lat="47.8737" lon="2.11531">
        <ele>111</ele>
        <time>2017-04-30T06:44:52Z</time>
      </trkpt>
      <trkpt lat="47.8737" lon="2.11531">
        <ele>111</ele>
        <time>2017-04-30T06:44:54Z</time>
      </trkpt>
      <trkpt lat="47.8737" lon="2.11531">
        <ele>111</ele>
        <time>2017-04-30T06:44:56Z</time>
      </trkpt>
      <trkpt lat="47.8737" lon="2.11531">
        <ele>111</ele>
        <time>2017-04-30T06:44:58Z</time>
      </trkpt>
      <trkpt lat="47.8737" lon="2.11531">
        <ele>111</ele>
        <time>2017-04-30T06:45:00Z</time>
      </trkpt>
      <trkpt lat="47.8737" lon="2.11531">
        <ele>111</ele>
        <time>2017-04-30T06:45:02Z</time>
      </trkpt>
      <trkpt lat="47.8737" lon="2.11531">
        <ele>111</ele>
        <time>2017-04-30T06:45:04Z</time>
      </trkpt>
      <trkpt lat="47.874" lon="2.11504">
        <ele>112</ele>
        <time>2017-04-30T06:45:08Z</time>
      </trkpt>
      <trkpt lat="47.87417" lon="2.11484">
        <ele>112</ele>
        <time>2017-04-30T06:45:10Z</time>
      </trkpt>
      <trkpt lat="47.87427" lon="2.11468">
        <ele>112</ele>
        <time>2017-04-30T06:45:12Z</time>
      </trkpt>
      <trkpt lat="47.87435" lon="2.11454">
        <ele>112</ele>
        <time>2017-04-30T06:45:14Z</time>
      </trkpt>
      <trkpt lat="47.87442" lon="2.11442">
        <ele>112</ele>
        <time>2017-04-30T06:45:16Z</time>
      </trkpt>
      <trkpt lat="47.87455" lon="2.11419">
        <ele>112</ele>
        <time>2017-04-30T06:45:18Z</time>
      </trkpt>
      <trkpt lat="47.87461" lon="2.11409">
        <ele>112</ele>
        <time>2017-04-30T06:45:20Z</time>
      </trkpt>
      <trkpt lat="47.87467" lon="2.11399">
        <ele>112</ele>
        <time>2017-04-30T06:45:22Z</time>
      </trkpt>
      <trkpt lat="47.87474" lon="2.11389">
        <ele>112</ele>
        <time>2017-04-30T06:45:24Z</time>
      </trkpt>
      <trkpt lat="47.87481" lon="2.11378">
        <ele>112</ele>
        <time>2017-04-30T06:45:26Z</time>
      </trkpt>
      <trkpt lat="47.87487" lon="2.11367">
        <ele>112</ele>
        <time>2017-04-30T06:45:28Z</time>
      </trkpt>
      <trkpt lat="47.87494" lon="2.11357">
        <ele>112</ele>
        <time>2017-04-30T06:45:30Z</time>
      </trkpt>
      <trkpt lat="47.87502" lon="2.11347">
        <ele>113</ele>
        <time>2017-04-30T06:45:32Z</time>
      </trkpt>
      <trkpt lat="47.87509" lon="2.11336">
        <ele>113</ele>
        <time>2017-04-30T06:45:34Z</time>
      </trkpt>
      <trkpt lat="47.87516" lon="2.11325">
        <ele>113</ele>
        <time>2017-04-30T06:45:36Z</time>
      </trkpt>
      <trkpt lat="47.87523" lon="2.11314">
        <ele>113</ele>
        <time>2017-04-30T06:45:38Z</time>
      </trkpt>
      <trkpt lat="47.87531" lon="2.11302">
        <ele>113</ele>
        <time>2017-04-30T06:45:40Z</time>
      </trkpt>
      <trkpt lat="47.87538" lon="2.11291">
        <ele>113</ele>
        <time>2017-04-30T06:45:42Z</time>
      </trkpt>
      <trkpt lat="47.87545" lon="2.11279">
        <ele>113</ele>
        <time>2017-04-30T06:45:44Z</time>
      </trkpt>
      <trkpt lat="47.87545" lon="2.11279">
        <ele>113</ele>
        <time>2017-04-30T06:45:46Z</time>
      </trkpt>
      <trkpt lat="47.87545" lon="2.11279">
        <ele>113</ele>
        <time>2017-04-30T06:45:48Z</time>
      </trkpt>
      <trkpt lat="47.87545" lon="2.11279">
        <ele>113</ele>
        <time>2017-04-30T06:45:50Z</time>
      </trkpt>
      <trkpt lat="47.87545" lon="2.11279">
        <ele>113</ele>
        <time>2017-04-30T06:45:52Z</time>
      </trkpt>
      <trkpt lat="47.87545" lon="2.11279">
        <ele>113</ele>
        <time>2017-04-30T06:45:54Z</time>
      </trkpt>
      <trkpt lat="47.87545" lon="2.11279">
        <ele>113</ele>
        <time>2017-04-30T06:45:56Z</time>
      </trkpt>
      <trkpt lat="47.87545" lon="2.11279">
        <ele>113</ele>
        <time>2017-04-30T06:45:58Z</time>
      </trkpt>
      <trkpt lat="47.87545" lon="2.11279">
        <ele>113</ele>
        <time>2017-04-30T06:46:00Z</time>
      </trkpt>
      <trkpt lat="47.87545" lon="2.11279">
        <ele>113</ele>
        <time>2017-04-30T06:46:02Z</time>
      </trkpt>
      <trkpt lat="47.87545" lon="2.11279">
        <ele>113</ele>
        <time>2017-04-30T06:46:04Z</time>
      </trkpt>
      <trkpt lat="47.87545" lon="2.11279">
        <ele>113</ele>
        <time>2017-04-30T06:46:06Z</time>
      </trkpt>
      <trkpt lat="47.87545" lon="2.11279">
        <ele>113</ele>
        <time>2017-04-30T06:46:08Z</time>
      </trkpt>
      <trkpt lat="47.87611" lon="2.11133">
        <ele>112</ele>
        <time>2017-04-30T06:46:12Z</time>
      </trkpt>
      <trkpt lat="47.87614" lon="2.11117">
        <ele>112</ele>
        <time>2017-04-30T06:46:14Z</time>
      </trkpt>
      <trkpt lat="47.87616" lon="2.11102">
        <ele>112</ele>
        <time>2017-04-30T06:46:16Z</time>
      </trkpt>
      <trkpt lat="47.87619" lon="2.11085">
        <ele>112</ele>
        <time>2017-04-30T06:46:18Z</time>
      </trkpt>
      <trkpt lat="47.87622" lon="2.11068">
        <ele>112</ele>
        <time>2017-04-30T06:46:20Z</time>
      </trkpt>
      <trkpt lat="47.87626" lon="2.11051">
        <ele>112</ele>
        <time>2017-04-30T06:46:22Z</time>
      </trkpt>
      <trkpt lat="47.87629" lon="2.11034">
        <ele>111</ele>
        <time>2017-04-30T06:46:24Z</time>
      </trkpt>
      <trkpt lat="47.87633" lon="2.11017">
        <ele>111</ele>
        <time>2017-04-30T06:46:26Z</time>
      </trkpt>
      <trkpt lat="47.87636" lon="2.11">
        <ele>111</ele>
        <time>2017-04-30T06:46:28Z</time>
      </trkpt>
      <trkpt lat="47.8764" lon="2.10983">
        <ele>111</ele>
        <time>2017-04-30T06:46:30Z</time>
      </trkpt>
      <trkpt lat="47.87644" lon="2.10967">
        <ele>111</ele>
        <time>2017-04-30T06:46:32Z</time>
      </trkpt>
      <trkpt lat="47.87644" lon="2.10967">
        <ele>111</ele>
        <time>2017-04-30T06:46:34Z</time>
      </trkpt>
      <trkpt lat="47.87644" lon="2.10967">
        <ele>111</ele>
        <time>2017-04-30T06:46:36Z</time>
      </trkpt>
      <trkpt lat="47.87644" lon="2.10967">
        <ele>111</ele>
        <time>2017-04-30T06:46:38Z</time>
      </trkpt>
      <trkpt lat="47.87644" lon="2.10967">
        <ele>111</ele>
        <time>2017-04-30T06:46:40Z</time>
      </trkpt>
      <trkpt lat="47.87644" lon="2.10967">
        <ele>111</ele>
        <time>2017-04-30T06:46:42Z</time>
      </trkpt>
      <trkpt lat="47.87655" lon="2.10969">
        <ele>111</ele>
        <time>2017-04-30T06:46:54Z</time>
      </trkpt>
      <trkpt lat="47.87663" lon="2.10957">
        <ele>111</ele>
        <time>2017-04-30T06:46:58Z</time>
      </trkpt>
      <trkpt lat="47.87677" lon="2.10949">
        <ele>111</ele>
        <time>2017-04-30T06:47:02Z</time>
      </trkpt>
      <trkpt lat="47.87677" lon="2.10949">
        <ele>111</ele>
        <time>2017-04-30T06:47:04Z</time>
      </trkpt>
      <trkpt lat="47.87692" lon="2.10943">
        <ele>112</ele>
        <time>2017-04-30T06:47:06Z</time>
      </trkpt>
      <trkpt lat="47.87692" lon="2.10943">
        <ele>112</ele>
        <time>2017-04-30T06:47:08Z</time>
      </trkpt>
      <trkpt lat="47.87692" lon="2.10943">
        <ele>112</ele>
        <time>2017-04-30T06:47:10Z</time>
      </trkpt>
      <trkpt lat="47.87692" lon="2.10943">
        <ele>112</ele>
        <time>2017-04-30T06:47:12Z</time>
      </trkpt>
      <trkpt lat="47.87692" lon="2.10943">
        <ele>112</ele>
        <time>2017-04-30T06:47:14Z</time>
      </trkpt>
      <trkpt lat="47.87712" lon="2.10936">
        <ele>116</ele>
        <time>2017-04-30T06:47:18Z</time>
      </trkpt>
      <trkpt lat="47.87728" lon="2.1093">
        <ele>117</ele>
        <time>2017-04-30T06:47:20Z</time>
      </trkpt>
      <trkpt lat="47.87739" lon="2.10926">
        <ele>117</ele>
        <time>2017-04-30T06:47:22Z</time>
      </trkpt>
      <trkpt lat="47.87749" lon="2.10922">
        <ele>117</ele>
        <time>2017-04-30T06:47:24Z</time>
      </trkpt>
      <trkpt lat="47.87759" lon="2.1092">
        <ele>116</ele>
        <time>2017-04-30T06:47:26Z</time>
      </trkpt>
      <trkpt lat="47.87777" lon="2.10916">
        <ele>116</ele>
        <time>2017-04-30T06:47:28Z</time>
      </trkpt>
      <trkpt lat="47.87777" lon="2.10916">
        <ele>116</ele>
        <time>2017-04-30T06:47:34Z</time>
      </trkpt>
      <trkpt lat="47.87777" lon="2.10916">
        <ele>116</ele>
        <time>2017-04-30T06:47:36Z</time>
      </trkpt>
      <trkpt lat="47.87777" lon="2.10916">
        <ele>116</ele>
        <time>2017-04-30T06:47:38Z</time>
      </trkpt>
      <trkpt lat="47.87777" lon="2.10916">
        <ele>116</ele>
        <time>2017-04-30T06:47:40Z</time>
      </trkpt>
      <trkpt lat="47.87777" lon="2.10916">
        <ele>116</ele>
        <time>2017-04-30T06:47:42Z</time>
      </trkpt>
      <trkpt lat="47.87848" lon="2.10893">
        <ele>116</ele>
        <time>2017-04-30T06:47:46Z</time>
      </trkpt>
      <trkpt lat="47.87861" lon="2.10881">
        <ele>117</ele>
        <time>2017-04-30T06:47:50Z</time>
      </trkpt>
      <trkpt lat="47.87861" lon="2.10881">
        <ele>117</ele>
        <time>2017-04-30T06:47:52Z</time>
      </trkpt>
      <trkpt lat="47.87861" lon="2.10881">
        <ele>117</ele>
        <time>2017-04-30T06:47:54Z</time>
      </trkpt>
      <trkpt lat="47.87861" lon="2.10881">
        <ele>117</ele>
        <time>2017-04-30T06:47:56Z</time>
      </trkpt>
      <trkpt lat="47.87861" lon="2.10881">
        <ele>117</ele>
        <time>2017-04-30T06:47:58Z</time>
      </trkpt>
      <trkpt lat="47.87884" lon="2.10844">
        <ele>119</ele>
        <time>2017-04-30T06:48:04Z</time>
      </trkpt>
      <trkpt lat="47.87894" lon="2.10833">
        <ele>119</ele>
        <time>2017-04-30T06:48:08Z</time>
      </trkpt>
      <trkpt lat="47.87905" lon="2.10822">
        <ele>118</ele>
        <time>2017-04-30T06:48:12Z</time>
      </trkpt>
      <trkpt lat="47.87915" lon="2.1081">
        <ele>117</ele>
        <time>2017-04-30T06:48:16Z</time>
      </trkpt>
      <trkpt lat="47.87924" lon="2.10794">
        <ele>117</ele>
        <time>2017-04-30T06:48:20Z</time>
      </trkpt>
      <trkpt lat="47.87933" lon="2.10779">
        <ele>118</ele>
        <time>2017-04-30T06:48:24Z</time>
      </trkpt>
      <trkpt lat="47.87933" lon="2.10779">
        <ele>118</ele>
        <time>2017-04-30T06:48:26Z</time>
      </trkpt>
      <trkpt lat="47.87933" lon="2.10779">
        <ele>118</ele>
        <time>2017-04-30T06:48:28Z</time>
      </trkpt>
      <trkpt lat="47.87973" lon="2.10743">
        <ele>119</ele>
        <time>2017-04-30T06:48:38Z</time>
      </trkpt>
      <trkpt lat="47.87973" lon="2.10743">
        <ele>119</ele>
        <time>2017-04-30T06:48:40Z</time>
      </trkpt>
      <trkpt lat="47.87973" lon="2.10743">
        <ele>119</ele>
        <time>2017-04-30T06:48:42Z</time>
      </trkpt>
      <trkpt lat="47.87973" lon="2.10743">
        <ele>119</ele>
        <time>2017-04-30T06:48:44Z</time>
      </trkpt>
      <trkpt lat="47.87973" lon="2.10743">
        <ele>119</ele>
        <time>2017-04-30T06:48:46Z</time>
      </trkpt>
      <trkpt lat="47.87973" lon="2.10743">
        <ele>119</ele>
        <time>2017-04-30T06:48:48Z</time>
      </trkpt>
      <trkpt lat="47.8801" lon="2.10735">
        <ele>119</ele>
        <time>2017-04-30T06:49:12Z</time>
      </trkpt>
      <trkpt lat="47.88022" lon="2.10734">
        <ele>120</ele>
        <time>2017-04-30T06:49:15Z</time>
      </trkpt>
      <trkpt lat="47.88032" lon="2.10733">
        <ele>120</ele>
        <time>2017-04-30T06:49:17Z</time>
      </trkpt>
      <trkpt lat="47.88041" lon="2.10732">
        <ele>120</ele>
        <time>2017-04-30T06:49:19Z</time>
      </trkpt>
      <trkpt lat="47.88051" lon="2.10731">
        <ele>120</ele>
        <time>2017-04-30T06:49:21Z</time>
      </trkpt>
      <trkpt lat="47.88062" lon="2.10729">
        <ele>119</ele>
        <time>2017-04-30T06:49:23Z</time>
      </trkpt>
      <trkpt lat="47.88073" lon="2.10728">
        <ele>118</ele>
        <time>2017-04-30T06:49:25Z</time>
      </trkpt>
      <trkpt lat="47.88084" lon="2.10727">
        <ele>118</ele>
        <time>2017-04-30T06:49:27Z</time>
      </trkpt>
      <trkpt lat="47.88095" lon="2.10726">
        <ele>118</ele>
        <time>2017-04-30T06:49:29Z</time>
      </trkpt>
      <trkpt lat="47.88106" lon="2.10724">
        <ele>118</ele>
        <time>2017-04-30T06:49:31Z</time>
      </trkpt>
      <trkpt lat="47.88117" lon="2.10722">
        <ele>118</ele>
        <time>2017-04-30T06:49:33Z</time>
      </trkpt>
      <trkpt lat="47.88128" lon="2.1072">
        <ele>118</ele>
        <time>2017-04-30T06:49:35Z</time>
      </trkpt>
      <trkpt lat="47.88138" lon="2.10719">
        <ele>118</ele>
        <time>2017-04-30T06:49:37Z</time>
      </trkpt>
      <trkpt lat="47.88138" lon="2.10719">
        <ele>118</ele>
        <time>2017-04-30T06:49:39Z</time>
      </trkpt>
      <trkpt lat="47.88138" lon="2.10719">
        <ele>118</ele>
        <time>2017-04-30T06:49:41Z</time>
      </trkpt>
      <trkpt lat="47.88138" lon="2.10719">
        <ele>118</ele>
        <time>2017-04-30T06:49:43Z</time>
      </trkpt>
      <trkpt lat="47.882" lon="2.10701">
        <ele>118</ele>
        <time>2017-04-30T06:49:49Z</time>
      </trkpt>
      <trkpt lat="47.88208" lon="2.10693">
        <ele>117</ele>
        <time>2017-04-30T06:49:51Z</time>
      </trkpt>
      <trkpt lat="47.88216" lon="2.10683">
        <ele>117</ele>
        <time>2017-04-30T06:49:53Z</time>
      </trkpt>
      <trkpt lat="47.88225" lon="2.10673">
        <ele>117</ele>
        <time>2017-04-30T06:49:55Z</time>
      </trkpt>
      <trkpt lat="47.88232" lon="2.10662">
        <ele>117</ele>
        <time>2017-04-30T06:49:57Z</time>
      </trkpt>
      <trkpt lat="47.8824" lon="2.10651">
        <ele>117</ele>
        <time>2017-04-30T06:49:59Z</time>
      </trkpt>
      <trkpt lat="47.88248" lon="2.1064">
        <ele>117</ele>
        <time>2017-04-30T06:50:01Z</time>
      </trkpt>
      <trkpt lat="47.88255" lon="2.10629">
        <ele>117</ele>
        <time>2017-04-30T06:50:03Z</time>
      </trkpt>
      <trkpt lat="47.88263" lon="2.10618">
        <ele>117</ele>
        <time>2017-04-30T06:50:05Z</time>
      </trkpt>
      <trkpt lat="47.88271" lon="2.10607">
        <ele>117</ele>
        <time>2017-04-30T06:50:07Z</time>
      </trkpt>
      <trkpt lat="47.88279" lon="2.10596">
        <ele>117</ele>
        <time>2017-04-30T06:50:09Z</time>
      </trkpt>
      <trkpt lat="47.88287" lon="2.10584">
        <ele>117</ele>
        <time>2017-04-30T06:50:11Z</time>
      </trkpt>
      <trkpt lat="47.88295" lon="2.10573">
        <ele>117</ele>
        <time>2017-04-30T06:50:13Z</time>
      </trkpt>
      <trkpt lat="47.88295" lon="2.10573">
        <ele>117</ele>
        <time>2017-04-30T06:50:15Z</time>
      </trkpt>
      <trkpt lat="47.88295" lon="2.10573">
        <ele>117</ele>
        <time>2017-04-30T06:50:17Z</time>
      </trkpt>
      <trkpt lat="47.88295" lon="2.10573">
        <ele>117</ele>
        <time>2017-04-30T06:50:19Z</time>
      </trkpt>
      <trkpt lat="47.88295" lon="2.10573">
        <ele>117</ele>
        <time>2017-04-30T06:50:21Z</time>
      </trkpt>
      <trkpt lat="47.88348" lon="2.10516">
        <ele>116</ele>
        <time>2017-04-30T06:50:25Z</time>
      </trkpt>
      <trkpt lat="47.88358" lon="2.10508">
        <ele>116</ele>
        <time>2017-04-30T06:50:27Z</time>
      </trkpt>
      <trkpt lat="47.88368" lon="2.10502">
        <ele>115</ele>
        <time>2017-04-30T06:50:29Z</time>
      </trkpt>
      <trkpt lat="47.88379" lon="2.10495">
        <ele>115</ele>
        <time>2017-04-30T06:50:31Z</time>
      </trkpt>
      <trkpt lat="47.8839" lon="2.10488">
        <ele>115</ele>
        <time>2017-04-30T06:50:33Z</time>
      </trkpt>
      <trkpt lat="47.884" lon="2.10481">
        <ele>114</ele>
        <time>2017-04-30T06:50:35Z</time>
      </trkpt>
      <trkpt lat="47.8841" lon="2.10474">
        <ele>114</ele>
        <time>2017-04-30T06:50:37Z</time>
      </trkpt>
      <trkpt lat="47.8842" lon="2.10466">
        <ele>114</ele>
        <time>2017-04-30T06:50:39Z</time>
      </trkpt>
      <trkpt lat="47.8843" lon="2.10458">
        <ele>114</ele>
        <time>2017-04-30T06:50:41Z</time>
      </trkpt>
      <trkpt lat="47.8844" lon="2.1045">
        <ele>114</ele>
        <time>2017-04-30T06:50:43Z</time>
      </trkpt>
      <trkpt lat="47.8845" lon="2.10443">
        <ele>114</ele>
        <time>2017-04-30T06:50:45Z</time>
      </trkpt>
      <trkpt lat="47.8846" lon="2.10438">
        <ele>114</ele>
        <time>2017-04-30T06:50:47Z</time>
      </trkpt>
      <trkpt lat="47.8847" lon="2.10435">
        <ele>114</ele>
        <time>2017-04-30T06:50:49Z</time>
      </trkpt>
      <trkpt lat="47.88481" lon="2.10433">
        <ele>114</ele>
        <time>2017-04-30T06:50:51Z</time>
      </trkpt>
      <trkpt lat="47.88492" lon="2.10428">
        <ele>114</ele>
        <time>2017-04-30T06:50:53Z</time>
      </trkpt>
      <trkpt lat="47.88503" lon="2.10422">
        <ele>114</ele>
        <time>2017-04-30T06:50:55Z</time>
      </trkpt>
      <trkpt lat="47.88513" lon="2.10415">
        <ele>114</ele>
        <time>2017-04-30T06:50:57Z</time>
      </trkpt>
      <trkpt lat="47.88523" lon="2.10408">
        <ele>114</ele>
        <time>2017-04-30T06:50:59Z</time>
      </trkpt>
      <trkpt lat="47.88534" lon="2.10402">
        <ele>114</ele>
        <time>2017-04-30T06:51:01Z</time>
      </trkpt>
      <trkpt lat="47.88545" lon="2.10395">
        <ele>114</ele>
        <time>2017-04-30T06:51:03Z</time>
      </trkpt>
      <trkpt lat="47.88555" lon="2.10388">
        <ele>114</ele>
        <time>2017-04-30T06:51:05Z</time>
      </trkpt>
      <trkpt lat="47.88566" lon="2.10382">
        <ele>114</ele>
        <time>2017-04-30T06:51:07Z</time>
      </trkpt>
      <trkpt lat="47.88577" lon="2.10374">
        <ele>114</ele>
        <time>2017-04-30T06:51:09Z</time>
      </trkpt>
      <trkpt lat="47.88587" lon="2.10367">
        <ele>114</ele>
        <time>2017-04-30T06:51:11Z</time>
      </trkpt>
      <trkpt lat="47.88597" lon="2.1036">
        <ele>114</ele>
        <time>2017-04-30T06:51:13Z</time>
      </trkpt>
      <trkpt lat="47.88608" lon="2.10352">
        <ele>114</ele>
        <time>2017-04-30T06:51:15Z</time>
      </trkpt>
      <trkpt lat="47.88619" lon="2.10345">
        <ele>114</ele>
        <time>2017-04-30T06:51:17Z</time>
      </trkpt>
      <trkpt lat="47.8863" lon="2.10338">
        <ele>114</ele>
        <time>2017-04-30T06:51:19Z</time>
      </trkpt>
      <trkpt lat="47.88641" lon="2.1033">
        <ele>114</ele>
        <time>2017-04-30T06:51:21Z</time>
      </trkpt>
      <trkpt lat="47.88651" lon="2.10323">
        <ele>114</ele>
        <time>2017-04-30T06:51:23Z</time>
      </trkpt>
      <trkpt lat="47.88662" lon="2.10315">
        <ele>114</ele>
        <time>2017-04-30T06:51:25Z</time>
      </trkpt>
      <trkpt lat="47.88674" lon="2.10308">
        <ele>114</ele>
        <time>2017-04-30T06:51:27Z</time>
      </trkpt>
      <trkpt lat="47.88685" lon="2.10301">
        <ele>115</ele>
        <time>2017-04-30T06:51:29Z</time>
      </trkpt>
      <trkpt lat="47.88697" lon="2.10294">
        <ele>115</ele>
        <time>2017-04-30T06:51:31Z</time>
      </trkpt>
      <trkpt lat="47.88708" lon="2.10287">
        <ele>115</ele>
        <time>2017-04-30T06:51:33Z</time>
      </trkpt>
      <trkpt lat="47.8872" lon="2.10281">
        <ele>114</ele>
        <time>2017-04-30T06:51:35Z</time>
      </trkpt>
      <trkpt lat="47.88731" lon="2.10275">
        <ele>114</ele>
        <time>2017-04-30T06:51:37Z</time>
      </trkpt>
      <trkpt lat="47.88743" lon="2.1027">
        <ele>115</ele>
        <time>2017-04-30T06:51:39Z</time>
      </trkpt>
      <trkpt lat="47.88754" lon="2.10262">
        <ele>115</ele>
        <time>2017-04-30T06:51:41Z</time>
      </trkpt>
      <trkpt lat="47.88764" lon="2.10252">
        <ele>116</ele>
        <time>2017-04-30T06:51:43Z</time>
      </trkpt>
      <trkpt lat="47.88774" lon="2.10242">
        <ele>116</ele>
        <time>2017-04-30T06:51:45Z</time>
      </trkpt>
      <trkpt lat="47.88783" lon="2.1023">
        <ele>116</ele>
        <time>2017-04-30T06:51:47Z</time>
      </trkpt>
      <trkpt lat="47.88792" lon="2.10216">
        <ele>117</ele>
        <time>2017-04-30T06:51:49Z</time>
      </trkpt>
      <trkpt lat="47.88802" lon="2.10205">
        <ele>118</ele>
        <time>2017-04-30T06:51:51Z</time>
      </trkpt>
      <trkpt lat="47.88811" lon="2.10194">
        <ele>119</ele>
        <time>2017-04-30T06:51:53Z</time>
      </trkpt>
      <trkpt lat="47.88822" lon="2.10185">
        <ele>119</ele>
        <time>2017-04-30T06:51:55Z</time>
      </trkpt>
      <trkpt lat="47.88832" lon="2.10175">
        <ele>120</ele>
        <time>2017-04-30T06:51:57Z</time>
      </trkpt>
      <trkpt lat="47.88842" lon="2.10166">
        <ele>121</ele>
        <time>2017-04-30T06:51:59Z</time>
      </trkpt>
      <trkpt lat="47.88851" lon="2.10156">
        <ele>121</ele>
        <time>2017-04-30T06:52:01Z</time>
      </trkpt>
      <trkpt lat="47.88861" lon="2.10147">
        <ele>122</ele>
        <time>2017-04-30T06:52:03Z</time>
      </trkpt>
      <trkpt lat="47.88872" lon="2.10138">
        <ele>123</ele>
        <time>2017-04-30T06:52:05Z</time>
      </trkpt>
      <trkpt lat="47.88882" lon="2.10129">
        <ele>124</ele>
        <time>2017-04-30T06:52:07Z</time>
      </trkpt>
      <trkpt lat="47.88891" lon="2.1012">
        <ele>125</ele>
        <time>2017-04-30T06:52:09Z</time>
      </trkpt>
      <trkpt lat="47.889" lon="2.1011">
        <ele>126</ele>
        <time>2017-04-30T06:52:11Z</time>
      </trkpt>
      <trkpt lat="47.8891" lon="2.10101">
        <ele>127</ele>
        <time>2017-04-30T06:52:13Z</time>
      </trkpt>
      <trkpt lat="47.88919" lon="2.10092">
        <ele>128</ele>
        <time>2017-04-30T06:52:15Z</time>
      </trkpt>
      <trkpt lat="47.88929" lon="2.10082">
        <ele>129</ele>
        <time>2017-04-30T06:52:17Z</time>
      </trkpt>
      <trkpt lat="47.88939" lon="2.10073">
        <ele>130</ele>
        <time>2017-04-30T06:52:19Z</time>
      </trkpt>
      <trkpt lat="47.88948" lon="2.10062">
        <ele>131</ele>
        <time>2017-04-30T06:52:21Z</time>
      </trkpt>
      <trkpt lat="47.88959" lon="2.10052">
        <ele>132</ele>
        <time>2017-04-30T06:52:23Z</time>
      </trkpt>
      <trkpt lat="47.8897" lon="2.10041">
        <ele>133</ele>
        <time>2017-04-30T06:52:25Z</time>
      </trkpt>
      <trkpt lat="47.8898" lon="2.10031">
        <ele>134</ele>
        <time>2017-04-30T06:52:27Z</time>
      </trkpt>
      <trkpt lat="47.88989" lon="2.10022">
        <ele>135</ele>
        <time>2017-04-30T06:52:29Z</time>
      </trkpt>
      <trkpt lat="47.88998" lon="2.10013">
        <ele>137</ele>
        <time>2017-04-30T06:52:31Z</time>
      </trkpt>
      <trkpt lat="47.88998" lon="2.10013">
        <ele>137</ele>
        <time>2017-04-30T06:52:33Z</time>
      </trkpt>
      <trkpt lat="47.88998" lon="2.10013">
        <ele>137</ele>
        <time>2017-04-30T06:52:35Z</time>
      </trkpt>
      <trkpt lat="47.89037" lon="2.09975">
        <ele>140</ele>
        <time>2017-04-30T06:52:39Z</time>
      </trkpt>
      <trkpt lat="47.89046" lon="2.09965">
        <ele>142</ele>
        <time>2017-04-30T06:52:41Z</time>
      </trkpt>
      <trkpt lat="47.89057" lon="2.09954">
        <ele>142</ele>
        <time>2017-04-30T06:52:43Z</time>
      </trkpt>
      <trkpt lat="47.89068" lon="2.09944">
        <ele>143</ele>
        <time>2017-04-30T06:52:45Z</time>
      </trkpt>
      <trkpt lat="47.89079" lon="2.09934">
        <ele>143</ele>
        <time>2017-04-30T06:52:47Z</time>
      </trkpt>
      <trkpt lat="47.8909" lon="2.09926">
        <ele>144</ele>
        <time>2017-04-30T06:52:49Z</time>
      </trkpt>
      <trkpt lat="47.8909" lon="2.09926">
        <ele>144</ele>
        <time>2017-04-30T06:52:51Z</time>
      </trkpt>
      <trkpt lat="47.8909" lon="2.09926">
        <ele>144</ele>
        <time>2017-04-30T06:52:53Z</time>
      </trkpt>
      <trkpt lat="47.89131" lon="2.0989">
        <ele>144</ele>
        <time>2017-04-30T06:52:57Z</time>
      </trkpt>
      <trkpt lat="47.89131" lon="2.0989">
        <ele>144</ele>
        <time>2017-04-30T06:52:59Z</time>
      </trkpt>
      <trkpt lat="47.89131" lon="2.0989">
        <ele>144</ele>
        <time>2017-04-30T06:53:01Z</time>
      </trkpt>
      <trkpt lat="47.89131" lon="2.0989">
        <ele>144</ele>
        <time>2017-04-30T06:53:03Z</time>
      </trkpt>
      <trkpt lat="47.89171" lon="2.09855">
        <ele>145</ele>
        <time>2017-04-30T06:53:05Z</time>
      </trkpt>
      <trkpt lat="47.89182" lon="2.09844">
        <ele>145</ele>
        <time>2017-04-30T06:53:07Z</time>
      </trkpt>
      <trkpt lat="47.89193" lon="2.09836">
        <ele>146</ele>
        <time>2017-04-30T06:53:09Z</time>
      </trkpt>
      <trkpt lat="47.89204" lon="2.09827">
        <ele>147</ele>
        <time>2017-04-30T06:53:11Z</time>
      </trkpt>
      <trkpt lat="47.89215" lon="2.09816">
        <ele>148</ele>
        <time>2017-04-30T06:53:13Z</time>
      </trkpt>
      <trkpt lat="47.89227" lon="2.09806">
        <ele>148</ele>
        <time>2017-04-30T06:53:15Z</time>
      </trkpt>
      <trkpt lat="47.89237" lon="2.09801">
        <ele>149</ele>
        <time>2017-04-30T06:53:17Z</time>
      </trkpt>
      <trkpt lat="47.89237" lon="2.09801">
        <ele>149</ele>
        <time>2017-04-30T06:53:19Z</time>
      </trkpt>
      <trkpt lat="47.89237" lon="2.09801">
        <ele>149</ele>
        <time>2017-04-30T06:53:21Z</time>
      </trkpt>
      <trkpt lat="47.89237" lon="2.09801">
        <ele>149</ele>
        <time>2017-04-30T06:53:23Z</time>
      </trkpt>
      <trkpt lat="47.89237" lon="2.09801">
        <ele>149</ele>
        <time>2017-04-30T06:53:25Z</time>
      </trkpt>
      <trkpt lat="47.89237" lon="2.09801">
        <ele>149</ele>
        <time>2017-04-30T06:53:27Z</time>
      </trkpt>
      <trkpt lat="47.89241" lon="2.09742">
        <ele>139</ele>
        <time>2017-04-30T06:53:31Z</time>
      </trkpt>
      <trkpt lat="47.89232" lon="2.09734">
        <ele>138</ele>
        <time>2017-04-30T06:53:33Z</time>
      </trkpt>
      <trkpt lat="47.89222" lon="2.09726">
        <ele>137</ele>
        <time>2017-04-30T06:53:35Z</time>
      </trkpt>
      <trkpt lat="47.89212" lon="2.09718">
        <ele>135</ele>
        <time>2017-04-30T06:53:37Z</time>
      </trkpt>
      <trkpt lat="47.89202" lon="2.09711">
        <ele>135</ele>
        <time>2017-04-30T06:53:39Z</time>
      </trkpt>
      <trkpt lat="47.89191" lon="2.09703">
        <ele>135</ele>
        <time>2017-04-30T06:53:41Z</time>
      </trkpt>
      <trkpt lat="47.8918" lon="2.09694">
        <ele>133</ele>
        <time>2017-04-30T06:53:43Z</time>
      </trkpt>
      <trkpt lat="47.89169" lon="2.09685">
        <ele>133</ele>
        <time>2017-04-30T06:53:45Z</time>
      </trkpt>
      <trkpt lat="47.89158" lon="2.09676">
        <ele>133</ele>
        <time>2017-04-30T06:53:47Z</time>
      </trkpt>
      <trkpt lat="47.89148" lon="2.09665">
        <ele>130</ele>
        <time>2017-04-30T06:53:49Z</time>
      </trkpt>
      <trkpt lat="47.89137" lon="2.09655">
        <ele>129</ele>
        <time>2017-04-30T06:53:51Z</time>
      </trkpt>
      <trkpt lat="47.89125" lon="2.09646">
        <ele>128</ele>
        <time>2017-04-30T06:53:53Z</time>
      </trkpt>
      <trkpt lat="47.89114" lon="2.09637">
        <ele>127</ele>
        <time>2017-04-30T06:53:55Z</time>
      </trkpt>
      <trkpt lat="47.89103" lon="2.09627">
        <ele>125</ele>
        <time>2017-04-30T06:53:57Z</time>
      </trkpt>
      <trkpt lat="47.89091" lon="2.09618">
        <ele>124</ele>
        <time>2017-04-30T06:53:59Z</time>
      </trkpt>
      <trkpt lat="47.8908" lon="2.0961">
        <ele>122</ele>
        <time>2017-04-30T06:54:01Z</time>
      </trkpt>
      <trkpt lat="47.8907" lon="2.096">
        <ele>121</ele>
        <time>2017-04-30T06:54:03Z</time>
      </trkpt>
      <trkpt lat="47.89059" lon="2.09591">
        <ele>120</ele>
        <time>2017-04-30T06:54:05Z</time>
      </trkpt>
      <trkpt lat="47.89048" lon="2.09582">
        <ele>120</ele>
        <time>2017-04-30T06:54:07Z</time>
      </trkpt>
      <trkpt lat="47.89038" lon="2.09574">
        <ele>120</ele>
        <time>2017-04-30T06:54:09Z</time>
      </trkpt>
      <trkpt lat="47.89028" lon="2.09565">
        <ele>119</ele>
        <time>2017-04-30T06:54:11Z</time>
      </trkpt>
      <trkpt lat="47.89017" lon="2.09557">
        <ele>118</ele>
        <time>2017-04-30T06:54:13Z</time>
      </trkpt>
      <trkpt lat="47.89007" lon="2.09549">
        <ele>118</ele>
        <time>2017-04-30T06:54:15Z</time>
      </trkpt>
      <trkpt lat="47.88997" lon="2.0954">
        <ele>117</ele>
        <time>2017-04-30T06:54:17Z</time>
      </trkpt>
      <trkpt lat="47.88987" lon="2.09532">
        <ele>116</ele>
        <time>2017-04-30T06:54:19Z</time>
      </trkpt>
      <trkpt lat="47.88977" lon="2.09525">
        <ele>116</ele>
        <time>2017-04-30T06:54:21Z</time>
      </trkpt>
      <trkpt lat="47.88967" lon="2.09518">
        <ele>117</ele>
        <time>2017-04-30T06:54:23Z</time>
      </trkpt>
      <trkpt lat="47.88957" lon="2.0951">
        <ele>116</ele>
        <time>2017-04-30T06:54:25Z</time>
      </trkpt>
      <trkpt lat="47.88947" lon="2.09502">
        <ele>116</ele>
        <time>2017-04-30T06:54:27Z</time>
      </trkpt>
      <trkpt lat="47.88938" lon="2.09494">
        <ele>116</ele>
        <time>2017-04-30T06:54:29Z</time>
      </trkpt>
      <trkpt lat="47.88938" lon="2.09494">
        <ele>116</ele>
        <time>2017-04-30T06:54:31Z</time>
      </trkpt>
      <trkpt lat="47.88938" lon="2.09494">
        <ele>116</ele>
        <time>2017-04-30T06:54:33Z</time>
      </trkpt>
      <trkpt lat="47.88938" lon="2.09494">
        <ele>116</ele>
        <time>2017-04-30T06:54:35Z</time>
      </trkpt>
      <trkpt lat="47.88938" lon="2.09494">
        <ele>116</ele>
        <time>2017-04-30T06:54:37Z</time>
      </trkpt>
      <trkpt lat="47.88954" lon="2.09469">
        <ele>117</ele>
        <time>2017-04-30T06:54:41Z</time>
      </trkpt>
      <trkpt lat="47.88967" lon="2.09452">
        <ele>116</ele>
        <time>2017-04-30T06:54:43Z</time>
      </trkpt>
      <trkpt lat="47.88979" lon="2.09439">
        <ele>116</ele>
        <time>2017-04-30T06:54:45Z</time>
      </trkpt>
      <trkpt lat="47.8899" lon="2.09425">
        <ele>116</ele>
        <time>2017-04-30T06:54:47Z</time>
      </trkpt>
      <trkpt lat="47.89" lon="2.09411">
        <ele>116</ele>
        <time>2017-04-30T06:54:49Z</time>
      </trkpt>
      <trkpt lat="47.89016" lon="2.09382">
        <ele>116</ele>
        <time>2017-04-30T06:54:51Z</time>
      </trkpt>
      <trkpt lat="47.89025" lon="2.09367">
        <ele>116</ele>
        <time>2017-04-30T06:54:53Z</time>
      </trkpt>
      <trkpt lat="47.89034" lon="2.09353">
        <ele>118</ele>
        <time>2017-04-30T06:54:55Z</time>
      </trkpt>
      <trkpt lat="47.8904" lon="2.09337">
        <ele>119</ele>
        <time>2017-04-30T06:54:57Z</time>
      </trkpt>
      <trkpt lat="47.89047" lon="2.09321">
        <ele>120</ele>
        <time>2017-04-30T06:54:59Z</time>
      </trkpt>
      <trkpt lat="47.89054" lon="2.09306">
        <ele>121</ele>
        <time>2017-04-30T06:55:01Z</time>
      </trkpt>
      <trkpt lat="47.89062" lon="2.0929">
        <ele>122</ele>
        <time>2017-04-30T06:55:03Z</time>
      </trkpt>
      <trkpt lat="47.89071" lon="2.09274">
        <ele>122</ele>
        <time>2017-04-30T06:55:05Z</time>
      </trkpt>
      <trkpt lat="47.89078" lon="2.09257">
        <ele>123</ele>
        <time>2017-04-30T06:55:07Z</time>
      </trkpt>
      <trkpt lat="47.89086" lon="2.0924">
        <ele>124</ele>
        <time>2017-04-30T06:55:09Z</time>
      </trkpt>
      <trkpt lat="47.89093" lon="2.09224">
        <ele>125</ele>
        <time>2017-04-30T06:55:11Z</time>
      </trkpt>
      <trkpt lat="47.891" lon="2.09208">
        <ele>126</ele>
        <time>2017-04-30T06:55:13Z</time>
      </trkpt>
      <trkpt lat="47.89108" lon="2.09193">
        <ele>127</ele>
        <time>2017-04-30T06:55:15Z</time>
      </trkpt>
      <trkpt lat="47.89115" lon="2.09177">
        <ele>128</ele>
        <time>2017-04-30T06:55:17Z</time>
      </trkpt>
      <trkpt lat="47.89123" lon="2.09162">
        <ele>129</ele>
        <time>2017-04-30T06:55:19Z</time>
      </trkpt>
      <trkpt lat="47.89131" lon="2.09146">
        <ele>130</ele>
        <time>2017-04-30T06:55:21Z</time>
      </trkpt>
      <trkpt lat="47.89139" lon="2.0913">
        <ele>132</ele>
        <time>2017-04-30T06:55:23Z</time>
      </trkpt>
      <trkpt lat="47.89147" lon="2.09115">
        <ele>133</ele>
        <time>2017-04-30T06:55:25Z</time>
      </trkpt>
      <trkpt lat="47.89155" lon="2.09099">
        <ele>135</ele>
        <time>2017-04-30T06:55:27Z</time>
      </trkpt>
      <trkpt lat="47.89163" lon="2.09083">
        <ele>136</ele>
        <time>2017-04-30T06:55:29Z</time>
      </trkpt>
      <trkpt lat="47.89171" lon="2.09068">
        <ele>138</ele>
        <time>2017-04-30T06:55:31Z</time>
      </trkpt>
      <trkpt lat="47.89179" lon="2.09054">
        <ele>140</ele>
        <time>2017-04-30T06:55:33Z</time>
      </trkpt>
      <trkpt lat="47.89185" lon="2.09039">
        <ele>141</ele>
        <time>2017-04-30T06:55:35Z</time>
      </trkpt>
      <trkpt lat="47.89193" lon="2.09025">
        <ele>141</ele>
        <time>2017-04-30T06:55:37Z</time>
      </trkpt>
      <trkpt lat="47.89201" lon="2.09008">
        <ele>140</ele>
        <time>2017-04-30T06:55:39Z</time>
      </trkpt>
      <trkpt lat="47.89208" lon="2.08992">
        <ele>139</ele>
        <time>2017-04-30T06:55:41Z</time>
      </trkpt>
      <trkpt lat="47.89215" lon="2.08975">
        <ele>139</ele>
        <time>2017-04-30T06:55:43Z</time>
      </trkpt>
      <trkpt lat="47.89223" lon="2.08959">
        <ele>140</ele>
        <time>2017-04-30T06:55:45Z</time>
      </trkpt>
      <trkpt lat="47.89228" lon="2.08943">
        <ele>138</ele>
        <time>2017-04-30T06:55:47Z</time>
      </trkpt>
      <trkpt lat="47.89236" lon="2.08927">
        <ele>139</ele>
        <time>2017-04-30T06:55:49Z</time>
      </trkpt>
      <trkpt lat="47.89242" lon="2.08909">
        <ele>138</ele>
        <time>2017-04-30T06:55:51Z</time>
      </trkpt>
      <trkpt lat="47.89248" lon="2.08891">
        <ele>136</ele>
        <time>2017-04-30T06:55:53Z</time>
      </trkpt>
      <trkpt lat="47.89254" lon="2.08872">
        <ele>133</ele>
        <time>2017-04-30T06:55:55Z</time>
      </trkpt>
      <trkpt lat="47.8926" lon="2.08854">
        <ele>131</ele>
        <time>2017-04-30T06:55:57Z</time>
      </trkpt>
      <trkpt lat="47.89267" lon="2.08836">
        <ele>130</ele>
        <time>2017-04-30T06:55:59Z</time>
      </trkpt>
      <trkpt lat="47.89274" lon="2.08818">
        <ele>129</ele>
        <time>2017-04-30T06:56:01Z</time>
      </trkpt>
      <trkpt lat="47.89281" lon="2.088">
        <ele>127</ele>
        <time>2017-04-30T06:56:03Z</time>
      </trkpt>
      <trkpt lat="47.89288" lon="2.08782">
        <ele>126</ele>
        <time>2017-04-30T06:56:05Z</time>
      </trkpt>
      <trkpt lat="47.89295" lon="2.08764">
        <ele>125</ele>
        <time>2017-04-30T06:56:07Z</time>
      </trkpt>
      <trkpt lat="47.89302" lon="2.08746">
        <ele>125</ele>
        <time>2017-04-30T06:56:09Z</time>
      </trkpt>
      <trkpt lat="47.89308" lon="2.08729">
        <ele>124</ele>
        <time>2017-04-30T06:56:11Z</time>
      </trkpt>
      <trkpt lat="47.89315" lon="2.08711">
        <ele>124</ele>
        <time>2017-04-30T06:56:13Z</time>
      </trkpt>
      <trkpt lat="47.8932" lon="2.08693">
        <ele>122</ele>
        <time>2017-04-30T06:56:15Z</time>
      </trkpt>
      <trkpt lat="47.89327" lon="2.08676">
        <ele>122</ele>
        <time>2017-04-30T06:56:17Z</time>
      </trkpt>
      <trkpt lat="47.89334" lon="2.08659">
        <ele>122</ele>
        <time>2017-04-30T06:56:19Z</time>
      </trkpt>
      <trkpt lat="47.8934" lon="2.08643">
        <ele>122</ele>
        <time>2017-04-30T06:56:21Z</time>
      </trkpt>
      <trkpt lat="47.89346" lon="2.08626">
        <ele>122</ele>
        <time>2017-04-30T06:56:23Z</time>
      </trkpt>
      <trkpt lat="47.89352" lon="2.0861">
        <ele>122</ele>
        <time>2017-04-30T06:56:25Z</time>
      </trkpt>
      <trkpt lat="47.89358" lon="2.08594">
        <ele>122</ele>
        <time>2017-04-30T06:56:27Z</time>
      </trkpt>
      <trkpt lat="47.89364" lon="2.08576">
        <ele>122</ele>
        <time>2017-04-30T06:56:29Z</time>
      </trkpt>
      <trkpt lat="47.89371" lon="2.0856">
        <ele>123</ele>
        <time>2017-04-30T06:56:31Z</time>
      </trkpt>
      <trkpt lat="47.89377" lon="2.08544">
        <ele>123</ele>
        <time>2017-04-30T06:56:33Z</time>
      </trkpt>
      <trkpt lat="47.89384" lon="2.08529">
        <ele>124</ele>
        <time>2017-04-30T06:56:35Z</time>
      </trkpt>
      <trkpt lat="47.89391" lon="2.08513">
        <ele>124</ele>
        <time>2017-04-30T06:56:37Z</time>
      </trkpt>
      <trkpt lat="47.89398" lon="2.085">
        <ele>125</ele>
        <time>2017-04-30T06:56:39Z</time>
      </trkpt>
      <trkpt lat="47.89404" lon="2.08483">
        <ele>125</ele>
        <time>2017-04-30T06:56:41Z</time>
      </trkpt>
      <trkpt lat="47.8941" lon="2.08467">
        <ele>124</ele>
        <time>2017-04-30T06:56:43Z</time>
      </trkpt>
      <trkpt lat="47.89416" lon="2.08451">
        <ele>124</ele>
        <time>2017-04-30T06:56:45Z</time>
      </trkpt>
      <trkpt lat="47.89422" lon="2.08436">
        <ele>123</ele>
        <time>2017-04-30T06:56:47Z</time>
      </trkpt>
      <trkpt lat="47.89427" lon="2.08423">
        <ele>123</ele>
        <time>2017-04-30T06:56:49Z</time>
      </trkpt>
      <trkpt lat="47.89427" lon="2.08423">
        <ele>123</ele>
        <time>2017-04-30T06:56:51Z</time>
      </trkpt>
      <trkpt lat="47.89427" lon="2.08423">
        <ele>123</ele>
        <time>2017-04-30T06:56:53Z</time>
      </trkpt>
      <trkpt lat="47.89427" lon="2.08423">
        <ele>123</ele>
        <time>2017-04-30T06:56:55Z</time>
      </trkpt>
      <trkpt lat="47.89427" lon="2.08423">
        <ele>123</ele>
        <time>2017-04-30T06:56:57Z</time>
      </trkpt>
      <trkpt lat="47.89427" lon="2.08423">
        <ele>123</ele>
        <time>2017-04-30T06:56:59Z</time>
      </trkpt>
      <trkpt lat="47.89427" lon="2.08423">
        <ele>123</ele>
        <time>2017-04-30T06:57:01Z</time>
      </trkpt>
      <trkpt lat="47.89427" lon="2.08423">
        <ele>123</ele>
        <time>2017-04-30T06:57:03Z</time>
      </trkpt>
      <trkpt lat="47.89427" lon="2.08423">
        <ele>123</ele>
        <time>2017-04-30T06:57:05Z</time>
      </trkpt>
      <trkpt lat="47.89457" lon="2.08347">
        <ele>117</ele>
        <time>2017-04-30T06:58:17Z</time>
      </trkpt>
      <trkpt lat="47.89473" lon="2.08339">
        <ele>118</ele>
        <time>2017-04-30T06:58:21Z</time>
      </trkpt>
      <trkpt lat="47.89473" lon="2.08339">
        <ele>118</ele>
        <time>2017-04-30T06:58:23Z</time>
      </trkpt>
      <trkpt lat="47.89473" lon="2.08339">
        <ele>118</ele>
        <time>2017-04-30T06:58:25Z</time>
      </trkpt>
      <trkpt lat="47.89473" lon="2.08339">
        <ele>118</ele>
        <time>2017-04-30T06:58:27Z</time>
      </trkpt>
      <trkpt lat="47.89473" lon="2.08339">
        <ele>118</ele>
        <time>2017-04-30T06:58:29Z</time>
      </trkpt>
      <trkpt lat="47.89473" lon="2.08339">
        <ele>118</ele>
        <time>2017-04-30T06:58:31Z</time>
      </trkpt>
      <trkpt lat="47.89514" lon="2.08315">
        <ele>122</ele>
        <time>2017-04-30T06:58:35Z</time>
      </trkpt>
      <trkpt lat="47.89514" lon="2.08315">
        <ele>122</ele>
        <time>2017-04-30T06:58:37Z</time>
      </trkpt>
      <trkpt lat="47.8953" lon="2.08306">
        <ele>123</ele>
        <time>2017-04-30T06:58:39Z</time>
      </trkpt>
      <trkpt lat="47.89539" lon="2.08301">
        <ele>123</ele>
        <time>2017-04-30T06:58:41Z</time>
      </trkpt>
      <trkpt lat="47.89548" lon="2.08294">
        <ele>124</ele>
        <time>2017-04-30T06:58:43Z</time>
      </trkpt>
      <trkpt lat="47.89558" lon="2.08287">
        <ele>125</ele>
        <time>2017-04-30T06:58:45Z</time>
      </trkpt>
      <trkpt lat="47.89566" lon="2.08281">
        <ele>125</ele>
        <time>2017-04-30T06:58:47Z</time>
      </trkpt>
      <trkpt lat="47.89566" lon="2.08281">
        <ele>125</ele>
        <time>2017-04-30T06:58:49Z</time>
      </trkpt>
      <trkpt lat="47.89566" lon="2.08281">
        <ele>125</ele>
        <time>2017-04-30T06:58:51Z</time>
      </trkpt>
      <trkpt lat="47.89605" lon="2.08268">
        <ele>127</ele>
        <time>2017-04-30T06:58:55Z</time>
      </trkpt>
      <trkpt lat="47.89617" lon="2.08265">
        <ele>127</ele>
        <time>2017-04-30T06:58:57Z</time>
      </trkpt>
      <trkpt lat="47.89628" lon="2.08259">
        <ele>127</ele>
        <time>2017-04-30T06:58:59Z</time>
      </trkpt>
      <trkpt lat="47.89638" lon="2.08255">
        <ele>128</ele>
        <time>2017-04-30T06:59:01Z</time>
      </trkpt>
      <trkpt lat="47.89648" lon="2.08251">
        <ele>128</ele>
        <time>2017-04-30T06:59:03Z</time>
      </trkpt>
      <trkpt lat="47.89648" lon="2.08251">
        <ele>128</ele>
        <time>2017-04-30T06:59:05Z</time>
      </trkpt>
      <trkpt lat="47.89648" lon="2.08251">
        <ele>128</ele>
        <time>2017-04-30T06:59:07Z</time>
      </trkpt>
      <trkpt lat="47.89648" lon="2.08251">
        <ele>128</ele>
        <time>2017-04-30T06:59:09Z</time>
      </trkpt>
      <trkpt lat="47.89648" lon="2.08251">
        <ele>128</ele>
        <time>2017-04-30T06:59:11Z</time>
      </trkpt>
      <trkpt lat="47.89706" lon="2.08217">
        <ele>133</ele>
        <time>2017-04-30T06:59:15Z</time>
      </trkpt>
      <trkpt lat="47.89706" lon="2.08217">
        <ele>133</ele>
        <time>2017-04-30T06:59:17Z</time>
      </trkpt>
      <trkpt lat="47.89706" lon="2.08217">
        <ele>133</ele>
        <time>2017-04-30T06:59:19Z</time>
      </trkpt>
      <trkpt lat="47.89738" lon="2.08196">
        <ele>135</ele>
        <time>2017-04-30T06:59:21Z</time>
      </trkpt>
      <trkpt lat="47.89749" lon="2.0819">
        <ele>134</ele>
        <time>2017-04-30T06:59:23Z</time>
      </trkpt>
      <trkpt lat="47.8976" lon="2.08183">
        <ele>135</ele>
        <time>2017-04-30T06:59:25Z</time>
      </trkpt>
      <trkpt lat="47.89773" lon="2.08177">
        <ele>135</ele>
        <time>2017-04-30T06:59:27Z</time>
      </trkpt>
      <trkpt lat="47.89786" lon="2.08176">
        <ele>135</ele>
        <time>2017-04-30T06:59:29Z</time>
      </trkpt>
      <trkpt lat="47.89799" lon="2.08179">
        <ele>135</ele>
        <time>2017-04-30T06:59:31Z</time>
      </trkpt>
      <trkpt lat="47.89811" lon="2.0818">
        <ele>135</ele>
        <time>2017-04-30T06:59:33Z</time>
      </trkpt>
      <trkpt lat="47.89825" lon="2.08183">
        <ele>137</ele>
        <time>2017-04-30T06:59:35Z</time>
      </trkpt>
      <trkpt lat="47.89838" lon="2.08185">
        <ele>137</ele>
        <time>2017-04-30T06:59:37Z</time>
      </trkpt>
      <trkpt lat="47.89851" lon="2.08185">
        <ele>137</ele>
        <time>2017-04-30T06:59:39Z</time>
      </trkpt>
      <trkpt lat="47.89863" lon="2.08185">
        <ele>137</ele>
        <time>2017-04-30T06:59:41Z</time>
      </trkpt>
      <trkpt lat="47.89874" lon="2.08185">
        <ele>137</ele>
        <time>2017-04-30T06:59:43Z</time>
      </trkpt>
      <trkpt lat="47.89887" lon="2.08185">
        <ele>136</ele>
        <time>2017-04-30T06:59:45Z</time>
      </trkpt>
      <trkpt lat="47.89902" lon="2.08186">
        <ele>134</ele>
        <time>2017-04-30T06:59:47Z</time>
      </trkpt>
      <trkpt lat="47.89917" lon="2.0819">
        <ele>131</ele>
        <time>2017-04-30T06:59:49Z</time>
      </trkpt>
      <trkpt lat="47.89929" lon="2.08192">
        <ele>131</ele>
        <time>2017-04-30T06:59:51Z</time>
      </trkpt>
      <trkpt lat="47.89929" lon="2.08192">
        <ele>131</ele>
        <time>2017-04-30T06:59:53Z</time>
      </trkpt>
      <trkpt lat="47.89954" lon="2.08193">
        <ele>132</ele>
        <time>2017-04-30T06:59:55Z</time>
      </trkpt>
      <trkpt lat="47.89966" lon="2.08193">
        <ele>132</ele>
        <time>2017-04-30T06:59:57Z</time>
      </trkpt>
      <trkpt lat="47.89978" lon="2.08194">
        <ele>133</ele>
        <time>2017-04-30T06:59:59Z</time>
      </trkpt>
      <trkpt lat="47.89991" lon="2.08196">
        <ele>134</ele>
        <time>2017-04-30T07:00:01Z</time>
      </trkpt>
      <trkpt lat="47.90003" lon="2.08199">
        <ele>134</ele>
        <time>2017-04-30T07:00:03Z</time>
      </trkpt>
      <trkpt lat="47.90015" lon="2.082">
        <ele>133</ele>
        <time>2017-04-30T07:00:05Z</time>
      </trkpt>
      <trkpt lat="47.90015" lon="2.082">
        <ele>133</ele>
        <time>2017-04-30T07:00:07Z</time>
      </trkpt>
      <trkpt lat="47.90015" lon="2.082">
        <ele>133</ele>
        <time>2017-04-30T07:00:09Z</time>
      </trkpt>
      <trkpt lat="47.90015" lon="2.082">
        <ele>133</ele>
        <time>2017-04-30T07:00:11Z</time>
      </trkpt>
      <trkpt lat="47.90015" lon="2.082">
        <ele>133</ele>
        <time>2017-04-30T07:00:13Z</time>
      </trkpt>
      <trkpt lat="47.90015" lon="2.082">
        <ele>133</ele>
        <time>2017-04-30T07:00:15Z</time>
      </trkpt>
      <trkpt lat="47.90015" lon="2.082">
        <ele>133</ele>
        <time>2017-04-30T07:00:17Z</time>
      </trkpt>
      <trkpt lat="47.90015" lon="2.082">
        <ele>133</ele>
        <time>2017-04-30T07:00:19Z</time>
      </trkpt>
      <trkpt lat="47.9008" lon="2.08229">
        <ele>121</ele>
        <time>2017-04-30T07:00:23Z</time>
      </trkpt>
      <trkpt lat="47.90086" lon="2.08246">
        <ele>120</ele>
        <time>2017-04-30T07:00:27Z</time>
      </trkpt>
      <trkpt lat="47.90086" lon="2.08246">
        <ele>120</ele>
        <time>2017-04-30T07:00:29Z</time>
      </trkpt>
      <trkpt lat="47.901" lon="2.0824">
        <ele>118</ele>
        <time>2017-04-30T07:00:37Z</time>
      </trkpt>
      <trkpt lat="47.90112" lon="2.08235">
        <ele>118</ele>
        <time>2017-04-30T07:00:39Z</time>
      </trkpt>
      <trkpt lat="47.90121" lon="2.08232">
        <ele>117</ele>
        <time>2017-04-30T07:00:41Z</time>
      </trkpt>
      <trkpt lat="47.90129" lon="2.08228">
        <ele>117</ele>
        <time>2017-04-30T07:00:43Z</time>
      </trkpt>
      <trkpt lat="47.90129" lon="2.08228">
        <ele>117</ele>
        <time>2017-04-30T07:00:45Z</time>
      </trkpt>
      <trkpt lat="47.90145" lon="2.0822">
        <ele>113</ele>
        <time>2017-04-30T07:00:49Z</time>
      </trkpt>
      <trkpt lat="47.90157" lon="2.08212">
        <ele>111</ele>
        <time>2017-04-30T07:00:51Z</time>
      </trkpt>
      <trkpt lat="47.90168" lon="2.08207">
        <ele>109</ele>
        <time>2017-04-30T07:00:53Z</time>
      </trkpt>
      <trkpt lat="47.90177" lon="2.08201">
        <ele>108</ele>
        <time>2017-04-30T07:00:55Z</time>
      </trkpt>
      <trkpt lat="47.90177" lon="2.08201">
        <ele>108</ele>
        <time>2017-04-30T07:00:57Z</time>
      </trkpt>
      <trkpt lat="47.90177" lon="2.08201">
        <ele>108</ele>
        <time>2017-04-30T07:00:59Z</time>
      </trkpt>
      <trkpt lat="47.902" lon="2.0819">
        <ele>104</ele>
        <time>2017-04-30T07:01:03Z</time>
      </trkpt>
      <trkpt lat="47.90216" lon="2.08183">
        <ele>104</ele>
        <time>2017-04-30T07:01:05Z</time>
      </trkpt>
      <trkpt lat="47.90228" lon="2.08177">
        <ele>105</ele>
        <time>2017-04-30T07:01:07Z</time>
      </trkpt>
      <trkpt lat="47.90228" lon="2.08177">
        <ele>105</ele>
        <time>2017-04-30T07:01:09Z</time>
      </trkpt>
      <trkpt lat="47.90228" lon="2.08177">
        <ele>105</ele>
        <time>2017-04-30T07:01:11Z</time>
      </trkpt>
      <trkpt lat="47.90228" lon="2.08177">
        <ele>105</ele>
        <time>2017-04-30T07:01:13Z</time>
      </trkpt>
      <trkpt lat="47.90228" lon="2.08177">
        <ele>105</ele>
        <time>2017-04-30T07:01:17Z</time>
      </trkpt>
      <trkpt lat="47.90228" lon="2.08177">
        <ele>105</ele>
        <time>2017-04-30T07:01:19Z</time>
      </trkpt>
      <trkpt lat="47.90228" lon="2.08177">
        <ele>105</ele>
        <time>2017-04-30T07:01:21Z</time>
      </trkpt>
      <trkpt lat="47.90228" lon="2.08177">
        <ele>105</ele>
        <time>2017-04-30T07:01:25Z</time>
      </trkpt>
      <trkpt lat="47.90228" lon="2.08177">
        <ele>105</ele>
        <time>2017-04-30T07:01:27Z</time>
      </trkpt>
      <trkpt lat="47.90254" lon="2.08221">
        <ele>99</ele>
        <time>2017-04-30T07:01:31Z</time>
      </trkpt>
      <trkpt lat="47.90269" lon="2.08247">
        <ele>99</ele>
        <time>2017-04-30T07:01:33Z</time>
      </trkpt>
      <trkpt lat="47.90278" lon="2.08264">
        <ele>99</ele>
        <time>2017-04-30T07:01:35Z</time>
      </trkpt>
      <trkpt lat="47.90284" lon="2.08277">
        <ele>99</ele>
        <time>2017-04-30T07:01:37Z</time>
      </trkpt>
      <trkpt lat="47.90287" lon="2.08288">
        <ele>99</ele>
        <time>2017-04-30T07:01:39Z</time>
      </trkpt>
      <trkpt lat="47.90294" lon="2.08309">
        <ele>99</ele>
        <time>2017-04-30T07:01:41Z</time>
      </trkpt>
      <trkpt lat="47.903" lon="2.08329">
        <ele>99</ele>
        <time>2017-04-30T07:01:45Z</time>
      </trkpt>
      <trkpt lat="47.903" lon="2.08329">
        <ele>99</ele>
        <time>2017-04-30T07:01:47Z</time>
      </trkpt>
      <trkpt lat="47.90305" lon="2.08348">
        <ele>99</ele>
        <time>2017-04-30T07:01:49Z</time>
      </trkpt>
      <trkpt lat="47.9031" lon="2.08369">
        <ele>99</ele>
        <time>2017-04-30T07:01:54Z</time>
      </trkpt>
      <trkpt lat="47.90316" lon="2.08394">
        <ele>99</ele>
        <time>2017-04-30T07:01:57Z</time>
      </trkpt>
      <trkpt lat="47.9032" lon="2.0841">
        <ele>99</ele>
        <time>2017-04-30T07:01:59Z</time>
      </trkpt>
      <trkpt lat="47.90325" lon="2.08427">
        <ele>99</ele>
        <time>2017-04-30T07:02:01Z</time>
      </trkpt>
      <trkpt lat="47.90329" lon="2.08445">
        <ele>99</ele>
        <time>2017-04-30T07:02:03Z</time>
      </trkpt>
      <trkpt lat="47.90334" lon="2.08464">
        <ele>99</ele>
        <time>2017-04-30T07:02:05Z</time>
      </trkpt>
      <trkpt lat="47.90338" lon="2.08483">
        <ele>99</ele>
        <time>2017-04-30T07:02:07Z</time>
      </trkpt>
      <trkpt lat="47.90343" lon="2.08501">
        <ele>98</ele>
        <time>2017-04-30T07:02:09Z</time>
      </trkpt>
      <trkpt lat="47.90348" lon="2.08521">
        <ele>98</ele>
        <time>2017-04-30T07:02:11Z</time>
      </trkpt>
      <trkpt lat="47.90353" lon="2.08541">
        <ele>98</ele>
        <time>2017-04-30T07:02:13Z</time>
      </trkpt>
      <trkpt lat="47.90359" lon="2.08559">
        <ele>98</ele>
        <time>2017-04-30T07:02:15Z</time>
      </trkpt>
      <trkpt lat="47.90368" lon="2.08576">
        <ele>98</ele>
        <time>2017-04-30T07:02:17Z</time>
      </trkpt>
      <trkpt lat="47.90377" lon="2.08592">
        <ele>99</ele>
        <time>2017-04-30T07:02:19Z</time>
      </trkpt>
      <trkpt lat="47.90386" lon="2.08609">
        <ele>99</ele>
        <time>2017-04-30T07:02:21Z</time>
      </trkpt>
      <trkpt lat="47.90395" lon="2.08624">
        <ele>99</ele>
        <time>2017-04-30T07:02:23Z</time>
      </trkpt>
      <trkpt lat="47.90405" lon="2.0864">
        <ele>99</ele>
        <time>2017-04-30T07:02:25Z</time>
      </trkpt>
      <trkpt lat="47.90414" lon="2.08657">
        <ele>99</ele>
        <time>2017-04-30T07:02:27Z</time>
      </trkpt>
      <trkpt lat="47.90424" lon="2.08672">
        <ele>99</ele>
        <time>2017-04-30T07:02:29Z</time>
      </trkpt>
      <trkpt lat="47.90434" lon="2.08688">
        <ele>99</ele>
        <time>2017-04-30T07:02:31Z</time>
      </trkpt>
      <trkpt lat="47.90443" lon="2.08704">
        <ele>99</ele>
        <time>2017-04-30T07:02:33Z</time>
      </trkpt>
      <trkpt lat="47.90452" lon="2.0872">
        <ele>99</ele>
        <time>2017-04-30T07:02:35Z</time>
      </trkpt>
      <trkpt lat="47.90461" lon="2.08734">
        <ele>100</ele>
        <time>2017-04-30T07:02:37Z</time>
      </trkpt>
      <trkpt lat="47.90469" lon="2.08747">
        <ele>100</ele>
        <time>2017-04-30T07:02:39Z</time>
      </trkpt>
      <trkpt lat="47.90477" lon="2.08761">
        <ele>100</ele>
        <time>2017-04-30T07:02:41Z</time>
      </trkpt>
      <trkpt lat="47.90485" lon="2.08775">
        <ele>100</ele>
        <time>2017-04-30T07:02:43Z</time>
      </trkpt>
      <trkpt lat="47.90491" lon="2.0879">
        <ele>101</ele>
        <time>2017-04-30T07:02:45Z</time>
      </trkpt>
      <trkpt lat="47.90499" lon="2.08803">
        <ele>100</ele>
        <time>2017-04-30T07:02:47Z</time>
      </trkpt>
      <trkpt lat="47.90506" lon="2.08815">
        <ele>99</ele>
        <time>2017-04-30T07:02:49Z</time>
      </trkpt>
      <trkpt lat="47.90514" lon="2.08827">
        <ele>98</ele>
        <time>2017-04-30T07:02:51Z</time>
      </trkpt>
      <trkpt lat="47.9052" lon="2.08844">
        <ele>98</ele>
        <time>2017-04-30T07:02:53Z</time>
      </trkpt>
      <trkpt lat="47.90527" lon="2.08862">
        <ele>97</ele>
        <time>2017-04-30T07:02:55Z</time>
      </trkpt>
      <trkpt lat="47.90535" lon="2.08882">
        <ele>96</ele>
        <time>2017-04-30T07:02:57Z</time>
      </trkpt>
      <trkpt lat="47.90542" lon="2.08903">
        <ele>95</ele>
        <time>2017-04-30T07:02:59Z</time>
      </trkpt>
      <trkpt lat="47.9055" lon="2.08914">
        <ele>95</ele>
        <time>2017-04-30T07:03:01Z</time>
      </trkpt>
      <trkpt lat="47.90551" lon="2.08928">
        <ele>94</ele>
        <time>2017-04-30T07:03:03Z</time>
      </trkpt>
      <trkpt lat="47.90559" lon="2.08943">
        <ele>94</ele>
        <time>2017-04-30T07:03:05Z</time>
      </trkpt>
      <trkpt lat="47.90564" lon="2.08959">
        <ele>93</ele>
        <time>2017-04-30T07:03:07Z</time>
      </trkpt>
      <trkpt lat="47.90568" lon="2.08978">
        <ele>92</ele>
        <time>2017-04-30T07:03:09Z</time>
      </trkpt>
      <trkpt lat="47.90574" lon="2.08996">
        <ele>93</ele>
        <time>2017-04-30T07:03:11Z</time>
      </trkpt>
      <trkpt lat="47.90581" lon="2.09014">
        <ele>93</ele>
        <time>2017-04-30T07:03:13Z</time>
      </trkpt>
      <trkpt lat="47.90588" lon="2.09032">
        <ele>93</ele>
        <time>2017-04-30T07:03:15Z</time>
      </trkpt>
      <trkpt lat="47.90595" lon="2.0905">
        <ele>94</ele>
        <time>2017-04-30T07:03:17Z</time>
      </trkpt>
      <trkpt lat="47.90602" lon="2.09068">
        <ele>94</ele>
        <time>2017-04-30T07:03:19Z</time>
      </trkpt>
      <trkpt lat="47.9061" lon="2.09087">
        <ele>94</ele>
        <time>2017-04-30T07:03:21Z</time>
      </trkpt>
      <trkpt lat="47.90617" lon="2.09106">
        <ele>94</ele>
        <time>2017-04-30T07:03:23Z</time>
      </trkpt>
      <trkpt lat="47.90625" lon="2.09125">
        <ele>94</ele>
        <time>2017-04-30T07:03:25Z</time>
      </trkpt>
      <trkpt lat="47.90633" lon="2.09144">
        <ele>94</ele>
        <time>2017-04-30T07:03:27Z</time>
      </trkpt>
      <trkpt lat="47.90642" lon="2.09162">
        <ele>95</ele>
        <time>2017-04-30T07:03:29Z</time>
      </trkpt>
      <trkpt lat="47.90649" lon="2.09181">
        <ele>96</ele>
        <time>2017-04-30T07:03:32Z</time>
      </trkpt>
      <trkpt lat="47.90658" lon="2.092">
        <ele>96</ele>
        <time>2017-04-30T07:03:33Z</time>
      </trkpt>
      <trkpt lat="47.90666" lon="2.09218">
        <ele>97</ele>
        <time>2017-04-30T07:03:35Z</time>
      </trkpt>
      <trkpt lat="47.90675" lon="2.09237">
        <ele>98</ele>
        <time>2017-04-30T07:03:37Z</time>
      </trkpt>
      <trkpt lat="47.90683" lon="2.09256">
        <ele>98</ele>
        <time>2017-04-30T07:03:39Z</time>
      </trkpt>
      <trkpt lat="47.90691" lon="2.09275">
        <ele>98</ele>
        <time>2017-04-30T07:03:41Z</time>
      </trkpt>
      <trkpt lat="47.90698" lon="2.09295">
        <ele>99</ele>
        <time>2017-04-30T07:03:43Z</time>
      </trkpt>
      <trkpt lat="47.90706" lon="2.09315">
        <ele>98</ele>
        <time>2017-04-30T07:03:45Z</time>
      </trkpt>
      <trkpt lat="47.90714" lon="2.09334">
        <ele>98</ele>
        <time>2017-04-30T07:03:47Z</time>
      </trkpt>
      <trkpt lat="47.90722" lon="2.09354">
        <ele>99</ele>
        <time>2017-04-30T07:03:49Z</time>
      </trkpt>
      <trkpt lat="47.9073" lon="2.09372">
        <ele>99</ele>
        <time>2017-04-30T07:03:51Z</time>
      </trkpt>
      <trkpt lat="47.90737" lon="2.09391">
        <ele>99</ele>
        <time>2017-04-30T07:03:53Z</time>
      </trkpt>
      <trkpt lat="47.90745" lon="2.09409">
        <ele>99</ele>
        <time>2017-04-30T07:03:55Z</time>
      </trkpt>
      <trkpt lat="47.90752" lon="2.09429">
        <ele>98</ele>
        <time>2017-04-30T07:03:57Z</time>
      </trkpt>
      <trkpt lat="47.9076" lon="2.09448">
        <ele>99</ele>
        <time>2017-04-30T07:03:59Z</time>
      </trkpt>
      <trkpt lat="47.90767" lon="2.09468">
        <ele>98</ele>
        <time>2017-04-30T07:04:01Z</time>
      </trkpt>
      <trkpt lat="47.90775" lon="2.09488">
        <ele>98</ele>
        <time>2017-04-30T07:04:03Z</time>
      </trkpt>
      <trkpt lat="47.90783" lon="2.09509">
        <ele>98</ele>
        <time>2017-04-30T07:04:05Z</time>
      </trkpt>
      <trkpt lat="47.90792" lon="2.09529">
        <ele>99</ele>
        <time>2017-04-30T07:04:07Z</time>
      </trkpt>
      <trkpt lat="47.908" lon="2.09548">
        <ele>99</ele>
        <time>2017-04-30T07:04:09Z</time>
      </trkpt>
      <trkpt lat="47.90808" lon="2.09568">
        <ele>99</ele>
        <time>2017-04-30T07:04:11Z</time>
      </trkpt>
      <trkpt lat="47.90815" lon="2.09588">
        <ele>99</ele>
        <time>2017-04-30T07:04:13Z</time>
      </trkpt>
      <trkpt lat="47.90823" lon="2.09608">
        <ele>98</ele>
        <time>2017-04-30T07:04:15Z</time>
      </trkpt>
      <trkpt lat="47.9083" lon="2.09628">
        <ele>98</ele>
        <time>2017-04-30T07:04:17Z</time>
      </trkpt>
      <trkpt lat="47.90837" lon="2.09648">
        <ele>98</ele>
        <time>2017-04-30T07:04:19Z</time>
      </trkpt>
      <trkpt lat="47.90845" lon="2.09668">
        <ele>98</ele>
        <time>2017-04-30T07:04:21Z</time>
      </trkpt>
      <trkpt lat="47.90852" lon="2.09688">
        <ele>98</ele>
        <time>2017-04-30T07:04:23Z</time>
      </trkpt>
      <trkpt lat="47.9086" lon="2.09706">
        <ele>98</ele>
        <time>2017-04-30T07:04:25Z</time>
      </trkpt>
      <trkpt lat="47.90866" lon="2.09723">
        <ele>98</ele>
        <time>2017-04-30T07:04:27Z</time>
      </trkpt>
      <trkpt lat="47.90873" lon="2.09741">
        <ele>97</ele>
        <time>2017-04-30T07:04:29Z</time>
      </trkpt>
      <trkpt lat="47.9088" lon="2.09757">
        <ele>98</ele>
        <time>2017-04-30T07:04:31Z</time>
      </trkpt>
      <trkpt lat="47.90886" lon="2.09775">
        <ele>98</ele>
        <time>2017-04-30T07:04:33Z</time>
      </trkpt>
      <trkpt lat="47.90893" lon="2.09793">
        <ele>97</ele>
        <time>2017-04-30T07:04:35Z</time>
      </trkpt>
      <trkpt lat="47.90901" lon="2.09809">
        <ele>98</ele>
        <time>2017-04-30T07:04:37Z</time>
      </trkpt>
      <trkpt lat="47.9091" lon="2.09826">
        <ele>98</ele>
        <time>2017-04-30T07:04:39Z</time>
      </trkpt>
      <trkpt lat="47.90919" lon="2.09843">
        <ele>98</ele>
        <time>2017-04-30T07:04:41Z</time>
      </trkpt>
      <trkpt lat="47.9093" lon="2.09858">
        <ele>99</ele>
        <time>2017-04-30T07:04:43Z</time>
      </trkpt>
      <trkpt lat="47.9094" lon="2.09874">
        <ele>98</ele>
        <time>2017-04-30T07:04:45Z</time>
      </trkpt>
      <trkpt lat="47.9095" lon="2.09889">
        <ele>98</ele>
        <time>2017-04-30T07:04:47Z</time>
      </trkpt>
      <trkpt lat="47.90961" lon="2.09904">
        <ele>98</ele>
        <time>2017-04-30T07:04:49Z</time>
      </trkpt>
      <trkpt lat="47.90972" lon="2.09919">
        <ele>99</ele>
        <time>2017-04-30T07:04:51Z</time>
      </trkpt>
      <trkpt lat="47.90984" lon="2.09932">
        <ele>98</ele>
        <time>2017-04-30T07:04:53Z</time>
      </trkpt>
      <trkpt lat="47.90996" lon="2.09943">
        <ele>98</ele>
        <time>2017-04-30T07:04:55Z</time>
      </trkpt>
      <trkpt lat="47.91008" lon="2.09952">
        <ele>98</ele>
        <time>2017-04-30T07:04:57Z</time>
      </trkpt>
      <trkpt lat="47.9102" lon="2.09962">
        <ele>99</ele>
        <time>2017-04-30T07:04:59Z</time>
      </trkpt>
      <trkpt lat="47.91032" lon="2.09973">
        <ele>99</ele>
        <time>2017-04-30T07:05:01Z</time>
      </trkpt>
      <trkpt lat="47.91045" lon="2.09983">
        <ele>99</ele>
        <time>2017-04-30T07:05:03Z</time>
      </trkpt>
      <trkpt lat="47.91058" lon="2.09993">
        <ele>99</ele>
        <time>2017-04-30T07:05:05Z</time>
      </trkpt>
      <trkpt lat="47.91073" lon="2.1">
        <ele>99</ele>
        <time>2017-04-30T07:05:07Z</time>
      </trkpt>
      <trkpt lat="47.91087" lon="2.10008">
        <ele>99</ele>
        <time>2017-04-30T07:05:09Z</time>
      </trkpt>
      <trkpt lat="47.91102" lon="2.10013">
        <ele>99</ele>
        <time>2017-04-30T07:05:11Z</time>
      </trkpt>
      <trkpt lat="47.91117" lon="2.10018">
        <ele>100</ele>
        <time>2017-04-30T07:05:13Z</time>
      </trkpt>
      <trkpt lat="47.91132" lon="2.10023">
        <ele>100</ele>
        <time>2017-04-30T07:05:15Z</time>
      </trkpt>
      <trkpt lat="47.91148" lon="2.10026">
        <ele>101</ele>
        <time>2017-04-30T07:05:17Z</time>
      </trkpt>
      <trkpt lat="47.91162" lon="2.1003">
        <ele>101</ele>
        <time>2017-04-30T07:05:19Z</time>
      </trkpt>
      <trkpt lat="47.91178" lon="2.10035">
        <ele>101</ele>
        <time>2017-04-30T07:05:21Z</time>
      </trkpt>
      <trkpt lat="47.91193" lon="2.1004">
        <ele>100</ele>
        <time>2017-04-30T07:05:23Z</time>
      </trkpt>
      <trkpt lat="47.91208" lon="2.10045">
        <ele>100</ele>
        <time>2017-04-30T07:05:25Z</time>
      </trkpt>
      <trkpt lat="47.91222" lon="2.10049">
        <ele>100</ele>
        <time>2017-04-30T07:05:27Z</time>
      </trkpt>
      <trkpt lat="47.91236" lon="2.10053">
        <ele>101</ele>
        <time>2017-04-30T07:05:29Z</time>
      </trkpt>
      <trkpt lat="47.9125" lon="2.10056">
        <ele>101</ele>
        <time>2017-04-30T07:05:31Z</time>
      </trkpt>
      <trkpt lat="47.91264" lon="2.10059">
        <ele>101</ele>
        <time>2017-04-30T07:05:33Z</time>
      </trkpt>
      <trkpt lat="47.91278" lon="2.10064">
        <ele>101</ele>
        <time>2017-04-30T07:05:35Z</time>
      </trkpt>
      <trkpt lat="47.91291" lon="2.10067">
        <ele>102</ele>
        <time>2017-04-30T07:05:37Z</time>
      </trkpt>
      <trkpt lat="47.91304" lon="2.1007">
        <ele>102</ele>
        <time>2017-04-30T07:05:39Z</time>
      </trkpt>
      <trkpt lat="47.91317" lon="2.10078">
        <ele>104</ele>
        <time>2017-04-30T07:05:41Z</time>
      </trkpt>
      <trkpt lat="47.91329" lon="2.10091">
        <ele>104</ele>
        <time>2017-04-30T07:05:43Z</time>
      </trkpt>
      <trkpt lat="47.9134" lon="2.10108">
        <ele>105</ele>
        <time>2017-04-30T07:05:45Z</time>
      </trkpt>
      <trkpt lat="47.91351" lon="2.10125">
        <ele>105</ele>
        <time>2017-04-30T07:05:47Z</time>
      </trkpt>
      <trkpt lat="47.91361" lon="2.10142">
        <ele>105</ele>
        <time>2017-04-30T07:05:49Z</time>
      </trkpt>
      <trkpt lat="47.91371" lon="2.1016">
        <ele>105</ele>
        <time>2017-04-30T07:05:51Z</time>
      </trkpt>
      <trkpt lat="47.9138" lon="2.10177">
        <ele>105</ele>
        <time>2017-04-30T07:05:53Z</time>
      </trkpt>
      <trkpt lat="47.9139" lon="2.10194">
        <ele>104</ele>
        <time>2017-04-30T07:05:55Z</time>
      </trkpt>
      <trkpt lat="47.914" lon="2.10208">
        <ele>105</ele>
        <time>2017-04-30T07:05:57Z</time>
      </trkpt>
      <trkpt lat="47.91409" lon="2.10224">
        <ele>105</ele>
        <time>2017-04-30T07:05:59Z</time>
      </trkpt>
      <trkpt lat="47.91418" lon="2.1024">
        <ele>105</ele>
        <time>2017-04-30T07:06:01Z</time>
      </trkpt>
      <trkpt lat="47.91427" lon="2.10255">
        <ele>105</ele>
        <time>2017-04-30T07:06:03Z</time>
      </trkpt>
      <trkpt lat="47.91435" lon="2.10269">
        <ele>105</ele>
        <time>2017-04-30T07:06:05Z</time>
      </trkpt>
      <trkpt lat="47.91441" lon="2.1028">
        <ele>105</ele>
        <time>2017-04-30T07:06:07Z</time>
      </trkpt>
      <trkpt lat="47.91441" lon="2.1028">
        <ele>105</ele>
        <time>2017-04-30T07:06:09Z</time>
      </trkpt>
      <trkpt lat="47.91441" lon="2.1028">
        <ele>105</ele>
        <time>2017-04-30T07:06:11Z</time>
      </trkpt>
      <trkpt lat="47.91441" lon="2.1028">
        <ele>105</ele>
        <time>2017-04-30T07:06:13Z</time>
      </trkpt>
      <trkpt lat="47.91441" lon="2.1028">
        <ele>105</ele>
        <time>2017-04-30T07:06:15Z</time>
      </trkpt>
      <trkpt lat="47.91441" lon="2.1028">
        <ele>105</ele>
        <time>2017-04-30T07:06:17Z</time>
      </trkpt>
      <trkpt lat="47.91441" lon="2.1028">
        <ele>105</ele>
        <time>2017-04-30T07:06:19Z</time>
      </trkpt>
      <trkpt lat="47.91441" lon="2.1028">
        <ele>105</ele>
        <time>2017-04-30T07:06:21Z</time>
      </trkpt>
      <trkpt lat="47.91467" lon="2.10324">
        <ele>103</ele>
        <time>2017-04-30T07:06:25Z</time>
      </trkpt>
      <trkpt lat="47.91479" lon="2.10344">
        <ele>102</ele>
        <time>2017-04-30T07:06:29Z</time>
      </trkpt>
      <trkpt lat="47.91486" lon="2.10356">
        <ele>102</ele>
        <time>2017-04-30T07:06:31Z</time>
      </trkpt>
      <trkpt lat="47.91492" lon="2.10368">
        <ele>102</ele>
        <time>2017-04-30T07:06:33Z</time>
      </trkpt>
      <trkpt lat="47.91499" lon="2.1038">
        <ele>102</ele>
        <time>2017-04-30T07:06:35Z</time>
      </trkpt>
      <trkpt lat="47.91505" lon="2.10392">
        <ele>102</ele>
        <time>2017-04-30T07:06:37Z</time>
      </trkpt>
      <trkpt lat="47.91511" lon="2.10406">
        <ele>103</ele>
        <time>2017-04-30T07:06:39Z</time>
      </trkpt>
      <trkpt lat="47.91518" lon="2.10419">
        <ele>103</ele>
        <time>2017-04-30T07:06:41Z</time>
      </trkpt>
      <trkpt lat="47.91525" lon="2.10434">
        <ele>103</ele>
        <time>2017-04-30T07:06:43Z</time>
      </trkpt>
      <trkpt lat="47.91534" lon="2.10449">
        <ele>102</ele>
        <time>2017-04-30T07:06:45Z</time>
      </trkpt>
      <trkpt lat="47.91543" lon="2.10463">
        <ele>103</ele>
        <time>2017-04-30T07:06:47Z</time>
      </trkpt>
      <trkpt lat="47.9155" lon="2.10478">
        <ele>102</ele>
        <time>2017-04-30T07:06:49Z</time>
      </trkpt>
      <trkpt lat="47.91558" lon="2.10493">
        <ele>102</ele>
        <time>2017-04-30T07:06:51Z</time>
      </trkpt>
      <trkpt lat="47.91565" lon="2.10509">
        <ele>102</ele>
        <time>2017-04-30T07:06:53Z</time>
      </trkpt>
      <trkpt lat="47.91573" lon="2.10524">
        <ele>102</ele>
        <time>2017-04-30T07:06:55Z</time>
      </trkpt>
      <trkpt lat="47.91581" lon="2.1054">
        <ele>102</ele>
        <time>2017-04-30T07:06:57Z</time>
      </trkpt>
      <trkpt lat="47.91589" lon="2.10556">
        <ele>102</ele>
        <time>2017-04-30T07:06:59Z</time>
      </trkpt>
      <trkpt lat="47.91597" lon="2.10572">
        <ele>102</ele>
        <time>2017-04-30T07:07:01Z</time>
      </trkpt>
      <trkpt lat="47.91605" lon="2.10589">
        <ele>102</ele>
        <time>2017-04-30T07:07:03Z</time>
      </trkpt>
      <trkpt lat="47.91613" lon="2.10604">
        <ele>101</ele>
        <time>2017-04-30T07:07:05Z</time>
      </trkpt>
      <trkpt lat="47.91621" lon="2.1062">
        <ele>101</ele>
        <time>2017-04-30T07:07:07Z</time>
      </trkpt>
      <trkpt lat="47.91629" lon="2.10637">
        <ele>101</ele>
        <time>2017-04-30T07:07:09Z</time>
      </trkpt>
      <trkpt lat="47.91637" lon="2.10654">
        <ele>101</ele>
        <time>2017-04-30T07:07:11Z</time>
      </trkpt>
      <trkpt lat="47.91645" lon="2.10671">
        <ele>102</ele>
        <time>2017-04-30T07:07:13Z</time>
      </trkpt>
      <trkpt lat="47.91654" lon="2.10688">
        <ele>102</ele>
        <time>2017-04-30T07:07:15Z</time>
      </trkpt>
      <trkpt lat="47.91663" lon="2.10704">
        <ele>102</ele>
        <time>2017-04-30T07:07:17Z</time>
      </trkpt>
      <trkpt lat="47.91673" lon="2.10722">
        <ele>102</ele>
        <time>2017-04-30T07:07:19Z</time>
      </trkpt>
      <trkpt lat="47.91681" lon="2.10741">
        <ele>102</ele>
        <time>2017-04-30T07:07:21Z</time>
      </trkpt>
      <trkpt lat="47.9169" lon="2.10758">
        <ele>103</ele>
        <time>2017-04-30T07:07:23Z</time>
      </trkpt>
      <trkpt lat="47.91698" lon="2.10774">
        <ele>103</ele>
        <time>2017-04-30T07:07:25Z</time>
      </trkpt>
      <trkpt lat="47.91707" lon="2.1079">
        <ele>103</ele>
        <time>2017-04-30T07:07:27Z</time>
      </trkpt>
      <trkpt lat="47.91716" lon="2.10807">
        <ele>104</ele>
        <time>2017-04-30T07:07:29Z</time>
      </trkpt>
      <trkpt lat="47.91725" lon="2.10824">
        <ele>104</ele>
        <time>2017-04-30T07:07:31Z</time>
      </trkpt>
      <trkpt lat="47.91735" lon="2.1084">
        <ele>105</ele>
        <time>2017-04-30T07:07:33Z</time>
      </trkpt>
      <trkpt lat="47.91744" lon="2.10857">
        <ele>106</ele>
        <time>2017-04-30T07:07:35Z</time>
      </trkpt>
      <trkpt lat="47.91754" lon="2.10872">
        <ele>106</ele>
        <time>2017-04-30T07:07:37Z</time>
      </trkpt>
      <trkpt lat="47.91763" lon="2.10888">
        <ele>106</ele>
        <time>2017-04-30T07:07:39Z</time>
      </trkpt>
      <trkpt lat="47.91771" lon="2.10907">
        <ele>105</ele>
        <time>2017-04-30T07:07:41Z</time>
      </trkpt>
      <trkpt lat="47.91779" lon="2.10925">
        <ele>105</ele>
        <time>2017-04-30T07:07:43Z</time>
      </trkpt>
      <trkpt lat="47.91787" lon="2.10942">
        <ele>105</ele>
        <time>2017-04-30T07:07:45Z</time>
      </trkpt>
      <trkpt lat="47.91794" lon="2.10958">
        <ele>105</ele>
        <time>2017-04-30T07:07:47Z</time>
      </trkpt>
      <trkpt lat="47.91802" lon="2.10976">
        <ele>104</ele>
        <time>2017-04-30T07:07:49Z</time>
      </trkpt>
      <trkpt lat="47.9181" lon="2.10993">
        <ele>105</ele>
        <time>2017-04-30T07:07:51Z</time>
      </trkpt>
      <trkpt lat="47.91818" lon="2.1101">
        <ele>105</ele>
        <time>2017-04-30T07:07:53Z</time>
      </trkpt>
      <trkpt lat="47.91827" lon="2.11027">
        <ele>106</ele>
        <time>2017-04-30T07:07:55Z</time>
      </trkpt>
      <trkpt lat="47.91835" lon="2.11043">
        <ele>105</ele>
        <time>2017-04-30T07:07:57Z</time>
      </trkpt>
      <trkpt lat="47.91842" lon="2.11061">
        <ele>105</ele>
        <time>2017-04-30T07:07:59Z</time>
      </trkpt>
      <trkpt lat="47.9185" lon="2.11078">
        <ele>105</ele>
        <time>2017-04-30T07:08:01Z</time>
      </trkpt>
      <trkpt lat="47.91858" lon="2.11095">
        <ele>105</ele>
        <time>2017-04-30T07:08:03Z</time>
      </trkpt>
      <trkpt lat="47.91866" lon="2.11111">
        <ele>105</ele>
        <time>2017-04-30T07:08:05Z</time>
      </trkpt>
      <trkpt lat="47.91874" lon="2.11128">
        <ele>105</ele>
        <time>2017-04-30T07:08:07Z</time>
      </trkpt>
      <trkpt lat="47.91882" lon="2.11146">
        <ele>104</ele>
        <time>2017-04-30T07:08:09Z</time>
      </trkpt>
      <trkpt lat="47.9189" lon="2.11163">
        <ele>104</ele>
        <time>2017-04-30T07:08:11Z</time>
      </trkpt>
      <trkpt lat="47.91898" lon="2.1118">
        <ele>103</ele>
        <time>2017-04-30T07:08:13Z</time>
      </trkpt>
      <trkpt lat="47.91905" lon="2.11198">
        <ele>103</ele>
        <time>2017-04-30T07:08:15Z</time>
      </trkpt>
      <trkpt lat="47.91914" lon="2.11215">
        <ele>103</ele>
        <time>2017-04-30T07:08:17Z</time>
      </trkpt>
      <trkpt lat="47.91923" lon="2.11231">
        <ele>104</ele>
        <time>2017-04-30T07:08:19Z</time>
      </trkpt>
      <trkpt lat="47.91933" lon="2.11247">
        <ele>104</ele>
        <time>2017-04-30T07:08:21Z</time>
      </trkpt>
      <trkpt lat="47.91943" lon="2.11263">
        <ele>104</ele>
        <time>2017-04-30T07:08:23Z</time>
      </trkpt>
      <trkpt lat="47.91952" lon="2.11279">
        <ele>103</ele>
        <time>2017-04-30T07:08:25Z</time>
      </trkpt>
      <trkpt lat="47.91961" lon="2.11294">
        <ele>103</ele>
        <time>2017-04-30T07:08:27Z</time>
      </trkpt>
      <trkpt lat="47.91971" lon="2.1131">
        <ele>103</ele>
        <time>2017-04-30T07:08:29Z</time>
      </trkpt>
      <trkpt lat="47.9198" lon="2.11325">
        <ele>103</ele>
        <time>2017-04-30T07:08:31Z</time>
      </trkpt>
      <trkpt lat="47.9199" lon="2.1134">
        <ele>102</ele>
        <time>2017-04-30T07:08:33Z</time>
      </trkpt>
      <trkpt lat="47.91999" lon="2.11355">
        <ele>102</ele>
        <time>2017-04-30T07:08:35Z</time>
      </trkpt>
      <trkpt lat="47.92009" lon="2.11369">
        <ele>102</ele>
        <time>2017-04-30T07:08:37Z</time>
      </trkpt>
      <trkpt lat="47.92018" lon="2.11383">
        <ele>103</ele>
        <time>2017-04-30T07:08:39Z</time>
      </trkpt>
      <trkpt lat="47.92028" lon="2.11398">
        <ele>102</ele>
        <time>2017-04-30T07:08:41Z</time>
      </trkpt>
      <trkpt lat="47.92037" lon="2.11413">
        <ele>102</ele>
        <time>2017-04-30T07:08:43Z</time>
      </trkpt>
      <trkpt lat="47.92046" lon="2.11428">
        <ele>102</ele>
        <time>2017-04-30T07:08:45Z</time>
      </trkpt>
      <trkpt lat="47.92055" lon="2.11444">
        <ele>102</ele>
        <time>2017-04-30T07:08:47Z</time>
      </trkpt>
      <trkpt lat="47.92063" lon="2.11461">
        <ele>101</ele>
        <time>2017-04-30T07:08:49Z</time>
      </trkpt>
      <trkpt lat="47.92071" lon="2.11478">
        <ele>102</ele>
        <time>2017-04-30T07:08:51Z</time>
      </trkpt>
      <trkpt lat="47.92079" lon="2.11496">
        <ele>101</ele>
        <time>2017-04-30T07:08:53Z</time>
      </trkpt>
      <trkpt lat="47.92086" lon="2.11515">
        <ele>101</ele>
        <time>2017-04-30T07:08:55Z</time>
      </trkpt>
      <trkpt lat="47.92093" lon="2.11533">
        <ele>101</ele>
        <time>2017-04-30T07:08:57Z</time>
      </trkpt>
      <trkpt lat="47.921" lon="2.11551">
        <ele>101</ele>
        <time>2017-04-30T07:08:59Z</time>
      </trkpt>
      <trkpt lat="47.92105" lon="2.11571">
        <ele>101</ele>
        <time>2017-04-30T07:09:01Z</time>
      </trkpt>
      <trkpt lat="47.92112" lon="2.1159">
        <ele>101</ele>
        <time>2017-04-30T07:09:03Z</time>
      </trkpt>
      <trkpt lat="47.92119" lon="2.11609">
        <ele>101</ele>
        <time>2017-04-30T07:09:05Z</time>
      </trkpt>
      <trkpt lat="47.92125" lon="2.11627">
        <ele>100</ele>
        <time>2017-04-30T07:09:07Z</time>
      </trkpt>
      <trkpt lat="47.92132" lon="2.11646">
        <ele>100</ele>
        <time>2017-04-30T07:09:09Z</time>
      </trkpt>
      <trkpt lat="47.92138" lon="2.11665">
        <ele>100</ele>
        <time>2017-04-30T07:09:11Z</time>
      </trkpt>
      <trkpt lat="47.92145" lon="2.11684">
        <ele>100</ele>
        <time>2017-04-30T07:09:13Z</time>
      </trkpt>
      <trkpt lat="47.92151" lon="2.11703">
        <ele>100</ele>
        <time>2017-04-30T07:09:15Z</time>
      </trkpt>
      <trkpt lat="47.92158" lon="2.11723">
        <ele>100</ele>
        <time>2017-04-30T07:09:17Z</time>
      </trkpt>
      <trkpt lat="47.92164" lon="2.11741">
        <ele>101</ele>
        <time>2017-04-30T07:09:19Z</time>
      </trkpt>
      <trkpt lat="47.92171" lon="2.1176">
        <ele>101</ele>
        <time>2017-04-30T07:09:21Z</time>
      </trkpt>
      <trkpt lat="47.92177" lon="2.11779">
        <ele>101</ele>
        <time>2017-04-30T07:09:23Z</time>
      </trkpt>
      <trkpt lat="47.92183" lon="2.11798">
        <ele>100</ele>
        <time>2017-04-30T07:09:25Z</time>
      </trkpt>
      <trkpt lat="47.9219" lon="2.11817">
        <ele>100</ele>
        <time>2017-04-30T07:09:27Z</time>
      </trkpt>
      <trkpt lat="47.92196" lon="2.11836">
        <ele>100</ele>
        <time>2017-04-30T07:09:29Z</time>
      </trkpt>
      <trkpt lat="47.92203" lon="2.11855">
        <ele>101</ele>
        <time>2017-04-30T07:09:31Z</time>
      </trkpt>
      <trkpt lat="47.9221" lon="2.11874">
        <ele>101</ele>
        <time>2017-04-30T07:09:33Z</time>
      </trkpt>
      <trkpt lat="47.92216" lon="2.11893">
        <ele>101</ele>
        <time>2017-04-30T07:09:35Z</time>
      </trkpt>
      <trkpt lat="47.92221" lon="2.11912">
        <ele>100</ele>
        <time>2017-04-30T07:09:37Z</time>
      </trkpt>
      <trkpt lat="47.92226" lon="2.11932">
        <ele>101</ele>
        <time>2017-04-30T07:09:39Z</time>
      </trkpt>
      <trkpt lat="47.92229" lon="2.11952">
        <ele>100</ele>
        <time>2017-04-30T07:09:41Z</time>
      </trkpt>
      <trkpt lat="47.92231" lon="2.11973">
        <ele>100</ele>
        <time>2017-04-30T07:09:43Z</time>
      </trkpt>
      <trkpt lat="47.92233" lon="2.11994">
        <ele>100</ele>
        <time>2017-04-30T07:09:45Z</time>
      </trkpt>
      <trkpt lat="47.92235" lon="2.12014">
        <ele>100</ele>
        <time>2017-04-30T07:09:47Z</time>
      </trkpt>
      <trkpt lat="47.92237" lon="2.12034">
        <ele>100</ele>
        <time>2017-04-30T07:09:49Z</time>
      </trkpt>
      <trkpt lat="47.92239" lon="2.12054">
        <ele>100</ele>
        <time>2017-04-30T07:09:51Z</time>
      </trkpt>
      <trkpt lat="47.92241" lon="2.12076">
        <ele>100</ele>
        <time>2017-04-30T07:09:53Z</time>
      </trkpt>
      <trkpt lat="47.92242" lon="2.12098">
        <ele>99</ele>
        <time>2017-04-30T07:09:55Z</time>
      </trkpt>
      <trkpt lat="47.92244" lon="2.12118">
        <ele>99</ele>
        <time>2017-04-30T07:09:57Z</time>
      </trkpt>
      <trkpt lat="47.92245" lon="2.12137">
        <ele>99</ele>
        <time>2017-04-30T07:09:59Z</time>
      </trkpt>
      <trkpt lat="47.92247" lon="2.12157">
        <ele>99</ele>
        <time>2017-04-30T07:10:01Z</time>
      </trkpt>
      <trkpt lat="47.9225" lon="2.12176">
        <ele>100</ele>
        <time>2017-04-30T07:10:03Z</time>
      </trkpt>
      <trkpt lat="47.92252" lon="2.12195">
        <ele>100</ele>
        <time>2017-04-30T07:10:05Z</time>
      </trkpt>
      <trkpt lat="47.92254" lon="2.12216">
        <ele>101</ele>
        <time>2017-04-30T07:10:07Z</time>
      </trkpt>
      <trkpt lat="47.92257" lon="2.12238">
        <ele>101</ele>
        <time>2017-04-30T07:10:09Z</time>
      </trkpt>
      <trkpt lat="47.92258" lon="2.12259">
        <ele>101</ele>
        <time>2017-04-30T07:10:11Z</time>
      </trkpt>
      <trkpt lat="47.9226" lon="2.1228">
        <ele>101</ele>
        <time>2017-04-30T07:10:13Z</time>
      </trkpt>
      <trkpt lat="47.92262" lon="2.12301">
        <ele>101</ele>
        <time>2017-04-30T07:10:15Z</time>
      </trkpt>
      <trkpt lat="47.92264" lon="2.12322">
        <ele>101</ele>
        <time>2017-04-30T07:10:17Z</time>
      </trkpt>
      <trkpt lat="47.92267" lon="2.12343">
        <ele>101</ele>
        <time>2017-04-30T07:10:19Z</time>
      </trkpt>
      <trkpt lat="47.92268" lon="2.12364">
        <ele>100</ele>
        <time>2017-04-30T07:10:22Z</time>
      </trkpt>
      <trkpt lat="47.9227" lon="2.12385">
        <ele>100</ele>
        <time>2017-04-30T07:10:23Z</time>
      </trkpt>
      <trkpt lat="47.92271" lon="2.12405">
        <ele>100</ele>
        <time>2017-04-30T07:10:26Z</time>
      </trkpt>
      <trkpt lat="47.92273" lon="2.12426">
        <ele>100</ele>
        <time>2017-04-30T07:10:28Z</time>
      </trkpt>
      <trkpt lat="47.92275" lon="2.12445">
        <ele>100</ele>
        <time>2017-04-30T07:10:30Z</time>
      </trkpt>
      <trkpt lat="47.92276" lon="2.12465">
        <ele>100</ele>
        <time>2017-04-30T07:10:32Z</time>
      </trkpt>
      <trkpt lat="47.92278" lon="2.12485">
        <ele>100</ele>
        <time>2017-04-30T07:10:34Z</time>
      </trkpt>
      <trkpt lat="47.9228" lon="2.12504">
        <ele>100</ele>
        <time>2017-04-30T07:10:36Z</time>
      </trkpt>
      <trkpt lat="47.92282" lon="2.12524">
        <ele>100</ele>
        <time>2017-04-30T07:10:38Z</time>
      </trkpt>
      <trkpt lat="47.92283" lon="2.12544">
        <ele>99</ele>
        <time>2017-04-30T07:10:40Z</time>
      </trkpt>
      <trkpt lat="47.92285" lon="2.12565">
        <ele>99</ele>
        <time>2017-04-30T07:10:42Z</time>
      </trkpt>
      <trkpt lat="47.92287" lon="2.12585">
        <ele>99</ele>
        <time>2017-04-30T07:10:44Z</time>
      </trkpt>
      <trkpt lat="47.92288" lon="2.12606">
        <ele>99</ele>
        <time>2017-04-30T07:10:46Z</time>
      </trkpt>
      <trkpt lat="47.9229" lon="2.12627">
        <ele>99</ele>
        <time>2017-04-30T07:10:48Z</time>
      </trkpt>
      <trkpt lat="47.92292" lon="2.12648">
        <ele>99</ele>
        <time>2017-04-30T07:10:50Z</time>
      </trkpt>
      <trkpt lat="47.92294" lon="2.12669">
        <ele>99</ele>
        <time>2017-04-30T07:10:52Z</time>
      </trkpt>
      <trkpt lat="47.92296" lon="2.1269">
        <ele>99</ele>
        <time>2017-04-30T07:10:53Z</time>
      </trkpt>
      <trkpt lat="47.92297" lon="2.12711">
        <ele>99</ele>
        <time>2017-04-30T07:10:56Z</time>
      </trkpt>
      <trkpt lat="47.92299" lon="2.12732">
        <ele>99</ele>
        <time>2017-04-30T07:10:58Z</time>
      </trkpt>
      <trkpt lat="47.923" lon="2.12753">
        <ele>99</ele>
        <time>2017-04-30T07:11:00Z</time>
      </trkpt>
      <trkpt lat="47.92302" lon="2.12773">
        <ele>99</ele>
        <time>2017-04-30T07:11:02Z</time>
      </trkpt>
      <trkpt lat="47.92304" lon="2.12794">
        <ele>98</ele>
        <time>2017-04-30T07:11:04Z</time>
      </trkpt>
      <trkpt lat="47.92308" lon="2.12814">
        <ele>98</ele>
        <time>2017-04-30T07:11:06Z</time>
      </trkpt>
      <trkpt lat="47.92312" lon="2.12834">
        <ele>98</ele>
        <time>2017-04-30T07:11:08Z</time>
      </trkpt>
      <trkpt lat="47.92318" lon="2.12853">
        <ele>98</ele>
        <time>2017-04-30T07:11:10Z</time>
      </trkpt>
      <trkpt lat="47.92325" lon="2.12871">
        <ele>98</ele>
        <time>2017-04-30T07:11:12Z</time>
      </trkpt>
      <trkpt lat="47.92333" lon="2.12888">
        <ele>98</ele>
        <time>2017-04-30T07:11:14Z</time>
      </trkpt>
      <trkpt lat="47.92342" lon="2.12905">
        <ele>100</ele>
        <time>2017-04-30T07:11:15Z</time>
      </trkpt>
      <trkpt lat="47.92351" lon="2.12921">
        <ele>101</ele>
        <time>2017-04-30T07:11:18Z</time>
      </trkpt>
      <trkpt lat="47.9236" lon="2.12937">
        <ele>102</ele>
        <time>2017-04-30T07:11:20Z</time>
      </trkpt>
      <trkpt lat="47.92368" lon="2.12954">
        <ele>102</ele>
        <time>2017-04-30T07:11:22Z</time>
      </trkpt>
      <trkpt lat="47.92377" lon="2.1297">
        <ele>104</ele>
        <time>2017-04-30T07:11:24Z</time>
      </trkpt>
      <trkpt lat="47.92385" lon="2.12986">
        <ele>104</ele>
        <time>2017-04-30T07:11:26Z</time>
      </trkpt>
      <trkpt lat="47.92395" lon="2.13003">
        <ele>103</ele>
        <time>2017-04-30T07:11:28Z</time>
      </trkpt>
      <trkpt lat="47.92403" lon="2.1302">
        <ele>102</ele>
        <time>2017-04-30T07:11:30Z</time>
      </trkpt>
      <trkpt lat="47.92412" lon="2.13036">
        <ele>102</ele>
        <time>2017-04-30T07:11:32Z</time>
      </trkpt>
      <trkpt lat="47.92421" lon="2.13053">
        <ele>102</ele>
        <time>2017-04-30T07:11:34Z</time>
      </trkpt>
      <trkpt lat="47.92429" lon="2.13069">
        <ele>101</ele>
        <time>2017-04-30T07:11:36Z</time>
      </trkpt>
      <trkpt lat="47.92437" lon="2.13086">
        <ele>101</ele>
        <time>2017-04-30T07:11:38Z</time>
      </trkpt>
      <trkpt lat="47.92446" lon="2.13103">
        <ele>101</ele>
        <time>2017-04-30T07:11:40Z</time>
      </trkpt>
      <trkpt lat="47.92454" lon="2.13119">
        <ele>101</ele>
        <time>2017-04-30T07:11:42Z</time>
      </trkpt>
      <trkpt lat="47.92463" lon="2.13136">
        <ele>100</ele>
        <time>2017-04-30T07:11:44Z</time>
      </trkpt>
      <trkpt lat="47.92471" lon="2.13152">
        <ele>100</ele>
        <time>2017-04-30T07:11:46Z</time>
      </trkpt>
      <trkpt lat="47.92479" lon="2.13168">
        <ele>100</ele>
        <time>2017-04-30T07:11:48Z</time>
      </trkpt>
      <trkpt lat="47.92488" lon="2.13185">
        <ele>100</ele>
        <time>2017-04-30T07:11:50Z</time>
      </trkpt>
      <trkpt lat="47.92497" lon="2.13201">
        <ele>100</ele>
        <time>2017-04-30T07:11:52Z</time>
      </trkpt>
      <trkpt lat="47.92506" lon="2.13218">
        <ele>100</ele>
        <time>2017-04-30T07:11:54Z</time>
      </trkpt>
      <trkpt lat="47.92515" lon="2.13234">
        <ele>100</ele>
        <time>2017-04-30T07:11:56Z</time>
      </trkpt>
      <trkpt lat="47.92524" lon="2.13251">
        <ele>100</ele>
        <time>2017-04-30T07:11:58Z</time>
      </trkpt>
      <trkpt lat="47.92532" lon="2.13267">
        <ele>100</ele>
        <time>2017-04-30T07:12:00Z</time>
      </trkpt>
      <trkpt lat="47.92541" lon="2.13283">
        <ele>100</ele>
        <time>2017-04-30T07:12:02Z</time>
      </trkpt>
      <trkpt lat="47.9255" lon="2.133">
        <ele>100</ele>
        <time>2017-04-30T07:12:04Z</time>
      </trkpt>
      <trkpt lat="47.92558" lon="2.13316">
        <ele>100</ele>
        <time>2017-04-30T07:12:06Z</time>
      </trkpt>
      <trkpt lat="47.92567" lon="2.13332">
        <ele>99</ele>
        <time>2017-04-30T07:12:08Z</time>
      </trkpt>
      <trkpt lat="47.92576" lon="2.1335">
        <ele>99</ele>
        <time>2017-04-30T07:12:10Z</time>
      </trkpt>
      <trkpt lat="47.92585" lon="2.13367">
        <ele>99</ele>
        <time>2017-04-30T07:12:12Z</time>
      </trkpt>
      <trkpt lat="47.92595" lon="2.13384">
        <ele>100</ele>
        <time>2017-04-30T07:12:14Z</time>
      </trkpt>
      <trkpt lat="47.92604" lon="2.13401">
        <ele>100</ele>
        <time>2017-04-30T07:12:16Z</time>
      </trkpt>
      <trkpt lat="47.92612" lon="2.13417">
        <ele>100</ele>
        <time>2017-04-30T07:12:18Z</time>
      </trkpt>
      <trkpt lat="47.92621" lon="2.13434">
        <ele>100</ele>
        <time>2017-04-30T07:12:20Z</time>
      </trkpt>
      <trkpt lat="47.9263" lon="2.1345">
        <ele>99</ele>
        <time>2017-04-30T07:12:22Z</time>
      </trkpt>
      <trkpt lat="47.92638" lon="2.13467">
        <ele>99</ele>
        <time>2017-04-30T07:12:24Z</time>
      </trkpt>
      <trkpt lat="47.92646" lon="2.13483">
        <ele>99</ele>
        <time>2017-04-30T07:12:26Z</time>
      </trkpt>
      <trkpt lat="47.92655" lon="2.13499">
        <ele>99</ele>
        <time>2017-04-30T07:12:28Z</time>
      </trkpt>
      <trkpt lat="47.92664" lon="2.13516">
        <ele>99</ele>
        <time>2017-04-30T07:12:30Z</time>
      </trkpt>
      <trkpt lat="47.92672" lon="2.13532">
        <ele>99</ele>
        <time>2017-04-30T07:12:32Z</time>
      </trkpt>
      <trkpt lat="47.92681" lon="2.13549">
        <ele>99</ele>
        <time>2017-04-30T07:12:34Z</time>
      </trkpt>
      <trkpt lat="47.9269" lon="2.13566">
        <ele>99</ele>
        <time>2017-04-30T07:12:36Z</time>
      </trkpt>
      <trkpt lat="47.92698" lon="2.13582">
        <ele>99</ele>
        <time>2017-04-30T07:12:38Z</time>
      </trkpt>
      <trkpt lat="47.92707" lon="2.13599">
        <ele>99</ele>
        <time>2017-04-30T07:12:40Z</time>
      </trkpt>
      <trkpt lat="47.92715" lon="2.13615">
        <ele>98</ele>
        <time>2017-04-30T07:12:42Z</time>
      </trkpt>
      <trkpt lat="47.92724" lon="2.13632">
        <ele>98</ele>
        <time>2017-04-30T07:12:44Z</time>
      </trkpt>
      <trkpt lat="47.92731" lon="2.13647">
        <ele>98</ele>
        <time>2017-04-30T07:12:46Z</time>
      </trkpt>
      <trkpt lat="47.92739" lon="2.13663">
        <ele>98</ele>
        <time>2017-04-30T07:12:48Z</time>
      </trkpt>
      <trkpt lat="47.92747" lon="2.13678">
        <ele>98</ele>
        <time>2017-04-30T07:12:50Z</time>
      </trkpt>
      <trkpt lat="47.92756" lon="2.13693">
        <ele>98</ele>
        <time>2017-04-30T07:12:52Z</time>
      </trkpt>
      <trkpt lat="47.92764" lon="2.13709">
        <ele>98</ele>
        <time>2017-04-30T07:12:54Z</time>
      </trkpt>
      <trkpt lat="47.92772" lon="2.13725">
        <ele>98</ele>
        <time>2017-04-30T07:12:56Z</time>
      </trkpt>
      <trkpt lat="47.9278" lon="2.1374">
        <ele>98</ele>
        <time>2017-04-30T07:12:58Z</time>
      </trkpt>
      <trkpt lat="47.92788" lon="2.13755">
        <ele>98</ele>
        <time>2017-04-30T07:13:00Z</time>
      </trkpt>
      <trkpt lat="47.92796" lon="2.1377">
        <ele>98</ele>
        <time>2017-04-30T07:13:02Z</time>
      </trkpt>
      <trkpt lat="47.92803" lon="2.13784">
        <ele>98</ele>
        <time>2017-04-30T07:13:04Z</time>
      </trkpt>
      <trkpt lat="47.92812" lon="2.13797">
        <ele>98</ele>
        <time>2017-04-30T07:13:06Z</time>
      </trkpt>
      <trkpt lat="47.9282" lon="2.13809">
        <ele>98</ele>
        <time>2017-04-30T07:13:08Z</time>
      </trkpt>
      <trkpt lat="47.92829" lon="2.13821">
        <ele>98</ele>
        <time>2017-04-30T07:13:10Z</time>
      </trkpt>
      <trkpt lat="47.92837" lon="2.13831">
        <ele>98</ele>
        <time>2017-04-30T07:13:12Z</time>
      </trkpt>
      <trkpt lat="47.92846" lon="2.13841">
        <ele>98</ele>
        <time>2017-04-30T07:13:14Z</time>
      </trkpt>
      <trkpt lat="47.92846" lon="2.13841">
        <ele>98</ele>
        <time>2017-04-30T07:13:16Z</time>
      </trkpt>
      <trkpt lat="47.92864" lon="2.1386">
        <ele>98</ele>
        <time>2017-04-30T07:13:18Z</time>
      </trkpt>
      <trkpt lat="47.92874" lon="2.13869">
        <ele>99</ele>
        <time>2017-04-30T07:13:20Z</time>
      </trkpt>
      <trkpt lat="47.92884" lon="2.13877">
        <ele>99</ele>
        <time>2017-04-30T07:13:22Z</time>
      </trkpt>
      <trkpt lat="47.92893" lon="2.13885">
        <ele>99</ele>
        <time>2017-04-30T07:13:24Z</time>
      </trkpt>
      <trkpt lat="47.92893" lon="2.13885">
        <ele>99</ele>
        <time>2017-04-30T07:13:26Z</time>
      </trkpt>
      <trkpt lat="47.92893" lon="2.13885">
        <ele>99</ele>
        <time>2017-04-30T07:13:28Z</time>
      </trkpt>
      <trkpt lat="47.92893" lon="2.13885">
        <ele>99</ele>
        <time>2017-04-30T07:13:30Z</time>
      </trkpt>
      <trkpt lat="47.92893" lon="2.13885">
        <ele>99</ele>
        <time>2017-04-30T07:13:32Z</time>
      </trkpt>
      <trkpt lat="47.92893" lon="2.13885">
        <ele>99</ele>
        <time>2017-04-30T07:13:34Z</time>
      </trkpt>
      <trkpt lat="47.92893" lon="2.13885">
        <ele>99</ele>
        <time>2017-04-30T07:13:36Z</time>
      </trkpt>
      <trkpt lat="47.92893" lon="2.13885">
        <ele>99</ele>
        <time>2017-04-30T07:13:38Z</time>
      </trkpt>
      <trkpt lat="47.92943" lon="2.13907">
        <ele>104</ele>
        <time>2017-04-30T07:13:49Z</time>
      </trkpt>
      <trkpt lat="47.92957" lon="2.13894">
        <ele>103</ele>
        <time>2017-04-30T07:13:53Z</time>
      </trkpt>
      <trkpt lat="47.92971" lon="2.13906">
        <ele>102</ele>
        <time>2017-04-30T07:13:56Z</time>
      </trkpt>
      <trkpt lat="47.92976" lon="2.1392">
        <ele>101</ele>
        <time>2017-04-30T07:13:59Z</time>
      </trkpt>
      <trkpt lat="47.92982" lon="2.13931">
        <ele>101</ele>
        <time>2017-04-30T07:14:00Z</time>
      </trkpt>
      <trkpt lat="47.92992" lon="2.13943">
        <ele>101</ele>
        <time>2017-04-30T07:14:02Z</time>
      </trkpt>
      <trkpt lat="47.93002" lon="2.13955">
        <ele>101</ele>
        <time>2017-04-30T07:14:04Z</time>
      </trkpt>
      <trkpt lat="47.93013" lon="2.13968">
        <ele>101</ele>
        <time>2017-04-30T07:14:06Z</time>
      </trkpt>
      <trkpt lat="47.93024" lon="2.13981">
        <ele>101</ele>
        <time>2017-04-30T07:14:08Z</time>
      </trkpt>
      <trkpt lat="47.93034" lon="2.13994">
        <ele>101</ele>
        <time>2017-04-30T07:14:10Z</time>
      </trkpt>
      <trkpt lat="47.93046" lon="2.14006">
        <ele>101</ele>
        <time>2017-04-30T07:14:12Z</time>
      </trkpt>
      <trkpt lat="47.93057" lon="2.14018">
        <ele>100</ele>
        <time>2017-04-30T07:14:14Z</time>
      </trkpt>
      <trkpt lat="47.93069" lon="2.1403">
        <ele>100</ele>
        <time>2017-04-30T07:14:16Z</time>
      </trkpt>
      <trkpt lat="47.93082" lon="2.14042">
        <ele>100</ele>
        <time>2017-04-30T07:14:18Z</time>
      </trkpt>
      <trkpt lat="47.93092" lon="2.14056">
        <ele>100</ele>
        <time>2017-04-30T07:14:20Z</time>
      </trkpt>
      <trkpt lat="47.93104" lon="2.14069">
        <ele>100</ele>
        <time>2017-04-30T07:14:22Z</time>
      </trkpt>
      <trkpt lat="47.93115" lon="2.14081">
        <ele>100</ele>
        <time>2017-04-30T07:14:24Z</time>
      </trkpt>
      <trkpt lat="47.93126" lon="2.14093">
        <ele>100</ele>
        <time>2017-04-30T07:14:26Z</time>
      </trkpt>
      <trkpt lat="47.93137" lon="2.14107">
        <ele>100</ele>
        <time>2017-04-30T07:14:28Z</time>
      </trkpt>
      <trkpt lat="47.93147" lon="2.14122">
        <ele>100</ele>
        <time>2017-04-30T07:14:30Z</time>
      </trkpt>
      <trkpt lat="47.93156" lon="2.14137">
        <ele>100</ele>
        <time>2017-04-30T07:14:32Z</time>
      </trkpt>
      <trkpt lat="47.93165" lon="2.14152">
        <ele>100</ele>
        <time>2017-04-30T07:14:34Z</time>
      </trkpt>
      <trkpt lat="47.93174" lon="2.14167">
        <ele>99</ele>
        <time>2017-04-30T07:14:36Z</time>
      </trkpt>
      <trkpt lat="47.93183" lon="2.14183">
        <ele>99</ele>
        <time>2017-04-30T07:14:38Z</time>
      </trkpt>
      <trkpt lat="47.93193" lon="2.14198">
        <ele>99</ele>
        <time>2017-04-30T07:14:40Z</time>
      </trkpt>
      <trkpt lat="47.93201" lon="2.14215">
        <ele>99</ele>
        <time>2017-04-30T07:14:42Z</time>
      </trkpt>
      <trkpt lat="47.9321" lon="2.14231">
        <ele>100</ele>
        <time>2017-04-30T07:14:44Z</time>
      </trkpt>
      <trkpt lat="47.93219" lon="2.14247">
        <ele>100</ele>
        <time>2017-04-30T07:14:46Z</time>
      </trkpt>
      <trkpt lat="47.93228" lon="2.14263">
        <ele>100</ele>
        <time>2017-04-30T07:14:48Z</time>
      </trkpt>
      <trkpt lat="47.93237" lon="2.14279">
        <ele>100</ele>
        <time>2017-04-30T07:14:50Z</time>
      </trkpt>
      <trkpt lat="47.93246" lon="2.14294">
        <ele>100</ele>
        <time>2017-04-30T07:14:52Z</time>
      </trkpt>
      <trkpt lat="47.93254" lon="2.14308">
        <ele>100</ele>
        <time>2017-04-30T07:14:54Z</time>
      </trkpt>
      <trkpt lat="47.93261" lon="2.14324">
        <ele>100</ele>
        <time>2017-04-30T07:14:56Z</time>
      </trkpt>
      <trkpt lat="47.9327" lon="2.14339">
        <ele>98</ele>
        <time>2017-04-30T07:14:58Z</time>
      </trkpt>
      <trkpt lat="47.93278" lon="2.14356">
        <ele>100</ele>
        <time>2017-04-30T07:15:00Z</time>
      </trkpt>
      <trkpt lat="47.93286" lon="2.14372">
        <ele>100</ele>
        <time>2017-04-30T07:15:02Z</time>
      </trkpt>
      <trkpt lat="47.93293" lon="2.14387">
        <ele>101</ele>
        <time>2017-04-30T07:15:04Z</time>
      </trkpt>
      <trkpt lat="47.93299" lon="2.14402">
        <ele>101</ele>
        <time>2017-04-30T07:15:06Z</time>
      </trkpt>
      <trkpt lat="47.93306" lon="2.14416">
        <ele>101</ele>
        <time>2017-04-30T07:15:08Z</time>
      </trkpt>
      <trkpt lat="47.93312" lon="2.1443">
        <ele>100</ele>
        <time>2017-04-30T07:15:10Z</time>
      </trkpt>
      <trkpt lat="47.93319" lon="2.14444">
        <ele>100</ele>
        <time>2017-04-30T07:15:12Z</time>
      </trkpt>
      <trkpt lat="47.93326" lon="2.14459">
        <ele>100</ele>
        <time>2017-04-30T07:15:14Z</time>
      </trkpt>
      <trkpt lat="47.93332" lon="2.14473">
        <ele>99</ele>
        <time>2017-04-30T07:15:16Z</time>
      </trkpt>
      <trkpt lat="47.9334" lon="2.14489">
        <ele>100</ele>
        <time>2017-04-30T07:15:18Z</time>
      </trkpt>
      <trkpt lat="47.93345" lon="2.14504">
        <ele>100</ele>
        <time>2017-04-30T07:15:20Z</time>
      </trkpt>
      <trkpt lat="47.93352" lon="2.14517">
        <ele>100</ele>
        <time>2017-04-30T07:15:22Z</time>
      </trkpt>
      <trkpt lat="47.93357" lon="2.1453">
        <ele>100</ele>
        <time>2017-04-30T07:15:24Z</time>
      </trkpt>
      <trkpt lat="47.93365" lon="2.14546">
        <ele>100</ele>
        <time>2017-04-30T07:15:26Z</time>
      </trkpt>
      <trkpt lat="47.93372" lon="2.14563">
        <ele>100</ele>
        <time>2017-04-30T07:15:28Z</time>
      </trkpt>
      <trkpt lat="47.93379" lon="2.1458">
        <ele>100</ele>
        <time>2017-04-30T07:15:30Z</time>
      </trkpt>
      <trkpt lat="47.93387" lon="2.14597">
        <ele>101</ele>
        <time>2017-04-30T07:15:32Z</time>
      </trkpt>
      <trkpt lat="47.93394" lon="2.14612">
        <ele>100</ele>
        <time>2017-04-30T07:15:34Z</time>
      </trkpt>
      <trkpt lat="47.93401" lon="2.14629">
        <ele>100</ele>
        <time>2017-04-30T07:15:36Z</time>
      </trkpt>
      <trkpt lat="47.93409" lon="2.14645">
        <ele>102</ele>
        <time>2017-04-30T07:15:38Z</time>
      </trkpt>
      <trkpt lat="47.93419" lon="2.14661">
        <ele>103</ele>
        <time>2017-04-30T07:15:40Z</time>
      </trkpt>
      <trkpt lat="47.93428" lon="2.14676">
        <ele>103</ele>
        <time>2017-04-30T07:15:42Z</time>
      </trkpt>
      <trkpt lat="47.93437" lon="2.1469">
        <ele>102</ele>
        <time>2017-04-30T07:15:44Z</time>
      </trkpt>
      <trkpt lat="47.93447" lon="2.14704">
        <ele>101</ele>
        <time>2017-04-30T07:15:46Z</time>
      </trkpt>
      <trkpt lat="47.93457" lon="2.14717">
        <ele>100</ele>
        <time>2017-04-30T07:15:48Z</time>
      </trkpt>
      <trkpt lat="47.93468" lon="2.14728">
        <ele>99</ele>
        <time>2017-04-30T07:15:50Z</time>
      </trkpt>
      <trkpt lat="47.9348" lon="2.14734">
        <ele>98</ele>
        <time>2017-04-30T07:15:52Z</time>
      </trkpt>
      <trkpt lat="47.9349" lon="2.14724">
        <ele>98</ele>
        <time>2017-04-30T07:15:54Z</time>
      </trkpt>
      <trkpt lat="47.935" lon="2.14713">
        <ele>98</ele>
        <time>2017-04-30T07:15:56Z</time>
      </trkpt>
      <trkpt lat="47.93513" lon="2.14712">
        <ele>99</ele>
        <time>2017-04-30T07:15:58Z</time>
      </trkpt>
      <trkpt lat="47.93526" lon="2.14718">
        <ele>100</ele>
        <time>2017-04-30T07:16:00Z</time>
      </trkpt>
      <trkpt lat="47.93538" lon="2.14726">
        <ele>101</ele>
        <time>2017-04-30T07:16:02Z</time>
      </trkpt>
      <trkpt lat="47.93543" lon="2.14743">
        <ele>100</ele>
        <time>2017-04-30T07:16:04Z</time>
      </trkpt>
      <trkpt lat="47.93544" lon="2.14762">
        <ele>100</ele>
        <time>2017-04-30T07:16:06Z</time>
      </trkpt>
      <trkpt lat="47.93547" lon="2.14781">
        <ele>100</ele>
        <time>2017-04-30T07:16:08Z</time>
      </trkpt>
      <trkpt lat="47.93554" lon="2.14797">
        <ele>100</ele>
        <time>2017-04-30T07:16:10Z</time>
      </trkpt>
      <trkpt lat="47.93562" lon="2.14811">
        <ele>101</ele>
        <time>2017-04-30T07:16:12Z</time>
      </trkpt>
      <trkpt lat="47.9357" lon="2.14826">
        <ele>101</ele>
        <time>2017-04-30T07:16:14Z</time>
      </trkpt>
      <trkpt lat="47.93579" lon="2.1484">
        <ele>101</ele>
        <time>2017-04-30T07:16:16Z</time>
      </trkpt>
      <trkpt lat="47.93586" lon="2.14856">
        <ele>101</ele>
        <time>2017-04-30T07:16:18Z</time>
      </trkpt>
      <trkpt lat="47.93593" lon="2.1487">
        <ele>102</ele>
        <time>2017-04-30T07:16:20Z</time>
      </trkpt>
      <trkpt lat="47.936" lon="2.14885">
        <ele>103</ele>
        <time>2017-04-30T07:16:22Z</time>
      </trkpt>
      <trkpt lat="47.93606" lon="2.14899">
        <ele>103</ele>
        <time>2017-04-30T07:16:24Z</time>
      </trkpt>
      <trkpt lat="47.93614" lon="2.14915">
        <ele>104</ele>
        <time>2017-04-30T07:16:26Z</time>
      </trkpt>
      <trkpt lat="47.93621" lon="2.1493">
        <ele>104</ele>
        <time>2017-04-30T07:16:28Z</time>
      </trkpt>
      <trkpt lat="47.93628" lon="2.14947">
        <ele>105</ele>
        <time>2017-04-30T07:16:30Z</time>
      </trkpt>
      <trkpt lat="47.93636" lon="2.14962">
        <ele>106</ele>
        <time>2017-04-30T07:16:32Z</time>
      </trkpt>
      <trkpt lat="47.93643" lon="2.14978">
        <ele>107</ele>
        <time>2017-04-30T07:16:34Z</time>
      </trkpt>
      <trkpt lat="47.93652" lon="2.14996">
        <ele>108</ele>
        <time>2017-04-30T07:16:36Z</time>
      </trkpt>
      <trkpt lat="47.93661" lon="2.15013">
        <ele>108</ele>
        <time>2017-04-30T07:16:38Z</time>
      </trkpt>
      <trkpt lat="47.93669" lon="2.15028">
        <ele>108</ele>
        <time>2017-04-30T07:16:40Z</time>
      </trkpt>
      <trkpt lat="47.93677" lon="2.15043">
        <ele>107</ele>
        <time>2017-04-30T07:16:42Z</time>
      </trkpt>
      <trkpt lat="47.93686" lon="2.15059">
        <ele>106</ele>
        <time>2017-04-30T07:16:44Z</time>
      </trkpt>
      <trkpt lat="47.93694" lon="2.15075">
        <ele>106</ele>
        <time>2017-04-30T07:16:46Z</time>
      </trkpt>
      <trkpt lat="47.93701" lon="2.15091">
        <ele>106</ele>
        <time>2017-04-30T07:16:48Z</time>
      </trkpt>
      <trkpt lat="47.93707" lon="2.15105">
        <ele>105</ele>
        <time>2017-04-30T07:16:50Z</time>
      </trkpt>
      <trkpt lat="47.93707" lon="2.15105">
        <ele>105</ele>
        <time>2017-04-30T07:16:52Z</time>
      </trkpt>
      <trkpt lat="47.93707" lon="2.15105">
        <ele>105</ele>
        <time>2017-04-30T07:16:54Z</time>
      </trkpt>
      <trkpt lat="47.93707" lon="2.15105">
        <ele>105</ele>
        <time>2017-04-30T07:16:56Z</time>
      </trkpt>
      <trkpt lat="47.93718" lon="2.15171">
        <ele>104</ele>
        <time>2017-04-30T07:17:00Z</time>
      </trkpt>
      <trkpt lat="47.93725" lon="2.15185">
        <ele>105</ele>
        <time>2017-04-30T07:17:02Z</time>
      </trkpt>
      <trkpt lat="47.93733" lon="2.15196">
        <ele>105</ele>
        <time>2017-04-30T07:17:04Z</time>
      </trkpt>
      <trkpt lat="47.93739" lon="2.15209">
        <ele>104</ele>
        <time>2017-04-30T07:17:06Z</time>
      </trkpt>
      <trkpt lat="47.93744" lon="2.15223">
        <ele>104</ele>
        <time>2017-04-30T07:17:08Z</time>
      </trkpt>
      <trkpt lat="47.93748" lon="2.15239">
        <ele>104</ele>
        <time>2017-04-30T07:17:10Z</time>
      </trkpt>
      <trkpt lat="47.93751" lon="2.15255">
        <ele>104</ele>
        <time>2017-04-30T07:17:12Z</time>
      </trkpt>
      <trkpt lat="47.93752" lon="2.15273">
        <ele>103</ele>
        <time>2017-04-30T07:17:14Z</time>
      </trkpt>
      <trkpt lat="47.93752" lon="2.15291">
        <ele>103</ele>
        <time>2017-04-30T07:17:16Z</time>
      </trkpt>
      <trkpt lat="47.93753" lon="2.15309">
        <ele>103</ele>
        <time>2017-04-30T07:17:18Z</time>
      </trkpt>
      <trkpt lat="47.93752" lon="2.15326">
        <ele>103</ele>
        <time>2017-04-30T07:17:20Z</time>
      </trkpt>
      <trkpt lat="47.93752" lon="2.15343">
        <ele>103</ele>
        <time>2017-04-30T07:17:22Z</time>
      </trkpt>
      <trkpt lat="47.93751" lon="2.15361">
        <ele>103</ele>
        <time>2017-04-30T07:17:24Z</time>
      </trkpt>
      <trkpt lat="47.93751" lon="2.1538">
        <ele>102</ele>
        <time>2017-04-30T07:17:26Z</time>
      </trkpt>
      <trkpt lat="47.93751" lon="2.15398">
        <ele>102</ele>
        <time>2017-04-30T07:17:28Z</time>
      </trkpt>
      <trkpt lat="47.93751" lon="2.15416">
        <ele>102</ele>
        <time>2017-04-30T07:17:30Z</time>
      </trkpt>
      <trkpt lat="47.9375" lon="2.15433">
        <ele>102</ele>
        <time>2017-04-30T07:17:32Z</time>
      </trkpt>
      <trkpt lat="47.93749" lon="2.15451">
        <ele>103</ele>
        <time>2017-04-30T07:17:34Z</time>
      </trkpt>
      <trkpt lat="47.93748" lon="2.15467">
        <ele>103</ele>
        <time>2017-04-30T07:17:36Z</time>
      </trkpt>
      <trkpt lat="47.93747" lon="2.15484">
        <ele>103</ele>
        <time>2017-04-30T07:17:38Z</time>
      </trkpt>
      <trkpt lat="47.93745" lon="2.15502">
        <ele>103</ele>
        <time>2017-04-30T07:17:40Z</time>
      </trkpt>
      <trkpt lat="47.93743" lon="2.1552">
        <ele>104</ele>
        <time>2017-04-30T07:17:42Z</time>
      </trkpt>
      <trkpt lat="47.93741" lon="2.15538">
        <ele>103</ele>
        <time>2017-04-30T07:17:44Z</time>
      </trkpt>
      <trkpt lat="47.9374" lon="2.15554">
        <ele>102</ele>
        <time>2017-04-30T07:17:46Z</time>
      </trkpt>
      <trkpt lat="47.9374" lon="2.15573">
        <ele>101</ele>
        <time>2017-04-30T07:17:48Z</time>
      </trkpt>
      <trkpt lat="47.93739" lon="2.15592">
        <ele>100</ele>
        <time>2017-04-30T07:17:50Z</time>
      </trkpt>
      <trkpt lat="47.93738" lon="2.1561">
        <ele>100</ele>
        <time>2017-04-30T07:17:52Z</time>
      </trkpt>
      <trkpt lat="47.93738" lon="2.15629">
        <ele>101</ele>
        <time>2017-04-30T07:17:54Z</time>
      </trkpt>
      <trkpt lat="47.93738" lon="2.15648">
        <ele>101</ele>
        <time>2017-04-30T07:17:56Z</time>
      </trkpt>
      <trkpt lat="47.93738" lon="2.15666">
        <ele>101</ele>
        <time>2017-04-30T07:17:58Z</time>
      </trkpt>
      <trkpt lat="47.93739" lon="2.15685">
        <ele>102</ele>
        <time>2017-04-30T07:18:00Z</time>
      </trkpt>
      <trkpt lat="47.9374" lon="2.15704">
        <ele>102</ele>
        <time>2017-04-30T07:18:02Z</time>
      </trkpt>
      <trkpt lat="47.9374" lon="2.15722">
        <ele>102</ele>
        <time>2017-04-30T07:18:04Z</time>
      </trkpt>
      <trkpt lat="47.9374" lon="2.1574">
        <ele>103</ele>
        <time>2017-04-30T07:18:06Z</time>
      </trkpt>
      <trkpt lat="47.93741" lon="2.15758">
        <ele>103</ele>
        <time>2017-04-30T07:18:08Z</time>
      </trkpt>
      <trkpt lat="47.9374" lon="2.15775">
        <ele>103</ele>
        <time>2017-04-30T07:18:10Z</time>
      </trkpt>
      <trkpt lat="47.9374" lon="2.15792">
        <ele>104</ele>
        <time>2017-04-30T07:18:12Z</time>
      </trkpt>
      <trkpt lat="47.9374" lon="2.15809">
        <ele>104</ele>
        <time>2017-04-30T07:18:14Z</time>
      </trkpt>
      <trkpt lat="47.93741" lon="2.15827">
        <ele>105</ele>
        <time>2017-04-30T07:18:16Z</time>
      </trkpt>
      <trkpt lat="47.93741" lon="2.15845">
        <ele>106</ele>
        <time>2017-04-30T07:18:18Z</time>
      </trkpt>
      <trkpt lat="47.9374" lon="2.15862">
        <ele>105</ele>
        <time>2017-04-30T07:18:20Z</time>
      </trkpt>
      <trkpt lat="47.9374" lon="2.15879">
        <ele>105</ele>
        <time>2017-04-30T07:18:22Z</time>
      </trkpt>
      <trkpt lat="47.93738" lon="2.15896">
        <ele>105</ele>
        <time>2017-04-30T07:18:24Z</time>
      </trkpt>
      <trkpt lat="47.93737" lon="2.15914">
        <ele>105</ele>
        <time>2017-04-30T07:18:26Z</time>
      </trkpt>
      <trkpt lat="47.93737" lon="2.15932">
        <ele>106</ele>
        <time>2017-04-30T07:18:28Z</time>
      </trkpt>
      <trkpt lat="47.93736" lon="2.15949">
        <ele>107</ele>
        <time>2017-04-30T07:18:30Z</time>
      </trkpt>
      <trkpt lat="47.93734" lon="2.15966">
        <ele>108</ele>
        <time>2017-04-30T07:18:32Z</time>
      </trkpt>
      <trkpt lat="47.93732" lon="2.15983">
        <ele>109</ele>
        <time>2017-04-30T07:18:34Z</time>
      </trkpt>
      <trkpt lat="47.93729" lon="2.16">
        <ele>109</ele>
        <time>2017-04-30T07:18:36Z</time>
      </trkpt>
      <trkpt lat="47.93726" lon="2.16017">
        <ele>110</ele>
        <time>2017-04-30T07:18:38Z</time>
      </trkpt>
      <trkpt lat="47.93723" lon="2.16033">
        <ele>110</ele>
        <time>2017-04-30T07:18:40Z</time>
      </trkpt>
      <trkpt lat="47.93718" lon="2.16049">
        <ele>110</ele>
        <time>2017-04-30T07:18:42Z</time>
      </trkpt>
      <trkpt lat="47.93715" lon="2.16064">
        <ele>111</ele>
        <time>2017-04-30T07:18:44Z</time>
      </trkpt>
      <trkpt lat="47.93711" lon="2.16079">
        <ele>110</ele>
        <time>2017-04-30T07:18:46Z</time>
      </trkpt>
      <trkpt lat="47.93708" lon="2.16096">
        <ele>110</ele>
        <time>2017-04-30T07:18:48Z</time>
      </trkpt>
      <trkpt lat="47.93703" lon="2.16112">
        <ele>111</ele>
        <time>2017-04-30T07:18:50Z</time>
      </trkpt>
      <trkpt lat="47.93699" lon="2.16127">
        <ele>111</ele>
        <time>2017-04-30T07:18:52Z</time>
      </trkpt>
      <trkpt lat="47.93695" lon="2.16143">
        <ele>112</ele>
        <time>2017-04-30T07:18:54Z</time>
      </trkpt>
      <trkpt lat="47.93691" lon="2.16159">
        <ele>113</ele>
        <time>2017-04-30T07:18:56Z</time>
      </trkpt>
      <trkpt lat="47.93686" lon="2.16175">
        <ele>111</ele>
        <time>2017-04-30T07:18:58Z</time>
      </trkpt>
      <trkpt lat="47.93681" lon="2.16191">
        <ele>111</ele>
        <time>2017-04-30T07:19:00Z</time>
      </trkpt>
      <trkpt lat="47.93675" lon="2.16206">
        <ele>111</ele>
        <time>2017-04-30T07:19:02Z</time>
      </trkpt>
      <trkpt lat="47.9367" lon="2.16221">
        <ele>111</ele>
        <time>2017-04-30T07:19:04Z</time>
      </trkpt>
      <trkpt lat="47.93665" lon="2.16237">
        <ele>111</ele>
        <time>2017-04-30T07:19:06Z</time>
      </trkpt>
      <trkpt lat="47.93661" lon="2.16253">
        <ele>111</ele>
        <time>2017-04-30T07:19:08Z</time>
      </trkpt>
      <trkpt lat="47.93657" lon="2.16269">
        <ele>111</ele>
        <time>2017-04-30T07:19:10Z</time>
      </trkpt>
      <trkpt lat="47.93653" lon="2.16286">
        <ele>112</ele>
        <time>2017-04-30T07:19:12Z</time>
      </trkpt>
      <trkpt lat="47.93648" lon="2.16301">
        <ele>113</ele>
        <time>2017-04-30T07:19:14Z</time>
      </trkpt>
      <trkpt lat="47.93644" lon="2.16318">
        <ele>112</ele>
        <time>2017-04-30T07:19:16Z</time>
      </trkpt>
      <trkpt lat="47.93639" lon="2.16334">
        <ele>112</ele>
        <time>2017-04-30T07:19:18Z</time>
      </trkpt>
      <trkpt lat="47.93636" lon="2.16351">
        <ele>112</ele>
        <time>2017-04-30T07:19:20Z</time>
      </trkpt>
      <trkpt lat="47.93631" lon="2.16368">
        <ele>112</ele>
        <time>2017-04-30T07:19:22Z</time>
      </trkpt>
      <trkpt lat="47.93628" lon="2.16386">
        <ele>111</ele>
        <time>2017-04-30T07:19:24Z</time>
      </trkpt>
      <trkpt lat="47.93624" lon="2.16404">
        <ele>110</ele>
        <time>2017-04-30T07:19:26Z</time>
      </trkpt>
      <trkpt lat="47.93621" lon="2.16421">
        <ele>111</ele>
        <time>2017-04-30T07:19:28Z</time>
      </trkpt>
      <trkpt lat="47.93618" lon="2.16438">
        <ele>112</ele>
        <time>2017-04-30T07:19:30Z</time>
      </trkpt>
      <trkpt lat="47.93616" lon="2.16456">
        <ele>112</ele>
        <time>2017-04-30T07:19:32Z</time>
      </trkpt>
      <trkpt lat="47.93614" lon="2.16473">
        <ele>113</ele>
        <time>2017-04-30T07:19:34Z</time>
      </trkpt>
      <trkpt lat="47.93612" lon="2.1649">
        <ele>113</ele>
        <time>2017-04-30T07:19:36Z</time>
      </trkpt>
      <trkpt lat="47.9361" lon="2.16508">
        <ele>113</ele>
        <time>2017-04-30T07:19:38Z</time>
      </trkpt>
      <trkpt lat="47.9361" lon="2.16525">
        <ele>113</ele>
        <time>2017-04-30T07:19:40Z</time>
      </trkpt>
      <trkpt lat="47.93609" lon="2.16541">
        <ele>114</ele>
        <time>2017-04-30T07:19:42Z</time>
      </trkpt>
      <trkpt lat="47.93608" lon="2.16559">
        <ele>114</ele>
        <time>2017-04-30T07:19:44Z</time>
      </trkpt>
      <trkpt lat="47.93608" lon="2.16576">
        <ele>115</ele>
        <time>2017-04-30T07:19:46Z</time>
      </trkpt>
      <trkpt lat="47.93608" lon="2.16594">
        <ele>115</ele>
        <time>2017-04-30T07:19:48Z</time>
      </trkpt>
      <trkpt lat="47.93609" lon="2.16612">
        <ele>116</ele>
        <time>2017-04-30T07:19:50Z</time>
      </trkpt>
      <trkpt lat="47.93608" lon="2.1663">
        <ele>116</ele>
        <time>2017-04-30T07:19:52Z</time>
      </trkpt>
      <trkpt lat="47.93608" lon="2.16647">
        <ele>116</ele>
        <time>2017-04-30T07:19:54Z</time>
      </trkpt>
      <trkpt lat="47.93608" lon="2.16665">
        <ele>117</ele>
        <time>2017-04-30T07:19:56Z</time>
      </trkpt>
      <trkpt lat="47.93609" lon="2.16682">
        <ele>117</ele>
        <time>2017-04-30T07:19:58Z</time>
      </trkpt>
      <trkpt lat="47.93609" lon="2.16699">
        <ele>117</ele>
        <time>2017-04-30T07:20:00Z</time>
      </trkpt>
      <trkpt lat="47.93608" lon="2.16716">
        <ele>117</ele>
        <time>2017-04-30T07:20:02Z</time>
      </trkpt>
      <trkpt lat="47.93608" lon="2.16716">
        <ele>117</ele>
        <time>2017-04-30T07:20:04Z</time>
      </trkpt>
      <trkpt lat="47.93608" lon="2.16716">
        <ele>117</ele>
        <time>2017-04-30T07:20:06Z</time>
      </trkpt>
      <trkpt lat="47.93608" lon="2.16716">
        <ele>117</ele>
        <time>2017-04-30T07:20:08Z</time>
      </trkpt>
      <trkpt lat="47.93618" lon="2.16797">
        <ele>115</ele>
        <time>2017-04-30T07:20:12Z</time>
      </trkpt>
      <trkpt lat="47.93621" lon="2.16815">
        <ele>114</ele>
        <time>2017-04-30T07:20:14Z</time>
      </trkpt>
      <trkpt lat="47.93624" lon="2.16833">
        <ele>114</ele>
        <time>2017-04-30T07:20:16Z</time>
      </trkpt>
      <trkpt lat="47.93628" lon="2.16851">
        <ele>113</ele>
        <time>2017-04-30T07:20:18Z</time>
      </trkpt>
      <trkpt lat="47.93633" lon="2.16869">
        <ele>114</ele>
        <time>2017-04-30T07:20:20Z</time>
      </trkpt>
      <trkpt lat="47.93636" lon="2.16885">
        <ele>115</ele>
        <time>2017-04-30T07:20:22Z</time>
      </trkpt>
      <trkpt lat="47.93641" lon="2.16903">
        <ele>115</ele>
        <time>2017-04-30T07:20:24Z</time>
      </trkpt>
      <trkpt lat="47.93645" lon="2.16918">
        <ele>115</ele>
        <time>2017-04-30T07:20:26Z</time>
      </trkpt>
      <trkpt lat="47.93651" lon="2.16934">
        <ele>115</ele>
        <time>2017-04-30T07:20:28Z</time>
      </trkpt>
      <trkpt lat="47.93655" lon="2.16951">
        <ele>115</ele>
        <time>2017-04-30T07:20:30Z</time>
      </trkpt>
      <trkpt lat="47.9366" lon="2.16968">
        <ele>115</ele>
        <time>2017-04-30T07:20:32Z</time>
      </trkpt>
      <trkpt lat="47.93664" lon="2.16985">
        <ele>114</ele>
        <time>2017-04-30T07:20:34Z</time>
      </trkpt>
      <trkpt lat="47.93668" lon="2.17">
        <ele>115</ele>
        <time>2017-04-30T07:20:36Z</time>
      </trkpt>
      <trkpt lat="47.93673" lon="2.17017">
        <ele>115</ele>
        <time>2017-04-30T07:20:38Z</time>
      </trkpt>
      <trkpt lat="47.93678" lon="2.17033">
        <ele>114</ele>
        <time>2017-04-30T07:20:40Z</time>
      </trkpt>
      <trkpt lat="47.93682" lon="2.17049">
        <ele>116</ele>
        <time>2017-04-30T07:20:42Z</time>
      </trkpt>
      <trkpt lat="47.93687" lon="2.17066">
        <ele>116</ele>
        <time>2017-04-30T07:20:44Z</time>
      </trkpt>
      <trkpt lat="47.93691" lon="2.17081">
        <ele>114</ele>
        <time>2017-04-30T07:20:46Z</time>
      </trkpt>
      <trkpt lat="47.93695" lon="2.17097">
        <ele>113</ele>
        <time>2017-04-30T07:20:48Z</time>
      </trkpt>
      <trkpt lat="47.937" lon="2.17114">
        <ele>112</ele>
        <time>2017-04-30T07:20:50Z</time>
      </trkpt>
      <trkpt lat="47.93705" lon="2.1713">
        <ele>111</ele>
        <time>2017-04-30T07:20:52Z</time>
      </trkpt>
      <trkpt lat="47.9371" lon="2.17147">
        <ele>111</ele>
        <time>2017-04-30T07:20:54Z</time>
      </trkpt>
      <trkpt lat="47.93713" lon="2.17164">
        <ele>111</ele>
        <time>2017-04-30T07:20:56Z</time>
      </trkpt>
      <trkpt lat="47.93716" lon="2.1718">
        <ele>111</ele>
        <time>2017-04-30T07:20:58Z</time>
      </trkpt>
      <trkpt lat="47.93718" lon="2.17197">
        <ele>110</ele>
        <time>2017-04-30T07:21:00Z</time>
      </trkpt>
      <trkpt lat="47.93718" lon="2.17197">
        <ele>110</ele>
        <time>2017-04-30T07:21:02Z</time>
      </trkpt>
      <trkpt lat="47.93718" lon="2.17197">
        <ele>110</ele>
        <time>2017-04-30T07:21:04Z</time>
      </trkpt>
      <trkpt lat="47.93718" lon="2.17197">
        <ele>110</ele>
        <time>2017-04-30T07:21:06Z</time>
      </trkpt>
      <trkpt lat="47.93718" lon="2.17197">
        <ele>110</ele>
        <time>2017-04-30T07:21:08Z</time>
      </trkpt>
      <trkpt lat="47.93718" lon="2.17197">
        <ele>110</ele>
        <time>2017-04-30T07:21:10Z</time>
      </trkpt>
      <trkpt lat="47.93733" lon="2.17307">
        <ele>109</ele>
        <time>2017-04-30T07:21:14Z</time>
      </trkpt>
      <trkpt lat="47.93736" lon="2.17324">
        <ele>109</ele>
        <time>2017-04-30T07:21:16Z</time>
      </trkpt>
      <trkpt lat="47.93737" lon="2.1734">
        <ele>109</ele>
        <time>2017-04-30T07:21:18Z</time>
      </trkpt>
      <trkpt lat="47.93737" lon="2.1734">
        <ele>109</ele>
        <time>2017-04-30T07:21:20Z</time>
      </trkpt>
      <trkpt lat="47.93737" lon="2.1734">
        <ele>109</ele>
        <time>2017-04-30T07:21:22Z</time>
      </trkpt>
      <trkpt lat="47.93737" lon="2.1734">
        <ele>109</ele>
        <time>2017-04-30T07:21:24Z</time>
      </trkpt>
      <trkpt lat="47.93737" lon="2.1734">
        <ele>109</ele>
        <time>2017-04-30T07:21:26Z</time>
      </trkpt>
      <trkpt lat="47.93737" lon="2.1734">
        <ele>109</ele>
        <time>2017-04-30T07:21:28Z</time>
      </trkpt>
      <trkpt lat="47.93737" lon="2.1734">
        <ele>109</ele>
        <time>2017-04-30T07:21:30Z</time>
      </trkpt>
      <trkpt lat="47.93732" lon="2.17408">
        <ele>110</ele>
        <time>2017-04-30T07:21:32Z</time>
      </trkpt>
      <trkpt lat="47.93733" lon="2.17435">
        <ele>110</ele>
        <time>2017-04-30T07:21:36Z</time>
      </trkpt>
      <trkpt lat="47.93734" lon="2.17449">
        <ele>109</ele>
        <time>2017-04-30T07:21:38Z</time>
      </trkpt>
      <trkpt lat="47.93736" lon="2.17463">
        <ele>108</ele>
        <time>2017-04-30T07:21:40Z</time>
      </trkpt>
      <trkpt lat="47.93738" lon="2.17477">
        <ele>108</ele>
        <time>2017-04-30T07:21:42Z</time>
      </trkpt>
      <trkpt lat="47.93739" lon="2.17493">
        <ele>108</ele>
        <time>2017-04-30T07:21:44Z</time>
      </trkpt>
      <trkpt lat="47.9374" lon="2.17509">
        <ele>107</ele>
        <time>2017-04-30T07:21:46Z</time>
      </trkpt>
      <trkpt lat="47.93738" lon="2.17524">
        <ele>107</ele>
        <time>2017-04-30T07:21:48Z</time>
      </trkpt>
      <trkpt lat="47.93738" lon="2.1754">
        <ele>107</ele>
        <time>2017-04-30T07:21:50Z</time>
      </trkpt>
      <trkpt lat="47.93739" lon="2.17555">
        <ele>107</ele>
        <time>2017-04-30T07:21:52Z</time>
      </trkpt>
      <trkpt lat="47.93738" lon="2.1757">
        <ele>107</ele>
        <time>2017-04-30T07:21:54Z</time>
      </trkpt>
      <trkpt lat="47.93738" lon="2.17586">
        <ele>107</ele>
        <time>2017-04-30T07:21:56Z</time>
      </trkpt>
      <trkpt lat="47.93737" lon="2.17602">
        <ele>107</ele>
        <time>2017-04-30T07:21:58Z</time>
      </trkpt>
      <trkpt lat="47.93736" lon="2.17619">
        <ele>106</ele>
        <time>2017-04-30T07:22:00Z</time>
      </trkpt>
      <trkpt lat="47.93736" lon="2.17637">
        <ele>108</ele>
        <time>2017-04-30T07:22:02Z</time>
      </trkpt>
      <trkpt lat="47.93736" lon="2.17657">
        <ele>107</ele>
        <time>2017-04-30T07:22:04Z</time>
      </trkpt>
      <trkpt lat="47.93735" lon="2.17674">
        <ele>108</ele>
        <time>2017-04-30T07:22:06Z</time>
      </trkpt>
      <trkpt lat="47.93733" lon="2.17691">
        <ele>109</ele>
        <time>2017-04-30T07:22:08Z</time>
      </trkpt>
      <trkpt lat="47.93731" lon="2.17707">
        <ele>108</ele>
        <time>2017-04-30T07:22:10Z</time>
      </trkpt>
      <trkpt lat="47.93729" lon="2.17724">
        <ele>108</ele>
        <time>2017-04-30T07:22:12Z</time>
      </trkpt>
      <trkpt lat="47.93726" lon="2.1774">
        <ele>107</ele>
        <time>2017-04-30T07:22:14Z</time>
      </trkpt>
      <trkpt lat="47.93723" lon="2.17756">
        <ele>107</ele>
        <time>2017-04-30T07:22:16Z</time>
      </trkpt>
      <trkpt lat="47.9372" lon="2.17772">
        <ele>106</ele>
        <time>2017-04-30T07:22:18Z</time>
      </trkpt>
      <trkpt lat="47.93717" lon="2.17789">
        <ele>106</ele>
        <time>2017-04-30T07:22:20Z</time>
      </trkpt>
      <trkpt lat="47.93713" lon="2.17804">
        <ele>105</ele>
        <time>2017-04-30T07:22:22Z</time>
      </trkpt>
      <trkpt lat="47.9371" lon="2.1782">
        <ele>105</ele>
        <time>2017-04-30T07:22:24Z</time>
      </trkpt>
      <trkpt lat="47.93707" lon="2.17836">
        <ele>105</ele>
        <time>2017-04-30T07:22:26Z</time>
      </trkpt>
      <trkpt lat="47.93703" lon="2.17852">
        <ele>105</ele>
        <time>2017-04-30T07:22:28Z</time>
      </trkpt>
      <trkpt lat="47.937" lon="2.17867">
        <ele>105</ele>
        <time>2017-04-30T07:22:30Z</time>
      </trkpt>
      <trkpt lat="47.93697" lon="2.17883">
        <ele>105</ele>
        <time>2017-04-30T07:22:32Z</time>
      </trkpt>
      <trkpt lat="47.93694" lon="2.17899">
        <ele>104</ele>
        <time>2017-04-30T07:22:34Z</time>
      </trkpt>
      <trkpt lat="47.9369" lon="2.17915">
        <ele>105</ele>
        <time>2017-04-30T07:22:36Z</time>
      </trkpt>
      <trkpt lat="47.93687" lon="2.17931">
        <ele>104</ele>
        <time>2017-04-30T07:22:38Z</time>
      </trkpt>
      <trkpt lat="47.93684" lon="2.17946">
        <ele>104</ele>
        <time>2017-04-30T07:22:40Z</time>
      </trkpt>
      <trkpt lat="47.9368" lon="2.17962">
        <ele>104</ele>
        <time>2017-04-30T07:22:42Z</time>
      </trkpt>
      <trkpt lat="47.93677" lon="2.17978">
        <ele>104</ele>
        <time>2017-04-30T07:22:44Z</time>
      </trkpt>
      <trkpt lat="47.93674" lon="2.17995">
        <ele>104</ele>
        <time>2017-04-30T07:22:46Z</time>
      </trkpt>
      <trkpt lat="47.93671" lon="2.18011">
        <ele>104</ele>
        <time>2017-04-30T07:22:48Z</time>
      </trkpt>
      <trkpt lat="47.93667" lon="2.18027">
        <ele>104</ele>
        <time>2017-04-30T07:22:50Z</time>
      </trkpt>
      <trkpt lat="47.93663" lon="2.18044">
        <ele>104</ele>
        <time>2017-04-30T07:22:52Z</time>
      </trkpt>
      <trkpt lat="47.9366" lon="2.1806">
        <ele>104</ele>
        <time>2017-04-30T07:22:54Z</time>
      </trkpt>
      <trkpt lat="47.93657" lon="2.18076">
        <ele>104</ele>
        <time>2017-04-30T07:22:56Z</time>
      </trkpt>
      <trkpt lat="47.93654" lon="2.18092">
        <ele>104</ele>
        <time>2017-04-30T07:22:58Z</time>
      </trkpt>
      <trkpt lat="47.93651" lon="2.18108">
        <ele>104</ele>
        <time>2017-04-30T07:23:00Z</time>
      </trkpt>
      <trkpt lat="47.93648" lon="2.18124">
        <ele>104</ele>
        <time>2017-04-30T07:23:02Z</time>
      </trkpt>
      <trkpt lat="47.93646" lon="2.1814">
        <ele>104</ele>
        <time>2017-04-30T07:23:04Z</time>
      </trkpt>
      <trkpt lat="47.93644" lon="2.18157">
        <ele>104</ele>
        <time>2017-04-30T07:23:06Z</time>
      </trkpt>
      <trkpt lat="47.93642" lon="2.18173">
        <ele>104</ele>
        <time>2017-04-30T07:23:08Z</time>
      </trkpt>
      <trkpt lat="47.9364" lon="2.1819">
        <ele>104</ele>
        <time>2017-04-30T07:23:10Z</time>
      </trkpt>
      <trkpt lat="47.93637" lon="2.18207">
        <ele>104</ele>
        <time>2017-04-30T07:23:12Z</time>
      </trkpt>
      <trkpt lat="47.93636" lon="2.18223">
        <ele>104</ele>
        <time>2017-04-30T07:23:14Z</time>
      </trkpt>
      <trkpt lat="47.93633" lon="2.18239">
        <ele>104</ele>
        <time>2017-04-30T07:23:16Z</time>
      </trkpt>
      <trkpt lat="47.93631" lon="2.18256">
        <ele>104</ele>
        <time>2017-04-30T07:23:18Z</time>
      </trkpt>
      <trkpt lat="47.93629" lon="2.18272">
        <ele>104</ele>
        <time>2017-04-30T07:23:20Z</time>
      </trkpt>
      <trkpt lat="47.93627" lon="2.18289">
        <ele>103</ele>
        <time>2017-04-30T07:23:22Z</time>
      </trkpt>
      <trkpt lat="47.93625" lon="2.18305">
        <ele>103</ele>
        <time>2017-04-30T07:23:24Z</time>
      </trkpt>
      <trkpt lat="47.93623" lon="2.18321">
        <ele>103</ele>
        <time>2017-04-30T07:23:26Z</time>
      </trkpt>
      <trkpt lat="47.93621" lon="2.18338">
        <ele>103</ele>
        <time>2017-04-30T07:23:28Z</time>
      </trkpt>
      <trkpt lat="47.93618" lon="2.18354">
        <ele>103</ele>
        <time>2017-04-30T07:23:30Z</time>
      </trkpt>
      <trkpt lat="47.93616" lon="2.1837">
        <ele>103</ele>
        <time>2017-04-30T07:23:32Z</time>
      </trkpt>
      <trkpt lat="47.93614" lon="2.18386">
        <ele>102</ele>
        <time>2017-04-30T07:23:34Z</time>
      </trkpt>
      <trkpt lat="47.93612" lon="2.18402">
        <ele>103</ele>
        <time>2017-04-30T07:23:36Z</time>
      </trkpt>
      <trkpt lat="47.9361" lon="2.18418">
        <ele>102</ele>
        <time>2017-04-30T07:23:38Z</time>
      </trkpt>
      <trkpt lat="47.9361" lon="2.18418">
        <ele>102</ele>
        <time>2017-04-30T07:23:40Z</time>
      </trkpt>
      <trkpt lat="47.9361" lon="2.18418">
        <ele>102</ele>
        <time>2017-04-30T07:23:42Z</time>
      </trkpt>
      <trkpt lat="47.9361" lon="2.18418">
        <ele>102</ele>
        <time>2017-04-30T07:23:44Z</time>
      </trkpt>
      <trkpt lat="47.93599" lon="2.18495">
        <ele>103</ele>
        <time>2017-04-30T07:23:48Z</time>
      </trkpt>
      <trkpt lat="47.93597" lon="2.18512">
        <ele>103</ele>
        <time>2017-04-30T07:23:50Z</time>
      </trkpt>
      <trkpt lat="47.93595" lon="2.18529">
        <ele>103</ele>
        <time>2017-04-30T07:23:52Z</time>
      </trkpt>
      <trkpt lat="47.93593" lon="2.18546">
        <ele>103</ele>
        <time>2017-04-30T07:23:54Z</time>
      </trkpt>
      <trkpt lat="47.93591" lon="2.18563">
        <ele>103</ele>
        <time>2017-04-30T07:23:56Z</time>
      </trkpt>
      <trkpt lat="47.93588" lon="2.18579">
        <ele>103</ele>
        <time>2017-04-30T07:23:58Z</time>
      </trkpt>
      <trkpt lat="47.93586" lon="2.18595">
        <ele>103</ele>
        <time>2017-04-30T07:24:00Z</time>
      </trkpt>
      <trkpt lat="47.93584" lon="2.18612">
        <ele>103</ele>
        <time>2017-04-30T07:24:02Z</time>
      </trkpt>
      <trkpt lat="47.93584" lon="2.1863">
        <ele>104</ele>
        <time>2017-04-30T07:24:04Z</time>
      </trkpt>
      <trkpt lat="47.9358" lon="2.18647">
        <ele>102</ele>
        <time>2017-04-30T07:24:06Z</time>
      </trkpt>
      <trkpt lat="47.93578" lon="2.18663">
        <ele>102</ele>
        <time>2017-04-30T07:24:08Z</time>
      </trkpt>
      <trkpt lat="47.93576" lon="2.18679">
        <ele>103</ele>
        <time>2017-04-30T07:24:10Z</time>
      </trkpt>
      <trkpt lat="47.93574" lon="2.18695">
        <ele>103</ele>
        <time>2017-04-30T07:24:12Z</time>
      </trkpt>
      <trkpt lat="47.93573" lon="2.18712">
        <ele>104</ele>
        <time>2017-04-30T07:24:14Z</time>
      </trkpt>
      <trkpt lat="47.93571" lon="2.18728">
        <ele>105</ele>
        <time>2017-04-30T07:24:16Z</time>
      </trkpt>
      <trkpt lat="47.93569" lon="2.18744">
        <ele>106</ele>
        <time>2017-04-30T07:24:18Z</time>
      </trkpt>
      <trkpt lat="47.93566" lon="2.1876">
        <ele>105</ele>
        <time>2017-04-30T07:24:20Z</time>
      </trkpt>
      <trkpt lat="47.93562" lon="2.18776">
        <ele>106</ele>
        <time>2017-04-30T07:24:22Z</time>
      </trkpt>
      <trkpt lat="47.93557" lon="2.18791">
        <ele>106</ele>
        <time>2017-04-30T07:24:24Z</time>
      </trkpt>
      <trkpt lat="47.93552" lon="2.18806">
        <ele>106</ele>
        <time>2017-04-30T07:24:26Z</time>
      </trkpt>
      <trkpt lat="47.93547" lon="2.18822">
        <ele>105</ele>
        <time>2017-04-30T07:24:28Z</time>
      </trkpt>
      <trkpt lat="47.93542" lon="2.18836">
        <ele>104</ele>
        <time>2017-04-30T07:24:30Z</time>
      </trkpt>
      <trkpt lat="47.93536" lon="2.18851">
        <ele>104</ele>
        <time>2017-04-30T07:24:32Z</time>
      </trkpt>
      <trkpt lat="47.9353" lon="2.18864">
        <ele>103</ele>
        <time>2017-04-30T07:24:34Z</time>
      </trkpt>
      <trkpt lat="47.93522" lon="2.18877">
        <ele>103</ele>
        <time>2017-04-30T07:24:36Z</time>
      </trkpt>
      <trkpt lat="47.93514" lon="2.18889">
        <ele>103</ele>
        <time>2017-04-30T07:24:38Z</time>
      </trkpt>
      <trkpt lat="47.93506" lon="2.18901">
        <ele>102</ele>
        <time>2017-04-30T07:24:40Z</time>
      </trkpt>
      <trkpt lat="47.93498" lon="2.18913">
        <ele>102</ele>
        <time>2017-04-30T07:24:42Z</time>
      </trkpt>
      <trkpt lat="47.9349" lon="2.18923">
        <ele>102</ele>
        <time>2017-04-30T07:24:44Z</time>
      </trkpt>
      <trkpt lat="47.93481" lon="2.18931">
        <ele>103</ele>
        <time>2017-04-30T07:24:46Z</time>
      </trkpt>
      <trkpt lat="47.93481" lon="2.18931">
        <ele>103</ele>
        <time>2017-04-30T07:24:48Z</time>
      </trkpt>
      <trkpt lat="47.93462" lon="2.18948">
        <ele>104</ele>
        <time>2017-04-30T07:24:50Z</time>
      </trkpt>
      <trkpt lat="47.93453" lon="2.18956">
        <ele>104</ele>
        <time>2017-04-30T07:24:52Z</time>
      </trkpt>
      <trkpt lat="47.93453" lon="2.18956">
        <ele>104</ele>
        <time>2017-04-30T07:24:54Z</time>
      </trkpt>
      <trkpt lat="47.93434" lon="2.18973">
        <ele>105</ele>
        <time>2017-04-30T07:24:56Z</time>
      </trkpt>
      <trkpt lat="47.93424" lon="2.18982">
        <ele>105</ele>
        <time>2017-04-30T07:24:58Z</time>
      </trkpt>
      <trkpt lat="47.93414" lon="2.1899">
        <ele>104</ele>
        <time>2017-04-30T07:25:00Z</time>
      </trkpt>
      <trkpt lat="47.93404" lon="2.18999">
        <ele>105</ele>
        <time>2017-04-30T07:25:02Z</time>
      </trkpt>
      <trkpt lat="47.93394" lon="2.19008">
        <ele>105</ele>
        <time>2017-04-30T07:25:04Z</time>
      </trkpt>
      <trkpt lat="47.93385" lon="2.19017">
        <ele>105</ele>
        <time>2017-04-30T07:25:06Z</time>
      </trkpt>
      <trkpt lat="47.93375" lon="2.19025">
        <ele>106</ele>
        <time>2017-04-30T07:25:08Z</time>
      </trkpt>
      <trkpt lat="47.93366" lon="2.19034">
        <ele>107</ele>
        <time>2017-04-30T07:25:10Z</time>
      </trkpt>
      <trkpt lat="47.93356" lon="2.19045">
        <ele>105</ele>
        <time>2017-04-30T07:25:12Z</time>
      </trkpt>
      <trkpt lat="47.93348" lon="2.19056">
        <ele>106</ele>
        <time>2017-04-30T07:25:14Z</time>
      </trkpt>
      <trkpt lat="47.93348" lon="2.19056">
        <ele>106</ele>
        <time>2017-04-30T07:25:16Z</time>
      </trkpt>
      <trkpt lat="47.93348" lon="2.19056">
        <ele>106</ele>
        <time>2017-04-30T07:25:18Z</time>
      </trkpt>
      <trkpt lat="47.93348" lon="2.19056">
        <ele>106</ele>
        <time>2017-04-30T07:25:20Z</time>
      </trkpt>
      <trkpt lat="47.93348" lon="2.19056">
        <ele>106</ele>
        <time>2017-04-30T07:25:22Z</time>
      </trkpt>
      <trkpt lat="47.93348" lon="2.19056">
        <ele>106</ele>
        <time>2017-04-30T07:25:24Z</time>
      </trkpt>
      <trkpt lat="47.93348" lon="2.19056">
        <ele>106</ele>
        <time>2017-04-30T07:25:26Z</time>
      </trkpt>
      <trkpt lat="47.9332" lon="2.19098">
        <ele>108</ele>
        <time>2017-04-30T07:25:30Z</time>
      </trkpt>
      <trkpt lat="47.93302" lon="2.19127">
        <ele>108</ele>
        <time>2017-04-30T07:25:32Z</time>
      </trkpt>
      <trkpt lat="47.93291" lon="2.19147">
        <ele>109</ele>
        <time>2017-04-30T07:25:34Z</time>
      </trkpt>
      <trkpt lat="47.93282" lon="2.19164">
        <ele>109</ele>
        <time>2017-04-30T07:25:36Z</time>
      </trkpt>
      <trkpt lat="47.93275" lon="2.19179">
        <ele>108</ele>
        <time>2017-04-30T07:25:38Z</time>
      </trkpt>
      <trkpt lat="47.93263" lon="2.19208">
        <ele>107</ele>
        <time>2017-04-30T07:25:40Z</time>
      </trkpt>
      <trkpt lat="47.93263" lon="2.19208">
        <ele>107</ele>
        <time>2017-04-30T07:25:42Z</time>
      </trkpt>
      <trkpt lat="47.93263" lon="2.19208">
        <ele>107</ele>
        <time>2017-04-30T07:25:44Z</time>
      </trkpt>
      <trkpt lat="47.93263" lon="2.19208">
        <ele>107</ele>
        <time>2017-04-30T07:25:46Z</time>
      </trkpt>
      <trkpt lat="47.93236" lon="2.19273">
        <ele>107</ele>
        <time>2017-04-30T07:25:50Z</time>
      </trkpt>
      <trkpt lat="47.9323" lon="2.19286">
        <ele>107</ele>
        <time>2017-04-30T07:25:52Z</time>
      </trkpt>
      <trkpt lat="47.93223" lon="2.193">
        <ele>105</ele>
        <time>2017-04-30T07:25:54Z</time>
      </trkpt>
      <trkpt lat="47.93216" lon="2.19314">
        <ele>104</ele>
        <time>2017-04-30T07:25:56Z</time>
      </trkpt>
      <trkpt lat="47.93211" lon="2.19327">
        <ele>104</ele>
        <time>2017-04-30T07:25:58Z</time>
      </trkpt>
      <trkpt lat="47.93211" lon="2.19327">
        <ele>104</ele>
        <time>2017-04-30T07:26:00Z</time>
      </trkpt>
      <trkpt lat="47.93211" lon="2.19327">
        <ele>104</ele>
        <time>2017-04-30T07:26:02Z</time>
      </trkpt>
      <trkpt lat="47.93211" lon="2.19327">
        <ele>104</ele>
        <time>2017-04-30T07:26:04Z</time>
      </trkpt>
      <trkpt lat="47.93211" lon="2.19327">
        <ele>104</ele>
        <time>2017-04-30T07:26:08Z</time>
      </trkpt>
      <trkpt lat="47.93171" lon="2.19421">
        <ele>105</ele>
        <time>2017-04-30T07:26:12Z</time>
      </trkpt>
      <trkpt lat="47.93166" lon="2.19437">
        <ele>106</ele>
        <time>2017-04-30T07:26:14Z</time>
      </trkpt>
      <trkpt lat="47.93161" lon="2.19448">
        <ele>105</ele>
        <time>2017-04-30T07:26:16Z</time>
      </trkpt>
      <trkpt lat="47.93156" lon="2.19461">
        <ele>105</ele>
        <time>2017-04-30T07:26:18Z</time>
      </trkpt>
      <trkpt lat="47.93156" lon="2.19461">
        <ele>105</ele>
        <time>2017-04-30T07:26:20Z</time>
      </trkpt>
      <trkpt lat="47.93156" lon="2.19461">
        <ele>105</ele>
        <time>2017-04-30T07:26:22Z</time>
      </trkpt>
      <trkpt lat="47.93156" lon="2.19461">
        <ele>105</ele>
        <time>2017-04-30T07:26:30Z</time>
      </trkpt>
      <trkpt lat="47.93156" lon="2.19461">
        <ele>105</ele>
        <time>2017-04-30T07:26:32Z</time>
      </trkpt>
      <trkpt lat="47.93156" lon="2.19461">
        <ele>105</ele>
        <time>2017-04-30T07:26:34Z</time>
      </trkpt>
      <trkpt lat="47.93102" lon="2.1959">
        <ele>101</ele>
        <time>2017-04-30T07:26:38Z</time>
      </trkpt>
      <trkpt lat="47.93096" lon="2.19603">
        <ele>101</ele>
        <time>2017-04-30T07:26:40Z</time>
      </trkpt>
      <trkpt lat="47.9309" lon="2.19616">
        <ele>102</ele>
        <time>2017-04-30T07:26:42Z</time>
      </trkpt>
      <trkpt lat="47.93087" lon="2.19629">
        <ele>103</ele>
        <time>2017-04-30T07:26:44Z</time>
      </trkpt>
      <trkpt lat="47.93082" lon="2.19643">
        <ele>102</ele>
        <time>2017-04-30T07:26:46Z</time>
      </trkpt>
      <trkpt lat="47.93079" lon="2.19658">
        <ele>102</ele>
        <time>2017-04-30T07:26:48Z</time>
      </trkpt>
      <trkpt lat="47.93076" lon="2.19672">
        <ele>103</ele>
        <time>2017-04-30T07:26:50Z</time>
      </trkpt>
      <trkpt lat="47.93076" lon="2.19672">
        <ele>103</ele>
        <time>2017-04-30T07:26:52Z</time>
      </trkpt>
      <trkpt lat="47.93076" lon="2.19672">
        <ele>103</ele>
        <time>2017-04-30T07:26:54Z</time>
      </trkpt>
      <trkpt lat="47.93076" lon="2.19672">
        <ele>103</ele>
        <time>2017-04-30T07:26:56Z</time>
      </trkpt>
      <trkpt lat="47.93076" lon="2.19672">
        <ele>103</ele>
        <time>2017-04-30T07:26:58Z</time>
      </trkpt>
      <trkpt lat="47.93076" lon="2.19672">
        <ele>103</ele>
        <time>2017-04-30T07:27:00Z</time>
      </trkpt>
      <trkpt lat="47.93076" lon="2.19672">
        <ele>103</ele>
        <time>2017-04-30T07:27:02Z</time>
      </trkpt>
      <trkpt lat="47.93049" lon="2.19722">
        <ele>108</ele>
        <time>2017-04-30T07:27:08Z</time>
      </trkpt>
      <trkpt lat="47.93043" lon="2.19734">
        <ele>106</ele>
        <time>2017-04-30T07:27:12Z</time>
      </trkpt>
      <trkpt lat="47.93045" lon="2.19751">
        <ele>105</ele>
        <time>2017-04-30T07:27:16Z</time>
      </trkpt>
      <trkpt lat="47.93045" lon="2.19751">
        <ele>105</ele>
        <time>2017-04-30T07:27:18Z</time>
      </trkpt>
      <trkpt lat="47.93045" lon="2.19751">
        <ele>105</ele>
        <time>2017-04-30T07:27:20Z</time>
      </trkpt>
      <trkpt lat="47.93045" lon="2.19751">
        <ele>105</ele>
        <time>2017-04-30T07:27:22Z</time>
      </trkpt>
      <trkpt lat="47.93048" lon="2.19739">
        <ele>106</ele>
        <time>2017-04-30T07:29:17Z</time>
      </trkpt>
      <trkpt lat="47.93048" lon="2.19739">
        <ele>106</ele>
        <time>2017-04-30T07:29:20Z</time>
      </trkpt>
      <trkpt lat="47.93048" lon="2.19739">
        <ele>106</ele>
        <time>2017-04-30T07:29:22Z</time>
      </trkpt>
      <trkpt lat="47.93048" lon="2.19739">
        <ele>106</ele>
        <time>2017-04-30T07:29:24Z</time>
      </trkpt>
      <trkpt lat="47.93048" lon="2.19739">
        <ele>106</ele>
        <time>2017-04-30T07:29:26Z</time>
      </trkpt>
      <trkpt lat="47.93048" lon="2.19739">
        <ele>106</ele>
        <time>2017-04-30T07:29:28Z</time>
      </trkpt>
      <trkpt lat="47.93042" lon="2.19722">
        <ele>107</ele>
        <time>2017-04-30T07:29:32Z</time>
      </trkpt>
      <trkpt lat="47.93052" lon="2.19723">
        <ele>108</ele>
        <time>2017-04-30T07:29:36Z</time>
      </trkpt>
      <trkpt lat="47.93052" lon="2.19723">
        <ele>108</ele>
        <time>2017-04-30T07:29:38Z</time>
      </trkpt>
      <trkpt lat="47.93061" lon="2.19722">
        <ele>108</ele>
        <time>2017-04-30T07:29:40Z</time>
      </trkpt>
      <trkpt lat="47.93079" lon="2.19725">
        <ele>106</ele>
        <time>2017-04-30T07:29:44Z</time>
      </trkpt>
      <trkpt lat="47.93091" lon="2.19728">
        <ele>106</ele>
        <time>2017-04-30T07:29:46Z</time>
      </trkpt>
      <trkpt lat="47.93104" lon="2.19732">
        <ele>106</ele>
        <time>2017-04-30T07:29:48Z</time>
      </trkpt>
      <trkpt lat="47.93116" lon="2.19736">
        <ele>106</ele>
        <time>2017-04-30T07:29:50Z</time>
      </trkpt>
      <trkpt lat="47.93129" lon="2.19741">
        <ele>107</ele>
        <time>2017-04-30T07:29:52Z</time>
      </trkpt>
      <trkpt lat="47.93141" lon="2.19746">
        <ele>107</ele>
        <time>2017-04-30T07:29:54Z</time>
      </trkpt>
      <trkpt lat="47.93153" lon="2.19749">
        <ele>107</ele>
        <time>2017-04-30T07:29:56Z</time>
      </trkpt>
      <trkpt lat="47.93164" lon="2.19753">
        <ele>107</ele>
        <time>2017-04-30T07:29:58Z</time>
      </trkpt>
      <trkpt lat="47.93176" lon="2.19757">
        <ele>107</ele>
        <time>2017-04-30T07:30:00Z</time>
      </trkpt>
      <trkpt lat="47.93187" lon="2.19761">
        <ele>107</ele>
        <time>2017-04-30T07:30:02Z</time>
      </trkpt>
      <trkpt lat="47.93198" lon="2.19764">
        <ele>108</ele>
        <time>2017-04-30T07:30:04Z</time>
      </trkpt>
      <trkpt lat="47.9321" lon="2.19769">
        <ele>108</ele>
        <time>2017-04-30T07:30:06Z</time>
      </trkpt>
      <trkpt lat="47.93221" lon="2.19774">
        <ele>107</ele>
        <time>2017-04-30T07:30:08Z</time>
      </trkpt>
      <trkpt lat="47.93233" lon="2.19778">
        <ele>106</ele>
        <time>2017-04-30T07:30:10Z</time>
      </trkpt>
      <trkpt lat="47.93244" lon="2.19783">
        <ele>106</ele>
        <time>2017-04-30T07:30:12Z</time>
      </trkpt>
      <trkpt lat="47.93256" lon="2.19787">
        <ele>107</ele>
        <time>2017-04-30T07:30:14Z</time>
      </trkpt>
      <trkpt lat="47.93267" lon="2.19791">
        <ele>106</ele>
        <time>2017-04-30T07:30:16Z</time>
      </trkpt>
      <trkpt lat="47.93278" lon="2.19794">
        <ele>106</ele>
        <time>2017-04-30T07:30:18Z</time>
      </trkpt>
      <trkpt lat="47.93287" lon="2.19803">
        <ele>106</ele>
        <time>2017-04-30T07:30:20Z</time>
      </trkpt>
      <trkpt lat="47.93293" lon="2.19819">
        <ele>106</ele>
        <time>2017-04-30T07:30:22Z</time>
      </trkpt>
      <trkpt lat="47.93292" lon="2.19838">
        <ele>106</ele>
        <time>2017-04-30T07:30:24Z</time>
      </trkpt>
      <trkpt lat="47.93288" lon="2.19857">
        <ele>106</ele>
        <time>2017-04-30T07:30:26Z</time>
      </trkpt>
      <trkpt lat="47.93279" lon="2.19872">
        <ele>106</ele>
        <time>2017-04-30T07:30:28Z</time>
      </trkpt>
      <trkpt lat="47.9327" lon="2.19884">
        <ele>106</ele>
        <time>2017-04-30T07:30:30Z</time>
      </trkpt>
      <trkpt lat="47.9326" lon="2.19897">
        <ele>106</ele>
        <time>2017-04-30T07:30:32Z</time>
      </trkpt>
      <trkpt lat="47.93251" lon="2.1991">
        <ele>106</ele>
        <time>2017-04-30T07:30:34Z</time>
      </trkpt>
      <trkpt lat="47.93242" lon="2.19924">
        <ele>105</ele>
        <time>2017-04-30T07:30:36Z</time>
      </trkpt>
      <trkpt lat="47.93234" lon="2.19939">
        <ele>105</ele>
        <time>2017-04-30T07:30:38Z</time>
      </trkpt>
      <trkpt lat="47.93226" lon="2.19954">
        <ele>105</ele>
        <time>2017-04-30T07:30:40Z</time>
      </trkpt>
      <trkpt lat="47.93219" lon="2.19969">
        <ele>105</ele>
        <time>2017-04-30T07:30:42Z</time>
      </trkpt>
      <trkpt lat="47.93212" lon="2.19985">
        <ele>105</ele>
        <time>2017-04-30T07:30:44Z</time>
      </trkpt>
      <trkpt lat="47.93205" lon="2.20001">
        <ele>105</ele>
        <time>2017-04-30T07:30:46Z</time>
      </trkpt>
      <trkpt lat="47.93198" lon="2.20016">
        <ele>105</ele>
        <time>2017-04-30T07:30:48Z</time>
      </trkpt>
      <trkpt lat="47.9319" lon="2.20033">
        <ele>105</ele>
        <time>2017-04-30T07:30:50Z</time>
      </trkpt>
      <trkpt lat="47.93184" lon="2.20049">
        <ele>105</ele>
        <time>2017-04-30T07:30:52Z</time>
      </trkpt>
      <trkpt lat="47.9318" lon="2.20067">
        <ele>104</ele>
        <time>2017-04-30T07:30:54Z</time>
      </trkpt>
      <trkpt lat="47.93177" lon="2.20086">
        <ele>105</ele>
        <time>2017-04-30T07:30:56Z</time>
      </trkpt>
      <trkpt lat="47.93178" lon="2.20103">
        <ele>105</ele>
        <time>2017-04-30T07:30:58Z</time>
      </trkpt>
      <trkpt lat="47.93185" lon="2.20116">
        <ele>105</ele>
        <time>2017-04-30T07:31:00Z</time>
      </trkpt>
      <trkpt lat="47.93195" lon="2.20119">
        <ele>105</ele>
        <time>2017-04-30T07:31:02Z</time>
      </trkpt>
      <trkpt lat="47.93208" lon="2.20118">
        <ele>105</ele>
        <time>2017-04-30T07:31:04Z</time>
      </trkpt>
      <trkpt lat="47.93221" lon="2.20117">
        <ele>106</ele>
        <time>2017-04-30T07:31:06Z</time>
      </trkpt>
      <trkpt lat="47.93233" lon="2.20116">
        <ele>106</ele>
        <time>2017-04-30T07:31:08Z</time>
      </trkpt>
      <trkpt lat="47.93246" lon="2.20115">
        <ele>106</ele>
        <time>2017-04-30T07:31:10Z</time>
      </trkpt>
      <trkpt lat="47.93258" lon="2.20114">
        <ele>106</ele>
        <time>2017-04-30T07:31:12Z</time>
      </trkpt>
      <trkpt lat="47.93271" lon="2.20113">
        <ele>106</ele>
        <time>2017-04-30T07:31:14Z</time>
      </trkpt>
      <trkpt lat="47.93284" lon="2.20113">
        <ele>106</ele>
        <time>2017-04-30T07:31:16Z</time>
      </trkpt>
      <trkpt lat="47.93297" lon="2.20112">
        <ele>106</ele>
        <time>2017-04-30T07:31:18Z</time>
      </trkpt>
      <trkpt lat="47.9331" lon="2.20111">
        <ele>106</ele>
        <time>2017-04-30T07:31:20Z</time>
      </trkpt>
      <trkpt lat="47.93323" lon="2.2011">
        <ele>106</ele>
        <time>2017-04-30T07:31:22Z</time>
      </trkpt>
      <trkpt lat="47.93336" lon="2.20108">
        <ele>107</ele>
        <time>2017-04-30T07:31:24Z</time>
      </trkpt>
      <trkpt lat="47.93349" lon="2.20107">
        <ele>107</ele>
        <time>2017-04-30T07:31:26Z</time>
      </trkpt>
      <trkpt lat="47.93363" lon="2.20107">
        <ele>106</ele>
        <time>2017-04-30T07:31:28Z</time>
      </trkpt>
      <trkpt lat="47.93376" lon="2.20106">
        <ele>107</ele>
        <time>2017-04-30T07:31:30Z</time>
      </trkpt>
      <trkpt lat="47.9339" lon="2.20105">
        <ele>107</ele>
        <time>2017-04-30T07:31:32Z</time>
      </trkpt>
      <trkpt lat="47.93402" lon="2.20104">
        <ele>108</ele>
        <time>2017-04-30T07:31:34Z</time>
      </trkpt>
      <trkpt lat="47.93416" lon="2.20102">
        <ele>109</ele>
        <time>2017-04-30T07:31:36Z</time>
      </trkpt>
      <trkpt lat="47.93429" lon="2.201">
        <ele>110</ele>
        <time>2017-04-30T07:31:38Z</time>
      </trkpt>
      <trkpt lat="47.93441" lon="2.20098">
        <ele>111</ele>
        <time>2017-04-30T07:31:40Z</time>
      </trkpt>
      <trkpt lat="47.93454" lon="2.20097">
        <ele>112</ele>
        <time>2017-04-30T07:31:42Z</time>
      </trkpt>
      <trkpt lat="47.93467" lon="2.20096">
        <ele>112</ele>
        <time>2017-04-30T07:31:44Z</time>
      </trkpt>
      <trkpt lat="47.93479" lon="2.20095">
        <ele>111</ele>
        <time>2017-04-30T07:31:46Z</time>
      </trkpt>
      <trkpt lat="47.9349" lon="2.20095">
        <ele>111</ele>
        <time>2017-04-30T07:31:48Z</time>
      </trkpt>
      <trkpt lat="47.93501" lon="2.20094">
        <ele>111</ele>
        <time>2017-04-30T07:31:50Z</time>
      </trkpt>
      <trkpt lat="47.93513" lon="2.20092">
        <ele>112</ele>
        <time>2017-04-30T07:31:52Z</time>
      </trkpt>
      <trkpt lat="47.93525" lon="2.20091">
        <ele>112</ele>
        <time>2017-04-30T07:31:54Z</time>
      </trkpt>
      <trkpt lat="47.93536" lon="2.20089">
        <ele>112</ele>
        <time>2017-04-30T07:31:56Z</time>
      </trkpt>
      <trkpt lat="47.93548" lon="2.20088">
        <ele>113</ele>
        <time>2017-04-30T07:31:58Z</time>
      </trkpt>
      <trkpt lat="47.93562" lon="2.20086">
        <ele>114</ele>
        <time>2017-04-30T07:32:00Z</time>
      </trkpt>
      <trkpt lat="47.93575" lon="2.20085">
        <ele>115</ele>
        <time>2017-04-30T07:32:02Z</time>
      </trkpt>
      <trkpt lat="47.93589" lon="2.20085">
        <ele>117</ele>
        <time>2017-04-30T07:32:04Z</time>
      </trkpt>
      <trkpt lat="47.93604" lon="2.20084">
        <ele>119</ele>
        <time>2017-04-30T07:32:06Z</time>
      </trkpt>
      <trkpt lat="47.93616" lon="2.20084">
        <ele>120</ele>
        <time>2017-04-30T07:32:08Z</time>
      </trkpt>
      <trkpt lat="47.93633" lon="2.20084">
        <ele>121</ele>
        <time>2017-04-30T07:32:10Z</time>
      </trkpt>
      <trkpt lat="47.93647" lon="2.20085">
        <ele>122</ele>
        <time>2017-04-30T07:32:12Z</time>
      </trkpt>
      <trkpt lat="47.93661" lon="2.20085">
        <ele>121</ele>
        <time>2017-04-30T07:32:14Z</time>
      </trkpt>
      <trkpt lat="47.93674" lon="2.20084">
        <ele>121</ele>
        <time>2017-04-30T07:32:16Z</time>
      </trkpt>
      <trkpt lat="47.93687" lon="2.20083">
        <ele>120</ele>
        <time>2017-04-30T07:32:18Z</time>
      </trkpt>
      <trkpt lat="47.937" lon="2.20082">
        <ele>120</ele>
        <time>2017-04-30T07:32:20Z</time>
      </trkpt>
      <trkpt lat="47.93715" lon="2.20082">
        <ele>120</ele>
        <time>2017-04-30T07:32:22Z</time>
      </trkpt>
      <trkpt lat="47.93728" lon="2.20081">
        <ele>119</ele>
        <time>2017-04-30T07:32:24Z</time>
      </trkpt>
      <trkpt lat="47.93741" lon="2.20079">
        <ele>118</ele>
        <time>2017-04-30T07:32:26Z</time>
      </trkpt>
      <trkpt lat="47.93755" lon="2.20079">
        <ele>118</ele>
        <time>2017-04-30T07:32:28Z</time>
      </trkpt>
      <trkpt lat="47.93768" lon="2.20078">
        <ele>117</ele>
        <time>2017-04-30T07:32:30Z</time>
      </trkpt>
      <trkpt lat="47.93781" lon="2.20077">
        <ele>116</ele>
        <time>2017-04-30T07:32:32Z</time>
      </trkpt>
      <trkpt lat="47.93793" lon="2.20076">
        <ele>116</ele>
        <time>2017-04-30T07:32:34Z</time>
      </trkpt>
      <trkpt lat="47.93806" lon="2.20075">
        <ele>116</ele>
        <time>2017-04-30T07:32:36Z</time>
      </trkpt>
      <trkpt lat="47.93818" lon="2.20075">
        <ele>116</ele>
        <time>2017-04-30T07:32:38Z</time>
      </trkpt>
      <trkpt lat="47.9383" lon="2.20074">
        <ele>116</ele>
        <time>2017-04-30T07:32:40Z</time>
      </trkpt>
      <trkpt lat="47.93842" lon="2.20074">
        <ele>116</ele>
        <time>2017-04-30T07:32:42Z</time>
      </trkpt>
      <trkpt lat="47.93853" lon="2.20075">
        <ele>116</ele>
        <time>2017-04-30T07:32:44Z</time>
      </trkpt>
      <trkpt lat="47.93864" lon="2.20073">
        <ele>116</ele>
        <time>2017-04-30T07:32:46Z</time>
      </trkpt>
      <trkpt lat="47.93874" lon="2.2007">
        <ele>116</ele>
        <time>2017-04-30T07:32:48Z</time>
      </trkpt>
      <trkpt lat="47.93874" lon="2.2007">
        <ele>116</ele>
        <time>2017-04-30T07:32:50Z</time>
      </trkpt>
      <trkpt lat="47.93874" lon="2.2007">
        <ele>116</ele>
        <time>2017-04-30T07:32:52Z</time>
      </trkpt>
      <trkpt lat="47.93874" lon="2.2007">
        <ele>116</ele>
        <time>2017-04-30T07:32:58Z</time>
      </trkpt>
      <trkpt lat="47.93874" lon="2.2007">
        <ele>116</ele>
        <time>2017-04-30T07:33:00Z</time>
      </trkpt>
      <trkpt lat="47.93874" lon="2.2007">
        <ele>116</ele>
        <time>2017-04-30T07:33:02Z</time>
      </trkpt>
      <trkpt lat="47.93942" lon="2.20017">
        <ele>120</ele>
        <time>2017-04-30T07:33:06Z</time>
      </trkpt>
      <trkpt lat="47.93951" lon="2.20007">
        <ele>121</ele>
        <time>2017-04-30T07:33:08Z</time>
      </trkpt>
      <trkpt lat="47.93961" lon="2.19996">
        <ele>123</ele>
        <time>2017-04-30T07:33:10Z</time>
      </trkpt>
      <trkpt lat="47.9397" lon="2.19987">
        <ele>124</ele>
        <time>2017-04-30T07:33:12Z</time>
      </trkpt>
      <trkpt lat="47.93981" lon="2.19975">
        <ele>125</ele>
        <time>2017-04-30T07:33:14Z</time>
      </trkpt>
      <trkpt lat="47.93992" lon="2.19964">
        <ele>127</ele>
        <time>2017-04-30T07:33:16Z</time>
      </trkpt>
      <trkpt lat="47.94003" lon="2.19953">
        <ele>129</ele>
        <time>2017-04-30T07:33:18Z</time>
      </trkpt>
      <trkpt lat="47.94014" lon="2.19944">
        <ele>130</ele>
        <time>2017-04-30T07:33:20Z</time>
      </trkpt>
      <trkpt lat="47.94025" lon="2.19934">
        <ele>132</ele>
        <time>2017-04-30T07:33:22Z</time>
      </trkpt>
      <trkpt lat="47.94037" lon="2.19925">
        <ele>134</ele>
        <time>2017-04-30T07:33:24Z</time>
      </trkpt>
      <trkpt lat="47.94048" lon="2.19915">
        <ele>137</ele>
        <time>2017-04-30T07:33:26Z</time>
      </trkpt>
      <trkpt lat="47.94057" lon="2.19905">
        <ele>140</ele>
        <time>2017-04-30T07:33:28Z</time>
      </trkpt>
      <trkpt lat="47.94067" lon="2.19895">
        <ele>142</ele>
        <time>2017-04-30T07:33:30Z</time>
      </trkpt>
      <trkpt lat="47.94078" lon="2.19884">
        <ele>143</ele>
        <time>2017-04-30T07:33:32Z</time>
      </trkpt>
      <trkpt lat="47.9409" lon="2.19872">
        <ele>144</ele>
        <time>2017-04-30T07:33:34Z</time>
      </trkpt>
      <trkpt lat="47.94102" lon="2.19859">
        <ele>144</ele>
        <time>2017-04-30T07:33:36Z</time>
      </trkpt>
      <trkpt lat="47.94114" lon="2.19847">
        <ele>145</ele>
        <time>2017-04-30T07:33:38Z</time>
      </trkpt>
      <trkpt lat="47.94125" lon="2.19836">
        <ele>146</ele>
        <time>2017-04-30T07:33:40Z</time>
      </trkpt>
      <trkpt lat="47.94136" lon="2.19825">
        <ele>144</ele>
        <time>2017-04-30T07:33:42Z</time>
      </trkpt>
      <trkpt lat="47.94149" lon="2.19815">
        <ele>144</ele>
        <time>2017-04-30T07:33:44Z</time>
      </trkpt>
      <trkpt lat="47.9416" lon="2.19805">
        <ele>144</ele>
        <time>2017-04-30T07:33:46Z</time>
      </trkpt>
      <trkpt lat="47.94172" lon="2.19795">
        <ele>144</ele>
        <time>2017-04-30T07:33:48Z</time>
      </trkpt>
      <trkpt lat="47.94182" lon="2.19784">
        <ele>143</ele>
        <time>2017-04-30T07:33:50Z</time>
      </trkpt>
      <trkpt lat="47.94194" lon="2.19773">
        <ele>140</ele>
        <time>2017-04-30T07:33:52Z</time>
      </trkpt>
      <trkpt lat="47.94206" lon="2.19763">
        <ele>139</ele>
        <time>2017-04-30T07:33:54Z</time>
      </trkpt>
      <trkpt lat="47.94219" lon="2.19751">
        <ele>139</ele>
        <time>2017-04-30T07:33:56Z</time>
      </trkpt>
      <trkpt lat="47.94232" lon="2.1974">
        <ele>137</ele>
        <time>2017-04-30T07:33:58Z</time>
      </trkpt>
      <trkpt lat="47.94245" lon="2.19728">
        <ele>137</ele>
        <time>2017-04-30T07:34:00Z</time>
      </trkpt>
      <trkpt lat="47.94258" lon="2.19719">
        <ele>137</ele>
        <time>2017-04-30T07:34:02Z</time>
      </trkpt>
      <trkpt lat="47.94271" lon="2.19711">
        <ele>137</ele>
        <time>2017-04-30T07:34:04Z</time>
      </trkpt>
      <trkpt lat="47.94283" lon="2.19702">
        <ele>137</ele>
        <time>2017-04-30T07:34:06Z</time>
      </trkpt>
      <trkpt lat="47.94293" lon="2.1969">
        <ele>138</ele>
        <time>2017-04-30T07:34:08Z</time>
      </trkpt>
      <trkpt lat="47.94303" lon="2.19679">
        <ele>138</ele>
        <time>2017-04-30T07:34:10Z</time>
      </trkpt>
      <trkpt lat="47.94312" lon="2.19671">
        <ele>137</ele>
        <time>2017-04-30T07:34:12Z</time>
      </trkpt>
      <trkpt lat="47.94321" lon="2.19663">
        <ele>136</ele>
        <time>2017-04-30T07:34:14Z</time>
      </trkpt>
      <trkpt lat="47.94321" lon="2.19663">
        <ele>136</ele>
        <time>2017-04-30T07:34:16Z</time>
      </trkpt>
      <trkpt lat="47.94321" lon="2.19663">
        <ele>136</ele>
        <time>2017-04-30T07:34:18Z</time>
      </trkpt>
      <trkpt lat="47.94321" lon="2.19663">
        <ele>136</ele>
        <time>2017-04-30T07:34:20Z</time>
      </trkpt>
      <trkpt lat="47.94321" lon="2.19663">
        <ele>136</ele>
        <time>2017-04-30T07:34:22Z</time>
      </trkpt>
      <trkpt lat="47.94344" lon="2.19669">
        <ele>140</ele>
        <time>2017-04-30T07:34:28Z</time>
      </trkpt>
      <trkpt lat="47.94346" lon="2.19694">
        <ele>140</ele>
        <time>2017-04-30T07:34:32Z</time>
      </trkpt>
      <trkpt lat="47.94347" lon="2.1971">
        <ele>141</ele>
        <time>2017-04-30T07:34:34Z</time>
      </trkpt>
      <trkpt lat="47.94348" lon="2.19725">
        <ele>141</ele>
        <time>2017-04-30T07:34:36Z</time>
      </trkpt>
      <trkpt lat="47.94349" lon="2.19739">
        <ele>142</ele>
        <time>2017-04-30T07:34:38Z</time>
      </trkpt>
      <trkpt lat="47.94351" lon="2.19754">
        <ele>142</ele>
        <time>2017-04-30T07:34:40Z</time>
      </trkpt>
      <trkpt lat="47.94352" lon="2.19768">
        <ele>143</ele>
        <time>2017-04-30T07:34:42Z</time>
      </trkpt>
      <trkpt lat="47.94355" lon="2.19781">
        <ele>144</ele>
        <time>2017-04-30T07:34:44Z</time>
      </trkpt>
      <trkpt lat="47.94358" lon="2.19796">
        <ele>145</ele>
        <time>2017-04-30T07:34:46Z</time>
      </trkpt>
      <trkpt lat="47.9436" lon="2.1981">
        <ele>146</ele>
        <time>2017-04-30T07:34:48Z</time>
      </trkpt>
      <trkpt lat="47.9436" lon="2.1981">
        <ele>146</ele>
        <time>2017-04-30T07:34:50Z</time>
      </trkpt>
      <trkpt lat="47.9436" lon="2.1981">
        <ele>146</ele>
        <time>2017-04-30T07:34:52Z</time>
      </trkpt>
      <trkpt lat="47.9436" lon="2.1981">
        <ele>146</ele>
        <time>2017-04-30T07:34:54Z</time>
      </trkpt>
      <trkpt lat="47.9436" lon="2.1981">
        <ele>146</ele>
        <time>2017-04-30T07:34:56Z</time>
      </trkpt>
      <trkpt lat="47.94369" lon="2.19892">
        <ele>145</ele>
        <time>2017-04-30T07:35:00Z</time>
      </trkpt>
      <trkpt lat="47.94372" lon="2.19908">
        <ele>144</ele>
        <time>2017-04-30T07:35:02Z</time>
      </trkpt>
      <trkpt lat="47.94374" lon="2.19923">
        <ele>143</ele>
        <time>2017-04-30T07:35:04Z</time>
      </trkpt>
      <trkpt lat="47.94376" lon="2.19939">
        <ele>142</ele>
        <time>2017-04-30T07:35:06Z</time>
      </trkpt>
      <trkpt lat="47.94379" lon="2.19954">
        <ele>140</ele>
        <time>2017-04-30T07:35:08Z</time>
      </trkpt>
      <trkpt lat="47.94383" lon="2.19971">
        <ele>137</ele>
        <time>2017-04-30T07:35:10Z</time>
      </trkpt>
      <trkpt lat="47.94387" lon="2.19987">
        <ele>134</ele>
        <time>2017-04-30T07:35:12Z</time>
      </trkpt>
      <trkpt lat="47.94389" lon="2.20003">
        <ele>130</ele>
        <time>2017-04-30T07:35:14Z</time>
      </trkpt>
      <trkpt lat="47.94389" lon="2.20003">
        <ele>130</ele>
        <time>2017-04-30T07:35:16Z</time>
      </trkpt>
      <trkpt lat="47.94389" lon="2.20003">
        <ele>130</ele>
        <time>2017-04-30T07:35:18Z</time>
      </trkpt>
      <trkpt lat="47.94389" lon="2.20003">
        <ele>130</ele>
        <time>2017-04-30T07:35:20Z</time>
      </trkpt>
      <trkpt lat="47.94389" lon="2.20003">
        <ele>130</ele>
        <time>2017-04-30T07:35:22Z</time>
      </trkpt>
      <trkpt lat="47.94389" lon="2.20003">
        <ele>130</ele>
        <time>2017-04-30T07:35:24Z</time>
      </trkpt>
      <trkpt lat="47.94404" lon="2.2002">
        <ele>122</ele>
        <time>2017-04-30T07:35:26Z</time>
      </trkpt>
      <trkpt lat="47.94416" lon="2.20029">
        <ele>120</ele>
        <time>2017-04-30T07:35:28Z</time>
      </trkpt>
      <trkpt lat="47.94428" lon="2.20034">
        <ele>118</ele>
        <time>2017-04-30T07:35:30Z</time>
      </trkpt>
      <trkpt lat="47.94441" lon="2.20037">
        <ele>118</ele>
        <time>2017-04-30T07:35:32Z</time>
      </trkpt>
      <trkpt lat="47.94453" lon="2.20038">
        <ele>118</ele>
        <time>2017-04-30T07:35:34Z</time>
      </trkpt>
      <trkpt lat="47.94478" lon="2.20039">
        <ele>117</ele>
        <time>2017-04-30T07:35:36Z</time>
      </trkpt>
      <trkpt lat="47.94491" lon="2.20039">
        <ele>116</ele>
        <time>2017-04-30T07:35:38Z</time>
      </trkpt>
      <trkpt lat="47.94503" lon="2.20038">
        <ele>116</ele>
        <time>2017-04-30T07:35:40Z</time>
      </trkpt>
      <trkpt lat="47.94515" lon="2.20037">
        <ele>115</ele>
        <time>2017-04-30T07:35:42Z</time>
      </trkpt>
      <trkpt lat="47.94528" lon="2.20036">
        <ele>114</ele>
        <time>2017-04-30T07:35:44Z</time>
      </trkpt>
      <trkpt lat="47.9454" lon="2.20035">
        <ele>114</ele>
        <time>2017-04-30T07:35:46Z</time>
      </trkpt>
      <trkpt lat="47.94553" lon="2.20035">
        <ele>114</ele>
        <time>2017-04-30T07:35:48Z</time>
      </trkpt>
      <trkpt lat="47.94565" lon="2.20033">
        <ele>114</ele>
        <time>2017-04-30T07:35:50Z</time>
      </trkpt>
      <trkpt lat="47.94577" lon="2.20033">
        <ele>115</ele>
        <time>2017-04-30T07:35:52Z</time>
      </trkpt>
      <trkpt lat="47.9459" lon="2.20032">
        <ele>117</ele>
        <time>2017-04-30T07:35:54Z</time>
      </trkpt>
      <trkpt lat="47.94601" lon="2.20031">
        <ele>118</ele>
        <time>2017-04-30T07:35:56Z</time>
      </trkpt>
      <trkpt lat="47.94611" lon="2.20034">
        <ele>118</ele>
        <time>2017-04-30T07:35:58Z</time>
      </trkpt>
      <trkpt lat="47.94617" lon="2.20047">
        <ele>118</ele>
        <time>2017-04-30T07:36:00Z</time>
      </trkpt>
      <trkpt lat="47.94617" lon="2.20047">
        <ele>118</ele>
        <time>2017-04-30T07:36:02Z</time>
      </trkpt>
      <trkpt lat="47.94621" lon="2.20081">
        <ele>119</ele>
        <time>2017-04-30T07:36:04Z</time>
      </trkpt>
      <trkpt lat="47.94622" lon="2.201">
        <ele>119</ele>
        <time>2017-04-30T07:36:06Z</time>
      </trkpt>
      <trkpt lat="47.94624" lon="2.20119">
        <ele>120</ele>
        <time>2017-04-30T07:36:08Z</time>
      </trkpt>
      <trkpt lat="47.94626" lon="2.20137">
        <ele>121</ele>
        <time>2017-04-30T07:36:10Z</time>
      </trkpt>
      <trkpt lat="47.94627" lon="2.20155">
        <ele>122</ele>
        <time>2017-04-30T07:36:12Z</time>
      </trkpt>
      <trkpt lat="47.94628" lon="2.20174">
        <ele>122</ele>
        <time>2017-04-30T07:36:14Z</time>
      </trkpt>
      <trkpt lat="47.9463" lon="2.20193">
        <ele>123</ele>
        <time>2017-04-30T07:36:16Z</time>
      </trkpt>
      <trkpt lat="47.94633" lon="2.20212">
        <ele>124</ele>
        <time>2017-04-30T07:36:18Z</time>
      </trkpt>
      <trkpt lat="47.94635" lon="2.2023">
        <ele>124</ele>
        <time>2017-04-30T07:36:20Z</time>
      </trkpt>
      <trkpt lat="47.94637" lon="2.20248">
        <ele>124</ele>
        <time>2017-04-30T07:36:22Z</time>
      </trkpt>
      <trkpt lat="47.94638" lon="2.20266">
        <ele>124</ele>
        <time>2017-04-30T07:36:24Z</time>
      </trkpt>
      <trkpt lat="47.9464" lon="2.20283">
        <ele>124</ele>
        <time>2017-04-30T07:36:26Z</time>
      </trkpt>
      <trkpt lat="47.94642" lon="2.20301">
        <ele>124</ele>
        <time>2017-04-30T07:36:28Z</time>
      </trkpt>
      <trkpt lat="47.94644" lon="2.20318">
        <ele>123</ele>
        <time>2017-04-30T07:36:30Z</time>
      </trkpt>
      <trkpt lat="47.94646" lon="2.20334">
        <ele>122</ele>
        <time>2017-04-30T07:36:32Z</time>
      </trkpt>
      <trkpt lat="47.94648" lon="2.20351">
        <ele>122</ele>
        <time>2017-04-30T07:36:34Z</time>
      </trkpt>
      <trkpt lat="47.9465" lon="2.20368">
        <ele>121</ele>
        <time>2017-04-30T07:36:36Z</time>
      </trkpt>
      <trkpt lat="47.94652" lon="2.20384">
        <ele>122</ele>
        <time>2017-04-30T07:36:38Z</time>
      </trkpt>
      <trkpt lat="47.94654" lon="2.20401">
        <ele>122</ele>
        <time>2017-04-30T07:36:40Z</time>
      </trkpt>
      <trkpt lat="47.94656" lon="2.20418">
        <ele>122</ele>
        <time>2017-04-30T07:36:42Z</time>
      </trkpt>
      <trkpt lat="47.94658" lon="2.20436">
        <ele>122</ele>
        <time>2017-04-30T07:36:44Z</time>
      </trkpt>
      <trkpt lat="47.9466" lon="2.20454">
        <ele>122</ele>
        <time>2017-04-30T07:36:46Z</time>
      </trkpt>
      <trkpt lat="47.94662" lon="2.20472">
        <ele>122</ele>
        <time>2017-04-30T07:36:48Z</time>
      </trkpt>
      <trkpt lat="47.94664" lon="2.20489">
        <ele>122</ele>
        <time>2017-04-30T07:36:50Z</time>
      </trkpt>
      <trkpt lat="47.94666" lon="2.20506">
        <ele>122</ele>
        <time>2017-04-30T07:36:52Z</time>
      </trkpt>
      <trkpt lat="47.94669" lon="2.20524">
        <ele>123</ele>
        <time>2017-04-30T07:36:54Z</time>
      </trkpt>
      <trkpt lat="47.9467" lon="2.20541">
        <ele>122</ele>
        <time>2017-04-30T07:36:56Z</time>
      </trkpt>
      <trkpt lat="47.94673" lon="2.20558">
        <ele>122</ele>
        <time>2017-04-30T07:36:58Z</time>
      </trkpt>
      <trkpt lat="47.94675" lon="2.20575">
        <ele>123</ele>
        <time>2017-04-30T07:37:00Z</time>
      </trkpt>
      <trkpt lat="47.94677" lon="2.20592">
        <ele>123</ele>
        <time>2017-04-30T07:37:02Z</time>
      </trkpt>
      <trkpt lat="47.94679" lon="2.20609">
        <ele>123</ele>
        <time>2017-04-30T07:37:04Z</time>
      </trkpt>
      <trkpt lat="47.94681" lon="2.20626">
        <ele>124</ele>
        <time>2017-04-30T07:37:06Z</time>
      </trkpt>
      <trkpt lat="47.94683" lon="2.20643">
        <ele>124</ele>
        <time>2017-04-30T07:37:08Z</time>
      </trkpt>
      <trkpt lat="47.94685" lon="2.20659">
        <ele>125</ele>
        <time>2017-04-30T07:37:10Z</time>
      </trkpt>
      <trkpt lat="47.94688" lon="2.20676">
        <ele>126</ele>
        <time>2017-04-30T07:37:12Z</time>
      </trkpt>
      <trkpt lat="47.9469" lon="2.20694">
        <ele>127</ele>
        <time>2017-04-30T07:37:14Z</time>
      </trkpt>
      <trkpt lat="47.94692" lon="2.20712">
        <ele>127</ele>
        <time>2017-04-30T07:37:16Z</time>
      </trkpt>
      <trkpt lat="47.94694" lon="2.2073">
        <ele>127</ele>
        <time>2017-04-30T07:37:18Z</time>
      </trkpt>
      <trkpt lat="47.94697" lon="2.20747">
        <ele>127</ele>
        <time>2017-04-30T07:37:20Z</time>
      </trkpt>
      <trkpt lat="47.94699" lon="2.20763">
        <ele>127</ele>
        <time>2017-04-30T07:37:22Z</time>
      </trkpt>
      <trkpt lat="47.94701" lon="2.2078">
        <ele>127</ele>
        <time>2017-04-30T07:37:24Z</time>
      </trkpt>
      <trkpt lat="47.94704" lon="2.20797">
        <ele>128</ele>
        <time>2017-04-30T07:37:26Z</time>
      </trkpt>
      <trkpt lat="47.94706" lon="2.20814">
        <ele>129</ele>
        <time>2017-04-30T07:37:28Z</time>
      </trkpt>
      <trkpt lat="47.94707" lon="2.20831">
        <ele>129</ele>
        <time>2017-04-30T07:37:30Z</time>
      </trkpt>
      <trkpt lat="47.94709" lon="2.20846">
        <ele>131</ele>
        <time>2017-04-30T07:37:32Z</time>
      </trkpt>
      <trkpt lat="47.94709" lon="2.20846">
        <ele>131</ele>
        <time>2017-04-30T07:37:34Z</time>
      </trkpt>
      <trkpt lat="47.94709" lon="2.20846">
        <ele>131</ele>
        <time>2017-04-30T07:37:36Z</time>
      </trkpt>
      <trkpt lat="47.94709" lon="2.20846">
        <ele>131</ele>
        <time>2017-04-30T07:37:38Z</time>
      </trkpt>
      <trkpt lat="47.94709" lon="2.20846">
        <ele>131</ele>
        <time>2017-04-30T07:37:40Z</time>
      </trkpt>
      <trkpt lat="47.94709" lon="2.20846">
        <ele>131</ele>
        <time>2017-04-30T07:37:42Z</time>
      </trkpt>
      <trkpt lat="47.94709" lon="2.20846">
        <ele>131</ele>
        <time>2017-04-30T07:37:44Z</time>
      </trkpt>
      <trkpt lat="47.94709" lon="2.20846">
        <ele>131</ele>
        <time>2017-04-30T07:37:46Z</time>
      </trkpt>
      <trkpt lat="47.94709" lon="2.20846">
        <ele>131</ele>
        <time>2017-04-30T07:37:48Z</time>
      </trkpt>
      <trkpt lat="47.94724" lon="2.20982">
        <ele>131</ele>
        <time>2017-04-30T07:37:52Z</time>
      </trkpt>
      <trkpt lat="47.94723" lon="2.20997">
        <ele>130</ele>
        <time>2017-04-30T07:37:54Z</time>
      </trkpt>
      <trkpt lat="47.94714" lon="2.21018">
        <ele>128</ele>
        <time>2017-04-30T07:37:58Z</time>
      </trkpt>
      <trkpt lat="47.94707" lon="2.21026">
        <ele>128</ele>
        <time>2017-04-30T07:38:00Z</time>
      </trkpt>
      <trkpt lat="47.94699" lon="2.21036">
        <ele>127</ele>
        <time>2017-04-30T07:38:02Z</time>
      </trkpt>
      <trkpt lat="47.94692" lon="2.21045">
        <ele>127</ele>
        <time>2017-04-30T07:38:04Z</time>
      </trkpt>
      <trkpt lat="47.94685" lon="2.21056">
        <ele>127</ele>
        <time>2017-04-30T07:38:06Z</time>
      </trkpt>
      <trkpt lat="47.94677" lon="2.21065">
        <ele>126</ele>
        <time>2017-04-30T07:38:08Z</time>
      </trkpt>
      <trkpt lat="47.94672" lon="2.21076">
        <ele>126</ele>
        <time>2017-04-30T07:38:10Z</time>
      </trkpt>
      <trkpt lat="47.94664" lon="2.21085">
        <ele>127</ele>
        <time>2017-04-30T07:38:12Z</time>
      </trkpt>
      <trkpt lat="47.94656" lon="2.21094">
        <ele>126</ele>
        <time>2017-04-30T07:38:14Z</time>
      </trkpt>
      <trkpt lat="47.94648" lon="2.21103">
        <ele>126</ele>
        <time>2017-04-30T07:38:16Z</time>
      </trkpt>
      <trkpt lat="47.9464" lon="2.21113">
        <ele>125</ele>
        <time>2017-04-30T07:38:18Z</time>
      </trkpt>
      <trkpt lat="47.94633" lon="2.21124">
        <ele>125</ele>
        <time>2017-04-30T07:38:20Z</time>
      </trkpt>
      <trkpt lat="47.94625" lon="2.21134">
        <ele>124</ele>
        <time>2017-04-30T07:38:22Z</time>
      </trkpt>
      <trkpt lat="47.94625" lon="2.21134">
        <ele>124</ele>
        <time>2017-04-30T07:38:24Z</time>
      </trkpt>
      <trkpt lat="47.94625" lon="2.21134">
        <ele>124</ele>
        <time>2017-04-30T07:38:26Z</time>
      </trkpt>
      <trkpt lat="47.94625" lon="2.21134">
        <ele>124</ele>
        <time>2017-04-30T07:38:28Z</time>
      </trkpt>
      <trkpt lat="47.94625" lon="2.21134">
        <ele>124</ele>
        <time>2017-04-30T07:38:30Z</time>
      </trkpt>
      <trkpt lat="47.94625" lon="2.21134">
        <ele>124</ele>
        <time>2017-04-30T07:38:32Z</time>
      </trkpt>
      <trkpt lat="47.94625" lon="2.21134">
        <ele>124</ele>
        <time>2017-04-30T07:38:34Z</time>
      </trkpt>
      <trkpt lat="47.94625" lon="2.21134">
        <ele>124</ele>
        <time>2017-04-30T07:38:36Z</time>
      </trkpt>
      <trkpt lat="47.94625" lon="2.21134">
        <ele>124</ele>
        <time>2017-04-30T07:38:42Z</time>
      </trkpt>
      <trkpt lat="47.94625" lon="2.21134">
        <ele>124</ele>
        <time>2017-04-30T07:38:44Z</time>
      </trkpt>
      <trkpt lat="47.94625" lon="2.21134">
        <ele>124</ele>
        <time>2017-04-30T07:38:46Z</time>
      </trkpt>
      <trkpt lat="47.94625" lon="2.21134">
        <ele>124</ele>
        <time>2017-04-30T07:38:48Z</time>
      </trkpt>
      <trkpt lat="47.94541" lon="2.21204">
        <ele>127</ele>
        <time>2017-04-30T07:38:52Z</time>
      </trkpt>
      <trkpt lat="47.94538" lon="2.2118">
        <ele>129</ele>
        <time>2017-04-30T07:38:56Z</time>
      </trkpt>
      <trkpt lat="47.94536" lon="2.21156">
        <ele>129</ele>
        <time>2017-04-30T07:39:00Z</time>
      </trkpt>
      <trkpt lat="47.94536" lon="2.21156">
        <ele>129</ele>
        <time>2017-04-30T07:39:04Z</time>
      </trkpt>
      <trkpt lat="47.94536" lon="2.21156">
        <ele>129</ele>
        <time>2017-04-30T07:39:06Z</time>
      </trkpt>
      <trkpt lat="47.94536" lon="2.21156">
        <ele>129</ele>
        <time>2017-04-30T07:39:08Z</time>
      </trkpt>
      <trkpt lat="47.94536" lon="2.21156">
        <ele>129</ele>
        <time>2017-04-30T07:39:10Z</time>
      </trkpt>
      <trkpt lat="47.94536" lon="2.21156">
        <ele>129</ele>
        <time>2017-04-30T07:39:12Z</time>
      </trkpt>
      <trkpt lat="47.94536" lon="2.21156">
        <ele>129</ele>
        <time>2017-04-30T07:39:16Z</time>
      </trkpt>
      <trkpt lat="47.94528" lon="2.21111">
        <ele>128</ele>
        <time>2017-04-30T07:39:18Z</time>
      </trkpt>
      <trkpt lat="47.94523" lon="2.21083">
        <ele>128</ele>
        <time>2017-04-30T07:39:20Z</time>
      </trkpt>
      <trkpt lat="47.94519" lon="2.21064">
        <ele>128</ele>
        <time>2017-04-30T07:39:22Z</time>
      </trkpt>
      <trkpt lat="47.94519" lon="2.21064">
        <ele>128</ele>
        <time>2017-04-30T07:39:24Z</time>
      </trkpt>
      <trkpt lat="47.94519" lon="2.21064">
        <ele>128</ele>
        <time>2017-04-30T07:39:26Z</time>
      </trkpt>
      <trkpt lat="47.94519" lon="2.21064">
        <ele>128</ele>
        <time>2017-04-30T07:39:28Z</time>
      </trkpt>
      <trkpt lat="47.94519" lon="2.21064">
        <ele>128</ele>
        <time>2017-04-30T07:39:30Z</time>
      </trkpt>
      <trkpt lat="47.94488" lon="2.21019">
        <ele>124</ele>
        <time>2017-04-30T07:39:40Z</time>
      </trkpt>
      <trkpt lat="47.94471" lon="2.21019">
        <ele>122</ele>
        <time>2017-04-30T07:39:44Z</time>
      </trkpt>
      <trkpt lat="47.94471" lon="2.21019">
        <ele>122</ele>
        <time>2017-04-30T07:39:46Z</time>
      </trkpt>
      <trkpt lat="47.94471" lon="2.21019">
        <ele>122</ele>
        <time>2017-04-30T07:39:48Z</time>
      </trkpt>
      <trkpt lat="47.94445" lon="2.2102">
        <ele>118</ele>
        <time>2017-04-30T07:39:50Z</time>
      </trkpt>
      <trkpt lat="47.94427" lon="2.2102">
        <ele>115</ele>
        <time>2017-04-30T07:39:54Z</time>
      </trkpt>
      <trkpt lat="47.94427" lon="2.2102">
        <ele>115</ele>
        <time>2017-04-30T07:39:56Z</time>
      </trkpt>
      <trkpt lat="47.94409" lon="2.21018">
        <ele>113</ele>
        <time>2017-04-30T07:39:58Z</time>
      </trkpt>
      <trkpt lat="47.94399" lon="2.21019">
        <ele>112</ele>
        <time>2017-04-30T07:40:00Z</time>
      </trkpt>
      <trkpt lat="47.94389" lon="2.21021">
        <ele>111</ele>
        <time>2017-04-30T07:40:02Z</time>
      </trkpt>
      <trkpt lat="47.94378" lon="2.21022">
        <ele>109</ele>
        <time>2017-04-30T07:40:04Z</time>
      </trkpt>
      <trkpt lat="47.94368" lon="2.21023">
        <ele>108</ele>
        <time>2017-04-30T07:40:06Z</time>
      </trkpt>
      <trkpt lat="47.94358" lon="2.21024">
        <ele>108</ele>
        <time>2017-04-30T07:40:08Z</time>
      </trkpt>
      <trkpt lat="47.94348" lon="2.21025">
        <ele>107</ele>
        <time>2017-04-30T07:40:10Z</time>
      </trkpt>
      <trkpt lat="47.94338" lon="2.21025">
        <ele>106</ele>
        <time>2017-04-30T07:40:12Z</time>
      </trkpt>
      <trkpt lat="47.94338" lon="2.21025">
        <ele>106</ele>
        <time>2017-04-30T07:40:14Z</time>
      </trkpt>
      <trkpt lat="47.94307" lon="2.21026">
        <ele>102</ele>
        <time>2017-04-30T07:40:18Z</time>
      </trkpt>
      <trkpt lat="47.94296" lon="2.21027">
        <ele>101</ele>
        <time>2017-04-30T07:40:20Z</time>
      </trkpt>
      <trkpt lat="47.94285" lon="2.21027">
        <ele>100</ele>
        <time>2017-04-30T07:40:22Z</time>
      </trkpt>
      <trkpt lat="47.94275" lon="2.21025">
        <ele>99</ele>
        <time>2017-04-30T07:40:24Z</time>
      </trkpt>
      <trkpt lat="47.94275" lon="2.21025">
        <ele>99</ele>
        <time>2017-04-30T07:40:26Z</time>
      </trkpt>
      <trkpt lat="47.94275" lon="2.21025">
        <ele>99</ele>
        <time>2017-04-30T07:40:28Z</time>
      </trkpt>
      <trkpt lat="47.94275" lon="2.21025">
        <ele>99</ele>
        <time>2017-04-30T07:40:30Z</time>
      </trkpt>
      <trkpt lat="47.94262" lon="2.21069">
        <ele>100</ele>
        <time>2017-04-30T07:40:36Z</time>
      </trkpt>
      <trkpt lat="47.94268" lon="2.21083">
        <ele>101</ele>
        <time>2017-04-30T07:40:38Z</time>
      </trkpt>
      <trkpt lat="47.94273" lon="2.21097">
        <ele>101</ele>
        <time>2017-04-30T07:40:40Z</time>
      </trkpt>
      <trkpt lat="47.94279" lon="2.21112">
        <ele>102</ele>
        <time>2017-04-30T07:40:42Z</time>
      </trkpt>
      <trkpt lat="47.94284" lon="2.21127">
        <ele>102</ele>
        <time>2017-04-30T07:40:44Z</time>
      </trkpt>
      <trkpt lat="47.94291" lon="2.21142">
        <ele>103</ele>
        <time>2017-04-30T07:40:46Z</time>
      </trkpt>
      <trkpt lat="47.94297" lon="2.21157">
        <ele>103</ele>
        <time>2017-04-30T07:40:48Z</time>
      </trkpt>
      <trkpt lat="47.94302" lon="2.21171">
        <ele>104</ele>
        <time>2017-04-30T07:40:50Z</time>
      </trkpt>
      <trkpt lat="47.94308" lon="2.21186">
        <ele>104</ele>
        <time>2017-04-30T07:40:52Z</time>
      </trkpt>
      <trkpt lat="47.94314" lon="2.21201">
        <ele>104</ele>
        <time>2017-04-30T07:40:54Z</time>
      </trkpt>
      <trkpt lat="47.9432" lon="2.21216">
        <ele>104</ele>
        <time>2017-04-30T07:40:56Z</time>
      </trkpt>
      <trkpt lat="47.94326" lon="2.21232">
        <ele>105</ele>
        <time>2017-04-30T07:40:58Z</time>
      </trkpt>
      <trkpt lat="47.94332" lon="2.21247">
        <ele>105</ele>
        <time>2017-04-30T07:41:00Z</time>
      </trkpt>
      <trkpt lat="47.94338" lon="2.21263">
        <ele>106</ele>
        <time>2017-04-30T07:41:02Z</time>
      </trkpt>
      <trkpt lat="47.94344" lon="2.21279">
        <ele>106</ele>
        <time>2017-04-30T07:41:04Z</time>
      </trkpt>
      <trkpt lat="47.9435" lon="2.21295">
        <ele>106</ele>
        <time>2017-04-30T07:41:06Z</time>
      </trkpt>
      <trkpt lat="47.94356" lon="2.21311">
        <ele>106</ele>
        <time>2017-04-30T07:41:08Z</time>
      </trkpt>
      <trkpt lat="47.94362" lon="2.21327">
        <ele>107</ele>
        <time>2017-04-30T07:41:10Z</time>
      </trkpt>
      <trkpt lat="47.94368" lon="2.21342">
        <ele>107</ele>
        <time>2017-04-30T07:41:12Z</time>
      </trkpt>
      <trkpt lat="47.94375" lon="2.21358">
        <ele>107</ele>
        <time>2017-04-30T07:41:14Z</time>
      </trkpt>
      <trkpt lat="47.94381" lon="2.21373">
        <ele>108</ele>
        <time>2017-04-30T07:41:16Z</time>
      </trkpt>
      <trkpt lat="47.94386" lon="2.21389">
        <ele>108</ele>
        <time>2017-04-30T07:41:18Z</time>
      </trkpt>
      <trkpt lat="47.94392" lon="2.21403">
        <ele>108</ele>
        <time>2017-04-30T07:41:20Z</time>
      </trkpt>
      <trkpt lat="47.94397" lon="2.21419">
        <ele>109</ele>
        <time>2017-04-30T07:41:22Z</time>
      </trkpt>
      <trkpt lat="47.94395" lon="2.21435">
        <ele>110</ele>
        <time>2017-04-30T07:41:24Z</time>
      </trkpt>
      <trkpt lat="47.94388" lon="2.21447">
        <ele>111</ele>
        <time>2017-04-30T07:41:26Z</time>
      </trkpt>
      <trkpt lat="47.94379" lon="2.21456">
        <ele>112</ele>
        <time>2017-04-30T07:41:28Z</time>
      </trkpt>
      <trkpt lat="47.94368" lon="2.21465">
        <ele>113</ele>
        <time>2017-04-30T07:41:30Z</time>
      </trkpt>
      <trkpt lat="47.94358" lon="2.21474">
        <ele>114</ele>
        <time>2017-04-30T07:41:32Z</time>
      </trkpt>
      <trkpt lat="47.94347" lon="2.2148">
        <ele>114</ele>
        <time>2017-04-30T07:41:34Z</time>
      </trkpt>
      <trkpt lat="47.94335" lon="2.21488">
        <ele>115</ele>
        <time>2017-04-30T07:41:36Z</time>
      </trkpt>
      <trkpt lat="47.94324" lon="2.21496">
        <ele>115</ele>
        <time>2017-04-30T07:41:38Z</time>
      </trkpt>
      <trkpt lat="47.94313" lon="2.21506">
        <ele>115</ele>
        <time>2017-04-30T07:41:40Z</time>
      </trkpt>
      <trkpt lat="47.94301" lon="2.21515">
        <ele>115</ele>
        <time>2017-04-30T07:41:42Z</time>
      </trkpt>
      <trkpt lat="47.94289" lon="2.21525">
        <ele>116</ele>
        <time>2017-04-30T07:41:44Z</time>
      </trkpt>
      <trkpt lat="47.94278" lon="2.21534">
        <ele>116</ele>
        <time>2017-04-30T07:41:46Z</time>
      </trkpt>
      <trkpt lat="47.94268" lon="2.21542">
        <ele>116</ele>
        <time>2017-04-30T07:41:48Z</time>
      </trkpt>
      <trkpt lat="47.94256" lon="2.21551">
        <ele>116</ele>
        <time>2017-04-30T07:41:50Z</time>
      </trkpt>
      <trkpt lat="47.94244" lon="2.2156">
        <ele>115</ele>
        <time>2017-04-30T07:41:52Z</time>
      </trkpt>
      <trkpt lat="47.94232" lon="2.2157">
        <ele>115</ele>
        <time>2017-04-30T07:41:54Z</time>
      </trkpt>
      <trkpt lat="47.94221" lon="2.2158">
        <ele>114</ele>
        <time>2017-04-30T07:41:56Z</time>
      </trkpt>
      <trkpt lat="47.9421" lon="2.2159">
        <ele>113</ele>
        <time>2017-04-30T07:41:58Z</time>
      </trkpt>
      <trkpt lat="47.942" lon="2.21599">
        <ele>113</ele>
        <time>2017-04-30T07:42:00Z</time>
      </trkpt>
      <trkpt lat="47.94189" lon="2.21607">
        <ele>113</ele>
        <time>2017-04-30T07:42:02Z</time>
      </trkpt>
      <trkpt lat="47.94177" lon="2.21616">
        <ele>114</ele>
        <time>2017-04-30T07:42:04Z</time>
      </trkpt>
      <trkpt lat="47.94166" lon="2.21626">
        <ele>113</ele>
        <time>2017-04-30T07:42:06Z</time>
      </trkpt>
      <trkpt lat="47.94156" lon="2.21636">
        <ele>113</ele>
        <time>2017-04-30T07:42:08Z</time>
      </trkpt>
      <trkpt lat="47.94144" lon="2.21646">
        <ele>112</ele>
        <time>2017-04-30T07:42:10Z</time>
      </trkpt>
      <trkpt lat="47.94133" lon="2.21655">
        <ele>112</ele>
        <time>2017-04-30T07:42:12Z</time>
      </trkpt>
      <trkpt lat="47.94123" lon="2.21664">
        <ele>111</ele>
        <time>2017-04-30T07:42:14Z</time>
      </trkpt>
      <trkpt lat="47.94111" lon="2.21671">
        <ele>111</ele>
        <time>2017-04-30T07:42:16Z</time>
      </trkpt>
      <trkpt lat="47.941" lon="2.2168">
        <ele>110</ele>
        <time>2017-04-30T07:42:18Z</time>
      </trkpt>
      <trkpt lat="47.94088" lon="2.21689">
        <ele>110</ele>
        <time>2017-04-30T07:42:20Z</time>
      </trkpt>
      <trkpt lat="47.94077" lon="2.21699">
        <ele>109</ele>
        <time>2017-04-30T07:42:22Z</time>
      </trkpt>
      <trkpt lat="47.94066" lon="2.21708">
        <ele>109</ele>
        <time>2017-04-30T07:42:24Z</time>
      </trkpt>
      <trkpt lat="47.94055" lon="2.21717">
        <ele>110</ele>
        <time>2017-04-30T07:42:26Z</time>
      </trkpt>
      <trkpt lat="47.94043" lon="2.21727">
        <ele>109</ele>
        <time>2017-04-30T07:42:28Z</time>
      </trkpt>
      <trkpt lat="47.94034" lon="2.2174">
        <ele>109</ele>
        <time>2017-04-30T07:42:30Z</time>
      </trkpt>
      <trkpt lat="47.94027" lon="2.21755">
        <ele>110</ele>
        <time>2017-04-30T07:42:32Z</time>
      </trkpt>
      <trkpt lat="47.94021" lon="2.21771">
        <ele>111</ele>
        <time>2017-04-30T07:42:34Z</time>
      </trkpt>
      <trkpt lat="47.94017" lon="2.21786">
        <ele>112</ele>
        <time>2017-04-30T07:42:36Z</time>
      </trkpt>
      <trkpt lat="47.94017" lon="2.21786">
        <ele>112</ele>
        <time>2017-04-30T07:42:38Z</time>
      </trkpt>
      <trkpt lat="47.94017" lon="2.21786">
        <ele>112</ele>
        <time>2017-04-30T07:42:40Z</time>
      </trkpt>
      <trkpt lat="47.94017" lon="2.21786">
        <ele>112</ele>
        <time>2017-04-30T07:42:42Z</time>
      </trkpt>
      <trkpt lat="47.94017" lon="2.21786">
        <ele>112</ele>
        <time>2017-04-30T07:42:44Z</time>
      </trkpt>
      <trkpt lat="47.94017" lon="2.21786">
        <ele>112</ele>
        <time>2017-04-30T07:42:46Z</time>
      </trkpt>
      <trkpt lat="47.94036" lon="2.21832">
        <ele>119</ele>
        <time>2017-04-30T07:42:52Z</time>
      </trkpt>
      <trkpt lat="47.94036" lon="2.21832">
        <ele>119</ele>
        <time>2017-04-30T07:42:54Z</time>
      </trkpt>
      <trkpt lat="47.94036" lon="2.21832">
        <ele>119</ele>
        <time>2017-04-30T07:42:56Z</time>
      </trkpt>
      <trkpt lat="47.94057" lon="2.21846">
        <ele>124</ele>
        <time>2017-04-30T07:43:00Z</time>
      </trkpt>
      <trkpt lat="47.9407" lon="2.21857">
        <ele>126</ele>
        <time>2017-04-30T07:43:04Z</time>
      </trkpt>
      <trkpt lat="47.9407" lon="2.21857">
        <ele>126</ele>
        <time>2017-04-30T07:43:06Z</time>
      </trkpt>
      <trkpt lat="47.94085" lon="2.21867">
        <ele>128</ele>
        <time>2017-04-30T07:43:08Z</time>
      </trkpt>
      <trkpt lat="47.941" lon="2.21876">
        <ele>130</ele>
        <time>2017-04-30T07:43:12Z</time>
      </trkpt>
      <trkpt lat="47.941" lon="2.21876">
        <ele>130</ele>
        <time>2017-04-30T07:43:14Z</time>
      </trkpt>
      <trkpt lat="47.94114" lon="2.21883">
        <ele>132</ele>
        <time>2017-04-30T07:43:16Z</time>
      </trkpt>
      <trkpt lat="47.94129" lon="2.21895">
        <ele>134</ele>
        <time>2017-04-30T07:43:20Z</time>
      </trkpt>
      <trkpt lat="47.94129" lon="2.21895">
        <ele>134</ele>
        <time>2017-04-30T07:43:24Z</time>
      </trkpt>
      <trkpt lat="47.94151" lon="2.21908">
        <ele>137</ele>
        <time>2017-04-30T07:43:26Z</time>
      </trkpt>
      <trkpt lat="47.9416" lon="2.21913">
        <ele>138</ele>
        <time>2017-04-30T07:43:30Z</time>
      </trkpt>
      <trkpt lat="47.94168" lon="2.21919">
        <ele>138</ele>
        <time>2017-04-30T07:43:32Z</time>
      </trkpt>
      <trkpt lat="47.94176" lon="2.21924">
        <ele>139</ele>
        <time>2017-04-30T07:43:34Z</time>
      </trkpt>
      <trkpt lat="47.94176" lon="2.21924">
        <ele>139</ele>
        <time>2017-04-30T07:43:36Z</time>
      </trkpt>
      <trkpt lat="47.94176" lon="2.21924">
        <ele>139</ele>
        <time>2017-04-30T07:43:38Z</time>
      </trkpt>
      <trkpt lat="47.94201" lon="2.21963">
        <ele>125</ele>
        <time>2017-04-30T07:43:48Z</time>
      </trkpt>
      <trkpt lat="47.94215" lon="2.21988">
        <ele>124</ele>
        <time>2017-04-30T07:43:50Z</time>
      </trkpt>
      <trkpt lat="47.94225" lon="2.22007">
        <ele>123</ele>
        <time>2017-04-30T07:43:52Z</time>
      </trkpt>
      <trkpt lat="47.94232" lon="2.22022">
        <ele>123</ele>
        <time>2017-04-30T07:43:54Z</time>
      </trkpt>
      <trkpt lat="47.94238" lon="2.22036">
        <ele>124</ele>
        <time>2017-04-30T07:43:56Z</time>
      </trkpt>
      <trkpt lat="47.94247" lon="2.22061">
        <ele>124</ele>
        <time>2017-04-30T07:43:58Z</time>
      </trkpt>
      <trkpt lat="47.94247" lon="2.22061">
        <ele>124</ele>
        <time>2017-04-30T07:44:00Z</time>
      </trkpt>
      <trkpt lat="47.94247" lon="2.22061">
        <ele>124</ele>
        <time>2017-04-30T07:44:02Z</time>
      </trkpt>
      <trkpt lat="47.94247" lon="2.22061">
        <ele>124</ele>
        <time>2017-04-30T07:44:04Z</time>
      </trkpt>
      <trkpt lat="47.94247" lon="2.22061">
        <ele>124</ele>
        <time>2017-04-30T07:44:06Z</time>
      </trkpt>
      <trkpt lat="47.94247" lon="2.22061">
        <ele>124</ele>
        <time>2017-04-30T07:44:08Z</time>
      </trkpt>
      <trkpt lat="47.94247" lon="2.22061">
        <ele>124</ele>
        <time>2017-04-30T07:44:14Z</time>
      </trkpt>
      <trkpt lat="47.94247" lon="2.22061">
        <ele>124</ele>
        <time>2017-04-30T07:44:16Z</time>
      </trkpt>
      <trkpt lat="47.94272" lon="2.22185">
        <ele>117</ele>
        <time>2017-04-30T07:44:18Z</time>
      </trkpt>
      <trkpt lat="47.94272" lon="2.22185">
        <ele>117</ele>
        <time>2017-04-30T07:44:20Z</time>
      </trkpt>
      <trkpt lat="47.94272" lon="2.22185">
        <ele>117</ele>
        <time>2017-04-30T07:44:22Z</time>
      </trkpt>
      <trkpt lat="47.94272" lon="2.22185">
        <ele>117</ele>
        <time>2017-04-30T07:44:24Z</time>
      </trkpt>
      <trkpt lat="47.94291" lon="2.22229">
        <ele>116</ele>
        <time>2017-04-30T07:44:26Z</time>
      </trkpt>
      <trkpt lat="47.94305" lon="2.22242">
        <ele>116</ele>
        <time>2017-04-30T07:44:30Z</time>
      </trkpt>
      <trkpt lat="47.94305" lon="2.22242">
        <ele>116</ele>
        <time>2017-04-30T07:44:32Z</time>
      </trkpt>
      <trkpt lat="47.94305" lon="2.22242">
        <ele>116</ele>
        <time>2017-04-30T07:44:36Z</time>
      </trkpt>
      <trkpt lat="47.94305" lon="2.22242">
        <ele>116</ele>
        <time>2017-04-30T07:44:38Z</time>
      </trkpt>
      <trkpt lat="47.94305" lon="2.22242">
        <ele>116</ele>
        <time>2017-04-30T07:44:40Z</time>
      </trkpt>
      <trkpt lat="47.94305" lon="2.22242">
        <ele>116</ele>
        <time>2017-04-30T07:44:42Z</time>
      </trkpt>
      <trkpt lat="47.9434" lon="2.22326">
        <ele>113</ele>
        <time>2017-04-30T07:44:46Z</time>
      </trkpt>
      <trkpt lat="47.94345" lon="2.22337">
        <ele>114</ele>
        <time>2017-04-30T07:44:48Z</time>
      </trkpt>
      <trkpt lat="47.9435" lon="2.22349">
        <ele>114</ele>
        <time>2017-04-30T07:44:50Z</time>
      </trkpt>
      <trkpt lat="47.94356" lon="2.22361">
        <ele>115</ele>
        <time>2017-04-30T07:44:52Z</time>
      </trkpt>
      <trkpt lat="47.94361" lon="2.22373">
        <ele>115</ele>
        <time>2017-04-30T07:44:54Z</time>
      </trkpt>
      <trkpt lat="47.94366" lon="2.22384">
        <ele>116</ele>
        <time>2017-04-30T07:44:56Z</time>
      </trkpt>
      <trkpt lat="47.94371" lon="2.22396">
        <ele>116</ele>
        <time>2017-04-30T07:44:58Z</time>
      </trkpt>
      <trkpt lat="47.94377" lon="2.22408">
        <ele>116</ele>
        <time>2017-04-30T07:45:00Z</time>
      </trkpt>
      <trkpt lat="47.94377" lon="2.22408">
        <ele>116</ele>
        <time>2017-04-30T07:45:02Z</time>
      </trkpt>
      <trkpt lat="47.94377" lon="2.22408">
        <ele>116</ele>
        <time>2017-04-30T07:45:04Z</time>
      </trkpt>
      <trkpt lat="47.94377" lon="2.22408">
        <ele>116</ele>
        <time>2017-04-30T07:45:06Z</time>
      </trkpt>
      <trkpt lat="47.94377" lon="2.22408">
        <ele>116</ele>
        <time>2017-04-30T07:45:08Z</time>
      </trkpt>
      <trkpt lat="47.94377" lon="2.22408">
        <ele>116</ele>
        <time>2017-04-30T07:45:10Z</time>
      </trkpt>
      <trkpt lat="47.94413" lon="2.22488">
        <ele>115</ele>
        <time>2017-04-30T07:45:14Z</time>
      </trkpt>
      <trkpt lat="47.94416" lon="2.22501">
        <ele>115</ele>
        <time>2017-04-30T07:45:16Z</time>
      </trkpt>
      <trkpt lat="47.94421" lon="2.22513">
        <ele>115</ele>
        <time>2017-04-30T07:45:18Z</time>
      </trkpt>
      <trkpt lat="47.94421" lon="2.22513">
        <ele>115</ele>
        <time>2017-04-30T07:45:20Z</time>
      </trkpt>
      <trkpt lat="47.94421" lon="2.22513">
        <ele>115</ele>
        <time>2017-04-30T07:45:22Z</time>
      </trkpt>
      <trkpt lat="47.94421" lon="2.22513">
        <ele>115</ele>
        <time>2017-04-30T07:45:24Z</time>
      </trkpt>
      <trkpt lat="47.94421" lon="2.22513">
        <ele>115</ele>
        <time>2017-04-30T07:45:28Z</time>
      </trkpt>
      <trkpt lat="47.94421" lon="2.22513">
        <ele>115</ele>
        <time>2017-04-30T07:45:30Z</time>
      </trkpt>
      <trkpt lat="47.94421" lon="2.22513">
        <ele>115</ele>
        <time>2017-04-30T07:45:32Z</time>
      </trkpt>
      <trkpt lat="47.94421" lon="2.22513">
        <ele>115</ele>
        <time>2017-04-30T07:45:34Z</time>
      </trkpt>
      <trkpt lat="47.94421" lon="2.22513">
        <ele>115</ele>
        <time>2017-04-30T07:45:36Z</time>
      </trkpt>
      <trkpt lat="47.94421" lon="2.22513">
        <ele>115</ele>
        <time>2017-04-30T07:45:38Z</time>
      </trkpt>
      <trkpt lat="47.94421" lon="2.22513">
        <ele>115</ele>
        <time>2017-04-30T07:45:40Z</time>
      </trkpt>
      <trkpt lat="47.94421" lon="2.22513">
        <ele>115</ele>
        <time>2017-04-30T07:45:42Z</time>
      </trkpt>
      <trkpt lat="47.94421" lon="2.22513">
        <ele>115</ele>
        <time>2017-04-30T07:45:44Z</time>
      </trkpt>
      <trkpt lat="47.94421" lon="2.22513">
        <ele>115</ele>
        <time>2017-04-30T07:45:46Z</time>
      </trkpt>
      <trkpt lat="47.94449" lon="2.22587">
        <ele>114</ele>
        <time>2017-04-30T07:45:50Z</time>
      </trkpt>
      <trkpt lat="47.94467" lon="2.22625">
        <ele>115</ele>
        <time>2017-04-30T07:45:52Z</time>
      </trkpt>
      <trkpt lat="47.94479" lon="2.22645">
        <ele>115</ele>
        <time>2017-04-30T07:45:54Z</time>
      </trkpt>
      <trkpt lat="47.9449" lon="2.22658">
        <ele>115</ele>
        <time>2017-04-30T07:45:56Z</time>
      </trkpt>
      <trkpt lat="47.94497" lon="2.22668">
        <ele>115</ele>
        <time>2017-04-30T07:45:58Z</time>
      </trkpt>
      <trkpt lat="47.94509" lon="2.22688">
        <ele>114</ele>
        <time>2017-04-30T07:46:00Z</time>
      </trkpt>
      <trkpt lat="47.94509" lon="2.22688">
        <ele>114</ele>
        <time>2017-04-30T07:46:02Z</time>
      </trkpt>
      <trkpt lat="47.94518" lon="2.22709">
        <ele>115</ele>
        <time>2017-04-30T07:46:04Z</time>
      </trkpt>
      <trkpt lat="47.94527" lon="2.22728">
        <ele>115</ele>
        <time>2017-04-30T07:46:08Z</time>
      </trkpt>
      <trkpt lat="47.94538" lon="2.22748">
        <ele>114</ele>
        <time>2017-04-30T07:46:12Z</time>
      </trkpt>
      <trkpt lat="47.94548" lon="2.22768">
        <ele>115</ele>
        <time>2017-04-30T07:46:16Z</time>
      </trkpt>
      <trkpt lat="47.94548" lon="2.22768">
        <ele>115</ele>
        <time>2017-04-30T07:46:18Z</time>
      </trkpt>
      <trkpt lat="47.94563" lon="2.22801">
        <ele>115</ele>
        <time>2017-04-30T07:46:22Z</time>
      </trkpt>
      <trkpt lat="47.94574" lon="2.2282">
        <ele>115</ele>
        <time>2017-04-30T07:46:26Z</time>
      </trkpt>
      <trkpt lat="47.94574" lon="2.2282">
        <ele>115</ele>
        <time>2017-04-30T07:46:28Z</time>
      </trkpt>
      <trkpt lat="47.94574" lon="2.2282">
        <ele>115</ele>
        <time>2017-04-30T07:46:30Z</time>
      </trkpt>
      <trkpt lat="47.94574" lon="2.2282">
        <ele>115</ele>
        <time>2017-04-30T07:46:32Z</time>
      </trkpt>
      <trkpt lat="47.94574" lon="2.2282">
        <ele>115</ele>
        <time>2017-04-30T07:46:34Z</time>
      </trkpt>
      <trkpt lat="47.94574" lon="2.2282">
        <ele>115</ele>
        <time>2017-04-30T07:46:36Z</time>
      </trkpt>
      <trkpt lat="47.94574" lon="2.2282">
        <ele>115</ele>
        <time>2017-04-30T07:46:38Z</time>
      </trkpt>
      <trkpt lat="47.94574" lon="2.2282">
        <ele>115</ele>
        <time>2017-04-30T07:46:40Z</time>
      </trkpt>
      <trkpt lat="47.94595" lon="2.22885">
        <ele>117</ele>
        <time>2017-04-30T07:46:44Z</time>
      </trkpt>
      <trkpt lat="47.94604" lon="2.22887">
        <ele>118</ele>
        <time>2017-04-30T07:46:46Z</time>
      </trkpt>
      <trkpt lat="47.94604" lon="2.22887">
        <ele>118</ele>
        <time>2017-04-30T07:46:48Z</time>
      </trkpt>
      <trkpt lat="47.94621" lon="2.22884">
        <ele>121</ele>
        <time>2017-04-30T07:46:50Z</time>
      </trkpt>
      <trkpt lat="47.94621" lon="2.22884">
        <ele>121</ele>
        <time>2017-04-30T07:46:52Z</time>
      </trkpt>
      <trkpt lat="47.94621" lon="2.22884">
        <ele>121</ele>
        <time>2017-04-30T07:46:54Z</time>
      </trkpt>
      <trkpt lat="47.94621" lon="2.22884">
        <ele>121</ele>
        <time>2017-04-30T07:46:56Z</time>
      </trkpt>
      <trkpt lat="47.94624" lon="2.22855">
        <ele>126</ele>
        <time>2017-04-30T07:47:06Z</time>
      </trkpt>
      <trkpt lat="47.9462" lon="2.22842">
        <ele>125</ele>
        <time>2017-04-30T07:47:10Z</time>
      </trkpt>
      <trkpt lat="47.94611" lon="2.22829">
        <ele>124</ele>
        <time>2017-04-30T07:47:15Z</time>
      </trkpt>
      <trkpt lat="47.94607" lon="2.22814">
        <ele>122</ele>
        <time>2017-04-30T07:47:18Z</time>
      </trkpt>
      <trkpt lat="47.94607" lon="2.22814">
        <ele>122</ele>
        <time>2017-04-30T07:47:20Z</time>
      </trkpt>
      <trkpt lat="47.94607" lon="2.22814">
        <ele>122</ele>
        <time>2017-04-30T07:47:22Z</time>
      </trkpt>
      <trkpt lat="47.94601" lon="2.22791">
        <ele>118</ele>
        <time>2017-04-30T07:47:24Z</time>
      </trkpt>
      <trkpt lat="47.94596" lon="2.22771">
        <ele>118</ele>
        <time>2017-04-30T07:47:28Z</time>
      </trkpt>
      <trkpt lat="47.94591" lon="2.22751">
        <ele>117</ele>
        <time>2017-04-30T07:47:32Z</time>
      </trkpt>
      <trkpt lat="47.94591" lon="2.22751">
        <ele>117</ele>
        <time>2017-04-30T07:47:34Z</time>
      </trkpt>
      <trkpt lat="47.94587" lon="2.2273">
        <ele>117</ele>
        <time>2017-04-30T07:47:36Z</time>
      </trkpt>
      <trkpt lat="47.94583" lon="2.2271">
        <ele>117</ele>
        <time>2017-04-30T07:47:40Z</time>
      </trkpt>
      <trkpt lat="47.94579" lon="2.2269">
        <ele>117</ele>
        <time>2017-04-30T07:47:44Z</time>
      </trkpt>
      <trkpt lat="47.94579" lon="2.2269">
        <ele>117</ele>
        <time>2017-04-30T07:47:46Z</time>
      </trkpt>
      <trkpt lat="47.94583" lon="2.22669">
        <ele>118</ele>
        <time>2017-04-30T07:47:48Z</time>
      </trkpt>
      <trkpt lat="47.94583" lon="2.22669">
        <ele>118</ele>
        <time>2017-04-30T07:47:50Z</time>
      </trkpt>
      <trkpt lat="47.94583" lon="2.22669">
        <ele>118</ele>
        <time>2017-04-30T07:47:52Z</time>
      </trkpt>
      <trkpt lat="47.94583" lon="2.22669">
        <ele>118</ele>
        <time>2017-04-30T07:47:54Z</time>
      </trkpt>
      <trkpt lat="47.94583" lon="2.22669">
        <ele>118</ele>
        <time>2017-04-30T07:47:56Z</time>
      </trkpt>
      <trkpt lat="47.94583" lon="2.22669">
        <ele>118</ele>
        <time>2017-04-30T07:47:58Z</time>
      </trkpt>
      <trkpt lat="47.94583" lon="2.22669">
        <ele>118</ele>
        <time>2017-04-30T07:48:00Z</time>
      </trkpt>
      <trkpt lat="47.94575" lon="2.2262">
        <ele>116</ele>
        <time>2017-04-30T07:48:04Z</time>
      </trkpt>
      <trkpt lat="47.94564" lon="2.22612">
        <ele>114</ele>
        <time>2017-04-30T07:48:08Z</time>
      </trkpt>
      <trkpt lat="47.94554" lon="2.22603">
        <ele>112</ele>
        <time>2017-04-30T07:48:12Z</time>
      </trkpt>
      <trkpt lat="47.94546" lon="2.22588">
        <ele>110</ele>
        <time>2017-04-30T07:48:16Z</time>
      </trkpt>
      <trkpt lat="47.94546" lon="2.22588">
        <ele>110</ele>
        <time>2017-04-30T07:48:18Z</time>
      </trkpt>
      <trkpt lat="47.94546" lon="2.22588">
        <ele>110</ele>
        <time>2017-04-30T07:48:20Z</time>
      </trkpt>
      <trkpt lat="47.94546" lon="2.22588">
        <ele>110</ele>
        <time>2017-04-30T07:48:22Z</time>
      </trkpt>
      <trkpt lat="47.94546" lon="2.22588">
        <ele>110</ele>
        <time>2017-04-30T07:48:24Z</time>
      </trkpt>
      <trkpt lat="47.94546" lon="2.22588">
        <ele>110</ele>
        <time>2017-04-30T07:48:26Z</time>
      </trkpt>
      <trkpt lat="47.94546" lon="2.22588">
        <ele>110</ele>
        <time>2017-04-30T07:48:28Z</time>
      </trkpt>
      <trkpt lat="47.94546" lon="2.22588">
        <ele>110</ele>
        <time>2017-04-30T07:48:30Z</time>
      </trkpt>
      <trkpt lat="47.94521" lon="2.22524">
        <ele>108</ele>
        <time>2017-04-30T07:48:34Z</time>
      </trkpt>
      <trkpt lat="47.94517" lon="2.22517">
        <ele>105</ele>
        <time>2017-04-30T07:48:38Z</time>
      </trkpt>
      <trkpt lat="47.94513" lon="2.22509">
        <ele>105</ele>
        <time>2017-04-30T07:48:40Z</time>
      </trkpt>
      <trkpt lat="47.94509" lon="2.225">
        <ele>105</ele>
        <time>2017-04-30T07:48:42Z</time>
      </trkpt>
      <trkpt lat="47.94505" lon="2.22491">
        <ele>105</ele>
        <time>2017-04-30T07:48:44Z</time>
      </trkpt>
      <trkpt lat="47.94501" lon="2.22482">
        <ele>104</ele>
        <time>2017-04-30T07:48:46Z</time>
      </trkpt>
      <trkpt lat="47.94493" lon="2.22464">
        <ele>104</ele>
        <time>2017-04-30T07:48:48Z</time>
      </trkpt>
      <trkpt lat="47.94493" lon="2.22464">
        <ele>104</ele>
        <time>2017-04-30T07:48:51Z</time>
      </trkpt>
      <trkpt lat="47.94486" lon="2.22446">
        <ele>103</ele>
        <time>2017-04-30T07:48:52Z</time>
      </trkpt>
      <trkpt lat="47.94479" lon="2.22425">
        <ele>105</ele>
        <time>2017-04-30T07:48:55Z</time>
      </trkpt>
      <trkpt lat="47.94471" lon="2.22407">
        <ele>107</ele>
        <time>2017-04-30T07:48:59Z</time>
      </trkpt>
      <trkpt lat="47.94471" lon="2.22407">
        <ele>107</ele>
        <time>2017-04-30T07:49:01Z</time>
      </trkpt>
      <trkpt lat="47.94471" lon="2.22407">
        <ele>107</ele>
        <time>2017-04-30T07:49:03Z</time>
      </trkpt>
      <trkpt lat="47.94471" lon="2.22407">
        <ele>107</ele>
        <time>2017-04-30T07:49:05Z</time>
      </trkpt>
      <trkpt lat="47.94471" lon="2.22407">
        <ele>107</ele>
        <time>2017-04-30T07:49:07Z</time>
      </trkpt>
      <trkpt lat="47.94471" lon="2.22407">
        <ele>107</ele>
        <time>2017-04-30T07:49:09Z</time>
      </trkpt>
      <trkpt lat="47.94471" lon="2.22407">
        <ele>107</ele>
        <time>2017-04-30T07:49:11Z</time>
      </trkpt>
      <trkpt lat="47.94471" lon="2.22407">
        <ele>107</ele>
        <time>2017-04-30T07:49:13Z</time>
      </trkpt>
      <trkpt lat="47.94471" lon="2.22407">
        <ele>107</ele>
        <time>2017-04-30T07:49:19Z</time>
      </trkpt>
      <trkpt lat="47.94471" lon="2.22407">
        <ele>107</ele>
        <time>2017-04-30T07:49:21Z</time>
      </trkpt>
      <trkpt lat="47.94439" lon="2.22329">
        <ele>107</ele>
        <time>2017-04-30T07:49:23Z</time>
      </trkpt>
      <trkpt lat="47.94433" lon="2.22314">
        <ele>106</ele>
        <time>2017-04-30T07:49:27Z</time>
      </trkpt>
      <trkpt lat="47.94427" lon="2.22296">
        <ele>107</ele>
        <time>2017-04-30T07:49:31Z</time>
      </trkpt>
      <trkpt lat="47.94426" lon="2.22273">
        <ele>107</ele>
        <time>2017-04-30T07:49:35Z</time>
      </trkpt>
      <trkpt lat="47.94426" lon="2.22273">
        <ele>107</ele>
        <time>2017-04-30T07:49:37Z</time>
      </trkpt>
      <trkpt lat="47.94424" lon="2.22251">
        <ele>110</ele>
        <time>2017-04-30T07:49:39Z</time>
      </trkpt>
      <trkpt lat="47.94427" lon="2.22227">
        <ele>111</ele>
        <time>2017-04-30T07:49:43Z</time>
      </trkpt>
      <trkpt lat="47.94435" lon="2.22206">
        <ele>113</ele>
        <time>2017-04-30T07:49:47Z</time>
      </trkpt>
      <trkpt lat="47.94435" lon="2.22206">
        <ele>113</ele>
        <time>2017-04-30T07:49:49Z</time>
      </trkpt>
      <trkpt lat="47.94443" lon="2.22186">
        <ele>112</ele>
        <time>2017-04-30T07:49:51Z</time>
      </trkpt>
      <trkpt lat="47.94443" lon="2.22186">
        <ele>112</ele>
        <time>2017-04-30T07:49:53Z</time>
      </trkpt>
      <trkpt lat="47.94443" lon="2.22186">
        <ele>112</ele>
        <time>2017-04-30T07:49:55Z</time>
      </trkpt>
      <trkpt lat="47.94466" lon="2.22156">
        <ele>114</ele>
        <time>2017-04-30T07:49:59Z</time>
      </trkpt>
      <trkpt lat="47.94481" lon="2.22146">
        <ele>114</ele>
        <time>2017-04-30T07:50:03Z</time>
      </trkpt>
      <trkpt lat="47.94481" lon="2.22146">
        <ele>114</ele>
        <time>2017-04-30T07:50:05Z</time>
      </trkpt>
      <trkpt lat="47.94481" lon="2.22146">
        <ele>114</ele>
        <time>2017-04-30T07:50:07Z</time>
      </trkpt>
      <trkpt lat="47.94512" lon="2.22146">
        <ele>115</ele>
        <time>2017-04-30T07:50:11Z</time>
      </trkpt>
      <trkpt lat="47.94512" lon="2.22146">
        <ele>115</ele>
        <time>2017-04-30T07:50:15Z</time>
      </trkpt>
      <trkpt lat="47.94512" lon="2.22146">
        <ele>115</ele>
        <time>2017-04-30T07:50:17Z</time>
      </trkpt>
      <trkpt lat="47.94528" lon="2.22146">
        <ele>114</ele>
        <time>2017-04-30T07:50:19Z</time>
      </trkpt>
      <trkpt lat="47.9454" lon="2.22146">
        <ele>114</ele>
        <time>2017-04-30T07:50:21Z</time>
      </trkpt>
      <trkpt lat="47.9455" lon="2.22147">
        <ele>114</ele>
        <time>2017-04-30T07:50:23Z</time>
      </trkpt>
      <trkpt lat="47.9455" lon="2.22147">
        <ele>114</ele>
        <time>2017-04-30T07:50:25Z</time>
      </trkpt>
      <trkpt lat="47.9455" lon="2.22147">
        <ele>114</ele>
        <time>2017-04-30T07:50:27Z</time>
      </trkpt>
      <trkpt lat="47.94571" lon="2.22147">
        <ele>114</ele>
        <time>2017-04-30T07:50:31Z</time>
      </trkpt>
      <trkpt lat="47.94571" lon="2.22147">
        <ele>114</ele>
        <time>2017-04-30T07:50:33Z</time>
      </trkpt>
      <trkpt lat="47.94571" lon="2.22147">
        <ele>114</ele>
        <time>2017-04-30T07:50:35Z</time>
      </trkpt>
      <trkpt lat="47.94571" lon="2.22147">
        <ele>114</ele>
        <time>2017-04-30T07:50:37Z</time>
      </trkpt>
      <trkpt lat="47.94571" lon="2.22147">
        <ele>114</ele>
        <time>2017-04-30T07:50:39Z</time>
      </trkpt>
      <trkpt lat="47.94616" lon="2.22109">
        <ele>117</ele>
        <time>2017-04-30T07:50:58Z</time>
      </trkpt>
      <trkpt lat="47.94616" lon="2.22109">
        <ele>117</ele>
        <time>2017-04-30T07:51:00Z</time>
      </trkpt>
      <trkpt lat="47.94616" lon="2.22109">
        <ele>117</ele>
        <time>2017-04-30T07:51:02Z</time>
      </trkpt>
      <trkpt lat="47.94616" lon="2.22109">
        <ele>117</ele>
        <time>2017-04-30T07:51:04Z</time>
      </trkpt>
      <trkpt lat="47.94616" lon="2.22109">
        <ele>117</ele>
        <time>2017-04-30T07:51:06Z</time>
      </trkpt>
      <trkpt lat="47.94616" lon="2.22109">
        <ele>117</ele>
        <time>2017-04-30T07:51:14Z</time>
      </trkpt>
      <trkpt lat="47.94659" lon="2.22111">
        <ele>129</ele>
        <time>2017-04-30T07:51:18Z</time>
      </trkpt>
      <trkpt lat="47.94664" lon="2.22131">
        <ele>130</ele>
        <time>2017-04-30T07:51:22Z</time>
      </trkpt>
      <trkpt lat="47.94669" lon="2.22151">
        <ele>131</ele>
        <time>2017-04-30T07:51:26Z</time>
      </trkpt>
      <trkpt lat="47.94669" lon="2.22151">
        <ele>131</ele>
        <time>2017-04-30T07:51:28Z</time>
      </trkpt>
      <trkpt lat="47.94669" lon="2.22151">
        <ele>131</ele>
        <time>2017-04-30T07:51:30Z</time>
      </trkpt>
      <trkpt lat="47.94669" lon="2.22151">
        <ele>131</ele>
        <time>2017-04-30T07:51:32Z</time>
      </trkpt>
      <trkpt lat="47.94693" lon="2.22184">
        <ele>135</ele>
        <time>2017-04-30T07:51:36Z</time>
      </trkpt>
      <trkpt lat="47.94698" lon="2.22196">
        <ele>135</ele>
        <time>2017-04-30T07:51:38Z</time>
      </trkpt>
      <trkpt lat="47.94709" lon="2.22219">
        <ele>134</ele>
        <time>2017-04-30T07:51:42Z</time>
      </trkpt>
      <trkpt lat="47.94712" lon="2.22232">
        <ele>133</ele>
        <time>2017-04-30T07:51:44Z</time>
      </trkpt>
      <trkpt lat="47.94717" lon="2.22245">
        <ele>131</ele>
        <time>2017-04-30T07:51:46Z</time>
      </trkpt>
      <trkpt lat="47.94721" lon="2.22258">
        <ele>129</ele>
        <time>2017-04-30T07:51:48Z</time>
      </trkpt>
      <trkpt lat="47.94726" lon="2.2227">
        <ele>129</ele>
        <time>2017-04-30T07:51:50Z</time>
      </trkpt>
      <trkpt lat="47.9473" lon="2.22284">
        <ele>127</ele>
        <time>2017-04-30T07:51:52Z</time>
      </trkpt>
      <trkpt lat="47.94734" lon="2.22297">
        <ele>126</ele>
        <time>2017-04-30T07:51:54Z</time>
      </trkpt>
      <trkpt lat="47.94739" lon="2.22309">
        <ele>125</ele>
        <time>2017-04-30T07:51:56Z</time>
      </trkpt>
      <trkpt lat="47.94744" lon="2.22322">
        <ele>124</ele>
        <time>2017-04-30T07:51:58Z</time>
      </trkpt>
      <trkpt lat="47.94749" lon="2.22335">
        <ele>124</ele>
        <time>2017-04-30T07:52:00Z</time>
      </trkpt>
      <trkpt lat="47.94749" lon="2.22335">
        <ele>124</ele>
        <time>2017-04-30T07:52:02Z</time>
      </trkpt>
      <trkpt lat="47.94749" lon="2.22335">
        <ele>124</ele>
        <time>2017-04-30T07:52:04Z</time>
      </trkpt>
      <trkpt lat="47.94749" lon="2.22335">
        <ele>124</ele>
        <time>2017-04-30T07:52:06Z</time>
      </trkpt>
      <trkpt lat="47.94749" lon="2.22335">
        <ele>124</ele>
        <time>2017-04-30T07:52:14Z</time>
      </trkpt>
      <trkpt lat="47.94749" lon="2.22335">
        <ele>124</ele>
        <time>2017-04-30T07:52:16Z</time>
      </trkpt>
      <trkpt lat="47.94749" lon="2.22335">
        <ele>124</ele>
        <time>2017-04-30T07:52:18Z</time>
      </trkpt>
      <trkpt lat="47.94749" lon="2.22335">
        <ele>124</ele>
        <time>2017-04-30T07:52:20Z</time>
      </trkpt>
      <trkpt lat="47.94749" lon="2.22335">
        <ele>124</ele>
        <time>2017-04-30T07:52:22Z</time>
      </trkpt>
      <trkpt lat="47.94806" lon="2.22482">
        <ele>118</ele>
        <time>2017-04-30T07:52:26Z</time>
      </trkpt>
      <trkpt lat="47.94815" lon="2.22505">
        <ele>117</ele>
        <time>2017-04-30T07:52:30Z</time>
      </trkpt>
      <trkpt lat="47.9482" lon="2.22517">
        <ele>117</ele>
        <time>2017-04-30T07:52:32Z</time>
      </trkpt>
      <trkpt lat="47.94824" lon="2.22528">
        <ele>117</ele>
        <time>2017-04-30T07:52:36Z</time>
      </trkpt>
      <trkpt lat="47.94829" lon="2.22539">
        <ele>117</ele>
        <time>2017-04-30T07:52:38Z</time>
      </trkpt>
      <trkpt lat="47.94829" lon="2.22539">
        <ele>117</ele>
        <time>2017-04-30T07:52:40Z</time>
      </trkpt>
      <trkpt lat="47.94829" lon="2.22539">
        <ele>117</ele>
        <time>2017-04-30T07:52:42Z</time>
      </trkpt>
      <trkpt lat="47.94829" lon="2.22539">
        <ele>117</ele>
        <time>2017-04-30T07:52:44Z</time>
      </trkpt>
      <trkpt lat="47.94829" lon="2.22539">
        <ele>117</ele>
        <time>2017-04-30T07:52:46Z</time>
      </trkpt>
      <trkpt lat="47.94846" lon="2.22583">
        <ele>117</ele>
        <time>2017-04-30T07:52:52Z</time>
      </trkpt>
      <trkpt lat="47.94856" lon="2.2261">
        <ele>117</ele>
        <time>2017-04-30T07:52:54Z</time>
      </trkpt>
      <trkpt lat="47.94864" lon="2.22629">
        <ele>117</ele>
        <time>2017-04-30T07:52:56Z</time>
      </trkpt>
      <trkpt lat="47.94864" lon="2.22629">
        <ele>117</ele>
        <time>2017-04-30T07:52:58Z</time>
      </trkpt>
      <trkpt lat="47.94864" lon="2.22629">
        <ele>117</ele>
        <time>2017-04-30T07:53:00Z</time>
      </trkpt>
      <trkpt lat="47.94864" lon="2.22629">
        <ele>117</ele>
        <time>2017-04-30T07:53:02Z</time>
      </trkpt>
      <trkpt lat="47.94864" lon="2.22629">
        <ele>117</ele>
        <time>2017-04-30T07:53:04Z</time>
      </trkpt>
      <trkpt lat="47.9488" lon="2.22663">
        <ele>118</ele>
        <time>2017-04-30T07:53:06Z</time>
      </trkpt>
      <trkpt lat="47.94891" lon="2.22686">
        <ele>118</ele>
        <time>2017-04-30T07:53:08Z</time>
      </trkpt>
      <trkpt lat="47.949" lon="2.22702">
        <ele>119</ele>
        <time>2017-04-30T07:53:10Z</time>
      </trkpt>
      <trkpt lat="47.94907" lon="2.22715">
        <ele>119</ele>
        <time>2017-04-30T07:53:12Z</time>
      </trkpt>
      <trkpt lat="47.94914" lon="2.22726">
        <ele>120</ele>
        <time>2017-04-30T07:53:14Z</time>
      </trkpt>
      <trkpt lat="47.94926" lon="2.22747">
        <ele>123</ele>
        <time>2017-04-30T07:53:16Z</time>
      </trkpt>
      <trkpt lat="47.94933" lon="2.22759">
        <ele>123</ele>
        <time>2017-04-30T07:53:18Z</time>
      </trkpt>
      <trkpt lat="47.94938" lon="2.2277">
        <ele>123</ele>
        <time>2017-04-30T07:53:20Z</time>
      </trkpt>
      <trkpt lat="47.94943" lon="2.22782">
        <ele>122</ele>
        <time>2017-04-30T07:53:22Z</time>
      </trkpt>
      <trkpt lat="47.94948" lon="2.22795">
        <ele>121</ele>
        <time>2017-04-30T07:53:24Z</time>
      </trkpt>
      <trkpt lat="47.94952" lon="2.22808">
        <ele>120</ele>
        <time>2017-04-30T07:53:26Z</time>
      </trkpt>
      <trkpt lat="47.94957" lon="2.22821">
        <ele>119</ele>
        <time>2017-04-30T07:53:28Z</time>
      </trkpt>
      <trkpt lat="47.94962" lon="2.22834">
        <ele>119</ele>
        <time>2017-04-30T07:53:30Z</time>
      </trkpt>
      <trkpt lat="47.94966" lon="2.22847">
        <ele>118</ele>
        <time>2017-04-30T07:53:32Z</time>
      </trkpt>
      <trkpt lat="47.94971" lon="2.22861">
        <ele>118</ele>
        <time>2017-04-30T07:53:34Z</time>
      </trkpt>
      <trkpt lat="47.94975" lon="2.22875">
        <ele>118</ele>
        <time>2017-04-30T07:53:36Z</time>
      </trkpt>
      <trkpt lat="47.9498" lon="2.22888">
        <ele>117</ele>
        <time>2017-04-30T07:53:38Z</time>
      </trkpt>
      <trkpt lat="47.94986" lon="2.22901">
        <ele>119</ele>
        <time>2017-04-30T07:53:40Z</time>
      </trkpt>
      <trkpt lat="47.94991" lon="2.22913">
        <ele>118</ele>
        <time>2017-04-30T07:53:42Z</time>
      </trkpt>
      <trkpt lat="47.94991" lon="2.22913">
        <ele>118</ele>
        <time>2017-04-30T07:53:44Z</time>
      </trkpt>
      <trkpt lat="47.94991" lon="2.22913">
        <ele>118</ele>
        <time>2017-04-30T07:53:46Z</time>
      </trkpt>
      <trkpt lat="47.94991" lon="2.22913">
        <ele>118</ele>
        <time>2017-04-30T07:53:48Z</time>
      </trkpt>
      <trkpt lat="47.95018" lon="2.22984">
        <ele>119</ele>
        <time>2017-04-30T07:53:54Z</time>
      </trkpt>
      <trkpt lat="47.95018" lon="2.22984">
        <ele>119</ele>
        <time>2017-04-30T07:53:56Z</time>
      </trkpt>
      <trkpt lat="47.95018" lon="2.22984">
        <ele>119</ele>
        <time>2017-04-30T07:53:58Z</time>
      </trkpt>
      <trkpt lat="47.95018" lon="2.22984">
        <ele>119</ele>
        <time>2017-04-30T07:54:00Z</time>
      </trkpt>
      <trkpt lat="47.95018" lon="2.22984">
        <ele>119</ele>
        <time>2017-04-30T07:54:02Z</time>
      </trkpt>
      <trkpt lat="47.95018" lon="2.22984">
        <ele>119</ele>
        <time>2017-04-30T07:54:04Z</time>
      </trkpt>
      <trkpt lat="47.95048" lon="2.23065">
        <ele>117</ele>
        <time>2017-04-30T07:54:08Z</time>
      </trkpt>
      <trkpt lat="47.95053" lon="2.23077">
        <ele>117</ele>
        <time>2017-04-30T07:54:10Z</time>
      </trkpt>
      <trkpt lat="47.95057" lon="2.2309">
        <ele>117</ele>
        <time>2017-04-30T07:54:12Z</time>
      </trkpt>
      <trkpt lat="47.95062" lon="2.23102">
        <ele>118</ele>
        <time>2017-04-30T07:54:14Z</time>
      </trkpt>
      <trkpt lat="47.95066" lon="2.23115">
        <ele>118</ele>
        <time>2017-04-30T07:54:16Z</time>
      </trkpt>
      <trkpt lat="47.95071" lon="2.23127">
        <ele>119</ele>
        <time>2017-04-30T07:54:18Z</time>
      </trkpt>
      <trkpt lat="47.95076" lon="2.2314">
        <ele>119</ele>
        <time>2017-04-30T07:54:20Z</time>
      </trkpt>
      <trkpt lat="47.95081" lon="2.23153">
        <ele>118</ele>
        <time>2017-04-30T07:54:22Z</time>
      </trkpt>
      <trkpt lat="47.95085" lon="2.23165">
        <ele>118</ele>
        <time>2017-04-30T07:54:24Z</time>
      </trkpt>
      <trkpt lat="47.95085" lon="2.23165">
        <ele>118</ele>
        <time>2017-04-30T07:54:26Z</time>
      </trkpt>
      <trkpt lat="47.95085" lon="2.23165">
        <ele>118</ele>
        <time>2017-04-30T07:54:28Z</time>
      </trkpt>
      <trkpt lat="47.95085" lon="2.23165">
        <ele>118</ele>
        <time>2017-04-30T07:54:30Z</time>
      </trkpt>
      <trkpt lat="47.95085" lon="2.23165">
        <ele>118</ele>
        <time>2017-04-30T07:54:32Z</time>
      </trkpt>
      <trkpt lat="47.95085" lon="2.23165">
        <ele>118</ele>
        <time>2017-04-30T07:54:34Z</time>
      </trkpt>
      <trkpt lat="47.95085" lon="2.23165">
        <ele>118</ele>
        <time>2017-04-30T07:54:36Z</time>
      </trkpt>
      <trkpt lat="47.95121" lon="2.23259">
        <ele>118</ele>
        <time>2017-04-30T07:54:40Z</time>
      </trkpt>
      <trkpt lat="47.95126" lon="2.23272">
        <ele>118</ele>
        <time>2017-04-30T07:54:42Z</time>
      </trkpt>
      <trkpt lat="47.95131" lon="2.23285">
        <ele>118</ele>
        <time>2017-04-30T07:54:44Z</time>
      </trkpt>
      <trkpt lat="47.95135" lon="2.23297">
        <ele>118</ele>
        <time>2017-04-30T07:54:46Z</time>
      </trkpt>
      <trkpt lat="47.95139" lon="2.2331">
        <ele>118</ele>
        <time>2017-04-30T07:54:48Z</time>
      </trkpt>
      <trkpt lat="47.95144" lon="2.23323">
        <ele>118</ele>
        <time>2017-04-30T07:54:50Z</time>
      </trkpt>
      <trkpt lat="47.95144" lon="2.23323">
        <ele>118</ele>
        <time>2017-04-30T07:54:52Z</time>
      </trkpt>
      <trkpt lat="47.95144" lon="2.23323">
        <ele>118</ele>
        <time>2017-04-30T07:54:54Z</time>
      </trkpt>
      <trkpt lat="47.95144" lon="2.23323">
        <ele>118</ele>
        <time>2017-04-30T07:54:56Z</time>
      </trkpt>
      <trkpt lat="47.95144" lon="2.23323">
        <ele>118</ele>
        <time>2017-04-30T07:54:58Z</time>
      </trkpt>
      <trkpt lat="47.95144" lon="2.23323">
        <ele>118</ele>
        <time>2017-04-30T07:55:00Z</time>
      </trkpt>
      <trkpt lat="47.95144" lon="2.23323">
        <ele>118</ele>
        <time>2017-04-30T07:55:02Z</time>
      </trkpt>
      <trkpt lat="47.95144" lon="2.23323">
        <ele>118</ele>
        <time>2017-04-30T07:55:04Z</time>
      </trkpt>
      <trkpt lat="47.95144" lon="2.23323">
        <ele>118</ele>
        <time>2017-04-30T07:55:12Z</time>
      </trkpt>
      <trkpt lat="47.95144" lon="2.23323">
        <ele>118</ele>
        <time>2017-04-30T07:55:14Z</time>
      </trkpt>
      <trkpt lat="47.95144" lon="2.23323">
        <ele>118</ele>
        <time>2017-04-30T07:55:16Z</time>
      </trkpt>
      <trkpt lat="47.95144" lon="2.23323">
        <ele>118</ele>
        <time>2017-04-30T07:55:18Z</time>
      </trkpt>
      <trkpt lat="47.95181" lon="2.23407">
        <ele>121</ele>
        <time>2017-04-30T07:55:24Z</time>
      </trkpt>
      <trkpt lat="47.95202" lon="2.23454">
        <ele>121</ele>
        <time>2017-04-30T07:55:26Z</time>
      </trkpt>
      <trkpt lat="47.95216" lon="2.23481">
        <ele>122</ele>
        <time>2017-04-30T07:55:28Z</time>
      </trkpt>
      <trkpt lat="47.95225" lon="2.235">
        <ele>123</ele>
        <time>2017-04-30T07:55:30Z</time>
      </trkpt>
      <trkpt lat="47.95232" lon="2.23513">
        <ele>122</ele>
        <time>2017-04-30T07:55:32Z</time>
      </trkpt>
      <trkpt lat="47.95246" lon="2.23535">
        <ele>122</ele>
        <time>2017-04-30T07:55:34Z</time>
      </trkpt>
      <trkpt lat="47.95257" lon="2.23554">
        <ele>123</ele>
        <time>2017-04-30T07:55:38Z</time>
      </trkpt>
      <trkpt lat="47.95269" lon="2.23571">
        <ele>124</ele>
        <time>2017-04-30T07:55:42Z</time>
      </trkpt>
      <trkpt lat="47.9528" lon="2.23589">
        <ele>124</ele>
        <time>2017-04-30T07:55:46Z</time>
      </trkpt>
      <trkpt lat="47.9528" lon="2.23589">
        <ele>124</ele>
        <time>2017-04-30T07:55:48Z</time>
      </trkpt>
      <trkpt lat="47.9528" lon="2.23589">
        <ele>124</ele>
        <time>2017-04-30T07:55:50Z</time>
      </trkpt>
      <trkpt lat="47.9528" lon="2.23589">
        <ele>124</ele>
        <time>2017-04-30T07:55:52Z</time>
      </trkpt>
      <trkpt lat="47.9528" lon="2.23589">
        <ele>124</ele>
        <time>2017-04-30T07:55:54Z</time>
      </trkpt>
      <trkpt lat="47.9528" lon="2.23589">
        <ele>124</ele>
        <time>2017-04-30T07:55:56Z</time>
      </trkpt>
      <trkpt lat="47.95318" lon="2.23651">
        <ele>125</ele>
        <time>2017-04-30T07:56:00Z</time>
      </trkpt>
      <trkpt lat="47.95324" lon="2.23661">
        <ele>124</ele>
        <time>2017-04-30T07:56:02Z</time>
      </trkpt>
      <trkpt lat="47.95331" lon="2.23671">
        <ele>124</ele>
        <time>2017-04-30T07:56:04Z</time>
      </trkpt>
      <trkpt lat="47.95337" lon="2.23681">
        <ele>125</ele>
        <time>2017-04-30T07:56:06Z</time>
      </trkpt>
      <trkpt lat="47.95343" lon="2.23692">
        <ele>124</ele>
        <time>2017-04-30T07:56:08Z</time>
      </trkpt>
      <trkpt lat="47.9535" lon="2.23702">
        <ele>124</ele>
        <time>2017-04-30T07:56:10Z</time>
      </trkpt>
      <trkpt lat="47.95356" lon="2.23713">
        <ele>124</ele>
        <time>2017-04-30T07:56:12Z</time>
      </trkpt>
      <trkpt lat="47.95362" lon="2.23724">
        <ele>125</ele>
        <time>2017-04-30T07:56:14Z</time>
      </trkpt>
      <trkpt lat="47.95362" lon="2.23724">
        <ele>125</ele>
        <time>2017-04-30T07:56:16Z</time>
      </trkpt>
      <trkpt lat="47.95362" lon="2.23724">
        <ele>125</ele>
        <time>2017-04-30T07:56:18Z</time>
      </trkpt>
      <trkpt lat="47.95362" lon="2.23724">
        <ele>125</ele>
        <time>2017-04-30T07:56:20Z</time>
      </trkpt>
      <trkpt lat="47.95362" lon="2.23724">
        <ele>125</ele>
        <time>2017-04-30T07:56:22Z</time>
      </trkpt>
      <trkpt lat="47.95362" lon="2.23724">
        <ele>125</ele>
        <time>2017-04-30T07:56:24Z</time>
      </trkpt>
      <trkpt lat="47.95362" lon="2.23724">
        <ele>125</ele>
        <time>2017-04-30T07:56:32Z</time>
      </trkpt>
      <trkpt lat="47.95362" lon="2.23724">
        <ele>125</ele>
        <time>2017-04-30T07:56:34Z</time>
      </trkpt>
      <trkpt lat="47.95362" lon="2.23724">
        <ele>125</ele>
        <time>2017-04-30T07:56:36Z</time>
      </trkpt>
      <trkpt lat="47.95362" lon="2.23724">
        <ele>125</ele>
        <time>2017-04-30T07:56:38Z</time>
      </trkpt>
      <trkpt lat="47.95362" lon="2.23724">
        <ele>125</ele>
        <time>2017-04-30T07:56:40Z</time>
      </trkpt>
      <trkpt lat="47.95362" lon="2.23724">
        <ele>125</ele>
        <time>2017-04-30T07:56:42Z</time>
      </trkpt>
      <trkpt lat="47.95362" lon="2.23724">
        <ele>125</ele>
        <time>2017-04-30T07:56:44Z</time>
      </trkpt>
      <trkpt lat="47.95362" lon="2.23724">
        <ele>125</ele>
        <time>2017-04-30T07:56:46Z</time>
      </trkpt>
      <trkpt lat="47.95362" lon="2.23724">
        <ele>125</ele>
        <time>2017-04-30T07:56:50Z</time>
      </trkpt>
      <trkpt lat="47.95362" lon="2.23724">
        <ele>125</ele>
        <time>2017-04-30T07:56:52Z</time>
      </trkpt>
      <trkpt lat="47.95362" lon="2.23724">
        <ele>125</ele>
        <time>2017-04-30T07:56:54Z</time>
      </trkpt>
      <trkpt lat="47.95362" lon="2.23724">
        <ele>125</ele>
        <time>2017-04-30T07:56:56Z</time>
      </trkpt>
      <trkpt lat="47.95362" lon="2.23724">
        <ele>125</ele>
        <time>2017-04-30T07:56:58Z</time>
      </trkpt>
      <trkpt lat="47.95362" lon="2.23724">
        <ele>125</ele>
        <time>2017-04-30T07:57:00Z</time>
      </trkpt>
      <trkpt lat="47.95362" lon="2.23724">
        <ele>125</ele>
        <time>2017-04-30T07:57:02Z</time>
      </trkpt>
      <trkpt lat="47.95411" lon="2.23849">
        <ele>130</ele>
        <time>2017-04-30T07:57:04Z</time>
      </trkpt>
      <trkpt lat="47.95437" lon="2.23917">
        <ele>130</ele>
        <time>2017-04-30T07:57:06Z</time>
      </trkpt>
      <trkpt lat="47.95451" lon="2.23956">
        <ele>129</ele>
        <time>2017-04-30T07:57:08Z</time>
      </trkpt>
      <trkpt lat="47.95459" lon="2.23982">
        <ele>129</ele>
        <time>2017-04-30T07:57:10Z</time>
      </trkpt>
      <trkpt lat="47.95465" lon="2.24002">
        <ele>129</ele>
        <time>2017-04-30T07:57:12Z</time>
      </trkpt>
      <trkpt lat="47.95473" lon="2.24034">
        <ele>129</ele>
        <time>2017-04-30T07:57:14Z</time>
      </trkpt>
      <trkpt lat="47.95478" lon="2.2406">
        <ele>128</ele>
        <time>2017-04-30T07:57:18Z</time>
      </trkpt>
      <trkpt lat="47.95478" lon="2.2406">
        <ele>128</ele>
        <time>2017-04-30T07:57:20Z</time>
      </trkpt>
      <trkpt lat="47.95483" lon="2.24085">
        <ele>128</ele>
        <time>2017-04-30T07:57:22Z</time>
      </trkpt>
      <trkpt lat="47.95483" lon="2.24085">
        <ele>128</ele>
        <time>2017-04-30T07:57:24Z</time>
      </trkpt>
      <trkpt lat="47.95483" lon="2.24085">
        <ele>128</ele>
        <time>2017-04-30T07:57:26Z</time>
      </trkpt>
      <trkpt lat="47.95495" lon="2.24136">
        <ele>128</ele>
        <time>2017-04-30T07:57:30Z</time>
      </trkpt>
      <trkpt lat="47.95498" lon="2.2415">
        <ele>128</ele>
        <time>2017-04-30T07:57:32Z</time>
      </trkpt>
      <trkpt lat="47.955" lon="2.24163">
        <ele>127</ele>
        <time>2017-04-30T07:57:34Z</time>
      </trkpt>
      <trkpt lat="47.95502" lon="2.24176">
        <ele>126</ele>
        <time>2017-04-30T07:57:36Z</time>
      </trkpt>
      <trkpt lat="47.95505" lon="2.24189">
        <ele>126</ele>
        <time>2017-04-30T07:57:38Z</time>
      </trkpt>
      <trkpt lat="47.95507" lon="2.24203">
        <ele>124</ele>
        <time>2017-04-30T07:57:40Z</time>
      </trkpt>
      <trkpt lat="47.95508" lon="2.24217">
        <ele>123</ele>
        <time>2017-04-30T07:57:42Z</time>
      </trkpt>
      <trkpt lat="47.95508" lon="2.24217">
        <ele>123</ele>
        <time>2017-04-30T07:57:44Z</time>
      </trkpt>
      <trkpt lat="47.95508" lon="2.24217">
        <ele>123</ele>
        <time>2017-04-30T07:57:46Z</time>
      </trkpt>
      <trkpt lat="47.95508" lon="2.24217">
        <ele>123</ele>
        <time>2017-04-30T07:57:50Z</time>
      </trkpt>
      <trkpt lat="47.95508" lon="2.24217">
        <ele>123</ele>
        <time>2017-04-30T07:57:52Z</time>
      </trkpt>
      <trkpt lat="47.95508" lon="2.24217">
        <ele>123</ele>
        <time>2017-04-30T07:57:54Z</time>
      </trkpt>
      <trkpt lat="47.95508" lon="2.24217">
        <ele>123</ele>
        <time>2017-04-30T07:57:56Z</time>
      </trkpt>
      <trkpt lat="47.95508" lon="2.24217">
        <ele>123</ele>
        <time>2017-04-30T07:57:58Z</time>
      </trkpt>
      <trkpt lat="47.95508" lon="2.24217">
        <ele>123</ele>
        <time>2017-04-30T07:58:00Z</time>
      </trkpt>
      <trkpt lat="47.95508" lon="2.24217">
        <ele>123</ele>
        <time>2017-04-30T07:58:02Z</time>
      </trkpt>
      <trkpt lat="47.95538" lon="2.24357">
        <ele>119</ele>
        <time>2017-04-30T07:58:06Z</time>
      </trkpt>
      <trkpt lat="47.95545" lon="2.24378">
        <ele>120</ele>
        <time>2017-04-30T07:58:10Z</time>
      </trkpt>
      <trkpt lat="47.95549" lon="2.24392">
        <ele>121</ele>
        <time>2017-04-30T07:58:12Z</time>
      </trkpt>
      <trkpt lat="47.95554" lon="2.24405">
        <ele>122</ele>
        <time>2017-04-30T07:58:14Z</time>
      </trkpt>
      <trkpt lat="47.95558" lon="2.24418">
        <ele>123</ele>
        <time>2017-04-30T07:58:16Z</time>
      </trkpt>
      <trkpt lat="47.95562" lon="2.24433">
        <ele>124</ele>
        <time>2017-04-30T07:58:18Z</time>
      </trkpt>
      <trkpt lat="47.95566" lon="2.24446">
        <ele>125</ele>
        <time>2017-04-30T07:58:20Z</time>
      </trkpt>
      <trkpt lat="47.9557" lon="2.24461">
        <ele>125</ele>
        <time>2017-04-30T07:58:22Z</time>
      </trkpt>
      <trkpt lat="47.95574" lon="2.24476">
        <ele>124</ele>
        <time>2017-04-30T07:58:24Z</time>
      </trkpt>
      <trkpt lat="47.95578" lon="2.24489">
        <ele>124</ele>
        <time>2017-04-30T07:58:26Z</time>
      </trkpt>
      <trkpt lat="47.95578" lon="2.24489">
        <ele>124</ele>
        <time>2017-04-30T07:58:28Z</time>
      </trkpt>
      <trkpt lat="47.95578" lon="2.24489">
        <ele>124</ele>
        <time>2017-04-30T07:58:30Z</time>
      </trkpt>
      <trkpt lat="47.95578" lon="2.24489">
        <ele>124</ele>
        <time>2017-04-30T07:58:32Z</time>
      </trkpt>
      <trkpt lat="47.95578" lon="2.24489">
        <ele>124</ele>
        <time>2017-04-30T07:58:34Z</time>
      </trkpt>
      <trkpt lat="47.95578" lon="2.24489">
        <ele>124</ele>
        <time>2017-04-30T07:58:36Z</time>
      </trkpt>
      <trkpt lat="47.95578" lon="2.24489">
        <ele>124</ele>
        <time>2017-04-30T07:58:38Z</time>
      </trkpt>
      <trkpt lat="47.95578" lon="2.24489">
        <ele>124</ele>
        <time>2017-04-30T07:58:40Z</time>
      </trkpt>
      <trkpt lat="47.95578" lon="2.24489">
        <ele>124</ele>
        <time>2017-04-30T07:58:42Z</time>
      </trkpt>
      <trkpt lat="47.95578" lon="2.24489">
        <ele>124</ele>
        <time>2017-04-30T07:58:44Z</time>
      </trkpt>
      <trkpt lat="47.95578" lon="2.24489">
        <ele>124</ele>
        <time>2017-04-30T07:58:46Z</time>
      </trkpt>
      <trkpt lat="47.95578" lon="2.24489">
        <ele>124</ele>
        <time>2017-04-30T07:58:48Z</time>
      </trkpt>
      <trkpt lat="47.95578" lon="2.24489">
        <ele>124</ele>
        <time>2017-04-30T07:58:50Z</time>
      </trkpt>
      <trkpt lat="47.95604" lon="2.24578">
        <ele>127</ele>
        <time>2017-04-30T07:58:54Z</time>
      </trkpt>
      <trkpt lat="47.95619" lon="2.24629">
        <ele>127</ele>
        <time>2017-04-30T07:58:56Z</time>
      </trkpt>
      <trkpt lat="47.95629" lon="2.24661">
        <ele>127</ele>
        <time>2017-04-30T07:58:58Z</time>
      </trkpt>
      <trkpt lat="47.95635" lon="2.24683">
        <ele>129</ele>
        <time>2017-04-30T07:59:00Z</time>
      </trkpt>
      <trkpt lat="47.95641" lon="2.24701">
        <ele>129</ele>
        <time>2017-04-30T07:59:02Z</time>
      </trkpt>
      <trkpt lat="47.9565" lon="2.24731">
        <ele>129</ele>
        <time>2017-04-30T07:59:04Z</time>
      </trkpt>
      <trkpt lat="47.9565" lon="2.24731">
        <ele>129</ele>
        <time>2017-04-30T07:59:06Z</time>
      </trkpt>
      <trkpt lat="47.9565" lon="2.24731">
        <ele>129</ele>
        <time>2017-04-30T07:59:08Z</time>
      </trkpt>
      <trkpt lat="47.9565" lon="2.24731">
        <ele>129</ele>
        <time>2017-04-30T07:59:10Z</time>
      </trkpt>
      <trkpt lat="47.9565" lon="2.24731">
        <ele>129</ele>
        <time>2017-04-30T07:59:13Z</time>
      </trkpt>
      <trkpt lat="47.9565" lon="2.24731">
        <ele>129</ele>
        <time>2017-04-30T07:59:15Z</time>
      </trkpt>
      <trkpt lat="47.9565" lon="2.24731">
        <ele>129</ele>
        <time>2017-04-30T07:59:17Z</time>
      </trkpt>
      <trkpt lat="47.9565" lon="2.24731">
        <ele>129</ele>
        <time>2017-04-30T07:59:23Z</time>
      </trkpt>
      <trkpt lat="47.9565" lon="2.24731">
        <ele>129</ele>
        <time>2017-04-30T07:59:25Z</time>
      </trkpt>
      <trkpt lat="47.95713" lon="2.24857">
        <ele>129</ele>
        <time>2017-04-30T07:59:29Z</time>
      </trkpt>
      <trkpt lat="47.95719" lon="2.24868">
        <ele>129</ele>
        <time>2017-04-30T07:59:31Z</time>
      </trkpt>
      <trkpt lat="47.95731" lon="2.24887">
        <ele>129</ele>
        <time>2017-04-30T07:59:35Z</time>
      </trkpt>
      <trkpt lat="47.95731" lon="2.24887">
        <ele>129</ele>
        <time>2017-04-30T07:59:37Z</time>
      </trkpt>
      <trkpt lat="47.95742" lon="2.24908">
        <ele>130</ele>
        <time>2017-04-30T07:59:39Z</time>
      </trkpt>
      <trkpt lat="47.95752" lon="2.24929">
        <ele>130</ele>
        <time>2017-04-30T07:59:43Z</time>
      </trkpt>
      <trkpt lat="47.95758" lon="2.2494">
        <ele>131</ele>
        <time>2017-04-30T07:59:45Z</time>
      </trkpt>
      <trkpt lat="47.9577" lon="2.2496">
        <ele>132</ele>
        <time>2017-04-30T07:59:49Z</time>
      </trkpt>
      <trkpt lat="47.9577" lon="2.2496">
        <ele>132</ele>
        <time>2017-04-30T07:59:51Z</time>
      </trkpt>
      <trkpt lat="47.9577" lon="2.2496">
        <ele>132</ele>
        <time>2017-04-30T07:59:53Z</time>
      </trkpt>
      <trkpt lat="47.9577" lon="2.2496">
        <ele>132</ele>
        <time>2017-04-30T07:59:55Z</time>
      </trkpt>
      <trkpt lat="47.9577" lon="2.2496">
        <ele>132</ele>
        <time>2017-04-30T07:59:57Z</time>
      </trkpt>
      <trkpt lat="47.95804" lon="2.2502">
        <ele>133</ele>
        <time>2017-04-30T08:00:01Z</time>
      </trkpt>
      <trkpt lat="47.95804" lon="2.2502">
        <ele>133</ele>
        <time>2017-04-30T08:00:05Z</time>
      </trkpt>
      <trkpt lat="47.95804" lon="2.2502">
        <ele>133</ele>
        <time>2017-04-30T08:00:07Z</time>
      </trkpt>
      <trkpt lat="47.95804" lon="2.2502">
        <ele>133</ele>
        <time>2017-04-30T08:00:09Z</time>
      </trkpt>
      <trkpt lat="47.95837" lon="2.25082">
        <ele>131</ele>
        <time>2017-04-30T08:00:13Z</time>
      </trkpt>
      <trkpt lat="47.95842" lon="2.25095">
        <ele>130</ele>
        <time>2017-04-30T08:00:15Z</time>
      </trkpt>
      <trkpt lat="47.95847" lon="2.25107">
        <ele>129</ele>
        <time>2017-04-30T08:00:17Z</time>
      </trkpt>
      <trkpt lat="47.95852" lon="2.25121">
        <ele>129</ele>
        <time>2017-04-30T08:00:19Z</time>
      </trkpt>
      <trkpt lat="47.95856" lon="2.25135">
        <ele>128</ele>
        <time>2017-04-30T08:00:21Z</time>
      </trkpt>
      <trkpt lat="47.95861" lon="2.25148">
        <ele>128</ele>
        <time>2017-04-30T08:00:23Z</time>
      </trkpt>
      <trkpt lat="47.95865" lon="2.25162">
        <ele>127</ele>
        <time>2017-04-30T08:00:25Z</time>
      </trkpt>
      <trkpt lat="47.95869" lon="2.25174">
        <ele>126</ele>
        <time>2017-04-30T08:00:27Z</time>
      </trkpt>
      <trkpt lat="47.95874" lon="2.25187">
        <ele>125</ele>
        <time>2017-04-30T08:00:29Z</time>
      </trkpt>
      <trkpt lat="47.95874" lon="2.25187">
        <ele>125</ele>
        <time>2017-04-30T08:00:31Z</time>
      </trkpt>
      <trkpt lat="47.95874" lon="2.25187">
        <ele>125</ele>
        <time>2017-04-30T08:00:33Z</time>
      </trkpt>
      <trkpt lat="47.95874" lon="2.25187">
        <ele>125</ele>
        <time>2017-04-30T08:00:35Z</time>
      </trkpt>
      <trkpt lat="47.95874" lon="2.25187">
        <ele>125</ele>
        <time>2017-04-30T08:00:37Z</time>
      </trkpt>
      <trkpt lat="47.95874" lon="2.25187">
        <ele>125</ele>
        <time>2017-04-30T08:00:39Z</time>
      </trkpt>
      <trkpt lat="47.9589" lon="2.25229">
        <ele>125</ele>
        <time>2017-04-30T08:00:43Z</time>
      </trkpt>
      <trkpt lat="47.95901" lon="2.25256">
        <ele>125</ele>
        <time>2017-04-30T08:00:45Z</time>
      </trkpt>
      <trkpt lat="47.95908" lon="2.25276">
        <ele>125</ele>
        <time>2017-04-30T08:00:47Z</time>
      </trkpt>
      <trkpt lat="47.95914" lon="2.25292">
        <ele>125</ele>
        <time>2017-04-30T08:00:49Z</time>
      </trkpt>
      <trkpt lat="47.9592" lon="2.25306">
        <ele>125</ele>
        <time>2017-04-30T08:00:51Z</time>
      </trkpt>
      <trkpt lat="47.9593" lon="2.25332">
        <ele>125</ele>
        <time>2017-04-30T08:00:53Z</time>
      </trkpt>
      <trkpt lat="47.95935" lon="2.25345">
        <ele>125</ele>
        <time>2017-04-30T08:00:55Z</time>
      </trkpt>
      <trkpt lat="47.95935" lon="2.25345">
        <ele>125</ele>
        <time>2017-04-30T08:00:57Z</time>
      </trkpt>
      <trkpt lat="47.95935" lon="2.25345">
        <ele>125</ele>
        <time>2017-04-30T08:00:59Z</time>
      </trkpt>
      <trkpt lat="47.95953" lon="2.25395">
        <ele>124</ele>
        <time>2017-04-30T08:01:03Z</time>
      </trkpt>
      <trkpt lat="47.95958" lon="2.25407">
        <ele>126</ele>
        <time>2017-04-30T08:01:05Z</time>
      </trkpt>
      <trkpt lat="47.95963" lon="2.2542">
        <ele>125</ele>
        <time>2017-04-30T08:01:07Z</time>
      </trkpt>
      <trkpt lat="47.95967" lon="2.25433">
        <ele>125</ele>
        <time>2017-04-30T08:01:09Z</time>
      </trkpt>
      <trkpt lat="47.95972" lon="2.25445">
        <ele>126</ele>
        <time>2017-04-30T08:01:11Z</time>
      </trkpt>
      <trkpt lat="47.95972" lon="2.25445">
        <ele>126</ele>
        <time>2017-04-30T08:01:13Z</time>
      </trkpt>
      <trkpt lat="47.95972" lon="2.25445">
        <ele>126</ele>
        <time>2017-04-30T08:01:15Z</time>
      </trkpt>
      <trkpt lat="47.95972" lon="2.25445">
        <ele>126</ele>
        <time>2017-04-30T08:01:17Z</time>
      </trkpt>
      <trkpt lat="47.95972" lon="2.25445">
        <ele>126</ele>
        <time>2017-04-30T08:01:19Z</time>
      </trkpt>
      <trkpt lat="47.95972" lon="2.25445">
        <ele>126</ele>
        <time>2017-04-30T08:01:21Z</time>
      </trkpt>
      <trkpt lat="47.95972" lon="2.25445">
        <ele>126</ele>
        <time>2017-04-30T08:01:23Z</time>
      </trkpt>
      <trkpt lat="47.95972" lon="2.25445">
        <ele>126</ele>
        <time>2017-04-30T08:01:25Z</time>
      </trkpt>
      <trkpt lat="47.95972" lon="2.25445">
        <ele>126</ele>
        <time>2017-04-30T08:01:27Z</time>
      </trkpt>
      <trkpt lat="47.95972" lon="2.25445">
        <ele>126</ele>
        <time>2017-04-30T08:01:29Z</time>
      </trkpt>
      <trkpt lat="47.95972" lon="2.25445">
        <ele>126</ele>
        <time>2017-04-30T08:01:31Z</time>
      </trkpt>
      <trkpt lat="47.95972" lon="2.25445">
        <ele>126</ele>
        <time>2017-04-30T08:01:33Z</time>
      </trkpt>
      <trkpt lat="47.95972" lon="2.25445">
        <ele>126</ele>
        <time>2017-04-30T08:01:35Z</time>
      </trkpt>
      <trkpt lat="47.95972" lon="2.25445">
        <ele>126</ele>
        <time>2017-04-30T08:01:37Z</time>
      </trkpt>
      <trkpt lat="47.96048" lon="2.25589">
        <ele>132</ele>
        <time>2017-04-30T08:01:41Z</time>
      </trkpt>
      <trkpt lat="47.96061" lon="2.25604">
        <ele>130</ele>
        <time>2017-04-30T08:01:45Z</time>
      </trkpt>
      <trkpt lat="47.96074" lon="2.25619">
        <ele>130</ele>
        <time>2017-04-30T08:01:49Z</time>
      </trkpt>
      <trkpt lat="47.96074" lon="2.25619">
        <ele>130</ele>
        <time>2017-04-30T08:01:51Z</time>
      </trkpt>
      <trkpt lat="47.96074" lon="2.25619">
        <ele>130</ele>
        <time>2017-04-30T08:01:53Z</time>
      </trkpt>
      <trkpt lat="47.96074" lon="2.25619">
        <ele>130</ele>
        <time>2017-04-30T08:01:55Z</time>
      </trkpt>
      <trkpt lat="47.96105" lon="2.25655">
        <ele>131</ele>
        <time>2017-04-30T08:01:59Z</time>
      </trkpt>
      <trkpt lat="47.96118" lon="2.25671">
        <ele>133</ele>
        <time>2017-04-30T08:02:03Z</time>
      </trkpt>
      <trkpt lat="47.96131" lon="2.25688">
        <ele>133</ele>
        <time>2017-04-30T08:02:07Z</time>
      </trkpt>
      <trkpt lat="47.96131" lon="2.25688">
        <ele>133</ele>
        <time>2017-04-30T08:02:09Z</time>
      </trkpt>
      <trkpt lat="47.96144" lon="2.25705">
        <ele>134</ele>
        <time>2017-04-30T08:02:11Z</time>
      </trkpt>
      <trkpt lat="47.96151" lon="2.25714">
        <ele>133</ele>
        <time>2017-04-30T08:02:13Z</time>
      </trkpt>
      <trkpt lat="47.96159" lon="2.25723">
        <ele>133</ele>
        <time>2017-04-30T08:02:15Z</time>
      </trkpt>
      <trkpt lat="47.96167" lon="2.25732">
        <ele>133</ele>
        <time>2017-04-30T08:02:17Z</time>
      </trkpt>
      <trkpt lat="47.96175" lon="2.25741">
        <ele>133</ele>
        <time>2017-04-30T08:02:19Z</time>
      </trkpt>
      <trkpt lat="47.96183" lon="2.2575">
        <ele>134</ele>
        <time>2017-04-30T08:02:21Z</time>
      </trkpt>
      <trkpt lat="47.96191" lon="2.2576">
        <ele>134</ele>
        <time>2017-04-30T08:02:23Z</time>
      </trkpt>
      <trkpt lat="47.96201" lon="2.2577">
        <ele>134</ele>
        <time>2017-04-30T08:02:25Z</time>
      </trkpt>
      <trkpt lat="47.96206" lon="2.25781">
        <ele>135</ele>
        <time>2017-04-30T08:02:27Z</time>
      </trkpt>
      <trkpt lat="47.96206" lon="2.25781">
        <ele>135</ele>
        <time>2017-04-30T08:02:29Z</time>
      </trkpt>
      <trkpt lat="47.96234" lon="2.25811">
        <ele>135</ele>
        <time>2017-04-30T08:02:33Z</time>
      </trkpt>
      <trkpt lat="47.96243" lon="2.25821">
        <ele>136</ele>
        <time>2017-04-30T08:02:35Z</time>
      </trkpt>
      <trkpt lat="47.96251" lon="2.25832">
        <ele>137</ele>
        <time>2017-04-30T08:02:37Z</time>
      </trkpt>
      <trkpt lat="47.96259" lon="2.25842">
        <ele>137</ele>
        <time>2017-04-30T08:02:39Z</time>
      </trkpt>
      <trkpt lat="47.96267" lon="2.25852">
        <ele>138</ele>
        <time>2017-04-30T08:02:41Z</time>
      </trkpt>
      <trkpt lat="47.96267" lon="2.25852">
        <ele>138</ele>
        <time>2017-04-30T08:02:43Z</time>
      </trkpt>
      <trkpt lat="47.96267" lon="2.25852">
        <ele>138</ele>
        <time>2017-04-30T08:02:45Z</time>
      </trkpt>
      <trkpt lat="47.96267" lon="2.25852">
        <ele>138</ele>
        <time>2017-04-30T08:02:47Z</time>
      </trkpt>
      <trkpt lat="47.96267" lon="2.25852">
        <ele>138</ele>
        <time>2017-04-30T08:02:49Z</time>
      </trkpt>
      <trkpt lat="47.96267" lon="2.25852">
        <ele>138</ele>
        <time>2017-04-30T08:02:51Z</time>
      </trkpt>
      <trkpt lat="47.96297" lon="2.25885">
        <ele>143</ele>
        <time>2017-04-30T08:02:57Z</time>
      </trkpt>
      <trkpt lat="47.96297" lon="2.25885">
        <ele>143</ele>
        <time>2017-04-30T08:02:59Z</time>
      </trkpt>
      <trkpt lat="47.96297" lon="2.25885">
        <ele>143</ele>
        <time>2017-04-30T08:03:01Z</time>
      </trkpt>
      <trkpt lat="47.96325" lon="2.25918">
        <ele>145</ele>
        <time>2017-04-30T08:03:05Z</time>
      </trkpt>
      <trkpt lat="47.96342" lon="2.25939">
        <ele>146</ele>
        <time>2017-04-30T08:03:07Z</time>
      </trkpt>
      <trkpt lat="47.96355" lon="2.25953">
        <ele>146</ele>
        <time>2017-04-30T08:03:09Z</time>
      </trkpt>
      <trkpt lat="47.96366" lon="2.25964">
        <ele>146</ele>
        <time>2017-04-30T08:03:11Z</time>
      </trkpt>
      <trkpt lat="47.96366" lon="2.25964">
        <ele>146</ele>
        <time>2017-04-30T08:03:13Z</time>
      </trkpt>
      <trkpt lat="47.96366" lon="2.25964">
        <ele>146</ele>
        <time>2017-04-30T08:03:15Z</time>
      </trkpt>
      <trkpt lat="47.96366" lon="2.25964">
        <ele>146</ele>
        <time>2017-04-30T08:03:17Z</time>
      </trkpt>
      <trkpt lat="47.96366" lon="2.25964">
        <ele>146</ele>
        <time>2017-04-30T08:03:19Z</time>
      </trkpt>
      <trkpt lat="47.96366" lon="2.25964">
        <ele>146</ele>
        <time>2017-04-30T08:03:21Z</time>
      </trkpt>
      <trkpt lat="47.96366" lon="2.25964">
        <ele>146</ele>
        <time>2017-04-30T08:03:23Z</time>
      </trkpt>
      <trkpt lat="47.96366" lon="2.25964">
        <ele>146</ele>
        <time>2017-04-30T08:03:25Z</time>
      </trkpt>
      <trkpt lat="47.96366" lon="2.25964">
        <ele>146</ele>
        <time>2017-04-30T08:03:27Z</time>
      </trkpt>
      <trkpt lat="47.96366" lon="2.25964">
        <ele>146</ele>
        <time>2017-04-30T08:03:29Z</time>
      </trkpt>
      <trkpt lat="47.96409" lon="2.26008">
        <ele>145</ele>
        <time>2017-04-30T08:03:35Z</time>
      </trkpt>
      <trkpt lat="47.96434" lon="2.26033">
        <ele>145</ele>
        <time>2017-04-30T08:03:37Z</time>
      </trkpt>
      <trkpt lat="47.96449" lon="2.26049">
        <ele>146</ele>
        <time>2017-04-30T08:03:39Z</time>
      </trkpt>
      <trkpt lat="47.9646" lon="2.2606">
        <ele>146</ele>
        <time>2017-04-30T08:03:41Z</time>
      </trkpt>
      <trkpt lat="47.96469" lon="2.26069">
        <ele>146</ele>
        <time>2017-04-30T08:03:43Z</time>
      </trkpt>
      <trkpt lat="47.96485" lon="2.26085">
        <ele>146</ele>
        <time>2017-04-30T08:03:45Z</time>
      </trkpt>
      <trkpt lat="47.96499" lon="2.26099">
        <ele>146</ele>
        <time>2017-04-30T08:03:49Z</time>
      </trkpt>
      <trkpt lat="47.96515" lon="2.26108">
        <ele>146</ele>
        <time>2017-04-30T08:03:53Z</time>
      </trkpt>
      <trkpt lat="47.96532" lon="2.26115">
        <ele>148</ele>
        <time>2017-04-30T08:03:57Z</time>
      </trkpt>
      <trkpt lat="47.96532" lon="2.26115">
        <ele>148</ele>
        <time>2017-04-30T08:03:59Z</time>
      </trkpt>
      <trkpt lat="47.96532" lon="2.26115">
        <ele>148</ele>
        <time>2017-04-30T08:04:01Z</time>
      </trkpt>
      <trkpt lat="47.96532" lon="2.26115">
        <ele>148</ele>
        <time>2017-04-30T08:04:03Z</time>
      </trkpt>
      <trkpt lat="47.96532" lon="2.26115">
        <ele>148</ele>
        <time>2017-04-30T08:04:05Z</time>
      </trkpt>
      <trkpt lat="47.96532" lon="2.26115">
        <ele>148</ele>
        <time>2017-04-30T08:04:07Z</time>
      </trkpt>
      <trkpt lat="47.96532" lon="2.26115">
        <ele>148</ele>
        <time>2017-04-30T08:04:09Z</time>
      </trkpt>
      <trkpt lat="47.96532" lon="2.26115">
        <ele>148</ele>
        <time>2017-04-30T08:04:11Z</time>
      </trkpt>
      <trkpt lat="47.96532" lon="2.26115">
        <ele>148</ele>
        <time>2017-04-30T08:04:17Z</time>
      </trkpt>
      <trkpt lat="47.96532" lon="2.26115">
        <ele>148</ele>
        <time>2017-04-30T08:04:19Z</time>
      </trkpt>
      <trkpt lat="47.96612" lon="2.26177">
        <ele>158</ele>
        <time>2017-04-30T08:04:23Z</time>
      </trkpt>
      <trkpt lat="47.96621" lon="2.26198">
        <ele>159</ele>
        <time>2017-04-30T08:04:27Z</time>
      </trkpt>
      <trkpt lat="47.96629" lon="2.26219">
        <ele>160</ele>
        <time>2017-04-30T08:04:31Z</time>
      </trkpt>
      <trkpt lat="47.96629" lon="2.26219">
        <ele>160</ele>
        <time>2017-04-30T08:04:33Z</time>
      </trkpt>
      <trkpt lat="47.96638" lon="2.2624">
        <ele>161</ele>
        <time>2017-04-30T08:04:35Z</time>
      </trkpt>
      <trkpt lat="47.96638" lon="2.2624">
        <ele>161</ele>
        <time>2017-04-30T08:04:37Z</time>
      </trkpt>
      <trkpt lat="47.96638" lon="2.2624">
        <ele>161</ele>
        <time>2017-04-30T08:04:39Z</time>
      </trkpt>
      <trkpt lat="47.96638" lon="2.2624">
        <ele>161</ele>
        <time>2017-04-30T08:04:41Z</time>
      </trkpt>
      <trkpt lat="47.96659" lon="2.26294">
        <ele>161</ele>
        <time>2017-04-30T08:04:45Z</time>
      </trkpt>
      <trkpt lat="47.96663" lon="2.26306">
        <ele>161</ele>
        <time>2017-04-30T08:04:47Z</time>
      </trkpt>
      <trkpt lat="47.96672" lon="2.2633">
        <ele>160</ele>
        <time>2017-04-30T08:04:51Z</time>
      </trkpt>
      <trkpt lat="47.96672" lon="2.2633">
        <ele>160</ele>
        <time>2017-04-30T08:04:53Z</time>
      </trkpt>
      <trkpt lat="47.96672" lon="2.2633">
        <ele>160</ele>
        <time>2017-04-30T08:04:55Z</time>
      </trkpt>
      <trkpt lat="47.96672" lon="2.2633">
        <ele>160</ele>
        <time>2017-04-30T08:04:57Z</time>
      </trkpt>
      <trkpt lat="47.96672" lon="2.2633">
        <ele>160</ele>
        <time>2017-04-30T08:04:59Z</time>
      </trkpt>
      <trkpt lat="47.96672" lon="2.2633">
        <ele>160</ele>
        <time>2017-04-30T08:05:01Z</time>
      </trkpt>
      <trkpt lat="47.96672" lon="2.2633">
        <ele>160</ele>
        <time>2017-04-30T08:05:03Z</time>
      </trkpt>
      <trkpt lat="47.96672" lon="2.2633">
        <ele>160</ele>
        <time>2017-04-30T08:05:05Z</time>
      </trkpt>
      <trkpt lat="47.96672" lon="2.2633">
        <ele>160</ele>
        <time>2017-04-30T08:05:07Z</time>
      </trkpt>
      <trkpt lat="47.96672" lon="2.2633">
        <ele>160</ele>
        <time>2017-04-30T08:05:09Z</time>
      </trkpt>
      <trkpt lat="47.96672" lon="2.26372">
        <ele>145</ele>
        <time>2017-04-30T08:05:11Z</time>
      </trkpt>
      <trkpt lat="47.96671" lon="2.26398">
        <ele>143</ele>
        <time>2017-04-30T08:05:13Z</time>
      </trkpt>
      <trkpt lat="47.9667" lon="2.26417">
        <ele>142</ele>
        <time>2017-04-30T08:05:15Z</time>
      </trkpt>
      <trkpt lat="47.96668" lon="2.26432">
        <ele>140</ele>
        <time>2017-04-30T08:05:17Z</time>
      </trkpt>
      <trkpt lat="47.96666" lon="2.26444">
        <ele>140</ele>
        <time>2017-04-30T08:05:19Z</time>
      </trkpt>
      <trkpt lat="47.96665" lon="2.26468">
        <ele>140</ele>
        <time>2017-04-30T08:05:21Z</time>
      </trkpt>
      <trkpt lat="47.96665" lon="2.26468">
        <ele>140</ele>
        <time>2017-04-30T08:05:25Z</time>
      </trkpt>
      <trkpt lat="47.96665" lon="2.26468">
        <ele>140</ele>
        <time>2017-04-30T08:05:27Z</time>
      </trkpt>
      <trkpt lat="47.96665" lon="2.26468">
        <ele>140</ele>
        <time>2017-04-30T08:05:31Z</time>
      </trkpt>
      <trkpt lat="47.96665" lon="2.26468">
        <ele>140</ele>
        <time>2017-04-30T08:05:33Z</time>
      </trkpt>
      <trkpt lat="47.96665" lon="2.26468">
        <ele>140</ele>
        <time>2017-04-30T08:05:35Z</time>
      </trkpt>
      <trkpt lat="47.96655" lon="2.26558">
        <ele>136</ele>
        <time>2017-04-30T08:05:39Z</time>
      </trkpt>
      <trkpt lat="47.96655" lon="2.26558">
        <ele>136</ele>
        <time>2017-04-30T08:05:41Z</time>
      </trkpt>
      <trkpt lat="47.96655" lon="2.26558">
        <ele>136</ele>
        <time>2017-04-30T08:05:43Z</time>
      </trkpt>
      <trkpt lat="47.96655" lon="2.26558">
        <ele>136</ele>
        <time>2017-04-30T08:05:45Z</time>
      </trkpt>
      <trkpt lat="47.9665" lon="2.26598">
        <ele>135</ele>
        <time>2017-04-30T08:05:47Z</time>
      </trkpt>
      <trkpt lat="47.96647" lon="2.26619">
        <ele>137</ele>
        <time>2017-04-30T08:05:51Z</time>
      </trkpt>
      <trkpt lat="47.96647" lon="2.26619">
        <ele>137</ele>
        <time>2017-04-30T08:05:53Z</time>
      </trkpt>
      <trkpt lat="47.96647" lon="2.26619">
        <ele>137</ele>
        <time>2017-04-30T08:05:55Z</time>
      </trkpt>
      <trkpt lat="47.96647" lon="2.26619">
        <ele>137</ele>
        <time>2017-04-30T08:05:57Z</time>
      </trkpt>
      <trkpt lat="47.96647" lon="2.26619">
        <ele>137</ele>
        <time>2017-04-30T08:05:59Z</time>
      </trkpt>
      <trkpt lat="47.96647" lon="2.26619">
        <ele>137</ele>
        <time>2017-04-30T08:06:01Z</time>
      </trkpt>
      <trkpt lat="47.96647" lon="2.26619">
        <ele>137</ele>
        <time>2017-04-30T08:06:03Z</time>
      </trkpt>
      <trkpt lat="47.96647" lon="2.26619">
        <ele>137</ele>
        <time>2017-04-30T08:06:05Z</time>
      </trkpt>
      <trkpt lat="47.96636" lon="2.26707">
        <ele>140</ele>
        <time>2017-04-30T08:06:09Z</time>
      </trkpt>
      <trkpt lat="47.96633" lon="2.26729">
        <ele>140</ele>
        <time>2017-04-30T08:06:13Z</time>
      </trkpt>
      <trkpt lat="47.96633" lon="2.26729">
        <ele>140</ele>
        <time>2017-04-30T08:06:15Z</time>
      </trkpt>
      <trkpt lat="47.96633" lon="2.26729">
        <ele>140</ele>
        <time>2017-04-30T08:06:17Z</time>
      </trkpt>
      <trkpt lat="47.96633" lon="2.26729">
        <ele>140</ele>
        <time>2017-04-30T08:06:19Z</time>
      </trkpt>
      <trkpt lat="47.96627" lon="2.26779">
        <ele>137</ele>
        <time>2017-04-30T08:06:23Z</time>
      </trkpt>
      <trkpt lat="47.96627" lon="2.26779">
        <ele>137</ele>
        <time>2017-04-30T08:06:25Z</time>
      </trkpt>
      <trkpt lat="47.96627" lon="2.26779">
        <ele>137</ele>
        <time>2017-04-30T08:06:27Z</time>
      </trkpt>
      <trkpt lat="47.96627" lon="2.26779">
        <ele>137</ele>
        <time>2017-04-30T08:06:29Z</time>
      </trkpt>
      <trkpt lat="47.96627" lon="2.26779">
        <ele>137</ele>
        <time>2017-04-30T08:06:31Z</time>
      </trkpt>
      <trkpt lat="47.96624" lon="2.26809">
        <ele>135</ele>
        <time>2017-04-30T08:06:35Z</time>
      </trkpt>
      <trkpt lat="47.96624" lon="2.26809">
        <ele>135</ele>
        <time>2017-04-30T08:06:37Z</time>
      </trkpt>
      <trkpt lat="47.96624" lon="2.26809">
        <ele>135</ele>
        <time>2017-04-30T08:06:39Z</time>
      </trkpt>
      <trkpt lat="47.96624" lon="2.26809">
        <ele>135</ele>
        <time>2017-04-30T08:06:41Z</time>
      </trkpt>
      <trkpt lat="47.96624" lon="2.26809">
        <ele>135</ele>
        <time>2017-04-30T08:06:43Z</time>
      </trkpt>
      <trkpt lat="47.96612" lon="2.26878">
        <ele>133</ele>
        <time>2017-04-30T08:07:07Z</time>
      </trkpt>
      <trkpt lat="47.96605" lon="2.26892">
        <ele>137</ele>
        <time>2017-04-30T08:07:11Z</time>
      </trkpt>
      <trkpt lat="47.96595" lon="2.26911">
        <ele>137</ele>
        <time>2017-04-30T08:07:15Z</time>
      </trkpt>
      <trkpt lat="47.96589" lon="2.26921">
        <ele>137</ele>
        <time>2017-04-30T08:07:17Z</time>
      </trkpt>
      <trkpt lat="47.96578" lon="2.26942">
        <ele>137</ele>
        <time>2017-04-30T08:07:21Z</time>
      </trkpt>
      <trkpt lat="47.96572" lon="2.26953">
        <ele>136</ele>
        <time>2017-04-30T08:07:23Z</time>
      </trkpt>
      <trkpt lat="47.96566" lon="2.26963">
        <ele>136</ele>
        <time>2017-04-30T08:07:25Z</time>
      </trkpt>
      <trkpt lat="47.9656" lon="2.26974">
        <ele>136</ele>
        <time>2017-04-30T08:07:27Z</time>
      </trkpt>
      <trkpt lat="47.96554" lon="2.26984">
        <ele>135</ele>
        <time>2017-04-30T08:07:29Z</time>
      </trkpt>
      <trkpt lat="47.96547" lon="2.26995">
        <ele>135</ele>
        <time>2017-04-30T08:07:31Z</time>
      </trkpt>
      <trkpt lat="47.96541" lon="2.27006">
        <ele>134</ele>
        <time>2017-04-30T08:07:33Z</time>
      </trkpt>
      <trkpt lat="47.96533" lon="2.27015">
        <ele>133</ele>
        <time>2017-04-30T08:07:35Z</time>
      </trkpt>
      <trkpt lat="47.96524" lon="2.27023">
        <ele>133</ele>
        <time>2017-04-30T08:07:37Z</time>
      </trkpt>
      <trkpt lat="47.96514" lon="2.2703">
        <ele>133</ele>
        <time>2017-04-30T08:07:39Z</time>
      </trkpt>
      <trkpt lat="47.96503" lon="2.27035">
        <ele>132</ele>
        <time>2017-04-30T08:07:41Z</time>
      </trkpt>
      <trkpt lat="47.96492" lon="2.2704">
        <ele>131</ele>
        <time>2017-04-30T08:07:43Z</time>
      </trkpt>
      <trkpt lat="47.96481" lon="2.27045">
        <ele>129</ele>
        <time>2017-04-30T08:07:45Z</time>
      </trkpt>
      <trkpt lat="47.96471" lon="2.2705">
        <ele>127</ele>
        <time>2017-04-30T08:07:47Z</time>
      </trkpt>
      <trkpt lat="47.9646" lon="2.27058">
        <ele>125</ele>
        <time>2017-04-30T08:07:49Z</time>
      </trkpt>
      <trkpt lat="47.9645" lon="2.27062">
        <ele>123</ele>
        <time>2017-04-30T08:07:51Z</time>
      </trkpt>
      <trkpt lat="47.96441" lon="2.27066">
        <ele>122</ele>
        <time>2017-04-30T08:07:53Z</time>
      </trkpt>
      <trkpt lat="47.96429" lon="2.27072">
        <ele>121</ele>
        <time>2017-04-30T08:07:55Z</time>
      </trkpt>
      <trkpt lat="47.96418" lon="2.27078">
        <ele>120</ele>
        <time>2017-04-30T08:07:57Z</time>
      </trkpt>
      <trkpt lat="47.96408" lon="2.27083">
        <ele>119</ele>
        <time>2017-04-30T08:07:59Z</time>
      </trkpt>
      <trkpt lat="47.96396" lon="2.27088">
        <ele>119</ele>
        <time>2017-04-30T08:08:01Z</time>
      </trkpt>
      <trkpt lat="47.96385" lon="2.27094">
        <ele>118</ele>
        <time>2017-04-30T08:08:03Z</time>
      </trkpt>
      <trkpt lat="47.96373" lon="2.271">
        <ele>117</ele>
        <time>2017-04-30T08:08:05Z</time>
      </trkpt>
      <trkpt lat="47.96361" lon="2.27106">
        <ele>117</ele>
        <time>2017-04-30T08:08:07Z</time>
      </trkpt>
      <trkpt lat="47.9635" lon="2.27114">
        <ele>116</ele>
        <time>2017-04-30T08:08:09Z</time>
      </trkpt>
      <trkpt lat="47.96338" lon="2.27122">
        <ele>115</ele>
        <time>2017-04-30T08:08:11Z</time>
      </trkpt>
      <trkpt lat="47.96328" lon="2.27134">
        <ele>115</ele>
        <time>2017-04-30T08:08:13Z</time>
      </trkpt>
      <trkpt lat="47.96319" lon="2.27147">
        <ele>114</ele>
        <time>2017-04-30T08:08:15Z</time>
      </trkpt>
      <trkpt lat="47.9631" lon="2.2716">
        <ele>114</ele>
        <time>2017-04-30T08:08:17Z</time>
      </trkpt>
      <trkpt lat="47.96302" lon="2.27173">
        <ele>114</ele>
        <time>2017-04-30T08:08:19Z</time>
      </trkpt>
      <trkpt lat="47.96293" lon="2.27186">
        <ele>114</ele>
        <time>2017-04-30T08:08:21Z</time>
      </trkpt>
      <trkpt lat="47.96284" lon="2.27199">
        <ele>114</ele>
        <time>2017-04-30T08:08:23Z</time>
      </trkpt>
      <trkpt lat="47.96275" lon="2.27211">
        <ele>114</ele>
        <time>2017-04-30T08:08:25Z</time>
      </trkpt>
      <trkpt lat="47.96266" lon="2.27225">
        <ele>113</ele>
        <time>2017-04-30T08:08:27Z</time>
      </trkpt>
      <trkpt lat="47.96256" lon="2.27239">
        <ele>114</ele>
        <time>2017-04-30T08:08:29Z</time>
      </trkpt>
      <trkpt lat="47.96246" lon="2.27253">
        <ele>114</ele>
        <time>2017-04-30T08:08:31Z</time>
      </trkpt>
      <trkpt lat="47.96238" lon="2.27265">
        <ele>114</ele>
        <time>2017-04-30T08:08:33Z</time>
      </trkpt>
      <trkpt lat="47.96228" lon="2.27278">
        <ele>114</ele>
        <time>2017-04-30T08:08:35Z</time>
      </trkpt>
      <trkpt lat="47.9622" lon="2.27291">
        <ele>114</ele>
        <time>2017-04-30T08:08:37Z</time>
      </trkpt>
      <trkpt lat="47.96212" lon="2.27305">
        <ele>114</ele>
        <time>2017-04-30T08:08:39Z</time>
      </trkpt>
      <trkpt lat="47.96204" lon="2.27318">
        <ele>115</ele>
        <time>2017-04-30T08:08:41Z</time>
      </trkpt>
      <trkpt lat="47.96195" lon="2.27331">
        <ele>115</ele>
        <time>2017-04-30T08:08:43Z</time>
      </trkpt>
      <trkpt lat="47.96186" lon="2.27345">
        <ele>115</ele>
        <time>2017-04-30T08:08:45Z</time>
      </trkpt>
      <trkpt lat="47.96177" lon="2.2736">
        <ele>115</ele>
        <time>2017-04-30T08:08:47Z</time>
      </trkpt>
      <trkpt lat="47.96167" lon="2.27375">
        <ele>114</ele>
        <time>2017-04-30T08:08:49Z</time>
      </trkpt>
      <trkpt lat="47.96158" lon="2.27388">
        <ele>114</ele>
        <time>2017-04-30T08:08:51Z</time>
      </trkpt>
      <trkpt lat="47.9615" lon="2.274">
        <ele>114</ele>
        <time>2017-04-30T08:08:53Z</time>
      </trkpt>
      <trkpt lat="47.96144" lon="2.2741">
        <ele>116</ele>
        <time>2017-04-30T08:08:55Z</time>
      </trkpt>
      <trkpt lat="47.96144" lon="2.2741">
        <ele>116</ele>
        <time>2017-04-30T08:08:57Z</time>
      </trkpt>
      <trkpt lat="47.96144" lon="2.2741">
        <ele>116</ele>
        <time>2017-04-30T08:08:59Z</time>
      </trkpt>
      <trkpt lat="47.96144" lon="2.2741">
        <ele>116</ele>
        <time>2017-04-30T08:09:01Z</time>
      </trkpt>
      <trkpt lat="47.96144" lon="2.2741">
        <ele>116</ele>
        <time>2017-04-30T08:09:03Z</time>
      </trkpt>
      <trkpt lat="47.96157" lon="2.27474">
        <ele>126</ele>
        <time>2017-04-30T08:09:13Z</time>
      </trkpt>
      <trkpt lat="47.96168" lon="2.27486">
        <ele>127</ele>
        <time>2017-04-30T08:09:17Z</time>
      </trkpt>
      <trkpt lat="47.96179" lon="2.27506">
        <ele>128</ele>
        <time>2017-04-30T08:09:21Z</time>
      </trkpt>
      <trkpt lat="47.96179" lon="2.27506">
        <ele>128</ele>
        <time>2017-04-30T08:09:23Z</time>
      </trkpt>
      <trkpt lat="47.96192" lon="2.27525">
        <ele>129</ele>
        <time>2017-04-30T08:09:25Z</time>
      </trkpt>
      <trkpt lat="47.96204" lon="2.27541">
        <ele>130</ele>
        <time>2017-04-30T08:09:29Z</time>
      </trkpt>
      <trkpt lat="47.96204" lon="2.27541">
        <ele>130</ele>
        <time>2017-04-30T08:09:31Z</time>
      </trkpt>
      <trkpt lat="47.96204" lon="2.27541">
        <ele>130</ele>
        <time>2017-04-30T08:09:33Z</time>
      </trkpt>
      <trkpt lat="47.96204" lon="2.27541">
        <ele>130</ele>
        <time>2017-04-30T08:09:35Z</time>
      </trkpt>
      <trkpt lat="47.96204" lon="2.27541">
        <ele>130</ele>
        <time>2017-04-30T08:09:41Z</time>
      </trkpt>
      <trkpt lat="47.96204" lon="2.27541">
        <ele>130</ele>
        <time>2017-04-30T08:09:43Z</time>
      </trkpt>
      <trkpt lat="47.96204" lon="2.27541">
        <ele>130</ele>
        <time>2017-04-30T08:09:45Z</time>
      </trkpt>
      <trkpt lat="47.96204" lon="2.27541">
        <ele>130</ele>
        <time>2017-04-30T08:09:47Z</time>
      </trkpt>
      <trkpt lat="47.96204" lon="2.27541">
        <ele>130</ele>
        <time>2017-04-30T08:09:49Z</time>
      </trkpt>
      <trkpt lat="47.96296" lon="2.27536">
        <ele>139</ele>
        <time>2017-04-30T08:09:53Z</time>
      </trkpt>
      <trkpt lat="47.96304" lon="2.27542">
        <ele>139</ele>
        <time>2017-04-30T08:09:55Z</time>
      </trkpt>
      <trkpt lat="47.96304" lon="2.27542">
        <ele>139</ele>
        <time>2017-04-30T08:09:57Z</time>
      </trkpt>
      <trkpt lat="47.96304" lon="2.27542">
        <ele>139</ele>
        <time>2017-04-30T08:09:59Z</time>
      </trkpt>
      <trkpt lat="47.96304" lon="2.27542">
        <ele>139</ele>
        <time>2017-04-30T08:10:01Z</time>
      </trkpt>
      <trkpt lat="47.96304" lon="2.27542">
        <ele>139</ele>
        <time>2017-04-30T08:10:03Z</time>
      </trkpt>
      <trkpt lat="47.96304" lon="2.27542">
        <ele>139</ele>
        <time>2017-04-30T08:10:05Z</time>
      </trkpt>
      <trkpt lat="47.96304" lon="2.27542">
        <ele>139</ele>
        <time>2017-04-30T08:10:07Z</time>
      </trkpt>
      <trkpt lat="47.96304" lon="2.27542">
        <ele>139</ele>
        <time>2017-04-30T08:10:09Z</time>
      </trkpt>
      <trkpt lat="47.96304" lon="2.27542">
        <ele>139</ele>
        <time>2017-04-30T08:10:13Z</time>
      </trkpt>
      <trkpt lat="47.96332" lon="2.27647">
        <ele>136</ele>
        <time>2017-04-30T08:11:38Z</time>
      </trkpt>
      <trkpt lat="47.96332" lon="2.27647">
        <ele>136</ele>
        <time>2017-04-30T08:11:40Z</time>
      </trkpt>
      <trkpt lat="47.96332" lon="2.27647">
        <ele>136</ele>
        <time>2017-04-30T08:11:42Z</time>
      </trkpt>
      <trkpt lat="47.96332" lon="2.27666">
        <ele>134</ele>
        <time>2017-04-30T08:11:44Z</time>
      </trkpt>
      <trkpt lat="47.96334" lon="2.27683">
        <ele>134</ele>
        <time>2017-04-30T08:11:48Z</time>
      </trkpt>
      <trkpt lat="47.96334" lon="2.27683">
        <ele>134</ele>
        <time>2017-04-30T08:11:50Z</time>
      </trkpt>
      <trkpt lat="47.96337" lon="2.27699">
        <ele>135</ele>
        <time>2017-04-30T08:11:52Z</time>
      </trkpt>
      <trkpt lat="47.96338" lon="2.27716">
        <ele>134</ele>
        <time>2017-04-30T08:11:56Z</time>
      </trkpt>
      <trkpt lat="47.96338" lon="2.27716">
        <ele>134</ele>
        <time>2017-04-30T08:11:58Z</time>
      </trkpt>
      <trkpt lat="47.96338" lon="2.27716">
        <ele>134</ele>
        <time>2017-04-30T08:12:00Z</time>
      </trkpt>
      <trkpt lat="47.96338" lon="2.27716">
        <ele>134</ele>
        <time>2017-04-30T08:12:02Z</time>
      </trkpt>
      <trkpt lat="47.96338" lon="2.27716">
        <ele>134</ele>
        <time>2017-04-30T08:12:04Z</time>
      </trkpt>
      <trkpt lat="47.9633" lon="2.27743">
        <ele>135</ele>
        <time>2017-04-30T08:12:06Z</time>
      </trkpt>
      <trkpt lat="47.9632" lon="2.27755">
        <ele>134</ele>
        <time>2017-04-30T08:12:10Z</time>
      </trkpt>
      <trkpt lat="47.96307" lon="2.27768">
        <ele>134</ele>
        <time>2017-04-30T08:12:14Z</time>
      </trkpt>
      <trkpt lat="47.96296" lon="2.27783">
        <ele>133</ele>
        <time>2017-04-30T08:12:18Z</time>
      </trkpt>
      <trkpt lat="47.96296" lon="2.27783">
        <ele>133</ele>
        <time>2017-04-30T08:12:20Z</time>
      </trkpt>
      <trkpt lat="47.96296" lon="2.27783">
        <ele>133</ele>
        <time>2017-04-30T08:12:22Z</time>
      </trkpt>
      <trkpt lat="47.96296" lon="2.27783">
        <ele>133</ele>
        <time>2017-04-30T08:12:24Z</time>
      </trkpt>
      <trkpt lat="47.96296" lon="2.27783">
        <ele>133</ele>
        <time>2017-04-30T08:12:26Z</time>
      </trkpt>
      <trkpt lat="47.96296" lon="2.27783">
        <ele>133</ele>
        <time>2017-04-30T08:12:28Z</time>
      </trkpt>
      <trkpt lat="47.96296" lon="2.27783">
        <ele>133</ele>
        <time>2017-04-30T08:12:30Z</time>
      </trkpt>
      <trkpt lat="47.96296" lon="2.27783">
        <ele>133</ele>
        <time>2017-04-30T08:12:32Z</time>
      </trkpt>
      <trkpt lat="47.96296" lon="2.27783">
        <ele>133</ele>
        <time>2017-04-30T08:12:34Z</time>
      </trkpt>
      <trkpt lat="47.96263" lon="2.27839">
        <ele>129</ele>
        <time>2017-04-30T08:12:38Z</time>
      </trkpt>
      <trkpt lat="47.96256" lon="2.27856">
        <ele>127</ele>
        <time>2017-04-30T08:12:42Z</time>
      </trkpt>
      <trkpt lat="47.96247" lon="2.27874">
        <ele>126</ele>
        <time>2017-04-30T08:12:46Z</time>
      </trkpt>
      <trkpt lat="47.96247" lon="2.27874">
        <ele>126</ele>
        <time>2017-04-30T08:12:48Z</time>
      </trkpt>
      <trkpt lat="47.96247" lon="2.27874">
        <ele>126</ele>
        <time>2017-04-30T08:12:50Z</time>
      </trkpt>
      <trkpt lat="47.96247" lon="2.27874">
        <ele>126</ele>
        <time>2017-04-30T08:12:52Z</time>
      </trkpt>
      <trkpt lat="47.96247" lon="2.27874">
        <ele>126</ele>
        <time>2017-04-30T08:12:54Z</time>
      </trkpt>
      <trkpt lat="47.96228" lon="2.27918">
        <ele>120</ele>
        <time>2017-04-30T08:12:58Z</time>
      </trkpt>
      <trkpt lat="47.96222" lon="2.27938">
        <ele>118</ele>
        <time>2017-04-30T08:13:02Z</time>
      </trkpt>
      <trkpt lat="47.96218" lon="2.27948">
        <ele>118</ele>
        <time>2017-04-30T08:13:06Z</time>
      </trkpt>
      <trkpt lat="47.96215" lon="2.27957">
        <ele>117</ele>
        <time>2017-04-30T08:13:08Z</time>
      </trkpt>
      <trkpt lat="47.96212" lon="2.27967">
        <ele>116</ele>
        <time>2017-04-30T08:13:10Z</time>
      </trkpt>
      <trkpt lat="47.96212" lon="2.27967">
        <ele>116</ele>
        <time>2017-04-30T08:13:12Z</time>
      </trkpt>
      <trkpt lat="47.96212" lon="2.27967">
        <ele>116</ele>
        <time>2017-04-30T08:13:14Z</time>
      </trkpt>
      <trkpt lat="47.96212" lon="2.27967">
        <ele>116</ele>
        <time>2017-04-30T08:13:16Z</time>
      </trkpt>
      <trkpt lat="47.9621" lon="2.27996">
        <ele>114</ele>
        <time>2017-04-30T08:13:20Z</time>
      </trkpt>
      <trkpt lat="47.9621" lon="2.28016">
        <ele>113</ele>
        <time>2017-04-30T08:13:22Z</time>
      </trkpt>
      <trkpt lat="47.9621" lon="2.28016">
        <ele>113</ele>
        <time>2017-04-30T08:13:24Z</time>
      </trkpt>
      <trkpt lat="47.9621" lon="2.28016">
        <ele>113</ele>
        <time>2017-04-30T08:13:26Z</time>
      </trkpt>
      <trkpt lat="47.9621" lon="2.28016">
        <ele>113</ele>
        <time>2017-04-30T08:13:28Z</time>
      </trkpt>
      <trkpt lat="47.96213" lon="2.28044">
        <ele>111</ele>
        <time>2017-04-30T08:13:30Z</time>
      </trkpt>
      <trkpt lat="47.96216" lon="2.28063">
        <ele>111</ele>
        <time>2017-04-30T08:13:32Z</time>
      </trkpt>
      <trkpt lat="47.9622" lon="2.28078">
        <ele>111</ele>
        <time>2017-04-30T08:13:34Z</time>
      </trkpt>
      <trkpt lat="47.96224" lon="2.2809">
        <ele>111</ele>
        <time>2017-04-30T08:13:36Z</time>
      </trkpt>
      <trkpt lat="47.96228" lon="2.28101">
        <ele>111</ele>
        <time>2017-04-30T08:13:38Z</time>
      </trkpt>
      <trkpt lat="47.96236" lon="2.28121">
        <ele>111</ele>
        <time>2017-04-30T08:13:40Z</time>
      </trkpt>
      <trkpt lat="47.96236" lon="2.28121">
        <ele>111</ele>
        <time>2017-04-30T08:13:42Z</time>
      </trkpt>
      <trkpt lat="47.96244" lon="2.28144">
        <ele>112</ele>
        <time>2017-04-30T08:13:44Z</time>
      </trkpt>
      <trkpt lat="47.96244" lon="2.28144">
        <ele>112</ele>
        <time>2017-04-30T08:13:46Z</time>
      </trkpt>
      <trkpt lat="47.96244" lon="2.28144">
        <ele>112</ele>
        <time>2017-04-30T08:13:48Z</time>
      </trkpt>
      <trkpt lat="47.96244" lon="2.28144">
        <ele>112</ele>
        <time>2017-04-30T08:13:50Z</time>
      </trkpt>
      <trkpt lat="47.96244" lon="2.28144">
        <ele>112</ele>
        <time>2017-04-30T08:13:52Z</time>
      </trkpt>
      <trkpt lat="47.96244" lon="2.28144">
        <ele>112</ele>
        <time>2017-04-30T08:13:54Z</time>
      </trkpt>
      <trkpt lat="47.96244" lon="2.28144">
        <ele>112</ele>
        <time>2017-04-30T08:13:56Z</time>
      </trkpt>
      <trkpt lat="47.96244" lon="2.28144">
        <ele>112</ele>
        <time>2017-04-30T08:13:58Z</time>
      </trkpt>
      <trkpt lat="47.96257" lon="2.28218">
        <ele>113</ele>
        <time>2017-04-30T08:14:00Z</time>
      </trkpt>
      <trkpt lat="47.96252" lon="2.28229">
        <ele>114</ele>
        <time>2017-04-30T08:14:02Z</time>
      </trkpt>
      <trkpt lat="47.96244" lon="2.28251">
        <ele>116</ele>
        <time>2017-04-30T08:14:06Z</time>
      </trkpt>
      <trkpt lat="47.96244" lon="2.28251">
        <ele>116</ele>
        <time>2017-04-30T08:14:08Z</time>
      </trkpt>
      <trkpt lat="47.96244" lon="2.28251">
        <ele>116</ele>
        <time>2017-04-30T08:14:10Z</time>
      </trkpt>
      <trkpt lat="47.96229" lon="2.28273">
        <ele>118</ele>
        <time>2017-04-30T08:14:12Z</time>
      </trkpt>
      <trkpt lat="47.96225" lon="2.28285">
        <ele>118</ele>
        <time>2017-04-30T08:14:14Z</time>
      </trkpt>
      <trkpt lat="47.96219" lon="2.28297">
        <ele>118</ele>
        <time>2017-04-30T08:14:16Z</time>
      </trkpt>
      <trkpt lat="47.96211" lon="2.28315">
        <ele>118</ele>
        <time>2017-04-30T08:14:20Z</time>
      </trkpt>
      <trkpt lat="47.96211" lon="2.28315">
        <ele>118</ele>
        <time>2017-04-30T08:14:22Z</time>
      </trkpt>
      <trkpt lat="47.96211" lon="2.28315">
        <ele>118</ele>
        <time>2017-04-30T08:14:24Z</time>
      </trkpt>
      <trkpt lat="47.96193" lon="2.28351">
        <ele>119</ele>
        <time>2017-04-30T08:14:28Z</time>
      </trkpt>
      <trkpt lat="47.96193" lon="2.28351">
        <ele>119</ele>
        <time>2017-04-30T08:14:30Z</time>
      </trkpt>
      <trkpt lat="47.96193" lon="2.28351">
        <ele>119</ele>
        <time>2017-04-30T08:14:32Z</time>
      </trkpt>
      <trkpt lat="47.96193" lon="2.28351">
        <ele>119</ele>
        <time>2017-04-30T08:14:34Z</time>
      </trkpt>
      <trkpt lat="47.96193" lon="2.28351">
        <ele>119</ele>
        <time>2017-04-30T08:14:36Z</time>
      </trkpt>
      <trkpt lat="47.96189" lon="2.28391">
        <ele>118</ele>
        <time>2017-04-30T08:14:40Z</time>
      </trkpt>
      <trkpt lat="47.96199" lon="2.28411">
        <ele>117</ele>
        <time>2017-04-30T08:14:44Z</time>
      </trkpt>
      <trkpt lat="47.96209" lon="2.28433">
        <ele>118</ele>
        <time>2017-04-30T08:14:48Z</time>
      </trkpt>
      <trkpt lat="47.96209" lon="2.28433">
        <ele>118</ele>
        <time>2017-04-30T08:14:50Z</time>
      </trkpt>
      <trkpt lat="47.96209" lon="2.28433">
        <ele>118</ele>
        <time>2017-04-30T08:14:52Z</time>
      </trkpt>
      <trkpt lat="47.96223" lon="2.28466">
        <ele>118</ele>
        <time>2017-04-30T08:14:54Z</time>
      </trkpt>
      <trkpt lat="47.9623" lon="2.28475">
        <ele>118</ele>
        <time>2017-04-30T08:14:56Z</time>
      </trkpt>
      <trkpt lat="47.96245" lon="2.28492">
        <ele>118</ele>
        <time>2017-04-30T08:15:00Z</time>
      </trkpt>
      <trkpt lat="47.96253" lon="2.285">
        <ele>118</ele>
        <time>2017-04-30T08:15:02Z</time>
      </trkpt>
      <trkpt lat="47.96253" lon="2.285">
        <ele>118</ele>
        <time>2017-04-30T08:15:04Z</time>
      </trkpt>
      <trkpt lat="47.96253" lon="2.285">
        <ele>118</ele>
        <time>2017-04-30T08:15:06Z</time>
      </trkpt>
      <trkpt lat="47.96253" lon="2.285">
        <ele>118</ele>
        <time>2017-04-30T08:15:08Z</time>
      </trkpt>
      <trkpt lat="47.96253" lon="2.285">
        <ele>118</ele>
        <time>2017-04-30T08:15:10Z</time>
      </trkpt>
      <trkpt lat="47.96253" lon="2.285">
        <ele>118</ele>
        <time>2017-04-30T08:15:12Z</time>
      </trkpt>
      <trkpt lat="47.96253" lon="2.285">
        <ele>118</ele>
        <time>2017-04-30T08:15:14Z</time>
      </trkpt>
      <trkpt lat="47.96253" lon="2.285">
        <ele>118</ele>
        <time>2017-04-30T08:15:16Z</time>
      </trkpt>
      <trkpt lat="47.96276" lon="2.28533">
        <ele>122</ele>
        <time>2017-04-30T08:15:22Z</time>
      </trkpt>
      <trkpt lat="47.96291" lon="2.28553">
        <ele>122</ele>
        <time>2017-04-30T08:15:24Z</time>
      </trkpt>
      <trkpt lat="47.96301" lon="2.28569">
        <ele>122</ele>
        <time>2017-04-30T08:15:26Z</time>
      </trkpt>
      <trkpt lat="47.96307" lon="2.28581">
        <ele>122</ele>
        <time>2017-04-30T08:15:28Z</time>
      </trkpt>
      <trkpt lat="47.96312" lon="2.28592">
        <ele>122</ele>
        <time>2017-04-30T08:15:30Z</time>
      </trkpt>
      <trkpt lat="47.96312" lon="2.28592">
        <ele>122</ele>
        <time>2017-04-30T08:15:32Z</time>
      </trkpt>
      <trkpt lat="47.96312" lon="2.28592">
        <ele>122</ele>
        <time>2017-04-30T08:15:34Z</time>
      </trkpt>
      <trkpt lat="47.96312" lon="2.28592">
        <ele>122</ele>
        <time>2017-04-30T08:15:40Z</time>
      </trkpt>
      <trkpt lat="47.96332" lon="2.28652">
        <ele>126</ele>
        <time>2017-04-30T08:16:04Z</time>
      </trkpt>
      <trkpt lat="47.96332" lon="2.28668">
        <ele>126</ele>
        <time>2017-04-30T08:16:08Z</time>
      </trkpt>
      <trkpt lat="47.96332" lon="2.28668">
        <ele>126</ele>
        <time>2017-04-30T08:16:10Z</time>
      </trkpt>
      <trkpt lat="47.96332" lon="2.28668">
        <ele>126</ele>
        <time>2017-04-30T08:16:12Z</time>
      </trkpt>
      <trkpt lat="47.96332" lon="2.28668">
        <ele>126</ele>
        <time>2017-04-30T08:16:14Z</time>
      </trkpt>
      <trkpt lat="47.96326" lon="2.28713">
        <ele>130</ele>
        <time>2017-04-30T08:16:34Z</time>
      </trkpt>
      <trkpt lat="47.9632" lon="2.28732">
        <ele>129</ele>
        <time>2017-04-30T08:16:38Z</time>
      </trkpt>
      <trkpt lat="47.9632" lon="2.28732">
        <ele>129</ele>
        <time>2017-04-30T08:16:40Z</time>
      </trkpt>
      <trkpt lat="47.9632" lon="2.28732">
        <ele>129</ele>
        <time>2017-04-30T08:16:42Z</time>
      </trkpt>
      <trkpt lat="47.9632" lon="2.28732">
        <ele>129</ele>
        <time>2017-04-30T08:16:44Z</time>
      </trkpt>
      <trkpt lat="47.9632" lon="2.28732">
        <ele>129</ele>
        <time>2017-04-30T08:16:46Z</time>
      </trkpt>
      <trkpt lat="47.9632" lon="2.28732">
        <ele>129</ele>
        <time>2017-04-30T08:16:48Z</time>
      </trkpt>
      <trkpt lat="47.96325" lon="2.28804">
        <ele>131</ele>
        <time>2017-04-30T08:16:52Z</time>
      </trkpt>
      <trkpt lat="47.96327" lon="2.28828">
        <ele>132</ele>
        <time>2017-04-30T08:16:56Z</time>
      </trkpt>
      <trkpt lat="47.96333" lon="2.28847">
        <ele>131</ele>
        <time>2017-04-30T08:17:00Z</time>
      </trkpt>
      <trkpt lat="47.96333" lon="2.28847">
        <ele>131</ele>
        <time>2017-04-30T08:17:02Z</time>
      </trkpt>
      <trkpt lat="47.96333" lon="2.28847">
        <ele>131</ele>
        <time>2017-04-30T08:17:04Z</time>
      </trkpt>
      <trkpt lat="47.96333" lon="2.28847">
        <ele>131</ele>
        <time>2017-04-30T08:17:06Z</time>
      </trkpt>
      <trkpt lat="47.9636" lon="2.28873">
        <ele>131</ele>
        <time>2017-04-30T08:17:10Z</time>
      </trkpt>
      <trkpt lat="47.96375" lon="2.28863">
        <ele>132</ele>
        <time>2017-04-30T08:17:14Z</time>
      </trkpt>
      <trkpt lat="47.96375" lon="2.28863">
        <ele>132</ele>
        <time>2017-04-30T08:17:16Z</time>
      </trkpt>
      <trkpt lat="47.96383" lon="2.28848">
        <ele>133</ele>
        <time>2017-04-30T08:17:18Z</time>
      </trkpt>
      <trkpt lat="47.96392" lon="2.28826">
        <ele>134</ele>
        <time>2017-04-30T08:17:22Z</time>
      </trkpt>
      <trkpt lat="47.96396" lon="2.28814">
        <ele>134</ele>
        <time>2017-04-30T08:17:24Z</time>
      </trkpt>
      <trkpt lat="47.96401" lon="2.28801">
        <ele>135</ele>
        <time>2017-04-30T08:17:26Z</time>
      </trkpt>
      <trkpt lat="47.96405" lon="2.28787">
        <ele>136</ele>
        <time>2017-04-30T08:17:28Z</time>
      </trkpt>
      <trkpt lat="47.96411" lon="2.28774">
        <ele>137</ele>
        <time>2017-04-30T08:17:30Z</time>
      </trkpt>
      <trkpt lat="47.96417" lon="2.28762">
        <ele>138</ele>
        <time>2017-04-30T08:17:32Z</time>
      </trkpt>
      <trkpt lat="47.96421" lon="2.28749">
        <ele>139</ele>
        <time>2017-04-30T08:17:34Z</time>
      </trkpt>
      <trkpt lat="47.96427" lon="2.28736">
        <ele>139</ele>
        <time>2017-04-30T08:17:36Z</time>
      </trkpt>
      <trkpt lat="47.96427" lon="2.28736">
        <ele>139</ele>
        <time>2017-04-30T08:17:38Z</time>
      </trkpt>
      <trkpt lat="47.96427" lon="2.28736">
        <ele>139</ele>
        <time>2017-04-30T08:17:40Z</time>
      </trkpt>
      <trkpt lat="47.96447" lon="2.28687">
        <ele>143</ele>
        <time>2017-04-30T08:17:44Z</time>
      </trkpt>
      <trkpt lat="47.96447" lon="2.28687">
        <ele>143</ele>
        <time>2017-04-30T08:17:46Z</time>
      </trkpt>
      <trkpt lat="47.96447" lon="2.28687">
        <ele>143</ele>
        <time>2017-04-30T08:17:48Z</time>
      </trkpt>
      <trkpt lat="47.96447" lon="2.28687">
        <ele>143</ele>
        <time>2017-04-30T08:17:50Z</time>
      </trkpt>
      <trkpt lat="47.9647" lon="2.28628">
        <ele>149</ele>
        <time>2017-04-30T08:17:54Z</time>
      </trkpt>
      <trkpt lat="47.96475" lon="2.28617">
        <ele>149</ele>
        <time>2017-04-30T08:17:56Z</time>
      </trkpt>
      <trkpt lat="47.96475" lon="2.28617">
        <ele>149</ele>
        <time>2017-04-30T08:17:58Z</time>
      </trkpt>
      <trkpt lat="47.96475" lon="2.28617">
        <ele>149</ele>
        <time>2017-04-30T08:18:00Z</time>
      </trkpt>
      <trkpt lat="47.96494" lon="2.28566">
        <ele>154</ele>
        <time>2017-04-30T08:18:04Z</time>
      </trkpt>
      <trkpt lat="47.96498" lon="2.28553">
        <ele>155</ele>
        <time>2017-04-30T08:18:06Z</time>
      </trkpt>
      <trkpt lat="47.96503" lon="2.28538">
        <ele>155</ele>
        <time>2017-04-30T08:18:08Z</time>
      </trkpt>
      <trkpt lat="47.96508" lon="2.28525">
        <ele>157</ele>
        <time>2017-04-30T08:18:10Z</time>
      </trkpt>
      <trkpt lat="47.96513" lon="2.28511">
        <ele>157</ele>
        <time>2017-04-30T08:18:12Z</time>
      </trkpt>
      <trkpt lat="47.96519" lon="2.28496">
        <ele>159</ele>
        <time>2017-04-30T08:18:14Z</time>
      </trkpt>
      <trkpt lat="47.96519" lon="2.28496">
        <ele>159</ele>
        <time>2017-04-30T08:18:16Z</time>
      </trkpt>
      <trkpt lat="47.96519" lon="2.28496">
        <ele>159</ele>
        <time>2017-04-30T08:18:18Z</time>
      </trkpt>
      <trkpt lat="47.96519" lon="2.28496">
        <ele>159</ele>
        <time>2017-04-30T08:18:20Z</time>
      </trkpt>
      <trkpt lat="47.96536" lon="2.2845">
        <ele>165</ele>
        <time>2017-04-30T08:18:28Z</time>
      </trkpt>
      <trkpt lat="47.96548" lon="2.2842">
        <ele>165</ele>
        <time>2017-04-30T08:18:30Z</time>
      </trkpt>
      <trkpt lat="47.96556" lon="2.28397">
        <ele>165</ele>
        <time>2017-04-30T08:18:32Z</time>
      </trkpt>
      <trkpt lat="47.96563" lon="2.28376">
        <ele>165</ele>
        <time>2017-04-30T08:18:34Z</time>
      </trkpt>
      <trkpt lat="47.9657" lon="2.28358">
        <ele>162</ele>
        <time>2017-04-30T08:18:36Z</time>
      </trkpt>
      <trkpt lat="47.96581" lon="2.28328">
        <ele>159</ele>
        <time>2017-04-30T08:18:38Z</time>
      </trkpt>
      <trkpt lat="47.96581" lon="2.28328">
        <ele>159</ele>
        <time>2017-04-30T08:18:40Z</time>
      </trkpt>
      <trkpt lat="47.96601" lon="2.28269">
        <ele>152</ele>
        <time>2017-04-30T08:18:46Z</time>
      </trkpt>
      <trkpt lat="47.96607" lon="2.28255">
        <ele>149</ele>
        <time>2017-04-30T08:18:48Z</time>
      </trkpt>
      <trkpt lat="47.96607" lon="2.28255">
        <ele>149</ele>
        <time>2017-04-30T08:18:50Z</time>
      </trkpt>
      <trkpt lat="47.96607" lon="2.28255">
        <ele>149</ele>
        <time>2017-04-30T08:18:52Z</time>
      </trkpt>
      <trkpt lat="47.96607" lon="2.28255">
        <ele>149</ele>
        <time>2017-04-30T08:18:58Z</time>
      </trkpt>
      <trkpt lat="47.96607" lon="2.28255">
        <ele>149</ele>
        <time>2017-04-30T08:19:00Z</time>
      </trkpt>
      <trkpt lat="47.96607" lon="2.28255">
        <ele>149</ele>
        <time>2017-04-30T08:19:02Z</time>
      </trkpt>
      <trkpt lat="47.96653" lon="2.28136">
        <ele>133</ele>
        <time>2017-04-30T08:19:06Z</time>
      </trkpt>
      <trkpt lat="47.96658" lon="2.28123">
        <ele>134</ele>
        <time>2017-04-30T08:19:08Z</time>
      </trkpt>
      <trkpt lat="47.96663" lon="2.28109">
        <ele>133</ele>
        <time>2017-04-30T08:19:10Z</time>
      </trkpt>
      <trkpt lat="47.96667" lon="2.28095">
        <ele>130</ele>
        <time>2017-04-30T08:19:12Z</time>
      </trkpt>
      <trkpt lat="47.96673" lon="2.28081">
        <ele>130</ele>
        <time>2017-04-30T08:19:14Z</time>
      </trkpt>
      <trkpt lat="47.96679" lon="2.28066">
        <ele>130</ele>
        <time>2017-04-30T08:19:16Z</time>
      </trkpt>
      <trkpt lat="47.96685" lon="2.28052">
        <ele>130</ele>
        <time>2017-04-30T08:19:18Z</time>
      </trkpt>
      <trkpt lat="47.9669" lon="2.28039">
        <ele>129</ele>
        <time>2017-04-30T08:19:20Z</time>
      </trkpt>
      <trkpt lat="47.9669" lon="2.28039">
        <ele>129</ele>
        <time>2017-04-30T08:19:22Z</time>
      </trkpt>
      <trkpt lat="47.9669" lon="2.28039">
        <ele>129</ele>
        <time>2017-04-30T08:19:24Z</time>
      </trkpt>
      <trkpt lat="47.9669" lon="2.28039">
        <ele>129</ele>
        <time>2017-04-30T08:19:26Z</time>
      </trkpt>
      <trkpt lat="47.9669" lon="2.28039">
        <ele>129</ele>
        <time>2017-04-30T08:19:28Z</time>
      </trkpt>
      <trkpt lat="47.96719" lon="2.27957">
        <ele>130</ele>
        <time>2017-04-30T08:19:32Z</time>
      </trkpt>
      <trkpt lat="47.96725" lon="2.27943">
        <ele>130</ele>
        <time>2017-04-30T08:19:34Z</time>
      </trkpt>
      <trkpt lat="47.9673" lon="2.2793">
        <ele>130</ele>
        <time>2017-04-30T08:19:36Z</time>
      </trkpt>
      <trkpt lat="47.9673" lon="2.2793">
        <ele>130</ele>
        <time>2017-04-30T08:19:38Z</time>
      </trkpt>
      <trkpt lat="47.9673" lon="2.2793">
        <ele>130</ele>
        <time>2017-04-30T08:19:40Z</time>
      </trkpt>
      <trkpt lat="47.9673" lon="2.2793">
        <ele>130</ele>
        <time>2017-04-30T08:19:42Z</time>
      </trkpt>
      <trkpt lat="47.96753" lon="2.27894">
        <ele>129</ele>
        <time>2017-04-30T08:19:50Z</time>
      </trkpt>
      <trkpt lat="47.96761" lon="2.27914">
        <ele>130</ele>
        <time>2017-04-30T08:19:54Z</time>
      </trkpt>
      <trkpt lat="47.96768" lon="2.2794">
        <ele>130</ele>
        <time>2017-04-30T08:19:58Z</time>
      </trkpt>
      <trkpt lat="47.96772" lon="2.27954">
        <ele>130</ele>
        <time>2017-04-30T08:20:00Z</time>
      </trkpt>
      <trkpt lat="47.96776" lon="2.27967">
        <ele>130</ele>
        <time>2017-04-30T08:20:02Z</time>
      </trkpt>
      <trkpt lat="47.9678" lon="2.27981">
        <ele>130</ele>
        <time>2017-04-30T08:20:04Z</time>
      </trkpt>
      <trkpt lat="47.96785" lon="2.27995">
        <ele>130</ele>
        <time>2017-04-30T08:20:06Z</time>
      </trkpt>
      <trkpt lat="47.96789" lon="2.28009">
        <ele>130</ele>
        <time>2017-04-30T08:20:08Z</time>
      </trkpt>
      <trkpt lat="47.96794" lon="2.28022">
        <ele>130</ele>
        <time>2017-04-30T08:20:10Z</time>
      </trkpt>
      <trkpt lat="47.96799" lon="2.28036">
        <ele>131</ele>
        <time>2017-04-30T08:20:12Z</time>
      </trkpt>
      <trkpt lat="47.96805" lon="2.2805">
        <ele>131</ele>
        <time>2017-04-30T08:20:14Z</time>
      </trkpt>
      <trkpt lat="47.96811" lon="2.28064">
        <ele>131</ele>
        <time>2017-04-30T08:20:16Z</time>
      </trkpt>
      <trkpt lat="47.96817" lon="2.28077">
        <ele>131</ele>
        <time>2017-04-30T08:20:18Z</time>
      </trkpt>
      <trkpt lat="47.96824" lon="2.2809">
        <ele>131</ele>
        <time>2017-04-30T08:20:20Z</time>
      </trkpt>
      <trkpt lat="47.9683" lon="2.28103">
        <ele>131</ele>
        <time>2017-04-30T08:20:22Z</time>
      </trkpt>
      <trkpt lat="47.96837" lon="2.28115">
        <ele>131</ele>
        <time>2017-04-30T08:20:24Z</time>
      </trkpt>
      <trkpt lat="47.96843" lon="2.28128">
        <ele>131</ele>
        <time>2017-04-30T08:20:26Z</time>
      </trkpt>
      <trkpt lat="47.9685" lon="2.28141">
        <ele>131</ele>
        <time>2017-04-30T08:20:28Z</time>
      </trkpt>
      <trkpt lat="47.96857" lon="2.28153">
        <ele>131</ele>
        <time>2017-04-30T08:20:30Z</time>
      </trkpt>
      <trkpt lat="47.96865" lon="2.28165">
        <ele>131</ele>
        <time>2017-04-30T08:20:32Z</time>
      </trkpt>
      <trkpt lat="47.96872" lon="2.28176">
        <ele>131</ele>
        <time>2017-04-30T08:20:34Z</time>
      </trkpt>
      <trkpt lat="47.96881" lon="2.28188">
        <ele>132</ele>
        <time>2017-04-30T08:20:36Z</time>
      </trkpt>
      <trkpt lat="47.96889" lon="2.28199">
        <ele>132</ele>
        <time>2017-04-30T08:20:38Z</time>
      </trkpt>
      <trkpt lat="47.96898" lon="2.2821">
        <ele>131</ele>
        <time>2017-04-30T08:20:40Z</time>
      </trkpt>
      <trkpt lat="47.96906" lon="2.28221">
        <ele>131</ele>
        <time>2017-04-30T08:20:42Z</time>
      </trkpt>
      <trkpt lat="47.96914" lon="2.28232">
        <ele>131</ele>
        <time>2017-04-30T08:20:44Z</time>
      </trkpt>
      <trkpt lat="47.96922" lon="2.28242">
        <ele>131</ele>
        <time>2017-04-30T08:20:46Z</time>
      </trkpt>
      <trkpt lat="47.9693" lon="2.28253">
        <ele>131</ele>
        <time>2017-04-30T08:20:48Z</time>
      </trkpt>
      <trkpt lat="47.96938" lon="2.28264">
        <ele>131</ele>
        <time>2017-04-30T08:20:50Z</time>
      </trkpt>
      <trkpt lat="47.96947" lon="2.28275">
        <ele>131</ele>
        <time>2017-04-30T08:20:52Z</time>
      </trkpt>
      <trkpt lat="47.96955" lon="2.28287">
        <ele>130</ele>
        <time>2017-04-30T08:20:54Z</time>
      </trkpt>
      <trkpt lat="47.96965" lon="2.28298">
        <ele>130</ele>
        <time>2017-04-30T08:20:56Z</time>
      </trkpt>
      <trkpt lat="47.96974" lon="2.28311">
        <ele>130</ele>
        <time>2017-04-30T08:20:58Z</time>
      </trkpt>
      <trkpt lat="47.96984" lon="2.28324">
        <ele>130</ele>
        <time>2017-04-30T08:21:00Z</time>
      </trkpt>
      <trkpt lat="47.96993" lon="2.28337">
        <ele>129</ele>
        <time>2017-04-30T08:21:02Z</time>
      </trkpt>
      <trkpt lat="47.97003" lon="2.2835">
        <ele>129</ele>
        <time>2017-04-30T08:21:04Z</time>
      </trkpt>
      <trkpt lat="47.97012" lon="2.28364">
        <ele>129</ele>
        <time>2017-04-30T08:21:06Z</time>
      </trkpt>
      <trkpt lat="47.97021" lon="2.28378">
        <ele>129</ele>
        <time>2017-04-30T08:21:08Z</time>
      </trkpt>
      <trkpt lat="47.97031" lon="2.28391">
        <ele>129</ele>
        <time>2017-04-30T08:21:10Z</time>
      </trkpt>
      <trkpt lat="47.97041" lon="2.28404">
        <ele>129</ele>
        <time>2017-04-30T08:21:12Z</time>
      </trkpt>
      <trkpt lat="47.97049" lon="2.28417">
        <ele>130</ele>
        <time>2017-04-30T08:21:14Z</time>
      </trkpt>
      <trkpt lat="47.97057" lon="2.28431">
        <ele>130</ele>
        <time>2017-04-30T08:21:16Z</time>
      </trkpt>
      <trkpt lat="47.97064" lon="2.28444">
        <ele>131</ele>
        <time>2017-04-30T08:21:18Z</time>
      </trkpt>
      <trkpt lat="47.97073" lon="2.28455">
        <ele>131</ele>
        <time>2017-04-30T08:21:20Z</time>
      </trkpt>
      <trkpt lat="47.97082" lon="2.28466">
        <ele>132</ele>
        <time>2017-04-30T08:21:22Z</time>
      </trkpt>
      <trkpt lat="47.97091" lon="2.28476">
        <ele>133</ele>
        <time>2017-04-30T08:21:24Z</time>
      </trkpt>
      <trkpt lat="47.97091" lon="2.28476">
        <ele>133</ele>
        <time>2017-04-30T08:21:26Z</time>
      </trkpt>
      <trkpt lat="47.97091" lon="2.28476">
        <ele>133</ele>
        <time>2017-04-30T08:21:28Z</time>
      </trkpt>
      <trkpt lat="47.97091" lon="2.28476">
        <ele>133</ele>
        <time>2017-04-30T08:21:30Z</time>
      </trkpt>
      <trkpt lat="47.97091" lon="2.28476">
        <ele>133</ele>
        <time>2017-04-30T08:21:32Z</time>
      </trkpt>
      <trkpt lat="47.97142" lon="2.28537">
        <ele>132</ele>
        <time>2017-04-30T08:21:36Z</time>
      </trkpt>
      <trkpt lat="47.97152" lon="2.28547">
        <ele>131</ele>
        <time>2017-04-30T08:21:38Z</time>
      </trkpt>
      <trkpt lat="47.97162" lon="2.28554">
        <ele>131</ele>
        <time>2017-04-30T08:21:39Z</time>
      </trkpt>
      <trkpt lat="47.97172" lon="2.28562">
        <ele>132</ele>
        <time>2017-04-30T08:21:41Z</time>
      </trkpt>
      <trkpt lat="47.97172" lon="2.28562">
        <ele>132</ele>
        <time>2017-04-30T08:21:43Z</time>
      </trkpt>
      <trkpt lat="47.97172" lon="2.28562">
        <ele>132</ele>
        <time>2017-04-30T08:21:45Z</time>
      </trkpt>
      <trkpt lat="47.97172" lon="2.28562">
        <ele>132</ele>
        <time>2017-04-30T08:21:47Z</time>
      </trkpt>
      <trkpt lat="47.97172" lon="2.28562">
        <ele>132</ele>
        <time>2017-04-30T08:21:49Z</time>
      </trkpt>
      <trkpt lat="47.97172" lon="2.28562">
        <ele>132</ele>
        <time>2017-04-30T08:21:51Z</time>
      </trkpt>
      <trkpt lat="47.97172" lon="2.28562">
        <ele>132</ele>
        <time>2017-04-30T08:21:53Z</time>
      </trkpt>
      <trkpt lat="47.97172" lon="2.28562">
        <ele>132</ele>
        <time>2017-04-30T08:21:55Z</time>
      </trkpt>
      <trkpt lat="47.97172" lon="2.28562">
        <ele>132</ele>
        <time>2017-04-30T08:21:57Z</time>
      </trkpt>
      <trkpt lat="47.97172" lon="2.28562">
        <ele>132</ele>
        <time>2017-04-30T08:21:59Z</time>
      </trkpt>
      <trkpt lat="47.97172" lon="2.28562">
        <ele>132</ele>
        <time>2017-04-30T08:22:01Z</time>
      </trkpt>
      <trkpt lat="47.97172" lon="2.28562">
        <ele>132</ele>
        <time>2017-04-30T08:22:04Z</time>
      </trkpt>
      <trkpt lat="47.97205" lon="2.28625">
        <ele>134</ele>
        <time>2017-04-30T08:22:07Z</time>
      </trkpt>
      <trkpt lat="47.97222" lon="2.28663">
        <ele>135</ele>
        <time>2017-04-30T08:22:09Z</time>
      </trkpt>
      <trkpt lat="47.97231" lon="2.2869">
        <ele>135</ele>
        <time>2017-04-30T08:22:11Z</time>
      </trkpt>
      <trkpt lat="47.97235" lon="2.28713">
        <ele>136</ele>
        <time>2017-04-30T08:22:13Z</time>
      </trkpt>
      <trkpt lat="47.97237" lon="2.28733">
        <ele>136</ele>
        <time>2017-04-30T08:22:15Z</time>
      </trkpt>
      <trkpt lat="47.97239" lon="2.28771">
        <ele>136</ele>
        <time>2017-04-30T08:22:17Z</time>
      </trkpt>
      <trkpt lat="47.97239" lon="2.28788">
        <ele>136</ele>
        <time>2017-04-30T08:22:19Z</time>
      </trkpt>
      <trkpt lat="47.97239" lon="2.28805">
        <ele>136</ele>
        <time>2017-04-30T08:22:21Z</time>
      </trkpt>
      <trkpt lat="47.9724" lon="2.28821">
        <ele>136</ele>
        <time>2017-04-30T08:22:23Z</time>
      </trkpt>
      <trkpt lat="47.9724" lon="2.28821">
        <ele>136</ele>
        <time>2017-04-30T08:22:25Z</time>
      </trkpt>
      <trkpt lat="47.9724" lon="2.28821">
        <ele>136</ele>
        <time>2017-04-30T08:22:27Z</time>
      </trkpt>
      <trkpt lat="47.9724" lon="2.28821">
        <ele>136</ele>
        <time>2017-04-30T08:22:29Z</time>
      </trkpt>
      <trkpt lat="47.9724" lon="2.28821">
        <ele>136</ele>
        <time>2017-04-30T08:22:31Z</time>
      </trkpt>
      <trkpt lat="47.9724" lon="2.28821">
        <ele>136</ele>
        <time>2017-04-30T08:22:33Z</time>
      </trkpt>
      <trkpt lat="47.9724" lon="2.28821">
        <ele>136</ele>
        <time>2017-04-30T08:22:35Z</time>
      </trkpt>
      <trkpt lat="47.9724" lon="2.28821">
        <ele>136</ele>
        <time>2017-04-30T08:22:37Z</time>
      </trkpt>
      <trkpt lat="47.9724" lon="2.28821">
        <ele>136</ele>
        <time>2017-04-30T08:22:39Z</time>
      </trkpt>
      <trkpt lat="47.9724" lon="2.28821">
        <ele>136</ele>
        <time>2017-04-30T08:22:41Z</time>
      </trkpt>
      <trkpt lat="47.9724" lon="2.28821">
        <ele>136</ele>
        <time>2017-04-30T08:22:43Z</time>
      </trkpt>
      <trkpt lat="47.9724" lon="2.28821">
        <ele>136</ele>
        <time>2017-04-30T08:22:45Z</time>
      </trkpt>
      <trkpt lat="47.9724" lon="2.29012">
        <ele>136</ele>
        <time>2017-04-30T08:22:49Z</time>
      </trkpt>
      <trkpt lat="47.97239" lon="2.29026">
        <ele>136</ele>
        <time>2017-04-30T08:22:51Z</time>
      </trkpt>
      <trkpt lat="47.97239" lon="2.29026">
        <ele>136</ele>
        <time>2017-04-30T08:22:53Z</time>
      </trkpt>
      <trkpt lat="47.97239" lon="2.29026">
        <ele>136</ele>
        <time>2017-04-30T08:22:55Z</time>
      </trkpt>
      <trkpt lat="47.97239" lon="2.29026">
        <ele>136</ele>
        <time>2017-04-30T08:22:57Z</time>
      </trkpt>
      <trkpt lat="47.97239" lon="2.29026">
        <ele>136</ele>
        <time>2017-04-30T08:22:59Z</time>
      </trkpt>
      <trkpt lat="47.97239" lon="2.29026">
        <ele>136</ele>
        <time>2017-04-30T08:23:01Z</time>
      </trkpt>
      <trkpt lat="47.97239" lon="2.29026">
        <ele>136</ele>
        <time>2017-04-30T08:23:03Z</time>
      </trkpt>
      <trkpt lat="47.97239" lon="2.29026">
        <ele>136</ele>
        <time>2017-04-30T08:23:05Z</time>
      </trkpt>
      <trkpt lat="47.97238" lon="2.29147">
        <ele>136</ele>
        <time>2017-04-30T08:23:09Z</time>
      </trkpt>
      <trkpt lat="47.97238" lon="2.29161">
        <ele>136</ele>
        <time>2017-04-30T08:23:11Z</time>
      </trkpt>
      <trkpt lat="47.97238" lon="2.29176">
        <ele>136</ele>
        <time>2017-04-30T08:23:13Z</time>
      </trkpt>
      <trkpt lat="47.97238" lon="2.29191">
        <ele>137</ele>
        <time>2017-04-30T08:23:15Z</time>
      </trkpt>
      <trkpt lat="47.97238" lon="2.29207">
        <ele>137</ele>
        <time>2017-04-30T08:23:17Z</time>
      </trkpt>
      <trkpt lat="47.97238" lon="2.29222">
        <ele>137</ele>
        <time>2017-04-30T08:23:19Z</time>
      </trkpt>
      <trkpt lat="47.97238" lon="2.29239">
        <ele>137</ele>
        <time>2017-04-30T08:23:22Z</time>
      </trkpt>
      <trkpt lat="47.97239" lon="2.29255">
        <ele>136</ele>
        <time>2017-04-30T08:23:23Z</time>
      </trkpt>
      <trkpt lat="47.97239" lon="2.29272">
        <ele>135</ele>
        <time>2017-04-30T08:23:25Z</time>
      </trkpt>
      <trkpt lat="47.9724" lon="2.29288">
        <ele>134</ele>
        <time>2017-04-30T08:23:27Z</time>
      </trkpt>
      <trkpt lat="47.9724" lon="2.29304">
        <ele>134</ele>
        <time>2017-04-30T08:23:29Z</time>
      </trkpt>
      <trkpt lat="47.9724" lon="2.2932">
        <ele>134</ele>
        <time>2017-04-30T08:23:31Z</time>
      </trkpt>
      <trkpt lat="47.9724" lon="2.29337">
        <ele>134</ele>
        <time>2017-04-30T08:23:33Z</time>
      </trkpt>
      <trkpt lat="47.9724" lon="2.29353">
        <ele>133</ele>
        <time>2017-04-30T08:23:35Z</time>
      </trkpt>
      <trkpt lat="47.97239" lon="2.29371">
        <ele>132</ele>
        <time>2017-04-30T08:23:37Z</time>
      </trkpt>
      <trkpt lat="47.97239" lon="2.29387">
        <ele>132</ele>
        <time>2017-04-30T08:23:39Z</time>
      </trkpt>
      <trkpt lat="47.97239" lon="2.29403">
        <ele>131</ele>
        <time>2017-04-30T08:23:41Z</time>
      </trkpt>
      <trkpt lat="47.9724" lon="2.29419">
        <ele>132</ele>
        <time>2017-04-30T08:23:43Z</time>
      </trkpt>
      <trkpt lat="47.9724" lon="2.29419">
        <ele>132</ele>
        <time>2017-04-30T08:23:45Z</time>
      </trkpt>
      <trkpt lat="47.9724" lon="2.29419">
        <ele>132</ele>
        <time>2017-04-30T08:23:49Z</time>
      </trkpt>
      <trkpt lat="47.9724" lon="2.29419">
        <ele>132</ele>
        <time>2017-04-30T08:23:51Z</time>
      </trkpt>
      <trkpt lat="47.9724" lon="2.29419">
        <ele>132</ele>
        <time>2017-04-30T08:23:53Z</time>
      </trkpt>
      <trkpt lat="47.9724" lon="2.29419">
        <ele>132</ele>
        <time>2017-04-30T08:23:55Z</time>
      </trkpt>
      <trkpt lat="47.9724" lon="2.29419">
        <ele>132</ele>
        <time>2017-04-30T08:23:57Z</time>
      </trkpt>
      <trkpt lat="47.97239" lon="2.29529">
        <ele>133</ele>
        <time>2017-04-30T08:24:01Z</time>
      </trkpt>
      <trkpt lat="47.9723" lon="2.2955">
        <ele>132</ele>
        <time>2017-04-30T08:24:05Z</time>
      </trkpt>
      <trkpt lat="47.97223" lon="2.29559">
        <ele>131</ele>
        <time>2017-04-30T08:24:07Z</time>
      </trkpt>
      <trkpt lat="47.97216" lon="2.2957">
        <ele>131</ele>
        <time>2017-04-30T08:24:09Z</time>
      </trkpt>
      <trkpt lat="47.9721" lon="2.29581">
        <ele>130</ele>
        <time>2017-04-30T08:24:11Z</time>
      </trkpt>
      <trkpt lat="47.97203" lon="2.29592">
        <ele>130</ele>
        <time>2017-04-30T08:24:13Z</time>
      </trkpt>
      <trkpt lat="47.97196" lon="2.29604">
        <ele>131</ele>
        <time>2017-04-30T08:24:15Z</time>
      </trkpt>
      <trkpt lat="47.97187" lon="2.29616">
        <ele>130</ele>
        <time>2017-04-30T08:24:17Z</time>
      </trkpt>
      <trkpt lat="47.9718" lon="2.29628">
        <ele>130</ele>
        <time>2017-04-30T08:24:19Z</time>
      </trkpt>
      <trkpt lat="47.97173" lon="2.29639">
        <ele>131</ele>
        <time>2017-04-30T08:24:21Z</time>
      </trkpt>
      <trkpt lat="47.97173" lon="2.29639">
        <ele>131</ele>
        <time>2017-04-30T08:24:23Z</time>
      </trkpt>
      <trkpt lat="47.97173" lon="2.29639">
        <ele>131</ele>
        <time>2017-04-30T08:24:25Z</time>
      </trkpt>
      <trkpt lat="47.97173" lon="2.29639">
        <ele>131</ele>
        <time>2017-04-30T08:24:27Z</time>
      </trkpt>
      <trkpt lat="47.97173" lon="2.29639">
        <ele>131</ele>
        <time>2017-04-30T08:24:29Z</time>
      </trkpt>
      <trkpt lat="47.97173" lon="2.29639">
        <ele>131</ele>
        <time>2017-04-30T08:24:31Z</time>
      </trkpt>
      <trkpt lat="47.97133" lon="2.29636">
        <ele>124</ele>
        <time>2017-04-30T08:24:42Z</time>
      </trkpt>
      <trkpt lat="47.97126" lon="2.29625">
        <ele>123</ele>
        <time>2017-04-30T08:24:44Z</time>
      </trkpt>
      <trkpt lat="47.97119" lon="2.29615">
        <ele>122</ele>
        <time>2017-04-30T08:24:46Z</time>
      </trkpt>
      <trkpt lat="47.97119" lon="2.29615">
        <ele>122</ele>
        <time>2017-04-30T08:24:48Z</time>
      </trkpt>
      <trkpt lat="47.97119" lon="2.29615">
        <ele>122</ele>
        <time>2017-04-30T08:24:50Z</time>
      </trkpt>
      <trkpt lat="47.97119" lon="2.29615">
        <ele>122</ele>
        <time>2017-04-30T08:24:52Z</time>
      </trkpt>
      <trkpt lat="47.97119" lon="2.29615">
        <ele>122</ele>
        <time>2017-04-30T08:24:54Z</time>
      </trkpt>
      <trkpt lat="47.97119" lon="2.29615">
        <ele>122</ele>
        <time>2017-04-30T08:25:05Z</time>
      </trkpt>
      <trkpt lat="47.97119" lon="2.29615">
        <ele>122</ele>
        <time>2017-04-30T08:25:06Z</time>
      </trkpt>
      <trkpt lat="47.97119" lon="2.29615">
        <ele>122</ele>
        <time>2017-04-30T08:25:08Z</time>
      </trkpt>
      <trkpt lat="47.97119" lon="2.29615">
        <ele>122</ele>
        <time>2017-04-30T08:25:10Z</time>
      </trkpt>
      <trkpt lat="47.97119" lon="2.29615">
        <ele>122</ele>
        <time>2017-04-30T08:25:12Z</time>
      </trkpt>
      <trkpt lat="47.97058" lon="2.29466">
        <ele>117</ele>
        <time>2017-04-30T08:25:16Z</time>
      </trkpt>
      <trkpt lat="47.9705" lon="2.29457">
        <ele>118</ele>
        <time>2017-04-30T08:25:18Z</time>
      </trkpt>
      <trkpt lat="47.97037" lon="2.29439">
        <ele>118</ele>
        <time>2017-04-30T08:25:22Z</time>
      </trkpt>
      <trkpt lat="47.97037" lon="2.29439">
        <ele>118</ele>
        <time>2017-04-30T08:25:24Z</time>
      </trkpt>
      <trkpt lat="47.97037" lon="2.29439">
        <ele>118</ele>
        <time>2017-04-30T08:25:26Z</time>
      </trkpt>
      <trkpt lat="47.97037" lon="2.29439">
        <ele>118</ele>
        <time>2017-04-30T08:25:28Z</time>
      </trkpt>
      <trkpt lat="47.97037" lon="2.29439">
        <ele>118</ele>
        <time>2017-04-30T08:25:31Z</time>
      </trkpt>
      <trkpt lat="47.97037" lon="2.29439">
        <ele>118</ele>
        <time>2017-04-30T08:25:32Z</time>
      </trkpt>
      <trkpt lat="47.97013" lon="2.2936">
        <ele>126</ele>
        <time>2017-04-30T08:25:36Z</time>
      </trkpt>
      <trkpt lat="47.97005" lon="2.29352">
        <ele>126</ele>
        <time>2017-04-30T08:25:38Z</time>
      </trkpt>
      <trkpt lat="47.96996" lon="2.29347">
        <ele>127</ele>
        <time>2017-04-30T08:25:40Z</time>
      </trkpt>
      <trkpt lat="47.96996" lon="2.29347">
        <ele>127</ele>
        <time>2017-04-30T08:25:42Z</time>
      </trkpt>
      <trkpt lat="47.96996" lon="2.29347">
        <ele>127</ele>
        <time>2017-04-30T08:25:44Z</time>
      </trkpt>
      <trkpt lat="47.96996" lon="2.29347">
        <ele>127</ele>
        <time>2017-04-30T08:25:46Z</time>
      </trkpt>
      <trkpt lat="47.96996" lon="2.29347">
        <ele>127</ele>
        <time>2017-04-30T08:25:48Z</time>
      </trkpt>
      <trkpt lat="47.96996" lon="2.29347">
        <ele>127</ele>
        <time>2017-04-30T08:25:50Z</time>
      </trkpt>
      <trkpt lat="47.96947" lon="2.29328">
        <ele>128</ele>
        <time>2017-04-30T08:25:54Z</time>
      </trkpt>
      <trkpt lat="47.96947" lon="2.29328">
        <ele>128</ele>
        <time>2017-04-30T08:25:56Z</time>
      </trkpt>
      <trkpt lat="47.96947" lon="2.29328">
        <ele>128</ele>
        <time>2017-04-30T08:25:58Z</time>
      </trkpt>
      <trkpt lat="47.96933" lon="2.2932">
        <ele>126</ele>
        <time>2017-04-30T08:26:02Z</time>
      </trkpt>
      <trkpt lat="47.96922" lon="2.29315">
        <ele>125</ele>
        <time>2017-04-30T08:26:05Z</time>
      </trkpt>
      <trkpt lat="47.96913" lon="2.29311">
        <ele>125</ele>
        <time>2017-04-30T08:26:06Z</time>
      </trkpt>
      <trkpt lat="47.96913" lon="2.29311">
        <ele>125</ele>
        <time>2017-04-30T08:26:08Z</time>
      </trkpt>
      <trkpt lat="47.96903" lon="2.29302">
        <ele>127</ele>
        <time>2017-04-30T08:26:10Z</time>
      </trkpt>
      <trkpt lat="47.96895" lon="2.29292">
        <ele>127</ele>
        <time>2017-04-30T08:26:12Z</time>
      </trkpt>
      <trkpt lat="47.96888" lon="2.29281">
        <ele>128</ele>
        <time>2017-04-30T08:26:14Z</time>
      </trkpt>
      <trkpt lat="47.96881" lon="2.2927">
        <ele>129</ele>
        <time>2017-04-30T08:26:16Z</time>
      </trkpt>
      <trkpt lat="47.96877" lon="2.29261">
        <ele>130</ele>
        <time>2017-04-30T08:26:18Z</time>
      </trkpt>
      <trkpt lat="47.96877" lon="2.29261">
        <ele>130</ele>
        <time>2017-04-30T08:26:20Z</time>
      </trkpt>
      <trkpt lat="47.96856" lon="2.29209">
        <ele>133</ele>
        <time>2017-04-30T08:26:24Z</time>
      </trkpt>
      <trkpt lat="47.9685" lon="2.29196">
        <ele>134</ele>
        <time>2017-04-30T08:26:26Z</time>
      </trkpt>
      <trkpt lat="47.96843" lon="2.29183">
        <ele>134</ele>
        <time>2017-04-30T08:26:28Z</time>
      </trkpt>
      <trkpt lat="47.96836" lon="2.29171">
        <ele>134</ele>
        <time>2017-04-30T08:26:30Z</time>
      </trkpt>
      <trkpt lat="47.96829" lon="2.29158">
        <ele>134</ele>
        <time>2017-04-30T08:26:32Z</time>
      </trkpt>
      <trkpt lat="47.96822" lon="2.29146">
        <ele>134</ele>
        <time>2017-04-30T08:26:34Z</time>
      </trkpt>
      <trkpt lat="47.96822" lon="2.29146">
        <ele>134</ele>
        <time>2017-04-30T08:26:36Z</time>
      </trkpt>
      <trkpt lat="47.96822" lon="2.29146">
        <ele>134</ele>
        <time>2017-04-30T08:26:38Z</time>
      </trkpt>
      <trkpt lat="47.96798" lon="2.29113">
        <ele>134</ele>
        <time>2017-04-30T08:26:40Z</time>
      </trkpt>
      <trkpt lat="47.9679" lon="2.29102">
        <ele>134</ele>
        <time>2017-04-30T08:26:42Z</time>
      </trkpt>
      <trkpt lat="47.96781" lon="2.29093">
        <ele>133</ele>
        <time>2017-04-30T08:26:44Z</time>
      </trkpt>
      <trkpt lat="47.96772" lon="2.29083">
        <ele>133</ele>
        <time>2017-04-30T08:26:46Z</time>
      </trkpt>
      <trkpt lat="47.96763" lon="2.29074">
        <ele>133</ele>
        <time>2017-04-30T08:26:48Z</time>
      </trkpt>
      <trkpt lat="47.96754" lon="2.29065">
        <ele>133</ele>
        <time>2017-04-30T08:26:50Z</time>
      </trkpt>
      <trkpt lat="47.96754" lon="2.29065">
        <ele>133</ele>
        <time>2017-04-30T08:26:52Z</time>
      </trkpt>
      <trkpt lat="47.96754" lon="2.29065">
        <ele>133</ele>
        <time>2017-04-30T08:26:54Z</time>
      </trkpt>
      <trkpt lat="47.96754" lon="2.29065">
        <ele>133</ele>
        <time>2017-04-30T08:26:56Z</time>
      </trkpt>
      <trkpt lat="47.96754" lon="2.29065">
        <ele>133</ele>
        <time>2017-04-30T08:26:58Z</time>
      </trkpt>
      <trkpt lat="47.96754" lon="2.29065">
        <ele>133</ele>
        <time>2017-04-30T08:27:00Z</time>
      </trkpt>
      <trkpt lat="47.96754" lon="2.29065">
        <ele>133</ele>
        <time>2017-04-30T08:27:02Z</time>
      </trkpt>
      <trkpt lat="47.96754" lon="2.29065">
        <ele>133</ele>
        <time>2017-04-30T08:27:05Z</time>
      </trkpt>
      <trkpt lat="47.96677" lon="2.29014">
        <ele>132</ele>
        <time>2017-04-30T08:27:08Z</time>
      </trkpt>
      <trkpt lat="47.96677" lon="2.29014">
        <ele>132</ele>
        <time>2017-04-30T08:27:10Z</time>
      </trkpt>
      <trkpt lat="47.96677" lon="2.29014">
        <ele>132</ele>
        <time>2017-04-30T08:27:13Z</time>
      </trkpt>
      <trkpt lat="47.96677" lon="2.29014">
        <ele>132</ele>
        <time>2017-04-30T08:27:14Z</time>
      </trkpt>
      <trkpt lat="47.96677" lon="2.29014">
        <ele>132</ele>
        <time>2017-04-30T08:27:18Z</time>
      </trkpt>
      <trkpt lat="47.96677" lon="2.29014">
        <ele>132</ele>
        <time>2017-04-30T08:27:20Z</time>
      </trkpt>
      <trkpt lat="47.96677" lon="2.29014">
        <ele>132</ele>
        <time>2017-04-30T08:27:22Z</time>
      </trkpt>
      <trkpt lat="47.96626" lon="2.29076">
        <ele>128</ele>
        <time>2017-04-30T08:27:24Z</time>
      </trkpt>
      <trkpt lat="47.96615" lon="2.29082">
        <ele>128</ele>
        <time>2017-04-30T08:27:26Z</time>
      </trkpt>
      <trkpt lat="47.96606" lon="2.29087">
        <ele>127</ele>
        <time>2017-04-30T08:27:28Z</time>
      </trkpt>
      <trkpt lat="47.96597" lon="2.29092">
        <ele>127</ele>
        <time>2017-04-30T08:27:30Z</time>
      </trkpt>
      <trkpt lat="47.96586" lon="2.29096">
        <ele>127</ele>
        <time>2017-04-30T08:27:32Z</time>
      </trkpt>
      <trkpt lat="47.96586" lon="2.29096">
        <ele>127</ele>
        <time>2017-04-30T08:27:34Z</time>
      </trkpt>
      <trkpt lat="47.96555" lon="2.29104">
        <ele>125</ele>
        <time>2017-04-30T08:27:38Z</time>
      </trkpt>
      <trkpt lat="47.96544" lon="2.29106">
        <ele>124</ele>
        <time>2017-04-30T08:27:40Z</time>
      </trkpt>
      <trkpt lat="47.96532" lon="2.29107">
        <ele>124</ele>
        <time>2017-04-30T08:27:42Z</time>
      </trkpt>
      <trkpt lat="47.96522" lon="2.29107">
        <ele>124</ele>
        <time>2017-04-30T08:27:44Z</time>
      </trkpt>
      <trkpt lat="47.96512" lon="2.29107">
        <ele>125</ele>
        <time>2017-04-30T08:27:46Z</time>
      </trkpt>
      <trkpt lat="47.96501" lon="2.29106">
        <ele>126</ele>
        <time>2017-04-30T08:27:48Z</time>
      </trkpt>
      <trkpt lat="47.9649" lon="2.29107">
        <ele>126</ele>
        <time>2017-04-30T08:27:50Z</time>
      </trkpt>
      <trkpt lat="47.9648" lon="2.29106">
        <ele>125</ele>
        <time>2017-04-30T08:27:52Z</time>
      </trkpt>
      <trkpt lat="47.96469" lon="2.29104">
        <ele>125</ele>
        <time>2017-04-30T08:27:54Z</time>
      </trkpt>
      <trkpt lat="47.96458" lon="2.29102">
        <ele>125</ele>
        <time>2017-04-30T08:27:56Z</time>
      </trkpt>
      <trkpt lat="47.96448" lon="2.29099">
        <ele>126</ele>
        <time>2017-04-30T08:27:58Z</time>
      </trkpt>
      <trkpt lat="47.96448" lon="2.29099">
        <ele>126</ele>
        <time>2017-04-30T08:28:00Z</time>
      </trkpt>
      <trkpt lat="47.96448" lon="2.29099">
        <ele>126</ele>
        <time>2017-04-30T08:28:02Z</time>
      </trkpt>
      <trkpt lat="47.96448" lon="2.29099">
        <ele>126</ele>
        <time>2017-04-30T08:28:05Z</time>
      </trkpt>
      <trkpt lat="47.96397" lon="2.29099">
        <ele>125</ele>
        <time>2017-04-30T08:28:08Z</time>
      </trkpt>
      <trkpt lat="47.96397" lon="2.29099">
        <ele>125</ele>
        <time>2017-04-30T08:28:10Z</time>
      </trkpt>
      <trkpt lat="47.96397" lon="2.29099">
        <ele>125</ele>
        <time>2017-04-30T08:28:12Z</time>
      </trkpt>
      <trkpt lat="47.96369" lon="2.29121">
        <ele>121</ele>
        <time>2017-04-30T08:28:14Z</time>
      </trkpt>
      <trkpt lat="47.96361" lon="2.2913">
        <ele>121</ele>
        <time>2017-04-30T08:28:16Z</time>
      </trkpt>
      <trkpt lat="47.96354" lon="2.2914">
        <ele>120</ele>
        <time>2017-04-30T08:28:18Z</time>
      </trkpt>
      <trkpt lat="47.96354" lon="2.2914">
        <ele>120</ele>
        <time>2017-04-30T08:28:20Z</time>
      </trkpt>
      <trkpt lat="47.96354" lon="2.2914">
        <ele>120</ele>
        <time>2017-04-30T08:28:22Z</time>
      </trkpt>
      <trkpt lat="47.96354" lon="2.2914">
        <ele>120</ele>
        <time>2017-04-30T08:28:24Z</time>
      </trkpt>
      <trkpt lat="47.96354" lon="2.2914">
        <ele>120</ele>
        <time>2017-04-30T08:28:26Z</time>
      </trkpt>
      <trkpt lat="47.96354" lon="2.2914">
        <ele>120</ele>
        <time>2017-04-30T08:28:28Z</time>
      </trkpt>
      <trkpt lat="47.96354" lon="2.2914">
        <ele>120</ele>
        <time>2017-04-30T08:28:30Z</time>
      </trkpt>
      <trkpt lat="47.96354" lon="2.2914">
        <ele>120</ele>
        <time>2017-04-30T08:28:32Z</time>
      </trkpt>
      <trkpt lat="47.96337" lon="2.2917">
        <ele>124</ele>
        <time>2017-04-30T08:28:38Z</time>
      </trkpt>
      <trkpt lat="47.96323" lon="2.29187">
        <ele>124</ele>
        <time>2017-04-30T08:28:40Z</time>
      </trkpt>
      <trkpt lat="47.96311" lon="2.29196">
        <ele>123</ele>
        <time>2017-04-30T08:28:42Z</time>
      </trkpt>
      <trkpt lat="47.96299" lon="2.29202">
        <ele>123</ele>
        <time>2017-04-30T08:28:44Z</time>
      </trkpt>
      <trkpt lat="47.96287" lon="2.29205">
        <ele>123</ele>
        <time>2017-04-30T08:28:46Z</time>
      </trkpt>
      <trkpt lat="47.96264" lon="2.29209">
        <ele>123</ele>
        <time>2017-04-30T08:28:48Z</time>
      </trkpt>
      <trkpt lat="47.96253" lon="2.29211">
        <ele>123</ele>
        <time>2017-04-30T08:28:50Z</time>
      </trkpt>
      <trkpt lat="47.96242" lon="2.29212">
        <ele>122</ele>
        <time>2017-04-30T08:28:52Z</time>
      </trkpt>
      <trkpt lat="47.9623" lon="2.29213">
        <ele>122</ele>
        <time>2017-04-30T08:28:54Z</time>
      </trkpt>
      <trkpt lat="47.96218" lon="2.29214">
        <ele>121</ele>
        <time>2017-04-30T08:28:56Z</time>
      </trkpt>
      <trkpt lat="47.96206" lon="2.29215">
        <ele>121</ele>
        <time>2017-04-30T08:28:59Z</time>
      </trkpt>
      <trkpt lat="47.96193" lon="2.29215">
        <ele>121</ele>
        <time>2017-04-30T08:29:00Z</time>
      </trkpt>
      <trkpt lat="47.96181" lon="2.29217">
        <ele>122</ele>
        <time>2017-04-30T08:29:02Z</time>
      </trkpt>
      <trkpt lat="47.96169" lon="2.29218">
        <ele>121</ele>
        <time>2017-04-30T08:29:04Z</time>
      </trkpt>
      <trkpt lat="47.96156" lon="2.2922">
        <ele>121</ele>
        <time>2017-04-30T08:29:06Z</time>
      </trkpt>
      <trkpt lat="47.96144" lon="2.29222">
        <ele>121</ele>
        <time>2017-04-30T08:29:08Z</time>
      </trkpt>
      <trkpt lat="47.96132" lon="2.29223">
        <ele>121</ele>
        <time>2017-04-30T08:29:10Z</time>
      </trkpt>
      <trkpt lat="47.96118" lon="2.29222">
        <ele>122</ele>
        <time>2017-04-30T08:29:12Z</time>
      </trkpt>
      <trkpt lat="47.96105" lon="2.2922">
        <ele>121</ele>
        <time>2017-04-30T08:29:14Z</time>
      </trkpt>
      <trkpt lat="47.96092" lon="2.29216">
        <ele>121</ele>
        <time>2017-04-30T08:29:16Z</time>
      </trkpt>
      <trkpt lat="47.96079" lon="2.29211">
        <ele>121</ele>
        <time>2017-04-30T08:29:18Z</time>
      </trkpt>
      <trkpt lat="47.96066" lon="2.29207">
        <ele>121</ele>
        <time>2017-04-30T08:29:20Z</time>
      </trkpt>
      <trkpt lat="47.96053" lon="2.29203">
        <ele>122</ele>
        <time>2017-04-30T08:29:22Z</time>
      </trkpt>
      <trkpt lat="47.9604" lon="2.29199">
        <ele>123</ele>
        <time>2017-04-30T08:29:25Z</time>
      </trkpt>
      <trkpt lat="47.96027" lon="2.29194">
        <ele>123</ele>
        <time>2017-04-30T08:29:26Z</time>
      </trkpt>
      <trkpt lat="47.96014" lon="2.29189">
        <ele>123</ele>
        <time>2017-04-30T08:29:28Z</time>
      </trkpt>
      <trkpt lat="47.96002" lon="2.29183">
        <ele>123</ele>
        <time>2017-04-30T08:29:30Z</time>
      </trkpt>
      <trkpt lat="47.9599" lon="2.29176">
        <ele>123</ele>
        <time>2017-04-30T08:29:32Z</time>
      </trkpt>
      <trkpt lat="47.95978" lon="2.29166">
        <ele>123</ele>
        <time>2017-04-30T08:29:34Z</time>
      </trkpt>
      <trkpt lat="47.95967" lon="2.29156">
        <ele>123</ele>
        <time>2017-04-30T08:29:36Z</time>
      </trkpt>
      <trkpt lat="47.95957" lon="2.29146">
        <ele>124</ele>
        <time>2017-04-30T08:29:38Z</time>
      </trkpt>
      <trkpt lat="47.95947" lon="2.29135">
        <ele>124</ele>
        <time>2017-04-30T08:29:40Z</time>
      </trkpt>
      <trkpt lat="47.95935" lon="2.29126">
        <ele>125</ele>
        <time>2017-04-30T08:29:42Z</time>
      </trkpt>
      <trkpt lat="47.95924" lon="2.29117">
        <ele>125</ele>
        <time>2017-04-30T08:29:45Z</time>
      </trkpt>
      <trkpt lat="47.95912" lon="2.2911">
        <ele>125</ele>
        <time>2017-04-30T08:29:46Z</time>
      </trkpt>
      <trkpt lat="47.959" lon="2.29102">
        <ele>125</ele>
        <time>2017-04-30T08:29:48Z</time>
      </trkpt>
      <trkpt lat="47.95888" lon="2.29095">
        <ele>125</ele>
        <time>2017-04-30T08:29:50Z</time>
      </trkpt>
      <trkpt lat="47.95876" lon="2.29086">
        <ele>124</ele>
        <time>2017-04-30T08:29:52Z</time>
      </trkpt>
      <trkpt lat="47.95864" lon="2.29074">
        <ele>124</ele>
        <time>2017-04-30T08:29:54Z</time>
      </trkpt>
      <trkpt lat="47.95853" lon="2.29061">
        <ele>124</ele>
        <time>2017-04-30T08:29:56Z</time>
      </trkpt>
      <trkpt lat="47.95843" lon="2.29047">
        <ele>125</ele>
        <time>2017-04-30T08:29:58Z</time>
      </trkpt>
      <trkpt lat="47.95832" lon="2.29032">
        <ele>125</ele>
        <time>2017-04-30T08:30:00Z</time>
      </trkpt>
      <trkpt lat="47.95822" lon="2.29017">
        <ele>125</ele>
        <time>2017-04-30T08:30:02Z</time>
      </trkpt>
      <trkpt lat="47.95812" lon="2.29002">
        <ele>125</ele>
        <time>2017-04-30T08:30:04Z</time>
      </trkpt>
      <trkpt lat="47.95803" lon="2.28987">
        <ele>125</ele>
        <time>2017-04-30T08:30:06Z</time>
      </trkpt>
      <trkpt lat="47.95795" lon="2.28971">
        <ele>125</ele>
        <time>2017-04-30T08:30:08Z</time>
      </trkpt>
      <trkpt lat="47.95788" lon="2.28953">
        <ele>125</ele>
        <time>2017-04-30T08:30:10Z</time>
      </trkpt>
      <trkpt lat="47.95787" lon="2.28932">
        <ele>126</ele>
        <time>2017-04-30T08:30:12Z</time>
      </trkpt>
      <trkpt lat="47.95789" lon="2.28912">
        <ele>125</ele>
        <time>2017-04-30T08:30:15Z</time>
      </trkpt>
      <trkpt lat="47.95791" lon="2.28891">
        <ele>125</ele>
        <time>2017-04-30T08:30:16Z</time>
      </trkpt>
      <trkpt lat="47.95793" lon="2.2887">
        <ele>125</ele>
        <time>2017-04-30T08:30:18Z</time>
      </trkpt>
      <trkpt lat="47.95796" lon="2.28849">
        <ele>125</ele>
        <time>2017-04-30T08:30:20Z</time>
      </trkpt>
      <trkpt lat="47.95798" lon="2.28828">
        <ele>125</ele>
        <time>2017-04-30T08:30:22Z</time>
      </trkpt>
      <trkpt lat="47.958" lon="2.28807">
        <ele>125</ele>
        <time>2017-04-30T08:30:24Z</time>
      </trkpt>
      <trkpt lat="47.95802" lon="2.28786">
        <ele>125</ele>
        <time>2017-04-30T08:30:26Z</time>
      </trkpt>
      <trkpt lat="47.95804" lon="2.28765">
        <ele>125</ele>
        <time>2017-04-30T08:30:28Z</time>
      </trkpt>
      <trkpt lat="47.95806" lon="2.28745">
        <ele>125</ele>
        <time>2017-04-30T08:30:30Z</time>
      </trkpt>
      <trkpt lat="47.95808" lon="2.28725">
        <ele>125</ele>
        <time>2017-04-30T08:30:32Z</time>
      </trkpt>
      <trkpt lat="47.9581" lon="2.28705">
        <ele>125</ele>
        <time>2017-04-30T08:30:34Z</time>
      </trkpt>
      <trkpt lat="47.95812" lon="2.28684">
        <ele>125</ele>
        <time>2017-04-30T08:30:36Z</time>
      </trkpt>
      <trkpt lat="47.95815" lon="2.28663">
        <ele>124</ele>
        <time>2017-04-30T08:30:38Z</time>
      </trkpt>
      <trkpt lat="47.95816" lon="2.28642">
        <ele>124</ele>
        <time>2017-04-30T08:30:40Z</time>
      </trkpt>
      <trkpt lat="47.95818" lon="2.28622">
        <ele>123</ele>
        <time>2017-04-30T08:30:42Z</time>
      </trkpt>
      <trkpt lat="47.95819" lon="2.28603">
        <ele>123</ele>
        <time>2017-04-30T08:30:44Z</time>
      </trkpt>
      <trkpt lat="47.9582" lon="2.28584">
        <ele>124</ele>
        <time>2017-04-30T08:30:46Z</time>
      </trkpt>
      <trkpt lat="47.95818" lon="2.28565">
        <ele>123</ele>
        <time>2017-04-30T08:30:48Z</time>
      </trkpt>
      <trkpt lat="47.95814" lon="2.28547">
        <ele>122</ele>
        <time>2017-04-30T08:30:50Z</time>
      </trkpt>
      <trkpt lat="47.95812" lon="2.28532">
        <ele>121</ele>
        <time>2017-04-30T08:30:52Z</time>
      </trkpt>
      <trkpt lat="47.95812" lon="2.28532">
        <ele>121</ele>
        <time>2017-04-30T08:30:54Z</time>
      </trkpt>
      <trkpt lat="47.95812" lon="2.28532">
        <ele>121</ele>
        <time>2017-04-30T08:30:56Z</time>
      </trkpt>
      <trkpt lat="47.95812" lon="2.28532">
        <ele>121</ele>
        <time>2017-04-30T08:30:58Z</time>
      </trkpt>
      <trkpt lat="47.95792" lon="2.28466">
        <ele>122</ele>
        <time>2017-04-30T08:31:02Z</time>
      </trkpt>
      <trkpt lat="47.95787" lon="2.2845">
        <ele>122</ele>
        <time>2017-04-30T08:31:04Z</time>
      </trkpt>
      <trkpt lat="47.95782" lon="2.28435">
        <ele>122</ele>
        <time>2017-04-30T08:31:06Z</time>
      </trkpt>
      <trkpt lat="47.95778" lon="2.28419">
        <ele>123</ele>
        <time>2017-04-30T08:31:08Z</time>
      </trkpt>
      <trkpt lat="47.95774" lon="2.28403">
        <ele>123</ele>
        <time>2017-04-30T08:31:10Z</time>
      </trkpt>
      <trkpt lat="47.95771" lon="2.28386">
        <ele>124</ele>
        <time>2017-04-30T08:31:12Z</time>
      </trkpt>
      <trkpt lat="47.95766" lon="2.2837">
        <ele>124</ele>
        <time>2017-04-30T08:31:14Z</time>
      </trkpt>
      <trkpt lat="47.95761" lon="2.28353">
        <ele>125</ele>
        <time>2017-04-30T08:31:16Z</time>
      </trkpt>
      <trkpt lat="47.95757" lon="2.28337">
        <ele>126</ele>
        <time>2017-04-30T08:31:18Z</time>
      </trkpt>
      <trkpt lat="47.95753" lon="2.28321">
        <ele>126</ele>
        <time>2017-04-30T08:31:20Z</time>
      </trkpt>
      <trkpt lat="47.95749" lon="2.28306">
        <ele>127</ele>
        <time>2017-04-30T08:31:22Z</time>
      </trkpt>
      <trkpt lat="47.95744" lon="2.28291">
        <ele>127</ele>
        <time>2017-04-30T08:31:25Z</time>
      </trkpt>
      <trkpt lat="47.9574" lon="2.28276">
        <ele>128</ele>
        <time>2017-04-30T08:31:27Z</time>
      </trkpt>
      <trkpt lat="47.95734" lon="2.28259">
        <ele>127</ele>
        <time>2017-04-30T08:31:29Z</time>
      </trkpt>
      <trkpt lat="47.9573" lon="2.28243">
        <ele>128</ele>
        <time>2017-04-30T08:31:31Z</time>
      </trkpt>
      <trkpt lat="47.95726" lon="2.28226">
        <ele>127</ele>
        <time>2017-04-30T08:31:33Z</time>
      </trkpt>
      <trkpt lat="47.95721" lon="2.28209">
        <ele>127</ele>
        <time>2017-04-30T08:31:35Z</time>
      </trkpt>
      <trkpt lat="47.95717" lon="2.28192">
        <ele>127</ele>
        <time>2017-04-30T08:31:37Z</time>
      </trkpt>
      <trkpt lat="47.95714" lon="2.28176">
        <ele>127</ele>
        <time>2017-04-30T08:31:39Z</time>
      </trkpt>
      <trkpt lat="47.9571" lon="2.2816">
        <ele>127</ele>
        <time>2017-04-30T08:31:41Z</time>
      </trkpt>
      <trkpt lat="47.95706" lon="2.28144">
        <ele>128</ele>
        <time>2017-04-30T08:31:43Z</time>
      </trkpt>
      <trkpt lat="47.95706" lon="2.28144">
        <ele>128</ele>
        <time>2017-04-30T08:31:45Z</time>
      </trkpt>
      <trkpt lat="47.95706" lon="2.28144">
        <ele>128</ele>
        <time>2017-04-30T08:31:47Z</time>
      </trkpt>
      <trkpt lat="47.95706" lon="2.28144">
        <ele>128</ele>
        <time>2017-04-30T08:31:49Z</time>
      </trkpt>
      <trkpt lat="47.95706" lon="2.28144">
        <ele>128</ele>
        <time>2017-04-30T08:31:51Z</time>
      </trkpt>
      <trkpt lat="47.95684" lon="2.28056">
        <ele>125</ele>
        <time>2017-04-30T08:31:55Z</time>
      </trkpt>
      <trkpt lat="47.95679" lon="2.2804">
        <ele>125</ele>
        <time>2017-04-30T08:31:57Z</time>
      </trkpt>
      <trkpt lat="47.95675" lon="2.28026">
        <ele>125</ele>
        <time>2017-04-30T08:31:59Z</time>
      </trkpt>
      <trkpt lat="47.9567" lon="2.28011">
        <ele>126</ele>
        <time>2017-04-30T08:32:01Z</time>
      </trkpt>
      <trkpt lat="47.95666" lon="2.27995">
        <ele>126</ele>
        <time>2017-04-30T08:32:03Z</time>
      </trkpt>
      <trkpt lat="47.95666" lon="2.27995">
        <ele>126</ele>
        <time>2017-04-30T08:32:05Z</time>
      </trkpt>
      <trkpt lat="47.95666" lon="2.27995">
        <ele>126</ele>
        <time>2017-04-30T08:32:07Z</time>
      </trkpt>
      <trkpt lat="47.95666" lon="2.27995">
        <ele>126</ele>
        <time>2017-04-30T08:32:09Z</time>
      </trkpt>
      <trkpt lat="47.95666" lon="2.27995">
        <ele>126</ele>
        <time>2017-04-30T08:32:11Z</time>
      </trkpt>
      <trkpt lat="47.95682" lon="2.27916">
        <ele>126</ele>
        <time>2017-04-30T08:32:17Z</time>
      </trkpt>
      <trkpt lat="47.95687" lon="2.27902">
        <ele>127</ele>
        <time>2017-04-30T08:32:19Z</time>
      </trkpt>
      <trkpt lat="47.95691" lon="2.27889">
        <ele>127</ele>
        <time>2017-04-30T08:32:21Z</time>
      </trkpt>
      <trkpt lat="47.95691" lon="2.27889">
        <ele>127</ele>
        <time>2017-04-30T08:32:23Z</time>
      </trkpt>
      <trkpt lat="47.95691" lon="2.27889">
        <ele>127</ele>
        <time>2017-04-30T08:32:25Z</time>
      </trkpt>
      <trkpt lat="47.95691" lon="2.27889">
        <ele>127</ele>
        <time>2017-04-30T08:32:27Z</time>
      </trkpt>
      <trkpt lat="47.95691" lon="2.27889">
        <ele>127</ele>
        <time>2017-04-30T08:32:29Z</time>
      </trkpt>
      <trkpt lat="47.95691" lon="2.27889">
        <ele>127</ele>
        <time>2017-04-30T08:32:37Z</time>
      </trkpt>
      <trkpt lat="47.95691" lon="2.27889">
        <ele>127</ele>
        <time>2017-04-30T08:32:39Z</time>
      </trkpt>
      <trkpt lat="47.95744" lon="2.27788">
        <ele>136</ele>
        <time>2017-04-30T08:32:43Z</time>
      </trkpt>
      <trkpt lat="47.9576" lon="2.27781">
        <ele>139</ele>
        <time>2017-04-30T08:32:47Z</time>
      </trkpt>
      <trkpt lat="47.9576" lon="2.27781">
        <ele>139</ele>
        <time>2017-04-30T08:32:49Z</time>
      </trkpt>
      <trkpt lat="47.9576" lon="2.27781">
        <ele>139</ele>
        <time>2017-04-30T08:32:51Z</time>
      </trkpt>
      <trkpt lat="47.9576" lon="2.27781">
        <ele>139</ele>
        <time>2017-04-30T08:32:53Z</time>
      </trkpt>
      <trkpt lat="47.95761" lon="2.27753">
        <ele>143</ele>
        <time>2017-04-30T08:32:57Z</time>
      </trkpt>
      <trkpt lat="47.95762" lon="2.27734">
        <ele>143</ele>
        <time>2017-04-30T08:32:59Z</time>
      </trkpt>
      <trkpt lat="47.95762" lon="2.27734">
        <ele>143</ele>
        <time>2017-04-30T08:33:01Z</time>
      </trkpt>
      <trkpt lat="47.95762" lon="2.27734">
        <ele>143</ele>
        <time>2017-04-30T08:33:03Z</time>
      </trkpt>
      <trkpt lat="47.95762" lon="2.27734">
        <ele>143</ele>
        <time>2017-04-30T08:33:05Z</time>
      </trkpt>
      <trkpt lat="47.95774" lon="2.27708">
        <ele>146</ele>
        <time>2017-04-30T08:33:09Z</time>
      </trkpt>
      <trkpt lat="47.95784" lon="2.27691">
        <ele>147</ele>
        <time>2017-04-30T08:33:11Z</time>
      </trkpt>
      <trkpt lat="47.95792" lon="2.27678">
        <ele>147</ele>
        <time>2017-04-30T08:33:13Z</time>
      </trkpt>
      <trkpt lat="47.958" lon="2.27666">
        <ele>148</ele>
        <time>2017-04-30T08:33:15Z</time>
      </trkpt>
      <trkpt lat="47.95804" lon="2.27653">
        <ele>149</ele>
        <time>2017-04-30T08:33:17Z</time>
      </trkpt>
      <trkpt lat="47.9581" lon="2.27628">
        <ele>150</ele>
        <time>2017-04-30T08:33:19Z</time>
      </trkpt>
      <trkpt lat="47.95816" lon="2.27618">
        <ele>152</ele>
        <time>2017-04-30T08:33:21Z</time>
      </trkpt>
      <trkpt lat="47.95823" lon="2.27607">
        <ele>154</ele>
        <time>2017-04-30T08:33:23Z</time>
      </trkpt>
      <trkpt lat="47.95823" lon="2.27607">
        <ele>154</ele>
        <time>2017-04-30T08:33:25Z</time>
      </trkpt>
      <trkpt lat="47.95823" lon="2.27607">
        <ele>154</ele>
        <time>2017-04-30T08:33:27Z</time>
      </trkpt>
      <trkpt lat="47.9585" lon="2.27571">
        <ele>157</ele>
        <time>2017-04-30T08:33:31Z</time>
      </trkpt>
      <trkpt lat="47.95856" lon="2.27558">
        <ele>159</ele>
        <time>2017-04-30T08:33:33Z</time>
      </trkpt>
      <trkpt lat="47.95858" lon="2.27543">
        <ele>160</ele>
        <time>2017-04-30T08:33:35Z</time>
      </trkpt>
      <trkpt lat="47.95861" lon="2.2753">
        <ele>161</ele>
        <time>2017-04-30T08:33:37Z</time>
      </trkpt>
      <trkpt lat="47.95861" lon="2.2753">
        <ele>161</ele>
        <time>2017-04-30T08:33:39Z</time>
      </trkpt>
      <trkpt lat="47.95861" lon="2.2753">
        <ele>161</ele>
        <time>2017-04-30T08:33:41Z</time>
      </trkpt>
      <trkpt lat="47.95861" lon="2.2753">
        <ele>161</ele>
        <time>2017-04-30T08:33:43Z</time>
      </trkpt>
      <trkpt lat="47.95864" lon="2.27478">
        <ele>155</ele>
        <time>2017-04-30T08:33:47Z</time>
      </trkpt>
      <trkpt lat="47.95861" lon="2.27464">
        <ele>153</ele>
        <time>2017-04-30T08:33:49Z</time>
      </trkpt>
      <trkpt lat="47.95858" lon="2.27449">
        <ele>151</ele>
        <time>2017-04-30T08:33:51Z</time>
      </trkpt>
      <trkpt lat="47.95856" lon="2.27434">
        <ele>151</ele>
        <time>2017-04-30T08:33:53Z</time>
      </trkpt>
      <trkpt lat="47.95855" lon="2.27419">
        <ele>150</ele>
        <time>2017-04-30T08:33:55Z</time>
      </trkpt>
      <trkpt lat="47.95855" lon="2.27403">
        <ele>150</ele>
        <time>2017-04-30T08:33:57Z</time>
      </trkpt>
      <trkpt lat="47.95854" lon="2.27387">
        <ele>149</ele>
        <time>2017-04-30T08:33:59Z</time>
      </trkpt>
      <trkpt lat="47.95854" lon="2.27371">
        <ele>148</ele>
        <time>2017-04-30T08:34:01Z</time>
      </trkpt>
      <trkpt lat="47.95854" lon="2.27355">
        <ele>148</ele>
        <time>2017-04-30T08:34:03Z</time>
      </trkpt>
      <trkpt lat="47.95855" lon="2.2734">
        <ele>148</ele>
        <time>2017-04-30T08:34:05Z</time>
      </trkpt>
      <trkpt lat="47.95855" lon="2.2734">
        <ele>148</ele>
        <time>2017-04-30T08:34:07Z</time>
      </trkpt>
      <trkpt lat="47.95855" lon="2.2734">
        <ele>148</ele>
        <time>2017-04-30T08:34:09Z</time>
      </trkpt>
      <trkpt lat="47.95855" lon="2.2734">
        <ele>148</ele>
        <time>2017-04-30T08:34:11Z</time>
      </trkpt>
      <trkpt lat="47.95855" lon="2.2734">
        <ele>148</ele>
        <time>2017-04-30T08:34:17Z</time>
      </trkpt>
      <trkpt lat="47.95855" lon="2.2734">
        <ele>148</ele>
        <time>2017-04-30T08:34:19Z</time>
      </trkpt>
      <trkpt lat="47.95855" lon="2.2734">
        <ele>148</ele>
        <time>2017-04-30T08:34:21Z</time>
      </trkpt>
      <trkpt lat="47.95855" lon="2.2734">
        <ele>148</ele>
        <time>2017-04-30T08:34:23Z</time>
      </trkpt>
      <trkpt lat="47.95855" lon="2.2734">
        <ele>148</ele>
        <time>2017-04-30T08:34:25Z</time>
      </trkpt>
      <trkpt lat="47.95855" lon="2.2734">
        <ele>148</ele>
        <time>2017-04-30T08:34:27Z</time>
      </trkpt>
      <trkpt lat="47.95855" lon="2.2734">
        <ele>148</ele>
        <time>2017-04-30T08:34:29Z</time>
      </trkpt>
      <trkpt lat="47.95837" lon="2.27148">
        <ele>146</ele>
        <time>2017-04-30T08:34:33Z</time>
      </trkpt>
      <trkpt lat="47.9583" lon="2.27137">
        <ele>144</ele>
        <time>2017-04-30T08:34:35Z</time>
      </trkpt>
      <trkpt lat="47.95823" lon="2.27127">
        <ele>143</ele>
        <time>2017-04-30T08:34:37Z</time>
      </trkpt>
      <trkpt lat="47.95815" lon="2.27116">
        <ele>142</ele>
        <time>2017-04-30T08:34:39Z</time>
      </trkpt>
      <trkpt lat="47.95807" lon="2.27107">
        <ele>142</ele>
        <time>2017-04-30T08:34:41Z</time>
      </trkpt>
      <trkpt lat="47.95799" lon="2.27097">
        <ele>141</ele>
        <time>2017-04-30T08:34:43Z</time>
      </trkpt>
      <trkpt lat="47.95799" lon="2.27097">
        <ele>141</ele>
        <time>2017-04-30T08:34:45Z</time>
      </trkpt>
      <trkpt lat="47.95799" lon="2.27097">
        <ele>141</ele>
        <time>2017-04-30T08:34:47Z</time>
      </trkpt>
      <trkpt lat="47.95799" lon="2.27097">
        <ele>141</ele>
        <time>2017-04-30T08:34:49Z</time>
      </trkpt>
      <trkpt lat="47.95764" lon="2.27049">
        <ele>138</ele>
        <time>2017-04-30T08:34:53Z</time>
      </trkpt>
      <trkpt lat="47.95757" lon="2.27039">
        <ele>138</ele>
        <time>2017-04-30T08:34:55Z</time>
      </trkpt>
      <trkpt lat="47.9575" lon="2.27029">
        <ele>138</ele>
        <time>2017-04-30T08:34:57Z</time>
      </trkpt>
      <trkpt lat="47.95743" lon="2.27019">
        <ele>137</ele>
        <time>2017-04-30T08:34:59Z</time>
      </trkpt>
      <trkpt lat="47.95735" lon="2.27009">
        <ele>137</ele>
        <time>2017-04-30T08:35:01Z</time>
      </trkpt>
      <trkpt lat="47.95727" lon="2.26999">
        <ele>137</ele>
        <time>2017-04-30T08:35:03Z</time>
      </trkpt>
      <trkpt lat="47.9572" lon="2.26987">
        <ele>137</ele>
        <time>2017-04-30T08:35:05Z</time>
      </trkpt>
      <trkpt lat="47.95713" lon="2.26975">
        <ele>137</ele>
        <time>2017-04-30T08:35:07Z</time>
      </trkpt>
      <trkpt lat="47.95706" lon="2.26962">
        <ele>137</ele>
        <time>2017-04-30T08:35:09Z</time>
      </trkpt>
      <trkpt lat="47.957" lon="2.2695">
        <ele>137</ele>
        <time>2017-04-30T08:35:11Z</time>
      </trkpt>
      <trkpt lat="47.95694" lon="2.26937">
        <ele>137</ele>
        <time>2017-04-30T08:35:13Z</time>
      </trkpt>
      <trkpt lat="47.95687" lon="2.26923">
        <ele>137</ele>
        <time>2017-04-30T08:35:15Z</time>
      </trkpt>
      <trkpt lat="47.95681" lon="2.2691">
        <ele>137</ele>
        <time>2017-04-30T08:35:17Z</time>
      </trkpt>
      <trkpt lat="47.95675" lon="2.26897">
        <ele>137</ele>
        <time>2017-04-30T08:35:19Z</time>
      </trkpt>
      <trkpt lat="47.95669" lon="2.26884">
        <ele>137</ele>
        <time>2017-04-30T08:35:21Z</time>
      </trkpt>
      <trkpt lat="47.95669" lon="2.26884">
        <ele>137</ele>
        <time>2017-04-30T08:35:23Z</time>
      </trkpt>
      <trkpt lat="47.95669" lon="2.26884">
        <ele>137</ele>
        <time>2017-04-30T08:35:25Z</time>
      </trkpt>
      <trkpt lat="47.95669" lon="2.26884">
        <ele>137</ele>
        <time>2017-04-30T08:35:27Z</time>
      </trkpt>
      <trkpt lat="47.95669" lon="2.26884">
        <ele>137</ele>
        <time>2017-04-30T08:35:29Z</time>
      </trkpt>
      <trkpt lat="47.95669" lon="2.26884">
        <ele>137</ele>
        <time>2017-04-30T08:35:31Z</time>
      </trkpt>
      <trkpt lat="47.95635" lon="2.26807">
        <ele>140</ele>
        <time>2017-04-30T08:35:33Z</time>
      </trkpt>
      <trkpt lat="47.9563" lon="2.26793">
        <ele>139</ele>
        <time>2017-04-30T08:35:35Z</time>
      </trkpt>
      <trkpt lat="47.95624" lon="2.2678">
        <ele>140</ele>
        <time>2017-04-30T08:35:37Z</time>
      </trkpt>
      <trkpt lat="47.95616" lon="2.2677">
        <ele>139</ele>
        <time>2017-04-30T08:35:39Z</time>
      </trkpt>
      <trkpt lat="47.95605" lon="2.26767">
        <ele>138</ele>
        <time>2017-04-30T08:35:41Z</time>
      </trkpt>
      <trkpt lat="47.95594" lon="2.26767">
        <ele>139</ele>
        <time>2017-04-30T08:35:43Z</time>
      </trkpt>
      <trkpt lat="47.95584" lon="2.26767">
        <ele>139</ele>
        <time>2017-04-30T08:35:45Z</time>
      </trkpt>
      <trkpt lat="47.95573" lon="2.26768">
        <ele>137</ele>
        <time>2017-04-30T08:35:47Z</time>
      </trkpt>
      <trkpt lat="47.95562" lon="2.2677">
        <ele>136</ele>
        <time>2017-04-30T08:35:49Z</time>
      </trkpt>
      <trkpt lat="47.95552" lon="2.26771">
        <ele>135</ele>
        <time>2017-04-30T08:35:51Z</time>
      </trkpt>
      <trkpt lat="47.95552" lon="2.26771">
        <ele>135</ele>
        <time>2017-04-30T08:35:53Z</time>
      </trkpt>
      <trkpt lat="47.95552" lon="2.26771">
        <ele>135</ele>
        <time>2017-04-30T08:35:55Z</time>
      </trkpt>
      <trkpt lat="47.95514" lon="2.26771">
        <ele>132</ele>
        <time>2017-04-30T08:36:05Z</time>
      </trkpt>
      <trkpt lat="47.9549" lon="2.26772">
        <ele>132</ele>
        <time>2017-04-30T08:36:07Z</time>
      </trkpt>
      <trkpt lat="47.95472" lon="2.26773">
        <ele>132</ele>
        <time>2017-04-30T08:36:09Z</time>
      </trkpt>
      <trkpt lat="47.95457" lon="2.26772">
        <ele>131</ele>
        <time>2017-04-30T08:36:11Z</time>
      </trkpt>
      <trkpt lat="47.95444" lon="2.2677">
        <ele>131</ele>
        <time>2017-04-30T08:36:13Z</time>
      </trkpt>
      <trkpt lat="47.95421" lon="2.26763">
        <ele>131</ele>
        <time>2017-04-30T08:36:15Z</time>
      </trkpt>
      <trkpt lat="47.95412" lon="2.26758">
        <ele>132</ele>
        <time>2017-04-30T08:36:17Z</time>
      </trkpt>
      <trkpt lat="47.95412" lon="2.26758">
        <ele>132</ele>
        <time>2017-04-30T08:36:19Z</time>
      </trkpt>
      <trkpt lat="47.9538" lon="2.26737">
        <ele>134</ele>
        <time>2017-04-30T08:36:23Z</time>
      </trkpt>
      <trkpt lat="47.95372" lon="2.2673">
        <ele>135</ele>
        <time>2017-04-30T08:36:25Z</time>
      </trkpt>
      <trkpt lat="47.95372" lon="2.2673">
        <ele>135</ele>
        <time>2017-04-30T08:36:27Z</time>
      </trkpt>
      <trkpt lat="47.95372" lon="2.2673">
        <ele>135</ele>
        <time>2017-04-30T08:36:29Z</time>
      </trkpt>
      <trkpt lat="47.95372" lon="2.2673">
        <ele>135</ele>
        <time>2017-04-30T08:36:35Z</time>
      </trkpt>
      <trkpt lat="47.95372" lon="2.2673">
        <ele>135</ele>
        <time>2017-04-30T08:36:37Z</time>
      </trkpt>
      <trkpt lat="47.95372" lon="2.2673">
        <ele>135</ele>
        <time>2017-04-30T08:36:39Z</time>
      </trkpt>
      <trkpt lat="47.95372" lon="2.2673">
        <ele>135</ele>
        <time>2017-04-30T08:36:41Z</time>
      </trkpt>
      <trkpt lat="47.95372" lon="2.2673">
        <ele>135</ele>
        <time>2017-04-30T08:36:43Z</time>
      </trkpt>
      <trkpt lat="47.95314" lon="2.26611">
        <ele>141</ele>
        <time>2017-04-30T08:36:51Z</time>
      </trkpt>
      <trkpt lat="47.95317" lon="2.26586">
        <ele>143</ele>
        <time>2017-04-30T08:36:55Z</time>
      </trkpt>
      <trkpt lat="47.95318" lon="2.26573">
        <ele>144</ele>
        <time>2017-04-30T08:36:57Z</time>
      </trkpt>
      <trkpt lat="47.95319" lon="2.26559">
        <ele>145</ele>
        <time>2017-04-30T08:36:59Z</time>
      </trkpt>
      <trkpt lat="47.95321" lon="2.26545">
        <ele>145</ele>
        <time>2017-04-30T08:37:01Z</time>
      </trkpt>
      <trkpt lat="47.95321" lon="2.26545">
        <ele>145</ele>
        <time>2017-04-30T08:37:03Z</time>
      </trkpt>
      <trkpt lat="47.95321" lon="2.26545">
        <ele>145</ele>
        <time>2017-04-30T08:37:05Z</time>
      </trkpt>
      <trkpt lat="47.95321" lon="2.26545">
        <ele>145</ele>
        <time>2017-04-30T08:37:07Z</time>
      </trkpt>
      <trkpt lat="47.95321" lon="2.26545">
        <ele>145</ele>
        <time>2017-04-30T08:37:09Z</time>
      </trkpt>
      <trkpt lat="47.95321" lon="2.26545">
        <ele>145</ele>
        <time>2017-04-30T08:37:11Z</time>
      </trkpt>
      <trkpt lat="47.95321" lon="2.26545">
        <ele>145</ele>
        <time>2017-04-30T08:37:13Z</time>
      </trkpt>
      <trkpt lat="47.95321" lon="2.26545">
        <ele>145</ele>
        <time>2017-04-30T08:37:15Z</time>
      </trkpt>
      <trkpt lat="47.95327" lon="2.2647">
        <ele>143</ele>
        <time>2017-04-30T08:37:19Z</time>
      </trkpt>
      <trkpt lat="47.95327" lon="2.2647">
        <ele>143</ele>
        <time>2017-04-30T08:37:21Z</time>
      </trkpt>
      <trkpt lat="47.95327" lon="2.2647">
        <ele>143</ele>
        <time>2017-04-30T08:37:23Z</time>
      </trkpt>
      <trkpt lat="47.95329" lon="2.26451">
        <ele>142</ele>
        <time>2017-04-30T08:37:27Z</time>
      </trkpt>
      <trkpt lat="47.95326" lon="2.26432">
        <ele>142</ele>
        <time>2017-04-30T08:37:31Z</time>
      </trkpt>
      <trkpt lat="47.95324" lon="2.26409">
        <ele>142</ele>
        <time>2017-04-30T08:37:35Z</time>
      </trkpt>
      <trkpt lat="47.95324" lon="2.26388">
        <ele>141</ele>
        <time>2017-04-30T08:37:39Z</time>
      </trkpt>
      <trkpt lat="47.95324" lon="2.26388">
        <ele>141</ele>
        <time>2017-04-30T08:37:41Z</time>
      </trkpt>
      <trkpt lat="47.95326" lon="2.2637">
        <ele>141</ele>
        <time>2017-04-30T08:37:45Z</time>
      </trkpt>
      <trkpt lat="47.95325" lon="2.26355">
        <ele>141</ele>
        <time>2017-04-30T08:37:47Z</time>
      </trkpt>
      <trkpt lat="47.95324" lon="2.2634">
        <ele>141</ele>
        <time>2017-04-30T08:37:49Z</time>
      </trkpt>
      <trkpt lat="47.95322" lon="2.26326">
        <ele>140</ele>
        <time>2017-04-30T08:37:51Z</time>
      </trkpt>
      <trkpt lat="47.95322" lon="2.26314">
        <ele>140</ele>
        <time>2017-04-30T08:37:53Z</time>
      </trkpt>
      <trkpt lat="47.95327" lon="2.26289">
        <ele>140</ele>
        <time>2017-04-30T08:37:55Z</time>
      </trkpt>
      <trkpt lat="47.95336" lon="2.26266">
        <ele>139</ele>
        <time>2017-04-30T08:37:59Z</time>
      </trkpt>
      <trkpt lat="47.95336" lon="2.26266">
        <ele>139</ele>
        <time>2017-04-30T08:38:01Z</time>
      </trkpt>
      <trkpt lat="47.95336" lon="2.26266">
        <ele>139</ele>
        <time>2017-04-30T08:38:03Z</time>
      </trkpt>
      <trkpt lat="47.95336" lon="2.26266">
        <ele>139</ele>
        <time>2017-04-30T08:38:05Z</time>
      </trkpt>
      <trkpt lat="47.95361" lon="2.26214">
        <ele>140</ele>
        <time>2017-04-30T08:38:09Z</time>
      </trkpt>
      <trkpt lat="47.95367" lon="2.26203">
        <ele>140</ele>
        <time>2017-04-30T08:38:11Z</time>
      </trkpt>
      <trkpt lat="47.95372" lon="2.26192">
        <ele>140</ele>
        <time>2017-04-30T08:38:13Z</time>
      </trkpt>
      <trkpt lat="47.95378" lon="2.2618">
        <ele>141</ele>
        <time>2017-04-30T08:38:15Z</time>
      </trkpt>
      <trkpt lat="47.95378" lon="2.2618">
        <ele>141</ele>
        <time>2017-04-30T08:38:17Z</time>
      </trkpt>
      <trkpt lat="47.95378" lon="2.2618">
        <ele>141</ele>
        <time>2017-04-30T08:38:19Z</time>
      </trkpt>
      <trkpt lat="47.95378" lon="2.2618">
        <ele>141</ele>
        <time>2017-04-30T08:38:25Z</time>
      </trkpt>
      <trkpt lat="47.95378" lon="2.2618">
        <ele>141</ele>
        <time>2017-04-30T08:38:27Z</time>
      </trkpt>
      <trkpt lat="47.95378" lon="2.2618">
        <ele>141</ele>
        <time>2017-04-30T08:38:29Z</time>
      </trkpt>
      <trkpt lat="47.95418" lon="2.26071">
        <ele>142</ele>
        <time>2017-04-30T08:38:33Z</time>
      </trkpt>
      <trkpt lat="47.95425" lon="2.26061">
        <ele>141</ele>
        <time>2017-04-30T08:38:35Z</time>
      </trkpt>
      <trkpt lat="47.95432" lon="2.26051">
        <ele>142</ele>
        <time>2017-04-30T08:38:37Z</time>
      </trkpt>
      <trkpt lat="47.95439" lon="2.26043">
        <ele>142</ele>
        <time>2017-04-30T08:38:39Z</time>
      </trkpt>
      <trkpt lat="47.95448" lon="2.26034">
        <ele>142</ele>
        <time>2017-04-30T08:38:41Z</time>
      </trkpt>
      <trkpt lat="47.95456" lon="2.26024">
        <ele>142</ele>
        <time>2017-04-30T08:38:43Z</time>
      </trkpt>
      <trkpt lat="47.95464" lon="2.26012">
        <ele>143</ele>
        <time>2017-04-30T08:38:45Z</time>
      </trkpt>
      <trkpt lat="47.95471" lon="2.25999">
        <ele>142</ele>
        <time>2017-04-30T08:38:47Z</time>
      </trkpt>
      <trkpt lat="47.95479" lon="2.25989">
        <ele>141</ele>
        <time>2017-04-30T08:38:49Z</time>
      </trkpt>
      <trkpt lat="47.95486" lon="2.25979">
        <ele>142</ele>
        <time>2017-04-30T08:38:51Z</time>
      </trkpt>
      <trkpt lat="47.95486" lon="2.25979">
        <ele>142</ele>
        <time>2017-04-30T08:38:53Z</time>
      </trkpt>
      <trkpt lat="47.95486" lon="2.25979">
        <ele>142</ele>
        <time>2017-04-30T08:38:55Z</time>
      </trkpt>
      <trkpt lat="47.95514" lon="2.25934">
        <ele>139</ele>
        <time>2017-04-30T08:38:59Z</time>
      </trkpt>
      <trkpt lat="47.95523" lon="2.25923">
        <ele>138</ele>
        <time>2017-04-30T08:39:01Z</time>
      </trkpt>
      <trkpt lat="47.95531" lon="2.25912">
        <ele>136</ele>
        <time>2017-04-30T08:39:03Z</time>
      </trkpt>
      <trkpt lat="47.95538" lon="2.25902">
        <ele>135</ele>
        <time>2017-04-30T08:39:05Z</time>
      </trkpt>
      <trkpt lat="47.95546" lon="2.25893">
        <ele>135</ele>
        <time>2017-04-30T08:39:07Z</time>
      </trkpt>
      <trkpt lat="47.95546" lon="2.25893">
        <ele>135</ele>
        <time>2017-04-30T08:39:09Z</time>
      </trkpt>
      <trkpt lat="47.95546" lon="2.25893">
        <ele>135</ele>
        <time>2017-04-30T08:39:11Z</time>
      </trkpt>
      <trkpt lat="47.95546" lon="2.25893">
        <ele>135</ele>
        <time>2017-04-30T08:39:13Z</time>
      </trkpt>
      <trkpt lat="47.95546" lon="2.25893">
        <ele>135</ele>
        <time>2017-04-30T08:39:15Z</time>
      </trkpt>
      <trkpt lat="47.95546" lon="2.25893">
        <ele>135</ele>
        <time>2017-04-30T08:39:17Z</time>
      </trkpt>
      <trkpt lat="47.95546" lon="2.25893">
        <ele>135</ele>
        <time>2017-04-30T08:39:23Z</time>
      </trkpt>
      <trkpt lat="47.95546" lon="2.25893">
        <ele>135</ele>
        <time>2017-04-30T08:39:25Z</time>
      </trkpt>
      <trkpt lat="47.95613" lon="2.25803">
        <ele>137</ele>
        <time>2017-04-30T08:39:27Z</time>
      </trkpt>
      <trkpt lat="47.95613" lon="2.25803">
        <ele>137</ele>
        <time>2017-04-30T08:39:29Z</time>
      </trkpt>
      <trkpt lat="47.95613" lon="2.25803">
        <ele>137</ele>
        <time>2017-04-30T08:39:31Z</time>
      </trkpt>
      <trkpt lat="47.95613" lon="2.25803">
        <ele>137</ele>
        <time>2017-04-30T08:39:33Z</time>
      </trkpt>
      <trkpt lat="47.95648" lon="2.25764">
        <ele>137</ele>
        <time>2017-04-30T08:39:37Z</time>
      </trkpt>
      <trkpt lat="47.95656" lon="2.25758">
        <ele>139</ele>
        <time>2017-04-30T08:39:39Z</time>
      </trkpt>
      <trkpt lat="47.95656" lon="2.25758">
        <ele>139</ele>
        <time>2017-04-30T08:39:41Z</time>
      </trkpt>
      <trkpt lat="47.95656" lon="2.25758">
        <ele>139</ele>
        <time>2017-04-30T08:39:43Z</time>
      </trkpt>
      <trkpt lat="47.95656" lon="2.25758">
        <ele>139</ele>
        <time>2017-04-30T08:39:45Z</time>
      </trkpt>
      <trkpt lat="47.95673" lon="2.2574">
        <ele>147</ele>
        <time>2017-04-30T08:39:49Z</time>
      </trkpt>
      <trkpt lat="47.95673" lon="2.2574">
        <ele>147</ele>
        <time>2017-04-30T08:39:51Z</time>
      </trkpt>
      <trkpt lat="47.95673" lon="2.2574">
        <ele>147</ele>
        <time>2017-04-30T08:39:53Z</time>
      </trkpt>
      <trkpt lat="47.95673" lon="2.2574">
        <ele>147</ele>
        <time>2017-04-30T08:39:55Z</time>
      </trkpt>
      <trkpt lat="47.95673" lon="2.2574">
        <ele>147</ele>
        <time>2017-04-30T08:39:57Z</time>
      </trkpt>
      <trkpt lat="47.95673" lon="2.2574">
        <ele>147</ele>
        <time>2017-04-30T08:39:59Z</time>
      </trkpt>
      <trkpt lat="47.95687" lon="2.257">
        <ele>148</ele>
        <time>2017-04-30T08:40:03Z</time>
      </trkpt>
      <trkpt lat="47.95692" lon="2.25674">
        <ele>148</ele>
        <time>2017-04-30T08:40:05Z</time>
      </trkpt>
      <trkpt lat="47.95692" lon="2.25654">
        <ele>147</ele>
        <time>2017-04-30T08:40:07Z</time>
      </trkpt>
      <trkpt lat="47.95691" lon="2.25638">
        <ele>146</ele>
        <time>2017-04-30T08:40:09Z</time>
      </trkpt>
      <trkpt lat="47.95688" lon="2.25623">
        <ele>144</ele>
        <time>2017-04-30T08:40:11Z</time>
      </trkpt>
      <trkpt lat="47.95681" lon="2.25595">
        <ele>143</ele>
        <time>2017-04-30T08:40:13Z</time>
      </trkpt>
      <trkpt lat="47.95677" lon="2.25582">
        <ele>142</ele>
        <time>2017-04-30T08:40:15Z</time>
      </trkpt>
      <trkpt lat="47.95673" lon="2.2557">
        <ele>140</ele>
        <time>2017-04-30T08:40:17Z</time>
      </trkpt>
      <trkpt lat="47.95673" lon="2.2557">
        <ele>140</ele>
        <time>2017-04-30T08:40:19Z</time>
      </trkpt>
      <trkpt lat="47.95658" lon="2.25531">
        <ele>138</ele>
        <time>2017-04-30T08:40:23Z</time>
      </trkpt>
      <trkpt lat="47.95654" lon="2.25517">
        <ele>137</ele>
        <time>2017-04-30T08:40:25Z</time>
      </trkpt>
      <trkpt lat="47.95649" lon="2.25502">
        <ele>135</ele>
        <time>2017-04-30T08:40:27Z</time>
      </trkpt>
      <trkpt lat="47.95644" lon="2.25487">
        <ele>135</ele>
        <time>2017-04-30T08:40:29Z</time>
      </trkpt>
      <trkpt lat="47.95639" lon="2.25472">
        <ele>134</ele>
        <time>2017-04-30T08:40:31Z</time>
      </trkpt>
      <trkpt lat="47.95634" lon="2.25457">
        <ele>134</ele>
        <time>2017-04-30T08:40:33Z</time>
      </trkpt>
      <trkpt lat="47.9563" lon="2.25442">
        <ele>133</ele>
        <time>2017-04-30T08:40:35Z</time>
      </trkpt>
      <trkpt lat="47.95625" lon="2.25428">
        <ele>133</ele>
        <time>2017-04-30T08:40:37Z</time>
      </trkpt>
      <trkpt lat="47.9562" lon="2.25413">
        <ele>132</ele>
        <time>2017-04-30T08:40:39Z</time>
      </trkpt>
      <trkpt lat="47.95615" lon="2.25399">
        <ele>133</ele>
        <time>2017-04-30T08:40:41Z</time>
      </trkpt>
      <trkpt lat="47.95609" lon="2.25384">
        <ele>133</ele>
        <time>2017-04-30T08:40:43Z</time>
      </trkpt>
      <trkpt lat="47.95604" lon="2.25369">
        <ele>132</ele>
        <time>2017-04-30T08:40:45Z</time>
      </trkpt>
      <trkpt lat="47.95599" lon="2.25353">
        <ele>131</ele>
        <time>2017-04-30T08:40:47Z</time>
      </trkpt>
      <trkpt lat="47.95593" lon="2.25337">
        <ele>131</ele>
        <time>2017-04-30T08:40:49Z</time>
      </trkpt>
      <trkpt lat="47.95588" lon="2.2532">
        <ele>131</ele>
        <time>2017-04-30T08:40:51Z</time>
      </trkpt>
      <trkpt lat="47.95582" lon="2.25303">
        <ele>130</ele>
        <time>2017-04-30T08:40:53Z</time>
      </trkpt>
      <trkpt lat="47.95576" lon="2.25286">
        <ele>130</ele>
        <time>2017-04-30T08:40:55Z</time>
      </trkpt>
      <trkpt lat="47.9557" lon="2.25268">
        <ele>129</ele>
        <time>2017-04-30T08:40:57Z</time>
      </trkpt>
      <trkpt lat="47.95564" lon="2.25251">
        <ele>129</ele>
        <time>2017-04-30T08:40:59Z</time>
      </trkpt>
      <trkpt lat="47.95559" lon="2.25234">
        <ele>129</ele>
        <time>2017-04-30T08:41:01Z</time>
      </trkpt>
      <trkpt lat="47.95553" lon="2.25218">
        <ele>129</ele>
        <time>2017-04-30T08:41:03Z</time>
      </trkpt>
      <trkpt lat="47.95548" lon="2.25202">
        <ele>129</ele>
        <time>2017-04-30T08:41:05Z</time>
      </trkpt>
      <trkpt lat="47.95542" lon="2.25185">
        <ele>128</ele>
        <time>2017-04-30T08:41:07Z</time>
      </trkpt>
      <trkpt lat="47.95536" lon="2.25168">
        <ele>127</ele>
        <time>2017-04-30T08:41:09Z</time>
      </trkpt>
      <trkpt lat="47.95531" lon="2.2515">
        <ele>127</ele>
        <time>2017-04-30T08:41:11Z</time>
      </trkpt>
      <trkpt lat="47.95525" lon="2.25132">
        <ele>126</ele>
        <time>2017-04-30T08:41:13Z</time>
      </trkpt>
      <trkpt lat="47.95519" lon="2.25114">
        <ele>126</ele>
        <time>2017-04-30T08:41:15Z</time>
      </trkpt>
      <trkpt lat="47.95513" lon="2.25096">
        <ele>126</ele>
        <time>2017-04-30T08:41:17Z</time>
      </trkpt>
      <trkpt lat="47.95507" lon="2.25079">
        <ele>126</ele>
        <time>2017-04-30T08:41:19Z</time>
      </trkpt>
      <trkpt lat="47.955" lon="2.25061">
        <ele>126</ele>
        <time>2017-04-30T08:41:21Z</time>
      </trkpt>
      <trkpt lat="47.95494" lon="2.25043">
        <ele>126</ele>
        <time>2017-04-30T08:41:23Z</time>
      </trkpt>
      <trkpt lat="47.95488" lon="2.25026">
        <ele>127</ele>
        <time>2017-04-30T08:41:25Z</time>
      </trkpt>
      <trkpt lat="47.95483" lon="2.25009">
        <ele>127</ele>
        <time>2017-04-30T08:41:27Z</time>
      </trkpt>
      <trkpt lat="47.95479" lon="2.24992">
        <ele>128</ele>
        <time>2017-04-30T08:41:29Z</time>
      </trkpt>
      <trkpt lat="47.95473" lon="2.24977">
        <ele>128</ele>
        <time>2017-04-30T08:41:31Z</time>
      </trkpt>
      <trkpt lat="47.95468" lon="2.24962">
        <ele>129</ele>
        <time>2017-04-30T08:41:33Z</time>
      </trkpt>
      <trkpt lat="47.95463" lon="2.24947">
        <ele>129</ele>
        <time>2017-04-30T08:41:35Z</time>
      </trkpt>
      <trkpt lat="47.95458" lon="2.24933">
        <ele>130</ele>
        <time>2017-04-30T08:41:37Z</time>
      </trkpt>
      <trkpt lat="47.95453" lon="2.24919">
        <ele>130</ele>
        <time>2017-04-30T08:41:39Z</time>
      </trkpt>
      <trkpt lat="47.95453" lon="2.24919">
        <ele>130</ele>
        <time>2017-04-30T08:41:41Z</time>
      </trkpt>
      <trkpt lat="47.95453" lon="2.24919">
        <ele>130</ele>
        <time>2017-04-30T08:41:43Z</time>
      </trkpt>
      <trkpt lat="47.95453" lon="2.24919">
        <ele>130</ele>
        <time>2017-04-30T08:41:45Z</time>
      </trkpt>
      <trkpt lat="47.95453" lon="2.24919">
        <ele>130</ele>
        <time>2017-04-30T08:41:47Z</time>
      </trkpt>
      <trkpt lat="47.95425" lon="2.24841">
        <ele>134</ele>
        <time>2017-04-30T08:41:51Z</time>
      </trkpt>
      <trkpt lat="47.9542" lon="2.24828">
        <ele>134</ele>
        <time>2017-04-30T08:41:53Z</time>
      </trkpt>
      <trkpt lat="47.95416" lon="2.24814">
        <ele>134</ele>
        <time>2017-04-30T08:41:55Z</time>
      </trkpt>
      <trkpt lat="47.95411" lon="2.248">
        <ele>133</ele>
        <time>2017-04-30T08:41:57Z</time>
      </trkpt>
      <trkpt lat="47.95407" lon="2.24786">
        <ele>133</ele>
        <time>2017-04-30T08:41:59Z</time>
      </trkpt>
      <trkpt lat="47.95402" lon="2.24773">
        <ele>133</ele>
        <time>2017-04-30T08:42:01Z</time>
      </trkpt>
      <trkpt lat="47.95402" lon="2.24773">
        <ele>133</ele>
        <time>2017-04-30T08:42:03Z</time>
      </trkpt>
      <trkpt lat="47.95402" lon="2.24773">
        <ele>133</ele>
        <time>2017-04-30T08:42:05Z</time>
      </trkpt>
      <trkpt lat="47.95402" lon="2.24773">
        <ele>133</ele>
        <time>2017-04-30T08:42:07Z</time>
      </trkpt>
      <trkpt lat="47.95402" lon="2.24773">
        <ele>133</ele>
        <time>2017-04-30T08:42:09Z</time>
      </trkpt>
      <trkpt lat="47.95402" lon="2.24773">
        <ele>133</ele>
        <time>2017-04-30T08:42:11Z</time>
      </trkpt>
      <trkpt lat="47.95369" lon="2.24682">
        <ele>133</ele>
        <time>2017-04-30T08:42:17Z</time>
      </trkpt>
      <trkpt lat="47.95369" lon="2.24682">
        <ele>133</ele>
        <time>2017-04-30T08:42:19Z</time>
      </trkpt>
      <trkpt lat="47.95361" lon="2.2466">
        <ele>133</ele>
        <time>2017-04-30T08:42:21Z</time>
      </trkpt>
      <trkpt lat="47.95361" lon="2.2466">
        <ele>133</ele>
        <time>2017-04-30T08:42:23Z</time>
      </trkpt>
      <trkpt lat="47.95361" lon="2.2466">
        <ele>133</ele>
        <time>2017-04-30T08:42:25Z</time>
      </trkpt>
      <trkpt lat="47.95361" lon="2.2466">
        <ele>133</ele>
        <time>2017-04-30T08:42:27Z</time>
      </trkpt>
      <trkpt lat="47.95361" lon="2.2466">
        <ele>133</ele>
        <time>2017-04-30T08:42:29Z</time>
      </trkpt>
      <trkpt lat="47.95338" lon="2.24596">
        <ele>133</ele>
        <time>2017-04-30T08:42:35Z</time>
      </trkpt>
      <trkpt lat="47.95338" lon="2.24596">
        <ele>133</ele>
        <time>2017-04-30T08:42:37Z</time>
      </trkpt>
      <trkpt lat="47.95338" lon="2.24596">
        <ele>133</ele>
        <time>2017-04-30T08:42:39Z</time>
      </trkpt>
      <trkpt lat="47.95338" lon="2.24596">
        <ele>133</ele>
        <time>2017-04-30T08:42:41Z</time>
      </trkpt>
      <trkpt lat="47.95335" lon="2.24571">
        <ele>131</ele>
        <time>2017-04-30T08:44:36Z</time>
      </trkpt>
      <trkpt lat="47.95327" lon="2.24548">
        <ele>130</ele>
        <time>2017-04-30T08:44:40Z</time>
      </trkpt>
      <trkpt lat="47.95322" lon="2.24534">
        <ele>130</ele>
        <time>2017-04-30T08:44:42Z</time>
      </trkpt>
      <trkpt lat="47.95316" lon="2.2452">
        <ele>130</ele>
        <time>2017-04-30T08:44:44Z</time>
      </trkpt>
      <trkpt lat="47.95311" lon="2.24504">
        <ele>130</ele>
        <time>2017-04-30T08:44:46Z</time>
      </trkpt>
      <trkpt lat="47.95306" lon="2.24489">
        <ele>129</ele>
        <time>2017-04-30T08:44:48Z</time>
      </trkpt>
      <trkpt lat="47.953" lon="2.24472">
        <ele>129</ele>
        <time>2017-04-30T08:44:50Z</time>
      </trkpt>
      <trkpt lat="47.95294" lon="2.24457">
        <ele>130</ele>
        <time>2017-04-30T08:44:52Z</time>
      </trkpt>
      <trkpt lat="47.95288" lon="2.2444">
        <ele>130</ele>
        <time>2017-04-30T08:44:54Z</time>
      </trkpt>
      <trkpt lat="47.95282" lon="2.24423">
        <ele>129</ele>
        <time>2017-04-30T08:44:56Z</time>
      </trkpt>
      <trkpt lat="47.95275" lon="2.24406">
        <ele>129</ele>
        <time>2017-04-30T08:44:58Z</time>
      </trkpt>
      <trkpt lat="47.95269" lon="2.24389">
        <ele>128</ele>
        <time>2017-04-30T08:45:00Z</time>
      </trkpt>
      <trkpt lat="47.95263" lon="2.24371">
        <ele>128</ele>
        <time>2017-04-30T08:45:02Z</time>
      </trkpt>
      <trkpt lat="47.95257" lon="2.24354">
        <ele>128</ele>
        <time>2017-04-30T08:45:04Z</time>
      </trkpt>
      <trkpt lat="47.9525" lon="2.24336">
        <ele>128</ele>
        <time>2017-04-30T08:45:06Z</time>
      </trkpt>
      <trkpt lat="47.95244" lon="2.24318">
        <ele>128</ele>
        <time>2017-04-30T08:45:08Z</time>
      </trkpt>
      <trkpt lat="47.95238" lon="2.243">
        <ele>127</ele>
        <time>2017-04-30T08:45:10Z</time>
      </trkpt>
      <trkpt lat="47.95231" lon="2.24282">
        <ele>127</ele>
        <time>2017-04-30T08:45:12Z</time>
      </trkpt>
      <trkpt lat="47.95225" lon="2.24266">
        <ele>127</ele>
        <time>2017-04-30T08:45:14Z</time>
      </trkpt>
      <trkpt lat="47.95219" lon="2.2425">
        <ele>128</ele>
        <time>2017-04-30T08:45:16Z</time>
      </trkpt>
      <trkpt lat="47.95213" lon="2.24234">
        <ele>129</ele>
        <time>2017-04-30T08:45:18Z</time>
      </trkpt>
      <trkpt lat="47.95207" lon="2.24218">
        <ele>130</ele>
        <time>2017-04-30T08:45:20Z</time>
      </trkpt>
      <trkpt lat="47.95202" lon="2.24202">
        <ele>131</ele>
        <time>2017-04-30T08:45:22Z</time>
      </trkpt>
      <trkpt lat="47.95197" lon="2.24186">
        <ele>130</ele>
        <time>2017-04-30T08:45:24Z</time>
      </trkpt>
      <trkpt lat="47.95191" lon="2.2417">
        <ele>129</ele>
        <time>2017-04-30T08:45:26Z</time>
      </trkpt>
      <trkpt lat="47.95185" lon="2.24154">
        <ele>129</ele>
        <time>2017-04-30T08:45:28Z</time>
      </trkpt>
      <trkpt lat="47.9518" lon="2.24138">
        <ele>128</ele>
        <time>2017-04-30T08:45:30Z</time>
      </trkpt>
      <trkpt lat="47.95173" lon="2.24124">
        <ele>127</ele>
        <time>2017-04-30T08:45:32Z</time>
      </trkpt>
      <trkpt lat="47.95166" lon="2.2411">
        <ele>127</ele>
        <time>2017-04-30T08:45:34Z</time>
      </trkpt>
      <trkpt lat="47.95157" lon="2.24097">
        <ele>126</ele>
        <time>2017-04-30T08:45:36Z</time>
      </trkpt>
      <trkpt lat="47.95147" lon="2.24086">
        <ele>125</ele>
        <time>2017-04-30T08:45:38Z</time>
      </trkpt>
      <trkpt lat="47.95137" lon="2.24076">
        <ele>125</ele>
        <time>2017-04-30T08:45:40Z</time>
      </trkpt>
      <trkpt lat="47.95126" lon="2.24066">
        <ele>125</ele>
        <time>2017-04-30T08:45:42Z</time>
      </trkpt>
      <trkpt lat="47.95115" lon="2.24057">
        <ele>125</ele>
        <time>2017-04-30T08:45:44Z</time>
      </trkpt>
      <trkpt lat="47.95104" lon="2.24047">
        <ele>124</ele>
        <time>2017-04-30T08:45:46Z</time>
      </trkpt>
      <trkpt lat="47.95093" lon="2.24038">
        <ele>124</ele>
        <time>2017-04-30T08:45:48Z</time>
      </trkpt>
      <trkpt lat="47.95083" lon="2.24027">
        <ele>124</ele>
        <time>2017-04-30T08:45:50Z</time>
      </trkpt>
      <trkpt lat="47.95072" lon="2.24018">
        <ele>124</ele>
        <time>2017-04-30T08:45:52Z</time>
      </trkpt>
      <trkpt lat="47.95061" lon="2.2401">
        <ele>124</ele>
        <time>2017-04-30T08:45:54Z</time>
      </trkpt>
      <trkpt lat="47.9505" lon="2.24001">
        <ele>124</ele>
        <time>2017-04-30T08:45:56Z</time>
      </trkpt>
      <trkpt lat="47.95037" lon="2.23991">
        <ele>124</ele>
        <time>2017-04-30T08:45:58Z</time>
      </trkpt>
      <trkpt lat="47.95024" lon="2.23981">
        <ele>124</ele>
        <time>2017-04-30T08:46:00Z</time>
      </trkpt>
      <trkpt lat="47.95011" lon="2.2397">
        <ele>123</ele>
        <time>2017-04-30T08:46:02Z</time>
      </trkpt>
      <trkpt lat="47.94999" lon="2.23959">
        <ele>123</ele>
        <time>2017-04-30T08:46:04Z</time>
      </trkpt>
      <trkpt lat="47.94986" lon="2.23949">
        <ele>123</ele>
        <time>2017-04-30T08:46:06Z</time>
      </trkpt>
      <trkpt lat="47.94973" lon="2.23938">
        <ele>123</ele>
        <time>2017-04-30T08:46:08Z</time>
      </trkpt>
      <trkpt lat="47.94961" lon="2.23928">
        <ele>123</ele>
        <time>2017-04-30T08:46:10Z</time>
      </trkpt>
      <trkpt lat="47.94948" lon="2.23918">
        <ele>123</ele>
        <time>2017-04-30T08:46:12Z</time>
      </trkpt>
      <trkpt lat="47.94936" lon="2.23906">
        <ele>123</ele>
        <time>2017-04-30T08:46:14Z</time>
      </trkpt>
      <trkpt lat="47.94923" lon="2.23895">
        <ele>123</ele>
        <time>2017-04-30T08:46:16Z</time>
      </trkpt>
      <trkpt lat="47.94911" lon="2.23885">
        <ele>122</ele>
        <time>2017-04-30T08:46:18Z</time>
      </trkpt>
      <trkpt lat="47.94899" lon="2.23874">
        <ele>121</ele>
        <time>2017-04-30T08:46:20Z</time>
      </trkpt>
      <trkpt lat="47.94886" lon="2.23864">
        <ele>120</ele>
        <time>2017-04-30T08:46:22Z</time>
      </trkpt>
      <trkpt lat="47.94874" lon="2.23853">
        <ele>119</ele>
        <time>2017-04-30T08:46:24Z</time>
      </trkpt>
      <trkpt lat="47.94862" lon="2.23843">
        <ele>120</ele>
        <time>2017-04-30T08:46:26Z</time>
      </trkpt>
      <trkpt lat="47.9485" lon="2.23832">
        <ele>120</ele>
        <time>2017-04-30T08:46:28Z</time>
      </trkpt>
      <trkpt lat="47.94838" lon="2.23821">
        <ele>121</ele>
        <time>2017-04-30T08:46:30Z</time>
      </trkpt>
      <trkpt lat="47.94825" lon="2.23811">
        <ele>122</ele>
        <time>2017-04-30T08:46:32Z</time>
      </trkpt>
      <trkpt lat="47.94812" lon="2.23802">
        <ele>124</ele>
        <time>2017-04-30T08:46:34Z</time>
      </trkpt>
      <trkpt lat="47.948" lon="2.23793">
        <ele>123</ele>
        <time>2017-04-30T08:46:36Z</time>
      </trkpt>
      <trkpt lat="47.94788" lon="2.23783">
        <ele>123</ele>
        <time>2017-04-30T08:46:38Z</time>
      </trkpt>
      <trkpt lat="47.94776" lon="2.23773">
        <ele>123</ele>
        <time>2017-04-30T08:46:40Z</time>
      </trkpt>
      <trkpt lat="47.94764" lon="2.23763">
        <ele>123</ele>
        <time>2017-04-30T08:46:42Z</time>
      </trkpt>
      <trkpt lat="47.94753" lon="2.23754">
        <ele>123</ele>
        <time>2017-04-30T08:46:44Z</time>
      </trkpt>
      <trkpt lat="47.94741" lon="2.23744">
        <ele>123</ele>
        <time>2017-04-30T08:46:46Z</time>
      </trkpt>
      <trkpt lat="47.9473" lon="2.23735">
        <ele>124</ele>
        <time>2017-04-30T08:46:48Z</time>
      </trkpt>
      <trkpt lat="47.94719" lon="2.23726">
        <ele>124</ele>
        <time>2017-04-30T08:46:50Z</time>
      </trkpt>
      <trkpt lat="47.94708" lon="2.23716">
        <ele>123</ele>
        <time>2017-04-30T08:46:52Z</time>
      </trkpt>
      <trkpt lat="47.94697" lon="2.23706">
        <ele>124</ele>
        <time>2017-04-30T08:46:54Z</time>
      </trkpt>
      <trkpt lat="47.94687" lon="2.23697">
        <ele>123</ele>
        <time>2017-04-30T08:46:56Z</time>
      </trkpt>
      <trkpt lat="47.94676" lon="2.23689">
        <ele>123</ele>
        <time>2017-04-30T08:46:58Z</time>
      </trkpt>
      <trkpt lat="47.94665" lon="2.2368">
        <ele>124</ele>
        <time>2017-04-30T08:47:00Z</time>
      </trkpt>
      <trkpt lat="47.94655" lon="2.23671">
        <ele>124</ele>
        <time>2017-04-30T08:47:02Z</time>
      </trkpt>
      <trkpt lat="47.94645" lon="2.23661">
        <ele>123</ele>
        <time>2017-04-30T08:47:04Z</time>
      </trkpt>
      <trkpt lat="47.94635" lon="2.23652">
        <ele>123</ele>
        <time>2017-04-30T08:47:06Z</time>
      </trkpt>
      <trkpt lat="47.94625" lon="2.23642">
        <ele>123</ele>
        <time>2017-04-30T08:47:08Z</time>
      </trkpt>
      <trkpt lat="47.94615" lon="2.23633">
        <ele>123</ele>
        <time>2017-04-30T08:47:10Z</time>
      </trkpt>
      <trkpt lat="47.94605" lon="2.23625">
        <ele>125</ele>
        <time>2017-04-30T08:47:12Z</time>
      </trkpt>
      <trkpt lat="47.94595" lon="2.23617">
        <ele>125</ele>
        <time>2017-04-30T08:47:14Z</time>
      </trkpt>
      <trkpt lat="47.94585" lon="2.23609">
        <ele>124</ele>
        <time>2017-04-30T08:47:16Z</time>
      </trkpt>
      <trkpt lat="47.94574" lon="2.23601">
        <ele>125</ele>
        <time>2017-04-30T08:47:18Z</time>
      </trkpt>
      <trkpt lat="47.94564" lon="2.23593">
        <ele>124</ele>
        <time>2017-04-30T08:47:20Z</time>
      </trkpt>
      <trkpt lat="47.94555" lon="2.23585">
        <ele>125</ele>
        <time>2017-04-30T08:47:22Z</time>
      </trkpt>
      <trkpt lat="47.94545" lon="2.23577">
        <ele>125</ele>
        <time>2017-04-30T08:47:24Z</time>
      </trkpt>
      <trkpt lat="47.94535" lon="2.23569">
        <ele>125</ele>
        <time>2017-04-30T08:47:26Z</time>
      </trkpt>
      <trkpt lat="47.94526" lon="2.2356">
        <ele>125</ele>
        <time>2017-04-30T08:47:28Z</time>
      </trkpt>
      <trkpt lat="47.94526" lon="2.2356">
        <ele>125</ele>
        <time>2017-04-30T08:47:30Z</time>
      </trkpt>
      <trkpt lat="47.94526" lon="2.2356">
        <ele>125</ele>
        <time>2017-04-30T08:47:32Z</time>
      </trkpt>
      <trkpt lat="47.94526" lon="2.2356">
        <ele>125</ele>
        <time>2017-04-30T08:47:34Z</time>
      </trkpt>
      <trkpt lat="47.94526" lon="2.2356">
        <ele>125</ele>
        <time>2017-04-30T08:47:36Z</time>
      </trkpt>
      <trkpt lat="47.94526" lon="2.2356">
        <ele>125</ele>
        <time>2017-04-30T08:47:38Z</time>
      </trkpt>
      <trkpt lat="47.94526" lon="2.2356">
        <ele>125</ele>
        <time>2017-04-30T08:47:40Z</time>
      </trkpt>
      <trkpt lat="47.94526" lon="2.2356">
        <ele>125</ele>
        <time>2017-04-30T08:47:42Z</time>
      </trkpt>
      <trkpt lat="47.94444" lon="2.23491">
        <ele>123</ele>
        <time>2017-04-30T08:47:46Z</time>
      </trkpt>
      <trkpt lat="47.94435" lon="2.23484">
        <ele>123</ele>
        <time>2017-04-30T08:47:48Z</time>
      </trkpt>
      <trkpt lat="47.94435" lon="2.23484">
        <ele>123</ele>
        <time>2017-04-30T08:47:50Z</time>
      </trkpt>
      <trkpt lat="47.94435" lon="2.23484">
        <ele>123</ele>
        <time>2017-04-30T08:47:52Z</time>
      </trkpt>
      <trkpt lat="47.94435" lon="2.23484">
        <ele>123</ele>
        <time>2017-04-30T08:47:54Z</time>
      </trkpt>
      <trkpt lat="47.9439" lon="2.23446">
        <ele>126</ele>
        <time>2017-04-30T08:47:58Z</time>
      </trkpt>
      <trkpt lat="47.9438" lon="2.23438">
        <ele>126</ele>
        <time>2017-04-30T08:48:00Z</time>
      </trkpt>
      <trkpt lat="47.94371" lon="2.23429">
        <ele>126</ele>
        <time>2017-04-30T08:48:02Z</time>
      </trkpt>
      <trkpt lat="47.94361" lon="2.23421">
        <ele>126</ele>
        <time>2017-04-30T08:48:04Z</time>
      </trkpt>
      <trkpt lat="47.94352" lon="2.23411">
        <ele>127</ele>
        <time>2017-04-30T08:48:06Z</time>
      </trkpt>
      <trkpt lat="47.94342" lon="2.23401">
        <ele>127</ele>
        <time>2017-04-30T08:48:08Z</time>
      </trkpt>
      <trkpt lat="47.9433" lon="2.23392">
        <ele>127</ele>
        <time>2017-04-30T08:48:10Z</time>
      </trkpt>
      <trkpt lat="47.94319" lon="2.23381">
        <ele>126</ele>
        <time>2017-04-30T08:48:12Z</time>
      </trkpt>
      <trkpt lat="47.94308" lon="2.23372">
        <ele>125</ele>
        <time>2017-04-30T08:48:14Z</time>
      </trkpt>
      <trkpt lat="47.94297" lon="2.23361">
        <ele>124</ele>
        <time>2017-04-30T08:48:16Z</time>
      </trkpt>
      <trkpt lat="47.94286" lon="2.23353">
        <ele>126</ele>
        <time>2017-04-30T08:48:18Z</time>
      </trkpt>
      <trkpt lat="47.94275" lon="2.23343">
        <ele>127</ele>
        <time>2017-04-30T08:48:20Z</time>
      </trkpt>
      <trkpt lat="47.94264" lon="2.23332">
        <ele>127</ele>
        <time>2017-04-30T08:48:22Z</time>
      </trkpt>
      <trkpt lat="47.94252" lon="2.23322">
        <ele>129</ele>
        <time>2017-04-30T08:48:24Z</time>
      </trkpt>
      <trkpt lat="47.9424" lon="2.23312">
        <ele>129</ele>
        <time>2017-04-30T08:48:26Z</time>
      </trkpt>
      <trkpt lat="47.94228" lon="2.23303">
        <ele>129</ele>
        <time>2017-04-30T08:48:28Z</time>
      </trkpt>
      <trkpt lat="47.94217" lon="2.23293">
        <ele>129</ele>
        <time>2017-04-30T08:48:30Z</time>
      </trkpt>
      <trkpt lat="47.94205" lon="2.23285">
        <ele>130</ele>
        <time>2017-04-30T08:48:32Z</time>
      </trkpt>
      <trkpt lat="47.94194" lon="2.23276">
        <ele>130</ele>
        <time>2017-04-30T08:48:34Z</time>
      </trkpt>
      <trkpt lat="47.94183" lon="2.23267">
        <ele>130</ele>
        <time>2017-04-30T08:48:36Z</time>
      </trkpt>
      <trkpt lat="47.94172" lon="2.23258">
        <ele>131</ele>
        <time>2017-04-30T08:48:38Z</time>
      </trkpt>
      <trkpt lat="47.94161" lon="2.23249">
        <ele>133</ele>
        <time>2017-04-30T08:48:40Z</time>
      </trkpt>
      <trkpt lat="47.94151" lon="2.23239">
        <ele>134</ele>
        <time>2017-04-30T08:48:42Z</time>
      </trkpt>
      <trkpt lat="47.94139" lon="2.23228">
        <ele>134</ele>
        <time>2017-04-30T08:48:44Z</time>
      </trkpt>
      <trkpt lat="47.94128" lon="2.23219">
        <ele>135</ele>
        <time>2017-04-30T08:48:46Z</time>
      </trkpt>
      <trkpt lat="47.94117" lon="2.2321">
        <ele>136</ele>
        <time>2017-04-30T08:48:48Z</time>
      </trkpt>
      <trkpt lat="47.94106" lon="2.23201">
        <ele>136</ele>
        <time>2017-04-30T08:48:50Z</time>
      </trkpt>
      <trkpt lat="47.94095" lon="2.2319">
        <ele>136</ele>
        <time>2017-04-30T08:48:52Z</time>
      </trkpt>
      <trkpt lat="47.94083" lon="2.23181">
        <ele>137</ele>
        <time>2017-04-30T08:48:54Z</time>
      </trkpt>
      <trkpt lat="47.94073" lon="2.23171">
        <ele>136</ele>
        <time>2017-04-30T08:48:56Z</time>
      </trkpt>
      <trkpt lat="47.94061" lon="2.2316">
        <ele>136</ele>
        <time>2017-04-30T08:48:58Z</time>
      </trkpt>
      <trkpt lat="47.94049" lon="2.23153">
        <ele>136</ele>
        <time>2017-04-30T08:49:00Z</time>
      </trkpt>
      <trkpt lat="47.94038" lon="2.23145">
        <ele>136</ele>
        <time>2017-04-30T08:49:02Z</time>
      </trkpt>
      <trkpt lat="47.94026" lon="2.23135">
        <ele>136</ele>
        <time>2017-04-30T08:49:04Z</time>
      </trkpt>
      <trkpt lat="47.94015" lon="2.23125">
        <ele>137</ele>
        <time>2017-04-30T08:49:06Z</time>
      </trkpt>
      <trkpt lat="47.94004" lon="2.23116">
        <ele>137</ele>
        <time>2017-04-30T08:49:08Z</time>
      </trkpt>
      <trkpt lat="47.93994" lon="2.23106">
        <ele>138</ele>
        <time>2017-04-30T08:49:10Z</time>
      </trkpt>
      <trkpt lat="47.93985" lon="2.23095">
        <ele>138</ele>
        <time>2017-04-30T08:49:12Z</time>
      </trkpt>
      <trkpt lat="47.93985" lon="2.23095">
        <ele>138</ele>
        <time>2017-04-30T08:49:14Z</time>
      </trkpt>
      <trkpt lat="47.93985" lon="2.23095">
        <ele>138</ele>
        <time>2017-04-30T08:49:16Z</time>
      </trkpt>
      <trkpt lat="47.9394" lon="2.23059">
        <ele>136</ele>
        <time>2017-04-30T08:49:20Z</time>
      </trkpt>
      <trkpt lat="47.93928" lon="2.23051">
        <ele>135</ele>
        <time>2017-04-30T08:49:22Z</time>
      </trkpt>
      <trkpt lat="47.93918" lon="2.23044">
        <ele>134</ele>
        <time>2017-04-30T08:49:24Z</time>
      </trkpt>
      <trkpt lat="47.93918" lon="2.23044">
        <ele>134</ele>
        <time>2017-04-30T08:49:26Z</time>
      </trkpt>
      <trkpt lat="47.93918" lon="2.23044">
        <ele>134</ele>
        <time>2017-04-30T08:49:28Z</time>
      </trkpt>
      <trkpt lat="47.93918" lon="2.23044">
        <ele>134</ele>
        <time>2017-04-30T08:49:30Z</time>
      </trkpt>
      <trkpt lat="47.93918" lon="2.23044">
        <ele>134</ele>
        <time>2017-04-30T08:49:32Z</time>
      </trkpt>
      <trkpt lat="47.93858" lon="2.22996">
        <ele>129</ele>
        <time>2017-04-30T08:49:38Z</time>
      </trkpt>
      <trkpt lat="47.9385" lon="2.22988">
        <ele>129</ele>
        <time>2017-04-30T08:49:40Z</time>
      </trkpt>
      <trkpt lat="47.93844" lon="2.22977">
        <ele>129</ele>
        <time>2017-04-30T08:49:42Z</time>
      </trkpt>
      <trkpt lat="47.93837" lon="2.22966">
        <ele>129</ele>
        <time>2017-04-30T08:49:44Z</time>
      </trkpt>
      <trkpt lat="47.93829" lon="2.22956">
        <ele>129</ele>
        <time>2017-04-30T08:49:46Z</time>
      </trkpt>
      <trkpt lat="47.9382" lon="2.22945">
        <ele>127</ele>
        <time>2017-04-30T08:49:48Z</time>
      </trkpt>
      <trkpt lat="47.93811" lon="2.22935">
        <ele>127</ele>
        <time>2017-04-30T08:49:50Z</time>
      </trkpt>
      <trkpt lat="47.93802" lon="2.22924">
        <ele>126</ele>
        <time>2017-04-30T08:49:52Z</time>
      </trkpt>
      <trkpt lat="47.93793" lon="2.22914">
        <ele>124</ele>
        <time>2017-04-30T08:49:54Z</time>
      </trkpt>
      <trkpt lat="47.93784" lon="2.22903">
        <ele>123</ele>
        <time>2017-04-30T08:49:56Z</time>
      </trkpt>
      <trkpt lat="47.93776" lon="2.2289">
        <ele>122</ele>
        <time>2017-04-30T08:49:58Z</time>
      </trkpt>
      <trkpt lat="47.93767" lon="2.22878">
        <ele>120</ele>
        <time>2017-04-30T08:50:00Z</time>
      </trkpt>
      <trkpt lat="47.93757" lon="2.22865">
        <ele>118</ele>
        <time>2017-04-30T08:50:02Z</time>
      </trkpt>
      <trkpt lat="47.93747" lon="2.22853">
        <ele>118</ele>
        <time>2017-04-30T08:50:04Z</time>
      </trkpt>
      <trkpt lat="47.93737" lon="2.22841">
        <ele>118</ele>
        <time>2017-04-30T08:50:06Z</time>
      </trkpt>
      <trkpt lat="47.93727" lon="2.22829">
        <ele>116</ele>
        <time>2017-04-30T08:50:08Z</time>
      </trkpt>
      <trkpt lat="47.93718" lon="2.22817">
        <ele>117</ele>
        <time>2017-04-30T08:50:10Z</time>
      </trkpt>
      <trkpt lat="47.93708" lon="2.22805">
        <ele>118</ele>
        <time>2017-04-30T08:50:12Z</time>
      </trkpt>
      <trkpt lat="47.93697" lon="2.22792">
        <ele>119</ele>
        <time>2017-04-30T08:50:14Z</time>
      </trkpt>
      <trkpt lat="47.93687" lon="2.22779">
        <ele>118</ele>
        <time>2017-04-30T08:50:16Z</time>
      </trkpt>
      <trkpt lat="47.93676" lon="2.22767">
        <ele>117</ele>
        <time>2017-04-30T08:50:18Z</time>
      </trkpt>
      <trkpt lat="47.93666" lon="2.22754">
        <ele>117</ele>
        <time>2017-04-30T08:50:20Z</time>
      </trkpt>
      <trkpt lat="47.93657" lon="2.22739">
        <ele>117</ele>
        <time>2017-04-30T08:50:22Z</time>
      </trkpt>
      <trkpt lat="47.93648" lon="2.22725">
        <ele>117</ele>
        <time>2017-04-30T08:50:24Z</time>
      </trkpt>
      <trkpt lat="47.93639" lon="2.2271">
        <ele>118</ele>
        <time>2017-04-30T08:50:26Z</time>
      </trkpt>
      <trkpt lat="47.9363" lon="2.22698">
        <ele>117</ele>
        <time>2017-04-30T08:50:28Z</time>
      </trkpt>
      <trkpt lat="47.93622" lon="2.22685">
        <ele>117</ele>
        <time>2017-04-30T08:50:30Z</time>
      </trkpt>
      <trkpt lat="47.93613" lon="2.22672">
        <ele>116</ele>
        <time>2017-04-30T08:50:32Z</time>
      </trkpt>
      <trkpt lat="47.93606" lon="2.22659">
        <ele>116</ele>
        <time>2017-04-30T08:50:34Z</time>
      </trkpt>
      <trkpt lat="47.93598" lon="2.22649">
        <ele>116</ele>
        <time>2017-04-30T08:50:36Z</time>
      </trkpt>
      <trkpt lat="47.93598" lon="2.22649">
        <ele>116</ele>
        <time>2017-04-30T08:50:38Z</time>
      </trkpt>
      <trkpt lat="47.93598" lon="2.22649">
        <ele>116</ele>
        <time>2017-04-30T08:50:40Z</time>
      </trkpt>
      <trkpt lat="47.93598" lon="2.22649">
        <ele>116</ele>
        <time>2017-04-30T08:50:42Z</time>
      </trkpt>
      <trkpt lat="47.9355" lon="2.22669">
        <ele>117</ele>
        <time>2017-04-30T08:50:46Z</time>
      </trkpt>
      <trkpt lat="47.93538" lon="2.22676">
        <ele>116</ele>
        <time>2017-04-30T08:50:48Z</time>
      </trkpt>
      <trkpt lat="47.93526" lon="2.22684">
        <ele>116</ele>
        <time>2017-04-30T08:50:50Z</time>
      </trkpt>
      <trkpt lat="47.93516" lon="2.22691">
        <ele>117</ele>
        <time>2017-04-30T08:50:52Z</time>
      </trkpt>
      <trkpt lat="47.93505" lon="2.22698">
        <ele>117</ele>
        <time>2017-04-30T08:50:54Z</time>
      </trkpt>
      <trkpt lat="47.93494" lon="2.22704">
        <ele>116</ele>
        <time>2017-04-30T08:50:56Z</time>
      </trkpt>
      <trkpt lat="47.93482" lon="2.22709">
        <ele>116</ele>
        <time>2017-04-30T08:50:58Z</time>
      </trkpt>
      <trkpt lat="47.9347" lon="2.22708">
        <ele>116</ele>
        <time>2017-04-30T08:51:00Z</time>
      </trkpt>
      <trkpt lat="47.93459" lon="2.22703">
        <ele>115</ele>
        <time>2017-04-30T08:51:02Z</time>
      </trkpt>
      <trkpt lat="47.93449" lon="2.22695">
        <ele>115</ele>
        <time>2017-04-30T08:51:04Z</time>
      </trkpt>
      <trkpt lat="47.93438" lon="2.22691">
        <ele>116</ele>
        <time>2017-04-30T08:51:06Z</time>
      </trkpt>
      <trkpt lat="47.93438" lon="2.22691">
        <ele>116</ele>
        <time>2017-04-30T08:51:08Z</time>
      </trkpt>
      <trkpt lat="47.93438" lon="2.22691">
        <ele>116</ele>
        <time>2017-04-30T08:51:10Z</time>
      </trkpt>
      <trkpt lat="47.93438" lon="2.22691">
        <ele>116</ele>
        <time>2017-04-30T08:51:12Z</time>
      </trkpt>
      <trkpt lat="47.93438" lon="2.22691">
        <ele>116</ele>
        <time>2017-04-30T08:51:14Z</time>
      </trkpt>
      <trkpt lat="47.93423" lon="2.22671">
        <ele>112</ele>
        <time>2017-04-30T08:51:18Z</time>
      </trkpt>
      <trkpt lat="47.93414" lon="2.22651">
        <ele>112</ele>
        <time>2017-04-30T08:51:20Z</time>
      </trkpt>
      <trkpt lat="47.93409" lon="2.2263">
        <ele>112</ele>
        <time>2017-04-30T08:51:22Z</time>
      </trkpt>
      <trkpt lat="47.93404" lon="2.2261">
        <ele>112</ele>
        <time>2017-04-30T08:51:24Z</time>
      </trkpt>
      <trkpt lat="47.93401" lon="2.22589">
        <ele>113</ele>
        <time>2017-04-30T08:51:26Z</time>
      </trkpt>
      <trkpt lat="47.93396" lon="2.22547">
        <ele>113</ele>
        <time>2017-04-30T08:51:28Z</time>
      </trkpt>
      <trkpt lat="47.93395" lon="2.22527">
        <ele>113</ele>
        <time>2017-04-30T08:51:30Z</time>
      </trkpt>
      <trkpt lat="47.93393" lon="2.22507">
        <ele>112</ele>
        <time>2017-04-30T08:51:32Z</time>
      </trkpt>
      <trkpt lat="47.93391" lon="2.22487">
        <ele>113</ele>
        <time>2017-04-30T08:51:34Z</time>
      </trkpt>
      <trkpt lat="47.93389" lon="2.22468">
        <ele>114</ele>
        <time>2017-04-30T08:51:36Z</time>
      </trkpt>
      <trkpt lat="47.93387" lon="2.22449">
        <ele>113</ele>
        <time>2017-04-30T08:51:38Z</time>
      </trkpt>
      <trkpt lat="47.93385" lon="2.2243">
        <ele>113</ele>
        <time>2017-04-30T08:51:40Z</time>
      </trkpt>
      <trkpt lat="47.93383" lon="2.22411">
        <ele>113</ele>
        <time>2017-04-30T08:51:42Z</time>
      </trkpt>
      <trkpt lat="47.93381" lon="2.22391">
        <ele>112</ele>
        <time>2017-04-30T08:51:44Z</time>
      </trkpt>
      <trkpt lat="47.93379" lon="2.22371">
        <ele>112</ele>
        <time>2017-04-30T08:51:46Z</time>
      </trkpt>
      <trkpt lat="47.93377" lon="2.22352">
        <ele>112</ele>
        <time>2017-04-30T08:51:48Z</time>
      </trkpt>
      <trkpt lat="47.93375" lon="2.22333">
        <ele>111</ele>
        <time>2017-04-30T08:51:50Z</time>
      </trkpt>
      <trkpt lat="47.93373" lon="2.22313">
        <ele>111</ele>
        <time>2017-04-30T08:51:52Z</time>
      </trkpt>
      <trkpt lat="47.93371" lon="2.22294">
        <ele>111</ele>
        <time>2017-04-30T08:51:54Z</time>
      </trkpt>
      <trkpt lat="47.93369" lon="2.22275">
        <ele>111</ele>
        <time>2017-04-30T08:51:56Z</time>
      </trkpt>
      <trkpt lat="47.93367" lon="2.22256">
        <ele>111</ele>
        <time>2017-04-30T08:51:58Z</time>
      </trkpt>
      <trkpt lat="47.93364" lon="2.22237">
        <ele>111</ele>
        <time>2017-04-30T08:52:00Z</time>
      </trkpt>
      <trkpt lat="47.93362" lon="2.22219">
        <ele>112</ele>
        <time>2017-04-30T08:52:02Z</time>
      </trkpt>
      <trkpt lat="47.93359" lon="2.222">
        <ele>111</ele>
        <time>2017-04-30T08:52:04Z</time>
      </trkpt>
      <trkpt lat="47.93356" lon="2.22181">
        <ele>111</ele>
        <time>2017-04-30T08:52:06Z</time>
      </trkpt>
      <trkpt lat="47.93354" lon="2.22162">
        <ele>111</ele>
        <time>2017-04-30T08:52:08Z</time>
      </trkpt>
      <trkpt lat="47.93352" lon="2.22143">
        <ele>111</ele>
        <time>2017-04-30T08:52:10Z</time>
      </trkpt>
      <trkpt lat="47.93349" lon="2.22124">
        <ele>110</ele>
        <time>2017-04-30T08:52:12Z</time>
      </trkpt>
      <trkpt lat="47.93347" lon="2.22105">
        <ele>111</ele>
        <time>2017-04-30T08:52:14Z</time>
      </trkpt>
      <trkpt lat="47.93344" lon="2.22085">
        <ele>111</ele>
        <time>2017-04-30T08:52:16Z</time>
      </trkpt>
      <trkpt lat="47.93341" lon="2.22067">
        <ele>110</ele>
        <time>2017-04-30T08:52:18Z</time>
      </trkpt>
      <trkpt lat="47.93339" lon="2.22048">
        <ele>111</ele>
        <time>2017-04-30T08:52:20Z</time>
      </trkpt>
      <trkpt lat="47.93337" lon="2.2203">
        <ele>112</ele>
        <time>2017-04-30T08:52:22Z</time>
      </trkpt>
      <trkpt lat="47.93334" lon="2.22011">
        <ele>112</ele>
        <time>2017-04-30T08:52:24Z</time>
      </trkpt>
      <trkpt lat="47.93332" lon="2.21993">
        <ele>113</ele>
        <time>2017-04-30T08:52:26Z</time>
      </trkpt>
      <trkpt lat="47.9333" lon="2.21974">
        <ele>113</ele>
        <time>2017-04-30T08:52:28Z</time>
      </trkpt>
      <trkpt lat="47.93328" lon="2.21955">
        <ele>112</ele>
        <time>2017-04-30T08:52:30Z</time>
      </trkpt>
      <trkpt lat="47.93326" lon="2.21937">
        <ele>111</ele>
        <time>2017-04-30T08:52:32Z</time>
      </trkpt>
      <trkpt lat="47.93324" lon="2.21919">
        <ele>111</ele>
        <time>2017-04-30T08:52:34Z</time>
      </trkpt>
      <trkpt lat="47.93321" lon="2.219">
        <ele>111</ele>
        <time>2017-04-30T08:52:36Z</time>
      </trkpt>
      <trkpt lat="47.9332" lon="2.21882">
        <ele>111</ele>
        <time>2017-04-30T08:52:38Z</time>
      </trkpt>
      <trkpt lat="47.93318" lon="2.21864">
        <ele>111</ele>
        <time>2017-04-30T08:52:40Z</time>
      </trkpt>
      <trkpt lat="47.93316" lon="2.21846">
        <ele>111</ele>
        <time>2017-04-30T08:52:42Z</time>
      </trkpt>
      <trkpt lat="47.93313" lon="2.21829">
        <ele>111</ele>
        <time>2017-04-30T08:52:44Z</time>
      </trkpt>
      <trkpt lat="47.9331" lon="2.21811">
        <ele>110</ele>
        <time>2017-04-30T08:52:46Z</time>
      </trkpt>
      <trkpt lat="47.93309" lon="2.21791">
        <ele>110</ele>
        <time>2017-04-30T08:52:48Z</time>
      </trkpt>
      <trkpt lat="47.93306" lon="2.21771">
        <ele>110</ele>
        <time>2017-04-30T08:52:50Z</time>
      </trkpt>
      <trkpt lat="47.93305" lon="2.21751">
        <ele>110</ele>
        <time>2017-04-30T08:52:52Z</time>
      </trkpt>
      <trkpt lat="47.93303" lon="2.21731">
        <ele>111</ele>
        <time>2017-04-30T08:52:54Z</time>
      </trkpt>
      <trkpt lat="47.93301" lon="2.21712">
        <ele>112</ele>
        <time>2017-04-30T08:52:56Z</time>
      </trkpt>
      <trkpt lat="47.93298" lon="2.21693">
        <ele>112</ele>
        <time>2017-04-30T08:52:58Z</time>
      </trkpt>
      <trkpt lat="47.93296" lon="2.21674">
        <ele>113</ele>
        <time>2017-04-30T08:53:00Z</time>
      </trkpt>
      <trkpt lat="47.93293" lon="2.21655">
        <ele>113</ele>
        <time>2017-04-30T08:53:02Z</time>
      </trkpt>
      <trkpt lat="47.9329" lon="2.21636">
        <ele>113</ele>
        <time>2017-04-30T08:53:04Z</time>
      </trkpt>
      <trkpt lat="47.93287" lon="2.21617">
        <ele>114</ele>
        <time>2017-04-30T08:53:06Z</time>
      </trkpt>
      <trkpt lat="47.93285" lon="2.21598">
        <ele>114</ele>
        <time>2017-04-30T08:53:08Z</time>
      </trkpt>
      <trkpt lat="47.93282" lon="2.21579">
        <ele>114</ele>
        <time>2017-04-30T08:53:10Z</time>
      </trkpt>
      <trkpt lat="47.9328" lon="2.2156">
        <ele>114</ele>
        <time>2017-04-30T08:53:12Z</time>
      </trkpt>
      <trkpt lat="47.93277" lon="2.21542">
        <ele>114</ele>
        <time>2017-04-30T08:53:14Z</time>
      </trkpt>
      <trkpt lat="47.93275" lon="2.21523">
        <ele>114</ele>
        <time>2017-04-30T08:53:16Z</time>
      </trkpt>
      <trkpt lat="47.93273" lon="2.21505">
        <ele>113</ele>
        <time>2017-04-30T08:53:18Z</time>
      </trkpt>
      <trkpt lat="47.93271" lon="2.21486">
        <ele>113</ele>
        <time>2017-04-30T08:53:20Z</time>
      </trkpt>
      <trkpt lat="47.93269" lon="2.21468">
        <ele>113</ele>
        <time>2017-04-30T08:53:22Z</time>
      </trkpt>
      <trkpt lat="47.93267" lon="2.2145">
        <ele>113</ele>
        <time>2017-04-30T08:53:24Z</time>
      </trkpt>
      <trkpt lat="47.93266" lon="2.21432">
        <ele>113</ele>
        <time>2017-04-30T08:53:26Z</time>
      </trkpt>
      <trkpt lat="47.93263" lon="2.21413">
        <ele>112</ele>
        <time>2017-04-30T08:53:28Z</time>
      </trkpt>
      <trkpt lat="47.9326" lon="2.21395">
        <ele>112</ele>
        <time>2017-04-30T08:53:30Z</time>
      </trkpt>
      <trkpt lat="47.93258" lon="2.21377">
        <ele>112</ele>
        <time>2017-04-30T08:53:32Z</time>
      </trkpt>
      <trkpt lat="47.93255" lon="2.21358">
        <ele>111</ele>
        <time>2017-04-30T08:53:34Z</time>
      </trkpt>
      <trkpt lat="47.93251" lon="2.21341">
        <ele>112</ele>
        <time>2017-04-30T08:53:36Z</time>
      </trkpt>
      <trkpt lat="47.93247" lon="2.21323">
        <ele>112</ele>
        <time>2017-04-30T08:53:38Z</time>
      </trkpt>
      <trkpt lat="47.93243" lon="2.21306">
        <ele>112</ele>
        <time>2017-04-30T08:53:40Z</time>
      </trkpt>
      <trkpt lat="47.93239" lon="2.21288">
        <ele>112</ele>
        <time>2017-04-30T08:53:42Z</time>
      </trkpt>
      <trkpt lat="47.93234" lon="2.21271">
        <ele>112</ele>
        <time>2017-04-30T08:53:44Z</time>
      </trkpt>
      <trkpt lat="47.9323" lon="2.21254">
        <ele>112</ele>
        <time>2017-04-30T08:53:46Z</time>
      </trkpt>
      <trkpt lat="47.93225" lon="2.21237">
        <ele>112</ele>
        <time>2017-04-30T08:53:48Z</time>
      </trkpt>
      <trkpt lat="47.93221" lon="2.2122">
        <ele>112</ele>
        <time>2017-04-30T08:53:50Z</time>
      </trkpt>
      <trkpt lat="47.93215" lon="2.21205">
        <ele>112</ele>
        <time>2017-04-30T08:53:52Z</time>
      </trkpt>
      <trkpt lat="47.93209" lon="2.21189">
        <ele>112</ele>
        <time>2017-04-30T08:53:54Z</time>
      </trkpt>
      <trkpt lat="47.93204" lon="2.21174">
        <ele>112</ele>
        <time>2017-04-30T08:53:56Z</time>
      </trkpt>
      <trkpt lat="47.93198" lon="2.2116">
        <ele>111</ele>
        <time>2017-04-30T08:53:58Z</time>
      </trkpt>
      <trkpt lat="47.93191" lon="2.21145">
        <ele>110</ele>
        <time>2017-04-30T08:54:00Z</time>
      </trkpt>
      <trkpt lat="47.93185" lon="2.2113">
        <ele>110</ele>
        <time>2017-04-30T08:54:02Z</time>
      </trkpt>
      <trkpt lat="47.93179" lon="2.21116">
        <ele>111</ele>
        <time>2017-04-30T08:54:04Z</time>
      </trkpt>
      <trkpt lat="47.93173" lon="2.21101">
        <ele>111</ele>
        <time>2017-04-30T08:54:06Z</time>
      </trkpt>
      <trkpt lat="47.93167" lon="2.21087">
        <ele>111</ele>
        <time>2017-04-30T08:54:08Z</time>
      </trkpt>
      <trkpt lat="47.9316" lon="2.21073">
        <ele>112</ele>
        <time>2017-04-30T08:54:10Z</time>
      </trkpt>
      <trkpt lat="47.93154" lon="2.21059">
        <ele>111</ele>
        <time>2017-04-30T08:54:12Z</time>
      </trkpt>
      <trkpt lat="47.93148" lon="2.21044">
        <ele>111</ele>
        <time>2017-04-30T08:54:14Z</time>
      </trkpt>
      <trkpt lat="47.93143" lon="2.21029">
        <ele>112</ele>
        <time>2017-04-30T08:54:16Z</time>
      </trkpt>
      <trkpt lat="47.93138" lon="2.21014">
        <ele>112</ele>
        <time>2017-04-30T08:54:18Z</time>
      </trkpt>
      <trkpt lat="47.93133" lon="2.20999">
        <ele>111</ele>
        <time>2017-04-30T08:54:20Z</time>
      </trkpt>
      <trkpt lat="47.93128" lon="2.20983">
        <ele>111</ele>
        <time>2017-04-30T08:54:22Z</time>
      </trkpt>
      <trkpt lat="47.93124" lon="2.20967">
        <ele>110</ele>
        <time>2017-04-30T08:54:24Z</time>
      </trkpt>
      <trkpt lat="47.9312" lon="2.2095">
        <ele>111</ele>
        <time>2017-04-30T08:54:26Z</time>
      </trkpt>
      <trkpt lat="47.93116" lon="2.20934">
        <ele>110</ele>
        <time>2017-04-30T08:54:28Z</time>
      </trkpt>
      <trkpt lat="47.93112" lon="2.20917">
        <ele>110</ele>
        <time>2017-04-30T08:54:30Z</time>
      </trkpt>
      <trkpt lat="47.93109" lon="2.20901">
        <ele>110</ele>
        <time>2017-04-30T08:54:32Z</time>
      </trkpt>
      <trkpt lat="47.93105" lon="2.20884">
        <ele>111</ele>
        <time>2017-04-30T08:54:34Z</time>
      </trkpt>
      <trkpt lat="47.93102" lon="2.20867">
        <ele>112</ele>
        <time>2017-04-30T08:54:36Z</time>
      </trkpt>
      <trkpt lat="47.93098" lon="2.20851">
        <ele>112</ele>
        <time>2017-04-30T08:54:38Z</time>
      </trkpt>
      <trkpt lat="47.93094" lon="2.20836">
        <ele>112</ele>
        <time>2017-04-30T08:54:40Z</time>
      </trkpt>
      <trkpt lat="47.9309" lon="2.20819">
        <ele>112</ele>
        <time>2017-04-30T08:54:42Z</time>
      </trkpt>
      <trkpt lat="47.93085" lon="2.20803">
        <ele>111</ele>
        <time>2017-04-30T08:54:44Z</time>
      </trkpt>
      <trkpt lat="47.93082" lon="2.20787">
        <ele>112</ele>
        <time>2017-04-30T08:54:46Z</time>
      </trkpt>
      <trkpt lat="47.93079" lon="2.2077">
        <ele>112</ele>
        <time>2017-04-30T08:54:48Z</time>
      </trkpt>
      <trkpt lat="47.93074" lon="2.20754">
        <ele>114</ele>
        <time>2017-04-30T08:54:50Z</time>
      </trkpt>
      <trkpt lat="47.93069" lon="2.20738">
        <ele>114</ele>
        <time>2017-04-30T08:54:52Z</time>
      </trkpt>
      <trkpt lat="47.93065" lon="2.20721">
        <ele>112</ele>
        <time>2017-04-30T08:54:54Z</time>
      </trkpt>
      <trkpt lat="47.93062" lon="2.20706">
        <ele>112</ele>
        <time>2017-04-30T08:54:56Z</time>
      </trkpt>
      <trkpt lat="47.93058" lon="2.2069">
        <ele>112</ele>
        <time>2017-04-30T08:54:58Z</time>
      </trkpt>
      <trkpt lat="47.93054" lon="2.20674">
        <ele>111</ele>
        <time>2017-04-30T08:55:00Z</time>
      </trkpt>
      <trkpt lat="47.9305" lon="2.20657">
        <ele>111</ele>
        <time>2017-04-30T08:55:02Z</time>
      </trkpt>
      <trkpt lat="47.93047" lon="2.2064">
        <ele>111</ele>
        <time>2017-04-30T08:55:04Z</time>
      </trkpt>
      <trkpt lat="47.93045" lon="2.20623">
        <ele>111</ele>
        <time>2017-04-30T08:55:06Z</time>
      </trkpt>
      <trkpt lat="47.93044" lon="2.20606">
        <ele>111</ele>
        <time>2017-04-30T08:55:08Z</time>
      </trkpt>
      <trkpt lat="47.93042" lon="2.20589">
        <ele>111</ele>
        <time>2017-04-30T08:55:10Z</time>
      </trkpt>
      <trkpt lat="47.93041" lon="2.20572">
        <ele>111</ele>
        <time>2017-04-30T08:55:12Z</time>
      </trkpt>
      <trkpt lat="47.93039" lon="2.20555">
        <ele>112</ele>
        <time>2017-04-30T08:55:14Z</time>
      </trkpt>
      <trkpt lat="47.93038" lon="2.20538">
        <ele>113</ele>
        <time>2017-04-30T08:55:16Z</time>
      </trkpt>
      <trkpt lat="47.93038" lon="2.2052">
        <ele>113</ele>
        <time>2017-04-30T08:55:18Z</time>
      </trkpt>
      <trkpt lat="47.93038" lon="2.20502">
        <ele>113</ele>
        <time>2017-04-30T08:55:20Z</time>
      </trkpt>
      <trkpt lat="47.9304" lon="2.20484">
        <ele>113</ele>
        <time>2017-04-30T08:55:22Z</time>
      </trkpt>
      <trkpt lat="47.93042" lon="2.20467">
        <ele>114</ele>
        <time>2017-04-30T08:55:24Z</time>
      </trkpt>
      <trkpt lat="47.93044" lon="2.20449">
        <ele>113</ele>
        <time>2017-04-30T08:55:26Z</time>
      </trkpt>
      <trkpt lat="47.93048" lon="2.20433">
        <ele>113</ele>
        <time>2017-04-30T08:55:28Z</time>
      </trkpt>
      <trkpt lat="47.93052" lon="2.20415">
        <ele>114</ele>
        <time>2017-04-30T08:55:30Z</time>
      </trkpt>
      <trkpt lat="47.93056" lon="2.20398">
        <ele>115</ele>
        <time>2017-04-30T08:55:32Z</time>
      </trkpt>
      <trkpt lat="47.93059" lon="2.20382">
        <ele>114</ele>
        <time>2017-04-30T08:55:34Z</time>
      </trkpt>
      <trkpt lat="47.93062" lon="2.20366">
        <ele>114</ele>
        <time>2017-04-30T08:55:36Z</time>
      </trkpt>
      <trkpt lat="47.93062" lon="2.20366">
        <ele>114</ele>
        <time>2017-04-30T08:55:38Z</time>
      </trkpt>
      <trkpt lat="47.93062" lon="2.20366">
        <ele>114</ele>
        <time>2017-04-30T08:55:40Z</time>
      </trkpt>
      <trkpt lat="47.93075" lon="2.20283">
        <ele>110</ele>
        <time>2017-04-30T08:55:46Z</time>
      </trkpt>
      <trkpt lat="47.93078" lon="2.20264">
        <ele>110</ele>
        <time>2017-04-30T08:55:48Z</time>
      </trkpt>
      <trkpt lat="47.93082" lon="2.20246">
        <ele>111</ele>
        <time>2017-04-30T08:55:50Z</time>
      </trkpt>
      <trkpt lat="47.93085" lon="2.20228">
        <ele>112</ele>
        <time>2017-04-30T08:55:52Z</time>
      </trkpt>
      <trkpt lat="47.93089" lon="2.20209">
        <ele>113</ele>
        <time>2017-04-30T08:55:54Z</time>
      </trkpt>
      <trkpt lat="47.93092" lon="2.20191">
        <ele>114</ele>
        <time>2017-04-30T08:55:56Z</time>
      </trkpt>
      <trkpt lat="47.93095" lon="2.20172">
        <ele>114</ele>
        <time>2017-04-30T08:55:58Z</time>
      </trkpt>
      <trkpt lat="47.93098" lon="2.20156">
        <ele>114</ele>
        <time>2017-04-30T08:56:00Z</time>
      </trkpt>
      <trkpt lat="47.93099" lon="2.20138">
        <ele>115</ele>
        <time>2017-04-30T08:56:02Z</time>
      </trkpt>
      <trkpt lat="47.931" lon="2.2012">
        <ele>115</ele>
        <time>2017-04-30T08:56:04Z</time>
      </trkpt>
      <trkpt lat="47.93099" lon="2.20101">
        <ele>115</ele>
        <time>2017-04-30T08:56:06Z</time>
      </trkpt>
      <trkpt lat="47.93098" lon="2.20082">
        <ele>115</ele>
        <time>2017-04-30T08:56:08Z</time>
      </trkpt>
      <trkpt lat="47.93096" lon="2.20063">
        <ele>114</ele>
        <time>2017-04-30T08:56:10Z</time>
      </trkpt>
      <trkpt lat="47.93092" lon="2.20044">
        <ele>114</ele>
        <time>2017-04-30T08:56:12Z</time>
      </trkpt>
      <trkpt lat="47.93088" lon="2.20027">
        <ele>114</ele>
        <time>2017-04-30T08:56:14Z</time>
      </trkpt>
      <trkpt lat="47.93084" lon="2.20009">
        <ele>114</ele>
        <time>2017-04-30T08:56:16Z</time>
      </trkpt>
      <trkpt lat="47.9308" lon="2.19992">
        <ele>114</ele>
        <time>2017-04-30T08:56:18Z</time>
      </trkpt>
      <trkpt lat="47.93076" lon="2.19975">
        <ele>114</ele>
        <time>2017-04-30T08:56:20Z</time>
      </trkpt>
      <trkpt lat="47.93071" lon="2.19958">
        <ele>114</ele>
        <time>2017-04-30T08:56:22Z</time>
      </trkpt>
      <trkpt lat="47.93067" lon="2.19942">
        <ele>114</ele>
        <time>2017-04-30T08:56:24Z</time>
      </trkpt>
      <trkpt lat="47.93063" lon="2.19926">
        <ele>113</ele>
        <time>2017-04-30T08:56:26Z</time>
      </trkpt>
      <trkpt lat="47.9306" lon="2.1991">
        <ele>113</ele>
        <time>2017-04-30T08:56:28Z</time>
      </trkpt>
      <trkpt lat="47.93056" lon="2.19894">
        <ele>113</ele>
        <time>2017-04-30T08:56:30Z</time>
      </trkpt>
      <trkpt lat="47.93053" lon="2.19878">
        <ele>113</ele>
        <time>2017-04-30T08:56:32Z</time>
      </trkpt>
      <trkpt lat="47.93051" lon="2.19862">
        <ele>114</ele>
        <time>2017-04-30T08:56:34Z</time>
      </trkpt>
      <trkpt lat="47.9305" lon="2.19846">
        <ele>113</ele>
        <time>2017-04-30T08:56:36Z</time>
      </trkpt>
      <trkpt lat="47.9305" lon="2.19846">
        <ele>113</ele>
        <time>2017-04-30T08:56:38Z</time>
      </trkpt>
      <trkpt lat="47.9305" lon="2.19846">
        <ele>113</ele>
        <time>2017-04-30T08:56:40Z</time>
      </trkpt>
      <trkpt lat="47.9305" lon="2.19846">
        <ele>113</ele>
        <time>2017-04-30T08:56:42Z</time>
      </trkpt>
      <trkpt lat="47.9305" lon="2.19846">
        <ele>113</ele>
        <time>2017-04-30T08:56:44Z</time>
      </trkpt>
      <trkpt lat="47.9305" lon="2.19846">
        <ele>113</ele>
        <time>2017-04-30T08:56:46Z</time>
      </trkpt>
      <trkpt lat="47.9305" lon="2.19846">
        <ele>113</ele>
        <time>2017-04-30T08:56:48Z</time>
      </trkpt>
      <trkpt lat="47.9305" lon="2.19846">
        <ele>113</ele>
        <time>2017-04-30T08:56:50Z</time>
      </trkpt>
      <trkpt lat="47.9305" lon="2.19846">
        <ele>113</ele>
        <time>2017-04-30T08:56:52Z</time>
      </trkpt>
      <trkpt lat="47.9305" lon="2.19846">
        <ele>113</ele>
        <time>2017-04-30T08:56:54Z</time>
      </trkpt>
      <trkpt lat="47.93042" lon="2.19732">
        <ele>116</ele>
        <time>2017-04-30T09:01:34Z</time>
      </trkpt>
      <trkpt lat="47.93042" lon="2.19732">
        <ele>116</ele>
        <time>2017-04-30T09:01:37Z</time>
      </trkpt>
      <trkpt lat="47.93022" lon="2.19718">
        <ele>116</ele>
        <time>2017-04-30T09:01:41Z</time>
      </trkpt>
      <trkpt lat="47.93012" lon="2.19718">
        <ele>115</ele>
        <time>2017-04-30T09:01:43Z</time>
      </trkpt>
      <trkpt lat="47.93001" lon="2.19717">
        <ele>114</ele>
        <time>2017-04-30T09:01:45Z</time>
      </trkpt>
      <trkpt lat="47.92992" lon="2.19715">
        <ele>113</ele>
        <time>2017-04-30T09:01:47Z</time>
      </trkpt>
      <trkpt lat="47.92992" lon="2.19715">
        <ele>113</ele>
        <time>2017-04-30T09:01:49Z</time>
      </trkpt>
      <trkpt lat="47.92992" lon="2.19715">
        <ele>113</ele>
        <time>2017-04-30T09:01:51Z</time>
      </trkpt>
      <trkpt lat="47.92992" lon="2.19715">
        <ele>113</ele>
        <time>2017-04-30T09:01:53Z</time>
      </trkpt>
      <trkpt lat="47.92984" lon="2.19668">
        <ele>113</ele>
        <time>2017-04-30T09:01:57Z</time>
      </trkpt>
      <trkpt lat="47.92987" lon="2.19654">
        <ele>113</ele>
        <time>2017-04-30T09:01:59Z</time>
      </trkpt>
      <trkpt lat="47.92989" lon="2.19638">
        <ele>113</ele>
        <time>2017-04-30T09:02:01Z</time>
      </trkpt>
      <trkpt lat="47.92988" lon="2.19623">
        <ele>113</ele>
        <time>2017-04-30T09:02:03Z</time>
      </trkpt>
      <trkpt lat="47.92986" lon="2.19608">
        <ele>112</ele>
        <time>2017-04-30T09:02:05Z</time>
      </trkpt>
      <trkpt lat="47.92982" lon="2.19594">
        <ele>112</ele>
        <time>2017-04-30T09:02:07Z</time>
      </trkpt>
      <trkpt lat="47.92982" lon="2.19594">
        <ele>112</ele>
        <time>2017-04-30T09:02:09Z</time>
      </trkpt>
      <trkpt lat="47.92982" lon="2.19594">
        <ele>112</ele>
        <time>2017-04-30T09:02:11Z</time>
      </trkpt>
      <trkpt lat="47.92982" lon="2.19594">
        <ele>112</ele>
        <time>2017-04-30T09:02:13Z</time>
      </trkpt>
      <trkpt lat="47.92982" lon="2.19594">
        <ele>112</ele>
        <time>2017-04-30T09:02:15Z</time>
      </trkpt>
      <trkpt lat="47.92956" lon="2.19529">
        <ele>114</ele>
        <time>2017-04-30T09:02:19Z</time>
      </trkpt>
      <trkpt lat="47.92951" lon="2.19517">
        <ele>114</ele>
        <time>2017-04-30T09:02:21Z</time>
      </trkpt>
      <trkpt lat="47.92947" lon="2.19505">
        <ele>114</ele>
        <time>2017-04-30T09:02:23Z</time>
      </trkpt>
      <trkpt lat="47.92942" lon="2.19493">
        <ele>114</ele>
        <time>2017-04-30T09:02:25Z</time>
      </trkpt>
      <trkpt lat="47.92937" lon="2.19481">
        <ele>114</ele>
        <time>2017-04-30T09:02:27Z</time>
      </trkpt>
      <trkpt lat="47.92932" lon="2.19468">
        <ele>114</ele>
        <time>2017-04-30T09:02:29Z</time>
      </trkpt>
      <trkpt lat="47.92927" lon="2.19455">
        <ele>114</ele>
        <time>2017-04-30T09:02:31Z</time>
      </trkpt>
      <trkpt lat="47.92922" lon="2.19442">
        <ele>113</ele>
        <time>2017-04-30T09:02:33Z</time>
      </trkpt>
      <trkpt lat="47.92918" lon="2.19429">
        <ele>114</ele>
        <time>2017-04-30T09:02:35Z</time>
      </trkpt>
      <trkpt lat="47.92918" lon="2.19429">
        <ele>114</ele>
        <time>2017-04-30T09:02:37Z</time>
      </trkpt>
      <trkpt lat="47.92918" lon="2.19429">
        <ele>114</ele>
        <time>2017-04-30T09:02:39Z</time>
      </trkpt>
      <trkpt lat="47.92918" lon="2.19429">
        <ele>114</ele>
        <time>2017-04-30T09:02:41Z</time>
      </trkpt>
      <trkpt lat="47.92918" lon="2.19429">
        <ele>114</ele>
        <time>2017-04-30T09:02:43Z</time>
      </trkpt>
      <trkpt lat="47.9289" lon="2.19356">
        <ele>114</ele>
        <time>2017-04-30T09:02:47Z</time>
      </trkpt>
      <trkpt lat="47.92886" lon="2.19344">
        <ele>114</ele>
        <time>2017-04-30T09:02:49Z</time>
      </trkpt>
      <trkpt lat="47.92881" lon="2.19332">
        <ele>114</ele>
        <time>2017-04-30T09:02:51Z</time>
      </trkpt>
      <trkpt lat="47.92877" lon="2.1932">
        <ele>114</ele>
        <time>2017-04-30T09:02:53Z</time>
      </trkpt>
      <trkpt lat="47.92872" lon="2.19308">
        <ele>115</ele>
        <time>2017-04-30T09:02:55Z</time>
      </trkpt>
      <trkpt lat="47.92866" lon="2.19296">
        <ele>115</ele>
        <time>2017-04-30T09:02:57Z</time>
      </trkpt>
      <trkpt lat="47.92861" lon="2.19283">
        <ele>115</ele>
        <time>2017-04-30T09:02:59Z</time>
      </trkpt>
      <trkpt lat="47.92861" lon="2.19283">
        <ele>115</ele>
        <time>2017-04-30T09:03:01Z</time>
      </trkpt>
      <trkpt lat="47.92861" lon="2.19283">
        <ele>115</ele>
        <time>2017-04-30T09:03:03Z</time>
      </trkpt>
      <trkpt lat="47.92861" lon="2.19283">
        <ele>115</ele>
        <time>2017-04-30T09:03:05Z</time>
      </trkpt>
      <trkpt lat="47.92838" lon="2.19221">
        <ele>113</ele>
        <time>2017-04-30T09:03:09Z</time>
      </trkpt>
      <trkpt lat="47.92833" lon="2.19208">
        <ele>114</ele>
        <time>2017-04-30T09:03:11Z</time>
      </trkpt>
      <trkpt lat="47.92827" lon="2.19195">
        <ele>116</ele>
        <time>2017-04-30T09:03:13Z</time>
      </trkpt>
      <trkpt lat="47.92822" lon="2.19182">
        <ele>116</ele>
        <time>2017-04-30T09:03:15Z</time>
      </trkpt>
      <trkpt lat="47.92815" lon="2.19169">
        <ele>117</ele>
        <time>2017-04-30T09:03:17Z</time>
      </trkpt>
      <trkpt lat="47.9281" lon="2.19157">
        <ele>117</ele>
        <time>2017-04-30T09:03:19Z</time>
      </trkpt>
      <trkpt lat="47.9281" lon="2.19157">
        <ele>117</ele>
        <time>2017-04-30T09:03:21Z</time>
      </trkpt>
      <trkpt lat="47.9281" lon="2.19157">
        <ele>117</ele>
        <time>2017-04-30T09:03:23Z</time>
      </trkpt>
      <trkpt lat="47.92788" lon="2.19092">
        <ele>116</ele>
        <time>2017-04-30T09:03:29Z</time>
      </trkpt>
      <trkpt lat="47.92783" lon="2.19079">
        <ele>117</ele>
        <time>2017-04-30T09:03:31Z</time>
      </trkpt>
      <trkpt lat="47.92779" lon="2.19067">
        <ele>117</ele>
        <time>2017-04-30T09:03:33Z</time>
      </trkpt>
      <trkpt lat="47.92779" lon="2.19067">
        <ele>117</ele>
        <time>2017-04-30T09:03:35Z</time>
      </trkpt>
      <trkpt lat="47.92779" lon="2.19067">
        <ele>117</ele>
        <time>2017-04-30T09:03:37Z</time>
      </trkpt>
      <trkpt lat="47.92779" lon="2.19067">
        <ele>117</ele>
        <time>2017-04-30T09:03:39Z</time>
      </trkpt>
      <trkpt lat="47.92779" lon="2.19067">
        <ele>117</ele>
        <time>2017-04-30T09:03:41Z</time>
      </trkpt>
      <trkpt lat="47.92779" lon="2.19067">
        <ele>117</ele>
        <time>2017-04-30T09:03:43Z</time>
      </trkpt>
      <trkpt lat="47.92762" lon="2.19024">
        <ele>113</ele>
        <time>2017-04-30T09:03:47Z</time>
      </trkpt>
      <trkpt lat="47.92752" lon="2.18996">
        <ele>112</ele>
        <time>2017-04-30T09:03:49Z</time>
      </trkpt>
      <trkpt lat="47.92744" lon="2.18975">
        <ele>112</ele>
        <time>2017-04-30T09:03:51Z</time>
      </trkpt>
      <trkpt lat="47.92738" lon="2.18958">
        <ele>112</ele>
        <time>2017-04-30T09:03:53Z</time>
      </trkpt>
      <trkpt lat="47.92738" lon="2.18958">
        <ele>112</ele>
        <time>2017-04-30T09:03:55Z</time>
      </trkpt>
      <trkpt lat="47.92738" lon="2.18958">
        <ele>112</ele>
        <time>2017-04-30T09:03:57Z</time>
      </trkpt>
      <trkpt lat="47.92723" lon="2.18918">
        <ele>116</ele>
        <time>2017-04-30T09:04:03Z</time>
      </trkpt>
      <trkpt lat="47.92723" lon="2.18918">
        <ele>116</ele>
        <time>2017-04-30T09:04:05Z</time>
      </trkpt>
      <trkpt lat="47.92723" lon="2.18918">
        <ele>116</ele>
        <time>2017-04-30T09:04:07Z</time>
      </trkpt>
      <trkpt lat="47.92706" lon="2.18875">
        <ele>118</ele>
        <time>2017-04-30T09:04:11Z</time>
      </trkpt>
      <trkpt lat="47.92696" lon="2.18847">
        <ele>120</ele>
        <time>2017-04-30T09:04:13Z</time>
      </trkpt>
      <trkpt lat="47.92688" lon="2.18827">
        <ele>120</ele>
        <time>2017-04-30T09:04:15Z</time>
      </trkpt>
      <trkpt lat="47.92688" lon="2.18827">
        <ele>120</ele>
        <time>2017-04-30T09:04:17Z</time>
      </trkpt>
      <trkpt lat="47.92688" lon="2.18827">
        <ele>120</ele>
        <time>2017-04-30T09:04:19Z</time>
      </trkpt>
      <trkpt lat="47.92688" lon="2.18827">
        <ele>120</ele>
        <time>2017-04-30T09:04:21Z</time>
      </trkpt>
      <trkpt lat="47.92688" lon="2.18827">
        <ele>120</ele>
        <time>2017-04-30T09:04:23Z</time>
      </trkpt>
      <trkpt lat="47.92672" lon="2.18783">
        <ele>121</ele>
        <time>2017-04-30T09:04:27Z</time>
      </trkpt>
      <trkpt lat="47.92661" lon="2.18756">
        <ele>122</ele>
        <time>2017-04-30T09:04:29Z</time>
      </trkpt>
      <trkpt lat="47.92661" lon="2.18756">
        <ele>122</ele>
        <time>2017-04-30T09:04:31Z</time>
      </trkpt>
      <trkpt lat="47.92661" lon="2.18756">
        <ele>122</ele>
        <time>2017-04-30T09:04:33Z</time>
      </trkpt>
      <trkpt lat="47.92661" lon="2.18756">
        <ele>122</ele>
        <time>2017-04-30T09:04:35Z</time>
      </trkpt>
      <trkpt lat="47.92661" lon="2.18756">
        <ele>122</ele>
        <time>2017-04-30T09:04:37Z</time>
      </trkpt>
      <trkpt lat="47.92661" lon="2.18756">
        <ele>122</ele>
        <time>2017-04-30T09:04:39Z</time>
      </trkpt>
      <trkpt lat="47.92661" lon="2.18756">
        <ele>122</ele>
        <time>2017-04-30T09:04:41Z</time>
      </trkpt>
      <trkpt lat="47.92661" lon="2.18756">
        <ele>122</ele>
        <time>2017-04-30T09:04:43Z</time>
      </trkpt>
      <trkpt lat="47.92639" lon="2.18695">
        <ele>120</ele>
        <time>2017-04-30T09:04:47Z</time>
      </trkpt>
      <trkpt lat="47.92639" lon="2.18695">
        <ele>120</ele>
        <time>2017-04-30T09:04:49Z</time>
      </trkpt>
      <trkpt lat="47.92639" lon="2.18695">
        <ele>120</ele>
        <time>2017-04-30T09:04:51Z</time>
      </trkpt>
      <trkpt lat="47.92617" lon="2.18641">
        <ele>122</ele>
        <time>2017-04-30T09:04:57Z</time>
      </trkpt>
      <trkpt lat="47.92605" lon="2.18609">
        <ele>122</ele>
        <time>2017-04-30T09:04:59Z</time>
      </trkpt>
      <trkpt lat="47.92596" lon="2.18587">
        <ele>122</ele>
        <time>2017-04-30T09:05:01Z</time>
      </trkpt>
      <trkpt lat="47.9259" lon="2.18571">
        <ele>121</ele>
        <time>2017-04-30T09:05:03Z</time>
      </trkpt>
      <trkpt lat="47.92585" lon="2.18557">
        <ele>121</ele>
        <time>2017-04-30T09:05:05Z</time>
      </trkpt>
      <trkpt lat="47.92576" lon="2.18531">
        <ele>121</ele>
        <time>2017-04-30T09:05:07Z</time>
      </trkpt>
      <trkpt lat="47.92568" lon="2.18508">
        <ele>119</ele>
        <time>2017-04-30T09:05:11Z</time>
      </trkpt>
      <trkpt lat="47.9256" lon="2.18486">
        <ele>120</ele>
        <time>2017-04-30T09:05:15Z</time>
      </trkpt>
      <trkpt lat="47.9256" lon="2.18486">
        <ele>120</ele>
        <time>2017-04-30T09:05:17Z</time>
      </trkpt>
      <trkpt lat="47.9256" lon="2.18486">
        <ele>120</ele>
        <time>2017-04-30T09:05:19Z</time>
      </trkpt>
      <trkpt lat="47.9256" lon="2.18486">
        <ele>120</ele>
        <time>2017-04-30T09:05:21Z</time>
      </trkpt>
      <trkpt lat="47.92538" lon="2.18429">
        <ele>122</ele>
        <time>2017-04-30T09:05:25Z</time>
      </trkpt>
      <trkpt lat="47.9253" lon="2.18407">
        <ele>122</ele>
        <time>2017-04-30T09:05:29Z</time>
      </trkpt>
      <trkpt lat="47.9253" lon="2.18407">
        <ele>122</ele>
        <time>2017-04-30T09:05:31Z</time>
      </trkpt>
      <trkpt lat="47.9253" lon="2.18407">
        <ele>122</ele>
        <time>2017-04-30T09:05:33Z</time>
      </trkpt>
      <trkpt lat="47.92514" lon="2.18364">
        <ele>122</ele>
        <time>2017-04-30T09:05:37Z</time>
      </trkpt>
      <trkpt lat="47.92503" lon="2.18344">
        <ele>120</ele>
        <time>2017-04-30T09:05:41Z</time>
      </trkpt>
      <trkpt lat="47.92503" lon="2.18344">
        <ele>120</ele>
        <time>2017-04-30T09:05:43Z</time>
      </trkpt>
      <trkpt lat="47.92493" lon="2.18324">
        <ele>120</ele>
        <time>2017-04-30T09:05:45Z</time>
      </trkpt>
      <trkpt lat="47.92493" lon="2.18324">
        <ele>120</ele>
        <time>2017-04-30T09:05:47Z</time>
      </trkpt>
      <trkpt lat="47.92493" lon="2.18324">
        <ele>120</ele>
        <time>2017-04-30T09:05:49Z</time>
      </trkpt>
      <trkpt lat="47.92493" lon="2.18324">
        <ele>120</ele>
        <time>2017-04-30T09:05:51Z</time>
      </trkpt>
      <trkpt lat="47.92493" lon="2.18324">
        <ele>120</ele>
        <time>2017-04-30T09:05:59Z</time>
      </trkpt>
      <trkpt lat="47.92493" lon="2.18324">
        <ele>120</ele>
        <time>2017-04-30T09:06:01Z</time>
      </trkpt>
      <trkpt lat="47.92493" lon="2.18324">
        <ele>120</ele>
        <time>2017-04-30T09:06:05Z</time>
      </trkpt>
      <trkpt lat="47.92436" lon="2.18233">
        <ele>120</ele>
        <time>2017-04-30T09:06:07Z</time>
      </trkpt>
      <trkpt lat="47.92422" lon="2.18218">
        <ele>121</ele>
        <time>2017-04-30T09:06:11Z</time>
      </trkpt>
      <trkpt lat="47.92411" lon="2.18202">
        <ele>120</ele>
        <time>2017-04-30T09:06:15Z</time>
      </trkpt>
      <trkpt lat="47.92398" lon="2.18186">
        <ele>120</ele>
        <time>2017-04-30T09:06:19Z</time>
      </trkpt>
      <trkpt lat="47.92386" lon="2.1817">
        <ele>120</ele>
        <time>2017-04-30T09:06:23Z</time>
      </trkpt>
      <trkpt lat="47.92374" lon="2.18153">
        <ele>120</ele>
        <time>2017-04-30T09:06:27Z</time>
      </trkpt>
      <trkpt lat="47.92362" lon="2.18137">
        <ele>120</ele>
        <time>2017-04-30T09:06:31Z</time>
      </trkpt>
      <trkpt lat="47.92349" lon="2.1812">
        <ele>120</ele>
        <time>2017-04-30T09:06:35Z</time>
      </trkpt>
      <trkpt lat="47.92342" lon="2.18111">
        <ele>121</ele>
        <time>2017-04-30T09:06:39Z</time>
      </trkpt>
      <trkpt lat="47.92336" lon="2.18103">
        <ele>121</ele>
        <time>2017-04-30T09:06:41Z</time>
      </trkpt>
      <trkpt lat="47.92329" lon="2.18094">
        <ele>121</ele>
        <time>2017-04-30T09:06:43Z</time>
      </trkpt>
      <trkpt lat="47.92329" lon="2.18094">
        <ele>121</ele>
        <time>2017-04-30T09:06:45Z</time>
      </trkpt>
      <trkpt lat="47.92329" lon="2.18094">
        <ele>121</ele>
        <time>2017-04-30T09:06:47Z</time>
      </trkpt>
      <trkpt lat="47.92329" lon="2.18094">
        <ele>121</ele>
        <time>2017-04-30T09:06:49Z</time>
      </trkpt>
      <trkpt lat="47.92329" lon="2.18094">
        <ele>121</ele>
        <time>2017-04-30T09:06:51Z</time>
      </trkpt>
      <trkpt lat="47.92308" lon="2.18065">
        <ele>121</ele>
        <time>2017-04-30T09:06:55Z</time>
      </trkpt>
      <trkpt lat="47.92293" lon="2.18046">
        <ele>121</ele>
        <time>2017-04-30T09:06:57Z</time>
      </trkpt>
      <trkpt lat="47.92283" lon="2.18031">
        <ele>121</ele>
        <time>2017-04-30T09:06:59Z</time>
      </trkpt>
      <trkpt lat="47.92274" lon="2.1802">
        <ele>121</ele>
        <time>2017-04-30T09:07:01Z</time>
      </trkpt>
      <trkpt lat="47.92266" lon="2.18009">
        <ele>121</ele>
        <time>2017-04-30T09:07:03Z</time>
      </trkpt>
      <trkpt lat="47.92251" lon="2.17989">
        <ele>121</ele>
        <time>2017-04-30T09:07:05Z</time>
      </trkpt>
      <trkpt lat="47.92244" lon="2.1798">
        <ele>121</ele>
        <time>2017-04-30T09:07:07Z</time>
      </trkpt>
      <trkpt lat="47.92236" lon="2.17971">
        <ele>121</ele>
        <time>2017-04-30T09:07:09Z</time>
      </trkpt>
      <trkpt lat="47.92229" lon="2.17961">
        <ele>121</ele>
        <time>2017-04-30T09:07:11Z</time>
      </trkpt>
      <trkpt lat="47.92222" lon="2.17951">
        <ele>121</ele>
        <time>2017-04-30T09:07:13Z</time>
      </trkpt>
      <trkpt lat="47.92222" lon="2.17951">
        <ele>121</ele>
        <time>2017-04-30T09:07:15Z</time>
      </trkpt>
      <trkpt lat="47.92222" lon="2.17951">
        <ele>121</ele>
        <time>2017-04-30T09:07:17Z</time>
      </trkpt>
      <trkpt lat="47.922" lon="2.17923">
        <ele>122</ele>
        <time>2017-04-30T09:07:19Z</time>
      </trkpt>
      <trkpt lat="47.92193" lon="2.17915">
        <ele>123</ele>
        <time>2017-04-30T09:07:21Z</time>
      </trkpt>
      <trkpt lat="47.92184" lon="2.17907">
        <ele>124</ele>
        <time>2017-04-30T09:07:23Z</time>
      </trkpt>
      <trkpt lat="47.92178" lon="2.17897">
        <ele>124</ele>
        <time>2017-04-30T09:07:25Z</time>
      </trkpt>
      <trkpt lat="47.92178" lon="2.17897">
        <ele>124</ele>
        <time>2017-04-30T09:07:27Z</time>
      </trkpt>
      <trkpt lat="47.92178" lon="2.17897">
        <ele>124</ele>
        <time>2017-04-30T09:07:29Z</time>
      </trkpt>
      <trkpt lat="47.92178" lon="2.17897">
        <ele>124</ele>
        <time>2017-04-30T09:07:35Z</time>
      </trkpt>
      <trkpt lat="47.92178" lon="2.17897">
        <ele>124</ele>
        <time>2017-04-30T09:07:37Z</time>
      </trkpt>
      <trkpt lat="47.92178" lon="2.17897">
        <ele>124</ele>
        <time>2017-04-30T09:07:39Z</time>
      </trkpt>
      <trkpt lat="47.92178" lon="2.17897">
        <ele>124</ele>
        <time>2017-04-30T09:07:43Z</time>
      </trkpt>
      <trkpt lat="47.92178" lon="2.17897">
        <ele>124</ele>
        <time>2017-04-30T09:07:45Z</time>
      </trkpt>
      <trkpt lat="47.92178" lon="2.17897">
        <ele>124</ele>
        <time>2017-04-30T09:07:47Z</time>
      </trkpt>
      <trkpt lat="47.92178" lon="2.17897">
        <ele>124</ele>
        <time>2017-04-30T09:07:49Z</time>
      </trkpt>
      <trkpt lat="47.92178" lon="2.17897">
        <ele>124</ele>
        <time>2017-04-30T09:07:55Z</time>
      </trkpt>
      <trkpt lat="47.92178" lon="2.17897">
        <ele>124</ele>
        <time>2017-04-30T09:07:57Z</time>
      </trkpt>
      <trkpt lat="47.92178" lon="2.17897">
        <ele>124</ele>
        <time>2017-04-30T09:07:59Z</time>
      </trkpt>
      <trkpt lat="47.92178" lon="2.17897">
        <ele>124</ele>
        <time>2017-04-30T09:08:01Z</time>
      </trkpt>
      <trkpt lat="47.92178" lon="2.17897">
        <ele>124</ele>
        <time>2017-04-30T09:08:03Z</time>
      </trkpt>
      <trkpt lat="47.92178" lon="2.17897">
        <ele>124</ele>
        <time>2017-04-30T09:08:05Z</time>
      </trkpt>
      <trkpt lat="47.92033" lon="2.17698">
        <ele>134</ele>
        <time>2017-04-30T09:08:09Z</time>
      </trkpt>
      <trkpt lat="47.92026" lon="2.17688">
        <ele>134</ele>
        <time>2017-04-30T09:08:11Z</time>
      </trkpt>
      <trkpt lat="47.92019" lon="2.17678">
        <ele>134</ele>
        <time>2017-04-30T09:08:13Z</time>
      </trkpt>
      <trkpt lat="47.92013" lon="2.17668">
        <ele>134</ele>
        <time>2017-04-30T09:08:15Z</time>
      </trkpt>
      <trkpt lat="47.92006" lon="2.17658">
        <ele>133</ele>
        <time>2017-04-30T09:08:17Z</time>
      </trkpt>
      <trkpt lat="47.91998" lon="2.17649">
        <ele>132</ele>
        <time>2017-04-30T09:08:19Z</time>
      </trkpt>
      <trkpt lat="47.91991" lon="2.1764">
        <ele>132</ele>
        <time>2017-04-30T09:08:21Z</time>
      </trkpt>
      <trkpt lat="47.91991" lon="2.1764">
        <ele>132</ele>
        <time>2017-04-30T09:08:23Z</time>
      </trkpt>
      <trkpt lat="47.91991" lon="2.1764">
        <ele>132</ele>
        <time>2017-04-30T09:08:25Z</time>
      </trkpt>
      <trkpt lat="47.9197" lon="2.17611">
        <ele>131</ele>
        <time>2017-04-30T09:08:27Z</time>
      </trkpt>
      <trkpt lat="47.91962" lon="2.17601">
        <ele>131</ele>
        <time>2017-04-30T09:08:29Z</time>
      </trkpt>
      <trkpt lat="47.91954" lon="2.17592">
        <ele>131</ele>
        <time>2017-04-30T09:08:31Z</time>
      </trkpt>
      <trkpt lat="47.91947" lon="2.17581">
        <ele>129</ele>
        <time>2017-04-30T09:08:33Z</time>
      </trkpt>
      <trkpt lat="47.91939" lon="2.17572">
        <ele>129</ele>
        <time>2017-04-30T09:08:35Z</time>
      </trkpt>
      <trkpt lat="47.91932" lon="2.17562">
        <ele>127</ele>
        <time>2017-04-30T09:08:37Z</time>
      </trkpt>
      <trkpt lat="47.91924" lon="2.17551">
        <ele>128</ele>
        <time>2017-04-30T09:08:39Z</time>
      </trkpt>
      <trkpt lat="47.91916" lon="2.1754">
        <ele>127</ele>
        <time>2017-04-30T09:08:41Z</time>
      </trkpt>
      <trkpt lat="47.91908" lon="2.1753">
        <ele>129</ele>
        <time>2017-04-30T09:08:43Z</time>
      </trkpt>
      <trkpt lat="47.91901" lon="2.17517">
        <ele>129</ele>
        <time>2017-04-30T09:08:45Z</time>
      </trkpt>
      <trkpt lat="47.91893" lon="2.17505">
        <ele>128</ele>
        <time>2017-04-30T09:08:47Z</time>
      </trkpt>
      <trkpt lat="47.91885" lon="2.17494">
        <ele>128</ele>
        <time>2017-04-30T09:08:49Z</time>
      </trkpt>
      <trkpt lat="47.91878" lon="2.17482">
        <ele>129</ele>
        <time>2017-04-30T09:08:51Z</time>
      </trkpt>
      <trkpt lat="47.91878" lon="2.17482">
        <ele>129</ele>
        <time>2017-04-30T09:08:53Z</time>
      </trkpt>
      <trkpt lat="47.91878" lon="2.17482">
        <ele>129</ele>
        <time>2017-04-30T09:08:55Z</time>
      </trkpt>
      <trkpt lat="47.91878" lon="2.17482">
        <ele>129</ele>
        <time>2017-04-30T09:08:57Z</time>
      </trkpt>
      <trkpt lat="47.91878" lon="2.17482">
        <ele>129</ele>
        <time>2017-04-30T09:08:59Z</time>
      </trkpt>
      <trkpt lat="47.91878" lon="2.17482">
        <ele>129</ele>
        <time>2017-04-30T09:09:03Z</time>
      </trkpt>
      <trkpt lat="47.91878" lon="2.17482">
        <ele>129</ele>
        <time>2017-04-30T09:09:05Z</time>
      </trkpt>
      <trkpt lat="47.91878" lon="2.17482">
        <ele>129</ele>
        <time>2017-04-30T09:09:07Z</time>
      </trkpt>
      <trkpt lat="47.91878" lon="2.17482">
        <ele>129</ele>
        <time>2017-04-30T09:09:09Z</time>
      </trkpt>
      <trkpt lat="47.91878" lon="2.17482">
        <ele>129</ele>
        <time>2017-04-30T09:09:11Z</time>
      </trkpt>
      <trkpt lat="47.91878" lon="2.17482">
        <ele>129</ele>
        <time>2017-04-30T09:09:13Z</time>
      </trkpt>
      <trkpt lat="47.91878" lon="2.17482">
        <ele>129</ele>
        <time>2017-04-30T09:09:15Z</time>
      </trkpt>
      <trkpt lat="47.91878" lon="2.17482">
        <ele>129</ele>
        <time>2017-04-30T09:09:21Z</time>
      </trkpt>
      <trkpt lat="47.91825" lon="2.17405">
        <ele>127</ele>
        <time>2017-04-30T09:09:23Z</time>
      </trkpt>
      <trkpt lat="47.91797" lon="2.17359">
        <ele>126</ele>
        <time>2017-04-30T09:09:25Z</time>
      </trkpt>
      <trkpt lat="47.91782" lon="2.17328">
        <ele>126</ele>
        <time>2017-04-30T09:09:27Z</time>
      </trkpt>
      <trkpt lat="47.91774" lon="2.17305">
        <ele>125</ele>
        <time>2017-04-30T09:09:29Z</time>
      </trkpt>
      <trkpt lat="47.91768" lon="2.17286">
        <ele>125</ele>
        <time>2017-04-30T09:09:31Z</time>
      </trkpt>
      <trkpt lat="47.9176" lon="2.17249">
        <ele>124</ele>
        <time>2017-04-30T09:09:33Z</time>
      </trkpt>
      <trkpt lat="47.91758" lon="2.17232">
        <ele>124</ele>
        <time>2017-04-30T09:09:35Z</time>
      </trkpt>
      <trkpt lat="47.91756" lon="2.17215">
        <ele>124</ele>
        <time>2017-04-30T09:09:37Z</time>
      </trkpt>
      <trkpt lat="47.91753" lon="2.17197">
        <ele>124</ele>
        <time>2017-04-30T09:09:39Z</time>
      </trkpt>
      <trkpt lat="47.9175" lon="2.17179">
        <ele>124</ele>
        <time>2017-04-30T09:09:41Z</time>
      </trkpt>
      <trkpt lat="47.91748" lon="2.17161">
        <ele>124</ele>
        <time>2017-04-30T09:09:43Z</time>
      </trkpt>
      <trkpt lat="47.91745" lon="2.17142">
        <ele>124</ele>
        <time>2017-04-30T09:09:45Z</time>
      </trkpt>
      <trkpt lat="47.91743" lon="2.17124">
        <ele>123</ele>
        <time>2017-04-30T09:09:47Z</time>
      </trkpt>
      <trkpt lat="47.9174" lon="2.17105">
        <ele>123</ele>
        <time>2017-04-30T09:09:49Z</time>
      </trkpt>
      <trkpt lat="47.91738" lon="2.17087">
        <ele>123</ele>
        <time>2017-04-30T09:09:51Z</time>
      </trkpt>
      <trkpt lat="47.91735" lon="2.17068">
        <ele>123</ele>
        <time>2017-04-30T09:09:53Z</time>
      </trkpt>
      <trkpt lat="47.91733" lon="2.1705">
        <ele>123</ele>
        <time>2017-04-30T09:09:55Z</time>
      </trkpt>
      <trkpt lat="47.9173" lon="2.17031">
        <ele>123</ele>
        <time>2017-04-30T09:09:57Z</time>
      </trkpt>
      <trkpt lat="47.91727" lon="2.17013">
        <ele>123</ele>
        <time>2017-04-30T09:09:59Z</time>
      </trkpt>
      <trkpt lat="47.91725" lon="2.16994">
        <ele>123</ele>
        <time>2017-04-30T09:10:01Z</time>
      </trkpt>
      <trkpt lat="47.91723" lon="2.16975">
        <ele>122</ele>
        <time>2017-04-30T09:10:03Z</time>
      </trkpt>
      <trkpt lat="47.9172" lon="2.16956">
        <ele>123</ele>
        <time>2017-04-30T09:10:05Z</time>
      </trkpt>
      <trkpt lat="47.91718" lon="2.16937">
        <ele>123</ele>
        <time>2017-04-30T09:10:07Z</time>
      </trkpt>
      <trkpt lat="47.91715" lon="2.16919">
        <ele>122</ele>
        <time>2017-04-30T09:10:09Z</time>
      </trkpt>
      <trkpt lat="47.91709" lon="2.16902">
        <ele>122</ele>
        <time>2017-04-30T09:10:11Z</time>
      </trkpt>
      <trkpt lat="47.917" lon="2.16889">
        <ele>122</ele>
        <time>2017-04-30T09:10:13Z</time>
      </trkpt>
      <trkpt lat="47.9169" lon="2.1688">
        <ele>122</ele>
        <time>2017-04-30T09:10:15Z</time>
      </trkpt>
      <trkpt lat="47.91679" lon="2.16872">
        <ele>123</ele>
        <time>2017-04-30T09:10:17Z</time>
      </trkpt>
      <trkpt lat="47.91668" lon="2.16864">
        <ele>123</ele>
        <time>2017-04-30T09:10:19Z</time>
      </trkpt>
      <trkpt lat="47.91658" lon="2.16855">
        <ele>123</ele>
        <time>2017-04-30T09:10:21Z</time>
      </trkpt>
      <trkpt lat="47.91648" lon="2.16847">
        <ele>123</ele>
        <time>2017-04-30T09:10:23Z</time>
      </trkpt>
      <trkpt lat="47.91638" lon="2.16839">
        <ele>123</ele>
        <time>2017-04-30T09:10:25Z</time>
      </trkpt>
      <trkpt lat="47.91628" lon="2.16831">
        <ele>123</ele>
        <time>2017-04-30T09:10:27Z</time>
      </trkpt>
      <trkpt lat="47.91618" lon="2.16823">
        <ele>123</ele>
        <time>2017-04-30T09:10:29Z</time>
      </trkpt>
      <trkpt lat="47.91608" lon="2.16814">
        <ele>123</ele>
        <time>2017-04-30T09:10:31Z</time>
      </trkpt>
      <trkpt lat="47.91598" lon="2.16806">
        <ele>123</ele>
        <time>2017-04-30T09:10:33Z</time>
      </trkpt>
      <trkpt lat="47.91588" lon="2.16798">
        <ele>123</ele>
        <time>2017-04-30T09:10:35Z</time>
      </trkpt>
      <trkpt lat="47.91578" lon="2.1679">
        <ele>123</ele>
        <time>2017-04-30T09:10:37Z</time>
      </trkpt>
      <trkpt lat="47.91568" lon="2.16782">
        <ele>123</ele>
        <time>2017-04-30T09:10:39Z</time>
      </trkpt>
      <trkpt lat="47.91558" lon="2.16773">
        <ele>123</ele>
        <time>2017-04-30T09:10:41Z</time>
      </trkpt>
      <trkpt lat="47.91549" lon="2.16764">
        <ele>122</ele>
        <time>2017-04-30T09:10:43Z</time>
      </trkpt>
      <trkpt lat="47.91539" lon="2.16755">
        <ele>122</ele>
        <time>2017-04-30T09:10:45Z</time>
      </trkpt>
      <trkpt lat="47.91528" lon="2.16745">
        <ele>122</ele>
        <time>2017-04-30T09:10:47Z</time>
      </trkpt>
      <trkpt lat="47.91518" lon="2.16736">
        <ele>122</ele>
        <time>2017-04-30T09:10:49Z</time>
      </trkpt>
      <trkpt lat="47.91508" lon="2.16726">
        <ele>122</ele>
        <time>2017-04-30T09:10:51Z</time>
      </trkpt>
      <trkpt lat="47.91498" lon="2.16716">
        <ele>122</ele>
        <time>2017-04-30T09:10:53Z</time>
      </trkpt>
      <trkpt lat="47.91488" lon="2.16705">
        <ele>122</ele>
        <time>2017-04-30T09:10:55Z</time>
      </trkpt>
      <trkpt lat="47.91477" lon="2.16694">
        <ele>122</ele>
        <time>2017-04-30T09:10:57Z</time>
      </trkpt>
      <trkpt lat="47.91467" lon="2.16684">
        <ele>122</ele>
        <time>2017-04-30T09:10:59Z</time>
      </trkpt>
      <trkpt lat="47.91455" lon="2.16673">
        <ele>121</ele>
        <time>2017-04-30T09:11:01Z</time>
      </trkpt>
      <trkpt lat="47.91444" lon="2.16663">
        <ele>121</ele>
        <time>2017-04-30T09:11:03Z</time>
      </trkpt>
      <trkpt lat="47.91432" lon="2.16652">
        <ele>121</ele>
        <time>2017-04-30T09:11:05Z</time>
      </trkpt>
      <trkpt lat="47.91421" lon="2.1664">
        <ele>120</ele>
        <time>2017-04-30T09:11:07Z</time>
      </trkpt>
      <trkpt lat="47.91409" lon="2.16629">
        <ele>120</ele>
        <time>2017-04-30T09:11:09Z</time>
      </trkpt>
      <trkpt lat="47.91397" lon="2.16618">
        <ele>120</ele>
        <time>2017-04-30T09:11:11Z</time>
      </trkpt>
      <trkpt lat="47.91386" lon="2.16606">
        <ele>120</ele>
        <time>2017-04-30T09:11:13Z</time>
      </trkpt>
      <trkpt lat="47.91374" lon="2.16595">
        <ele>119</ele>
        <time>2017-04-30T09:11:15Z</time>
      </trkpt>
      <trkpt lat="47.91363" lon="2.16583">
        <ele>119</ele>
        <time>2017-04-30T09:11:17Z</time>
      </trkpt>
      <trkpt lat="47.91351" lon="2.16572">
        <ele>119</ele>
        <time>2017-04-30T09:11:19Z</time>
      </trkpt>
      <trkpt lat="47.91339" lon="2.16561">
        <ele>119</ele>
        <time>2017-04-30T09:11:21Z</time>
      </trkpt>
      <trkpt lat="47.91328" lon="2.1655">
        <ele>119</ele>
        <time>2017-04-30T09:11:23Z</time>
      </trkpt>
      <trkpt lat="47.91317" lon="2.16539">
        <ele>119</ele>
        <time>2017-04-30T09:11:25Z</time>
      </trkpt>
      <trkpt lat="47.91306" lon="2.16528">
        <ele>118</ele>
        <time>2017-04-30T09:11:27Z</time>
      </trkpt>
      <trkpt lat="47.91294" lon="2.16517">
        <ele>118</ele>
        <time>2017-04-30T09:11:29Z</time>
      </trkpt>
      <trkpt lat="47.91284" lon="2.16508">
        <ele>118</ele>
        <time>2017-04-30T09:11:31Z</time>
      </trkpt>
      <trkpt lat="47.91275" lon="2.16498">
        <ele>118</ele>
        <time>2017-04-30T09:11:33Z</time>
      </trkpt>
      <trkpt lat="47.91275" lon="2.16498">
        <ele>118</ele>
        <time>2017-04-30T09:11:35Z</time>
      </trkpt>
      <trkpt lat="47.91275" lon="2.16498">
        <ele>118</ele>
        <time>2017-04-30T09:11:37Z</time>
      </trkpt>
      <trkpt lat="47.91275" lon="2.16498">
        <ele>118</ele>
        <time>2017-04-30T09:11:39Z</time>
      </trkpt>
      <trkpt lat="47.91248" lon="2.16471">
        <ele>118</ele>
        <time>2017-04-30T09:11:45Z</time>
      </trkpt>
      <trkpt lat="47.91232" lon="2.16456">
        <ele>119</ele>
        <time>2017-04-30T09:11:49Z</time>
      </trkpt>
      <trkpt lat="47.91224" lon="2.16448">
        <ele>118</ele>
        <time>2017-04-30T09:11:51Z</time>
      </trkpt>
      <trkpt lat="47.91215" lon="2.16439">
        <ele>118</ele>
        <time>2017-04-30T09:11:53Z</time>
      </trkpt>
      <trkpt lat="47.91206" lon="2.1643">
        <ele>118</ele>
        <time>2017-04-30T09:11:55Z</time>
      </trkpt>
      <trkpt lat="47.91196" lon="2.16421">
        <ele>118</ele>
        <time>2017-04-30T09:11:57Z</time>
      </trkpt>
      <trkpt lat="47.91187" lon="2.16411">
        <ele>118</ele>
        <time>2017-04-30T09:11:59Z</time>
      </trkpt>
      <trkpt lat="47.91177" lon="2.16401">
        <ele>118</ele>
        <time>2017-04-30T09:12:01Z</time>
      </trkpt>
      <trkpt lat="47.91167" lon="2.16391">
        <ele>117</ele>
        <time>2017-04-30T09:12:03Z</time>
      </trkpt>
      <trkpt lat="47.91158" lon="2.16381">
        <ele>117</ele>
        <time>2017-04-30T09:12:05Z</time>
      </trkpt>
      <trkpt lat="47.91149" lon="2.1637">
        <ele>117</ele>
        <time>2017-04-30T09:12:07Z</time>
      </trkpt>
      <trkpt lat="47.9114" lon="2.16358">
        <ele>118</ele>
        <time>2017-04-30T09:12:09Z</time>
      </trkpt>
      <trkpt lat="47.91131" lon="2.16346">
        <ele>118</ele>
        <time>2017-04-30T09:12:11Z</time>
      </trkpt>
      <trkpt lat="47.91123" lon="2.16333">
        <ele>118</ele>
        <time>2017-04-30T09:12:13Z</time>
      </trkpt>
      <trkpt lat="47.91115" lon="2.1632">
        <ele>118</ele>
        <time>2017-04-30T09:12:15Z</time>
      </trkpt>
      <trkpt lat="47.91107" lon="2.16307">
        <ele>118</ele>
        <time>2017-04-30T09:12:17Z</time>
      </trkpt>
      <trkpt lat="47.911" lon="2.16295">
        <ele>118</ele>
        <time>2017-04-30T09:12:19Z</time>
      </trkpt>
      <trkpt lat="47.91093" lon="2.16282">
        <ele>119</ele>
        <time>2017-04-30T09:12:21Z</time>
      </trkpt>
      <trkpt lat="47.91087" lon="2.16269">
        <ele>119</ele>
        <time>2017-04-30T09:12:23Z</time>
      </trkpt>
      <trkpt lat="47.91087" lon="2.16269">
        <ele>119</ele>
        <time>2017-04-30T09:12:25Z</time>
      </trkpt>
      <trkpt lat="47.91087" lon="2.16269">
        <ele>119</ele>
        <time>2017-04-30T09:12:27Z</time>
      </trkpt>
      <trkpt lat="47.91087" lon="2.16269">
        <ele>119</ele>
        <time>2017-04-30T09:12:29Z</time>
      </trkpt>
      <trkpt lat="47.91087" lon="2.16269">
        <ele>119</ele>
        <time>2017-04-30T09:12:31Z</time>
      </trkpt>
      <trkpt lat="47.91087" lon="2.16269">
        <ele>119</ele>
        <time>2017-04-30T09:12:33Z</time>
      </trkpt>
      <trkpt lat="47.91087" lon="2.16269">
        <ele>119</ele>
        <time>2017-04-30T09:12:35Z</time>
      </trkpt>
      <trkpt lat="47.91087" lon="2.16269">
        <ele>119</ele>
        <time>2017-04-30T09:12:37Z</time>
      </trkpt>
      <trkpt lat="47.91087" lon="2.16269">
        <ele>119</ele>
        <time>2017-04-30T09:12:39Z</time>
      </trkpt>
      <trkpt lat="47.91087" lon="2.16269">
        <ele>119</ele>
        <time>2017-04-30T09:12:41Z</time>
      </trkpt>
      <trkpt lat="47.91087" lon="2.16269">
        <ele>119</ele>
        <time>2017-04-30T09:12:43Z</time>
      </trkpt>
      <trkpt lat="47.91087" lon="2.16269">
        <ele>119</ele>
        <time>2017-04-30T09:12:47Z</time>
      </trkpt>
      <trkpt lat="47.91087" lon="2.16269">
        <ele>119</ele>
        <time>2017-04-30T09:12:49Z</time>
      </trkpt>
      <trkpt lat="47.91087" lon="2.16269">
        <ele>119</ele>
        <time>2017-04-30T09:12:51Z</time>
      </trkpt>
      <trkpt lat="47.91087" lon="2.16269">
        <ele>119</ele>
        <time>2017-04-30T09:12:53Z</time>
      </trkpt>
      <trkpt lat="47.91087" lon="2.16269">
        <ele>119</ele>
        <time>2017-04-30T09:12:55Z</time>
      </trkpt>
      <trkpt lat="47.90968" lon="2.1611">
        <ele>122</ele>
        <time>2017-04-30T09:12:59Z</time>
      </trkpt>
      <trkpt lat="47.90959" lon="2.16104">
        <ele>122</ele>
        <time>2017-04-30T09:13:01Z</time>
      </trkpt>
      <trkpt lat="47.9095" lon="2.16098">
        <ele>121</ele>
        <time>2017-04-30T09:13:03Z</time>
      </trkpt>
      <trkpt lat="47.9094" lon="2.16091">
        <ele>121</ele>
        <time>2017-04-30T09:13:05Z</time>
      </trkpt>
      <trkpt lat="47.90929" lon="2.16083">
        <ele>120</ele>
        <time>2017-04-30T09:13:07Z</time>
      </trkpt>
      <trkpt lat="47.90918" lon="2.16074">
        <ele>120</ele>
        <time>2017-04-30T09:13:09Z</time>
      </trkpt>
      <trkpt lat="47.90906" lon="2.16066">
        <ele>119</ele>
        <time>2017-04-30T09:13:11Z</time>
      </trkpt>
      <trkpt lat="47.90894" lon="2.16056">
        <ele>118</ele>
        <time>2017-04-30T09:13:13Z</time>
      </trkpt>
      <trkpt lat="47.90881" lon="2.16045">
        <ele>117</ele>
        <time>2017-04-30T09:13:15Z</time>
      </trkpt>
      <trkpt lat="47.90868" lon="2.16033">
        <ele>117</ele>
        <time>2017-04-30T09:13:17Z</time>
      </trkpt>
      <trkpt lat="47.90855" lon="2.16019">
        <ele>116</ele>
        <time>2017-04-30T09:13:19Z</time>
      </trkpt>
      <trkpt lat="47.90841" lon="2.16004">
        <ele>115</ele>
        <time>2017-04-30T09:13:21Z</time>
      </trkpt>
      <trkpt lat="47.90827" lon="2.15988">
        <ele>114</ele>
        <time>2017-04-30T09:13:23Z</time>
      </trkpt>
      <trkpt lat="47.90813" lon="2.15972">
        <ele>113</ele>
        <time>2017-04-30T09:13:25Z</time>
      </trkpt>
      <trkpt lat="47.90799" lon="2.15956">
        <ele>112</ele>
        <time>2017-04-30T09:13:27Z</time>
      </trkpt>
      <trkpt lat="47.90786" lon="2.15941">
        <ele>112</ele>
        <time>2017-04-30T09:13:29Z</time>
      </trkpt>
      <trkpt lat="47.90773" lon="2.15926">
        <ele>112</ele>
        <time>2017-04-30T09:13:31Z</time>
      </trkpt>
      <trkpt lat="47.90762" lon="2.15911">
        <ele>113</ele>
        <time>2017-04-30T09:13:33Z</time>
      </trkpt>
      <trkpt lat="47.90751" lon="2.15897">
        <ele>113</ele>
        <time>2017-04-30T09:13:35Z</time>
      </trkpt>
      <trkpt lat="47.90741" lon="2.15884">
        <ele>113</ele>
        <time>2017-04-30T09:13:37Z</time>
      </trkpt>
      <trkpt lat="47.90732" lon="2.15873">
        <ele>114</ele>
        <time>2017-04-30T09:13:39Z</time>
      </trkpt>
      <trkpt lat="47.90722" lon="2.15861">
        <ele>114</ele>
        <time>2017-04-30T09:13:41Z</time>
      </trkpt>
      <trkpt lat="47.90713" lon="2.15849">
        <ele>114</ele>
        <time>2017-04-30T09:13:43Z</time>
      </trkpt>
      <trkpt lat="47.90704" lon="2.15838">
        <ele>114</ele>
        <time>2017-04-30T09:13:45Z</time>
      </trkpt>
      <trkpt lat="47.90694" lon="2.15826">
        <ele>114</ele>
        <time>2017-04-30T09:13:47Z</time>
      </trkpt>
      <trkpt lat="47.90685" lon="2.15815">
        <ele>114</ele>
        <time>2017-04-30T09:13:49Z</time>
      </trkpt>
      <trkpt lat="47.90676" lon="2.15804">
        <ele>115</ele>
        <time>2017-04-30T09:13:51Z</time>
      </trkpt>
      <trkpt lat="47.90667" lon="2.15793">
        <ele>115</ele>
        <time>2017-04-30T09:13:53Z</time>
      </trkpt>
      <trkpt lat="47.90659" lon="2.15783">
        <ele>115</ele>
        <time>2017-04-30T09:13:55Z</time>
      </trkpt>
      <trkpt lat="47.90649" lon="2.15772">
        <ele>115</ele>
        <time>2017-04-30T09:13:57Z</time>
      </trkpt>
      <trkpt lat="47.9064" lon="2.15762">
        <ele>115</ele>
        <time>2017-04-30T09:13:59Z</time>
      </trkpt>
      <trkpt lat="47.90631" lon="2.15752">
        <ele>115</ele>
        <time>2017-04-30T09:14:01Z</time>
      </trkpt>
      <trkpt lat="47.90623" lon="2.15741">
        <ele>115</ele>
        <time>2017-04-30T09:14:03Z</time>
      </trkpt>
      <trkpt lat="47.90615" lon="2.15731">
        <ele>115</ele>
        <time>2017-04-30T09:14:05Z</time>
      </trkpt>
      <trkpt lat="47.90615" lon="2.15731">
        <ele>115</ele>
        <time>2017-04-30T09:14:07Z</time>
      </trkpt>
      <trkpt lat="47.90615" lon="2.15731">
        <ele>115</ele>
        <time>2017-04-30T09:14:09Z</time>
      </trkpt>
      <trkpt lat="47.90615" lon="2.15731">
        <ele>115</ele>
        <time>2017-04-30T09:14:11Z</time>
      </trkpt>
      <trkpt lat="47.90615" lon="2.15731">
        <ele>115</ele>
        <time>2017-04-30T09:14:13Z</time>
      </trkpt>
      <trkpt lat="47.90615" lon="2.15731">
        <ele>115</ele>
        <time>2017-04-30T09:14:15Z</time>
      </trkpt>
      <trkpt lat="47.90615" lon="2.15731">
        <ele>115</ele>
        <time>2017-04-30T09:14:17Z</time>
      </trkpt>
      <trkpt lat="47.90586" lon="2.15689">
        <ele>115</ele>
        <time>2017-04-30T09:14:21Z</time>
      </trkpt>
      <trkpt lat="47.90569" lon="2.15662">
        <ele>115</ele>
        <time>2017-04-30T09:14:23Z</time>
      </trkpt>
      <trkpt lat="47.90557" lon="2.15643">
        <ele>115</ele>
        <time>2017-04-30T09:14:25Z</time>
      </trkpt>
      <trkpt lat="47.90557" lon="2.15643">
        <ele>115</ele>
        <time>2017-04-30T09:14:27Z</time>
      </trkpt>
      <trkpt lat="47.90557" lon="2.15643">
        <ele>115</ele>
        <time>2017-04-30T09:14:29Z</time>
      </trkpt>
      <trkpt lat="47.90557" lon="2.15643">
        <ele>115</ele>
        <time>2017-04-30T09:14:31Z</time>
      </trkpt>
      <trkpt lat="47.90557" lon="2.15643">
        <ele>115</ele>
        <time>2017-04-30T09:14:33Z</time>
      </trkpt>
      <trkpt lat="47.90557" lon="2.15643">
        <ele>115</ele>
        <time>2017-04-30T09:14:35Z</time>
      </trkpt>
      <trkpt lat="47.90557" lon="2.15643">
        <ele>115</ele>
        <time>2017-04-30T09:14:37Z</time>
      </trkpt>
      <trkpt lat="47.90557" lon="2.15643">
        <ele>115</ele>
        <time>2017-04-30T09:14:39Z</time>
      </trkpt>
      <trkpt lat="47.90518" lon="2.15581">
        <ele>115</ele>
        <time>2017-04-30T09:14:45Z</time>
      </trkpt>
      <trkpt lat="47.90496" lon="2.15544">
        <ele>115</ele>
        <time>2017-04-30T09:14:47Z</time>
      </trkpt>
      <trkpt lat="47.90481" lon="2.1552">
        <ele>115</ele>
        <time>2017-04-30T09:14:49Z</time>
      </trkpt>
      <trkpt lat="47.9047" lon="2.15503">
        <ele>115</ele>
        <time>2017-04-30T09:14:51Z</time>
      </trkpt>
      <trkpt lat="47.90462" lon="2.15489">
        <ele>115</ele>
        <time>2017-04-30T09:14:53Z</time>
      </trkpt>
      <trkpt lat="47.90446" lon="2.15464">
        <ele>114</ele>
        <time>2017-04-30T09:14:55Z</time>
      </trkpt>
      <trkpt lat="47.90438" lon="2.15455">
        <ele>114</ele>
        <time>2017-04-30T09:14:57Z</time>
      </trkpt>
      <trkpt lat="47.90432" lon="2.15444">
        <ele>114</ele>
        <time>2017-04-30T09:14:59Z</time>
      </trkpt>
      <trkpt lat="47.90432" lon="2.15444">
        <ele>114</ele>
        <time>2017-04-30T09:15:01Z</time>
      </trkpt>
      <trkpt lat="47.90432" lon="2.15444">
        <ele>114</ele>
        <time>2017-04-30T09:15:03Z</time>
      </trkpt>
      <trkpt lat="47.90432" lon="2.15444">
        <ele>114</ele>
        <time>2017-04-30T09:15:05Z</time>
      </trkpt>
      <trkpt lat="47.90432" lon="2.15444">
        <ele>114</ele>
        <time>2017-04-30T09:15:07Z</time>
      </trkpt>
      <trkpt lat="47.90393" lon="2.15381">
        <ele>114</ele>
        <time>2017-04-30T09:15:11Z</time>
      </trkpt>
      <trkpt lat="47.90385" lon="2.15371">
        <ele>114</ele>
        <time>2017-04-30T09:15:13Z</time>
      </trkpt>
      <trkpt lat="47.90377" lon="2.15361">
        <ele>113</ele>
        <time>2017-04-30T09:15:15Z</time>
      </trkpt>
      <trkpt lat="47.90369" lon="2.15352">
        <ele>113</ele>
        <time>2017-04-30T09:15:17Z</time>
      </trkpt>
      <trkpt lat="47.90361" lon="2.15342">
        <ele>113</ele>
        <time>2017-04-30T09:15:19Z</time>
      </trkpt>
      <trkpt lat="47.90353" lon="2.15334">
        <ele>113</ele>
        <time>2017-04-30T09:15:21Z</time>
      </trkpt>
      <trkpt lat="47.90353" lon="2.15334">
        <ele>113</ele>
        <time>2017-04-30T09:15:23Z</time>
      </trkpt>
      <trkpt lat="47.90317" lon="2.15308">
        <ele>113</ele>
        <time>2017-04-30T09:15:29Z</time>
      </trkpt>
      <trkpt lat="47.90307" lon="2.15302">
        <ele>113</ele>
        <time>2017-04-30T09:15:31Z</time>
      </trkpt>
      <trkpt lat="47.90297" lon="2.15297">
        <ele>113</ele>
        <time>2017-04-30T09:15:33Z</time>
      </trkpt>
      <trkpt lat="47.90288" lon="2.15292">
        <ele>113</ele>
        <time>2017-04-30T09:15:35Z</time>
      </trkpt>
      <trkpt lat="47.90278" lon="2.15286">
        <ele>113</ele>
        <time>2017-04-30T09:15:37Z</time>
      </trkpt>
      <trkpt lat="47.90268" lon="2.15281">
        <ele>113</ele>
        <time>2017-04-30T09:15:39Z</time>
      </trkpt>
      <trkpt lat="47.90268" lon="2.15281">
        <ele>113</ele>
        <time>2017-04-30T09:15:41Z</time>
      </trkpt>
      <trkpt lat="47.90239" lon="2.15265">
        <ele>113</ele>
        <time>2017-04-30T09:15:45Z</time>
      </trkpt>
      <trkpt lat="47.90229" lon="2.15259">
        <ele>113</ele>
        <time>2017-04-30T09:15:47Z</time>
      </trkpt>
      <trkpt lat="47.90219" lon="2.15254">
        <ele>113</ele>
        <time>2017-04-30T09:15:49Z</time>
      </trkpt>
      <trkpt lat="47.90209" lon="2.15248">
        <ele>113</ele>
        <time>2017-04-30T09:15:51Z</time>
      </trkpt>
      <trkpt lat="47.90199" lon="2.15243">
        <ele>113</ele>
        <time>2017-04-30T09:15:53Z</time>
      </trkpt>
      <trkpt lat="47.90188" lon="2.15237">
        <ele>113</ele>
        <time>2017-04-30T09:15:55Z</time>
      </trkpt>
      <trkpt lat="47.90177" lon="2.15231">
        <ele>113</ele>
        <time>2017-04-30T09:15:57Z</time>
      </trkpt>
      <trkpt lat="47.90166" lon="2.15226">
        <ele>113</ele>
        <time>2017-04-30T09:15:59Z</time>
      </trkpt>
      <trkpt lat="47.90155" lon="2.15219">
        <ele>113</ele>
        <time>2017-04-30T09:16:01Z</time>
      </trkpt>
      <trkpt lat="47.90145" lon="2.15212">
        <ele>113</ele>
        <time>2017-04-30T09:16:03Z</time>
      </trkpt>
      <trkpt lat="47.90135" lon="2.15203">
        <ele>113</ele>
        <time>2017-04-30T09:16:05Z</time>
      </trkpt>
      <trkpt lat="47.90125" lon="2.15195">
        <ele>112</ele>
        <time>2017-04-30T09:16:07Z</time>
      </trkpt>
      <trkpt lat="47.90114" lon="2.15186">
        <ele>112</ele>
        <time>2017-04-30T09:16:09Z</time>
      </trkpt>
      <trkpt lat="47.90103" lon="2.15177">
        <ele>112</ele>
        <time>2017-04-30T09:16:11Z</time>
      </trkpt>
      <trkpt lat="47.90093" lon="2.15169">
        <ele>112</ele>
        <time>2017-04-30T09:16:13Z</time>
      </trkpt>
      <trkpt lat="47.90082" lon="2.15161">
        <ele>111</ele>
        <time>2017-04-30T09:16:15Z</time>
      </trkpt>
      <trkpt lat="47.90071" lon="2.15153">
        <ele>112</ele>
        <time>2017-04-30T09:16:17Z</time>
      </trkpt>
      <trkpt lat="47.9006" lon="2.15144">
        <ele>112</ele>
        <time>2017-04-30T09:16:19Z</time>
      </trkpt>
      <trkpt lat="47.90049" lon="2.15135">
        <ele>112</ele>
        <time>2017-04-30T09:16:21Z</time>
      </trkpt>
      <trkpt lat="47.90037" lon="2.15126">
        <ele>111</ele>
        <time>2017-04-30T09:16:23Z</time>
      </trkpt>
      <trkpt lat="47.90025" lon="2.15117">
        <ele>112</ele>
        <time>2017-04-30T09:16:25Z</time>
      </trkpt>
      <trkpt lat="47.90014" lon="2.15107">
        <ele>111</ele>
        <time>2017-04-30T09:16:27Z</time>
      </trkpt>
      <trkpt lat="47.90001" lon="2.15098">
        <ele>111</ele>
        <time>2017-04-30T09:16:29Z</time>
      </trkpt>
      <trkpt lat="47.8999" lon="2.15089">
        <ele>111</ele>
        <time>2017-04-30T09:16:31Z</time>
      </trkpt>
      <trkpt lat="47.89979" lon="2.15079">
        <ele>110</ele>
        <time>2017-04-30T09:16:33Z</time>
      </trkpt>
      <trkpt lat="47.89968" lon="2.15069">
        <ele>110</ele>
        <time>2017-04-30T09:16:35Z</time>
      </trkpt>
      <trkpt lat="47.89956" lon="2.1506">
        <ele>110</ele>
        <time>2017-04-30T09:16:37Z</time>
      </trkpt>
      <trkpt lat="47.89945" lon="2.1505">
        <ele>110</ele>
        <time>2017-04-30T09:16:39Z</time>
      </trkpt>
      <trkpt lat="47.89933" lon="2.15041">
        <ele>109</ele>
        <time>2017-04-30T09:16:41Z</time>
      </trkpt>
      <trkpt lat="47.89922" lon="2.15033">
        <ele>109</ele>
        <time>2017-04-30T09:16:43Z</time>
      </trkpt>
      <trkpt lat="47.89911" lon="2.15025">
        <ele>109</ele>
        <time>2017-04-30T09:16:45Z</time>
      </trkpt>
      <trkpt lat="47.899" lon="2.15016">
        <ele>109</ele>
        <time>2017-04-30T09:16:47Z</time>
      </trkpt>
      <trkpt lat="47.89889" lon="2.15008">
        <ele>109</ele>
        <time>2017-04-30T09:16:49Z</time>
      </trkpt>
      <trkpt lat="47.89879" lon="2.15">
        <ele>108</ele>
        <time>2017-04-30T09:16:51Z</time>
      </trkpt>
      <trkpt lat="47.89869" lon="2.1499">
        <ele>107</ele>
        <time>2017-04-30T09:16:53Z</time>
      </trkpt>
      <trkpt lat="47.89857" lon="2.14982">
        <ele>108</ele>
        <time>2017-04-30T09:16:55Z</time>
      </trkpt>
      <trkpt lat="47.89847" lon="2.14974">
        <ele>108</ele>
        <time>2017-04-30T09:16:57Z</time>
      </trkpt>
      <trkpt lat="47.89836" lon="2.14965">
        <ele>107</ele>
        <time>2017-04-30T09:16:59Z</time>
      </trkpt>
      <trkpt lat="47.89825" lon="2.14957">
        <ele>107</ele>
        <time>2017-04-30T09:17:01Z</time>
      </trkpt>
      <trkpt lat="47.89814" lon="2.14949">
        <ele>107</ele>
        <time>2017-04-30T09:17:03Z</time>
      </trkpt>
      <trkpt lat="47.89803" lon="2.1494">
        <ele>106</ele>
        <time>2017-04-30T09:17:05Z</time>
      </trkpt>
      <trkpt lat="47.89792" lon="2.14933">
        <ele>106</ele>
        <time>2017-04-30T09:17:07Z</time>
      </trkpt>
      <trkpt lat="47.89782" lon="2.14925">
        <ele>107</ele>
        <time>2017-04-30T09:17:09Z</time>
      </trkpt>
      <trkpt lat="47.89771" lon="2.14917">
        <ele>107</ele>
        <time>2017-04-30T09:17:11Z</time>
      </trkpt>
      <trkpt lat="47.89759" lon="2.1491">
        <ele>107</ele>
        <time>2017-04-30T09:17:13Z</time>
      </trkpt>
      <trkpt lat="47.89747" lon="2.14904">
        <ele>106</ele>
        <time>2017-04-30T09:17:15Z</time>
      </trkpt>
      <trkpt lat="47.89735" lon="2.14899">
        <ele>106</ele>
        <time>2017-04-30T09:17:17Z</time>
      </trkpt>
      <trkpt lat="47.89723" lon="2.14895">
        <ele>107</ele>
        <time>2017-04-30T09:17:19Z</time>
      </trkpt>
      <trkpt lat="47.89711" lon="2.14891">
        <ele>108</ele>
        <time>2017-04-30T09:17:21Z</time>
      </trkpt>
      <trkpt lat="47.89699" lon="2.14887">
        <ele>108</ele>
        <time>2017-04-30T09:17:23Z</time>
      </trkpt>
      <trkpt lat="47.89688" lon="2.14883">
        <ele>109</ele>
        <time>2017-04-30T09:17:25Z</time>
      </trkpt>
      <trkpt lat="47.89677" lon="2.1488">
        <ele>109</ele>
        <time>2017-04-30T09:17:27Z</time>
      </trkpt>
      <trkpt lat="47.89668" lon="2.14876">
        <ele>111</ele>
        <time>2017-04-30T09:17:29Z</time>
      </trkpt>
      <trkpt lat="47.89668" lon="2.14876">
        <ele>111</ele>
        <time>2017-04-30T09:17:31Z</time>
      </trkpt>
      <trkpt lat="47.89668" lon="2.14876">
        <ele>111</ele>
        <time>2017-04-30T09:17:33Z</time>
      </trkpt>
      <trkpt lat="47.89668" lon="2.14876">
        <ele>111</ele>
        <time>2017-04-30T09:17:35Z</time>
      </trkpt>
      <trkpt lat="47.89668" lon="2.14876">
        <ele>111</ele>
        <time>2017-04-30T09:17:37Z</time>
      </trkpt>
      <trkpt lat="47.89668" lon="2.14876">
        <ele>111</ele>
        <time>2017-04-30T09:17:39Z</time>
      </trkpt>
      <trkpt lat="47.89631" lon="2.14936">
        <ele>110</ele>
        <time>2017-04-30T09:17:43Z</time>
      </trkpt>
      <trkpt lat="47.89628" lon="2.1495">
        <ele>111</ele>
        <time>2017-04-30T09:17:45Z</time>
      </trkpt>
      <trkpt lat="47.89625" lon="2.14965">
        <ele>112</ele>
        <time>2017-04-30T09:17:47Z</time>
      </trkpt>
      <trkpt lat="47.89622" lon="2.14979">
        <ele>113</ele>
        <time>2017-04-30T09:17:49Z</time>
      </trkpt>
      <trkpt lat="47.89622" lon="2.14979">
        <ele>113</ele>
        <time>2017-04-30T09:17:51Z</time>
      </trkpt>
      <trkpt lat="47.89622" lon="2.14979">
        <ele>113</ele>
        <time>2017-04-30T09:17:53Z</time>
      </trkpt>
      <trkpt lat="47.89622" lon="2.14979">
        <ele>113</ele>
        <time>2017-04-30T09:17:55Z</time>
      </trkpt>
      <trkpt lat="47.89609" lon="2.15046">
        <ele>118</ele>
        <time>2017-04-30T09:17:59Z</time>
      </trkpt>
      <trkpt lat="47.89607" lon="2.15059">
        <ele>118</ele>
        <time>2017-04-30T09:18:01Z</time>
      </trkpt>
      <trkpt lat="47.89607" lon="2.15059">
        <ele>118</ele>
        <time>2017-04-30T09:18:03Z</time>
      </trkpt>
      <trkpt lat="47.89607" lon="2.15059">
        <ele>118</ele>
        <time>2017-04-30T09:18:05Z</time>
      </trkpt>
      <trkpt lat="47.89607" lon="2.15059">
        <ele>118</ele>
        <time>2017-04-30T09:18:07Z</time>
      </trkpt>
      <trkpt lat="47.89607" lon="2.15059">
        <ele>118</ele>
        <time>2017-04-30T09:18:09Z</time>
      </trkpt>
      <trkpt lat="47.89607" lon="2.15059">
        <ele>118</ele>
        <time>2017-04-30T09:18:11Z</time>
      </trkpt>
      <trkpt lat="47.89607" lon="2.15059">
        <ele>118</ele>
        <time>2017-04-30T09:18:13Z</time>
      </trkpt>
      <trkpt lat="47.89585" lon="2.15158">
        <ele>131</ele>
        <time>2017-04-30T09:18:17Z</time>
      </trkpt>
      <trkpt lat="47.89582" lon="2.15172">
        <ele>131</ele>
        <time>2017-04-30T09:18:19Z</time>
      </trkpt>
      <trkpt lat="47.89579" lon="2.15185">
        <ele>133</ele>
        <time>2017-04-30T09:18:21Z</time>
      </trkpt>
      <trkpt lat="47.89575" lon="2.15198">
        <ele>134</ele>
        <time>2017-04-30T09:18:23Z</time>
      </trkpt>
      <trkpt lat="47.89575" lon="2.15198">
        <ele>134</ele>
        <time>2017-04-30T09:18:25Z</time>
      </trkpt>
      <trkpt lat="47.89575" lon="2.15198">
        <ele>134</ele>
        <time>2017-04-30T09:18:27Z</time>
      </trkpt>
      <trkpt lat="47.89575" lon="2.15198">
        <ele>134</ele>
        <time>2017-04-30T09:18:29Z</time>
      </trkpt>
      <trkpt lat="47.89575" lon="2.15198">
        <ele>134</ele>
        <time>2017-04-30T09:18:31Z</time>
      </trkpt>
      <trkpt lat="47.89575" lon="2.15198">
        <ele>134</ele>
        <time>2017-04-30T09:18:33Z</time>
      </trkpt>
      <trkpt lat="47.89566" lon="2.15237">
        <ele>135</ele>
        <time>2017-04-30T09:18:35Z</time>
      </trkpt>
      <trkpt lat="47.89561" lon="2.15264">
        <ele>133</ele>
        <time>2017-04-30T09:18:37Z</time>
      </trkpt>
      <trkpt lat="47.89557" lon="2.15286">
        <ele>130</ele>
        <time>2017-04-30T09:18:39Z</time>
      </trkpt>
      <trkpt lat="47.89553" lon="2.15305">
        <ele>128</ele>
        <time>2017-04-30T09:18:41Z</time>
      </trkpt>
      <trkpt lat="47.89548" lon="2.15321">
        <ele>126</ele>
        <time>2017-04-30T09:18:43Z</time>
      </trkpt>
      <trkpt lat="47.89548" lon="2.15321">
        <ele>126</ele>
        <time>2017-04-30T09:18:45Z</time>
      </trkpt>
      <trkpt lat="47.89548" lon="2.15321">
        <ele>126</ele>
        <time>2017-04-30T09:18:47Z</time>
      </trkpt>
      <trkpt lat="47.89548" lon="2.15321">
        <ele>126</ele>
        <time>2017-04-30T09:18:49Z</time>
      </trkpt>
      <trkpt lat="47.89508" lon="2.15359">
        <ele>119</ele>
        <time>2017-04-30T09:18:53Z</time>
      </trkpt>
      <trkpt lat="47.89499" lon="2.15358">
        <ele>119</ele>
        <time>2017-04-30T09:18:55Z</time>
      </trkpt>
      <trkpt lat="47.8949" lon="2.15357">
        <ele>119</ele>
        <time>2017-04-30T09:18:57Z</time>
      </trkpt>
      <trkpt lat="47.8948" lon="2.15356">
        <ele>119</ele>
        <time>2017-04-30T09:18:59Z</time>
      </trkpt>
      <trkpt lat="47.89471" lon="2.15355">
        <ele>118</ele>
        <time>2017-04-30T09:19:01Z</time>
      </trkpt>
      <trkpt lat="47.89461" lon="2.15354">
        <ele>118</ele>
        <time>2017-04-30T09:19:03Z</time>
      </trkpt>
      <trkpt lat="47.89452" lon="2.15354">
        <ele>118</ele>
        <time>2017-04-30T09:19:05Z</time>
      </trkpt>
      <trkpt lat="47.89442" lon="2.15352">
        <ele>118</ele>
        <time>2017-04-30T09:19:07Z</time>
      </trkpt>
      <trkpt lat="47.89432" lon="2.15351">
        <ele>118</ele>
        <time>2017-04-30T09:19:09Z</time>
      </trkpt>
      <trkpt lat="47.89423" lon="2.15351">
        <ele>117</ele>
        <time>2017-04-30T09:19:11Z</time>
      </trkpt>
      <trkpt lat="47.89423" lon="2.15351">
        <ele>117</ele>
        <time>2017-04-30T09:19:13Z</time>
      </trkpt>
      <trkpt lat="47.89423" lon="2.15351">
        <ele>117</ele>
        <time>2017-04-30T09:19:15Z</time>
      </trkpt>
      <trkpt lat="47.89384" lon="2.15348">
        <ele>117</ele>
        <time>2017-04-30T09:19:19Z</time>
      </trkpt>
      <trkpt lat="47.89375" lon="2.15346">
        <ele>117</ele>
        <time>2017-04-30T09:19:21Z</time>
      </trkpt>
      <trkpt lat="47.89365" lon="2.15345">
        <ele>117</ele>
        <time>2017-04-30T09:19:23Z</time>
      </trkpt>
      <trkpt lat="47.89365" lon="2.15345">
        <ele>117</ele>
        <time>2017-04-30T09:19:25Z</time>
      </trkpt>
      <trkpt lat="47.89365" lon="2.15345">
        <ele>117</ele>
        <time>2017-04-30T09:19:27Z</time>
      </trkpt>
      <trkpt lat="47.89365" lon="2.15345">
        <ele>117</ele>
        <time>2017-04-30T09:19:29Z</time>
      </trkpt>
      <trkpt lat="47.89365" lon="2.15345">
        <ele>117</ele>
        <time>2017-04-30T09:19:31Z</time>
      </trkpt>
      <trkpt lat="47.89311" lon="2.15338">
        <ele>116</ele>
        <time>2017-04-30T09:19:35Z</time>
      </trkpt>
      <trkpt lat="47.89311" lon="2.15338">
        <ele>116</ele>
        <time>2017-04-30T09:19:37Z</time>
      </trkpt>
      <trkpt lat="47.89311" lon="2.15338">
        <ele>116</ele>
        <time>2017-04-30T09:19:39Z</time>
      </trkpt>
      <trkpt lat="47.89311" lon="2.15338">
        <ele>116</ele>
        <time>2017-04-30T09:19:41Z</time>
      </trkpt>
      <trkpt lat="47.89311" lon="2.15338">
        <ele>116</ele>
        <time>2017-04-30T09:19:47Z</time>
      </trkpt>
      <trkpt lat="47.89311" lon="2.15338">
        <ele>116</ele>
        <time>2017-04-30T09:19:49Z</time>
      </trkpt>
      <trkpt lat="47.89311" lon="2.15338">
        <ele>116</ele>
        <time>2017-04-30T09:19:51Z</time>
      </trkpt>
      <trkpt lat="47.89223" lon="2.15331">
        <ele>116</ele>
        <time>2017-04-30T09:19:55Z</time>
      </trkpt>
      <trkpt lat="47.89205" lon="2.15328">
        <ele>116</ele>
        <time>2017-04-30T09:19:59Z</time>
      </trkpt>
      <trkpt lat="47.89196" lon="2.15327">
        <ele>116</ele>
        <time>2017-04-30T09:20:01Z</time>
      </trkpt>
      <trkpt lat="47.89178" lon="2.15323">
        <ele>116</ele>
        <time>2017-04-30T09:20:05Z</time>
      </trkpt>
      <trkpt lat="47.89169" lon="2.15322">
        <ele>116</ele>
        <time>2017-04-30T09:20:07Z</time>
      </trkpt>
      <trkpt lat="47.8916" lon="2.1532">
        <ele>116</ele>
        <time>2017-04-30T09:20:09Z</time>
      </trkpt>
      <trkpt lat="47.89151" lon="2.1532">
        <ele>116</ele>
        <time>2017-04-30T09:20:11Z</time>
      </trkpt>
      <trkpt lat="47.89151" lon="2.1532">
        <ele>116</ele>
        <time>2017-04-30T09:20:13Z</time>
      </trkpt>
      <trkpt lat="47.89151" lon="2.1532">
        <ele>116</ele>
        <time>2017-04-30T09:20:15Z</time>
      </trkpt>
      <trkpt lat="47.89151" lon="2.1532">
        <ele>116</ele>
        <time>2017-04-30T09:20:17Z</time>
      </trkpt>
      <trkpt lat="47.89151" lon="2.1532">
        <ele>116</ele>
        <time>2017-04-30T09:20:19Z</time>
      </trkpt>
      <trkpt lat="47.89151" lon="2.1532">
        <ele>116</ele>
        <time>2017-04-30T09:20:21Z</time>
      </trkpt>
      <trkpt lat="47.89098" lon="2.15333">
        <ele>116</ele>
        <time>2017-04-30T09:20:23Z</time>
      </trkpt>
      <trkpt lat="47.89088" lon="2.15335">
        <ele>116</ele>
        <time>2017-04-30T09:20:25Z</time>
      </trkpt>
      <trkpt lat="47.89079" lon="2.15337">
        <ele>116</ele>
        <time>2017-04-30T09:20:27Z</time>
      </trkpt>
      <trkpt lat="47.89069" lon="2.15339">
        <ele>116</ele>
        <time>2017-04-30T09:20:29Z</time>
      </trkpt>
      <trkpt lat="47.8906" lon="2.15341">
        <ele>116</ele>
        <time>2017-04-30T09:20:31Z</time>
      </trkpt>
      <trkpt lat="47.8905" lon="2.15343">
        <ele>116</ele>
        <time>2017-04-30T09:20:33Z</time>
      </trkpt>
      <trkpt lat="47.89041" lon="2.15347">
        <ele>116</ele>
        <time>2017-04-30T09:20:35Z</time>
      </trkpt>
      <trkpt lat="47.89041" lon="2.15347">
        <ele>116</ele>
        <time>2017-04-30T09:20:37Z</time>
      </trkpt>
      <trkpt lat="47.89041" lon="2.15347">
        <ele>116</ele>
        <time>2017-04-30T09:20:39Z</time>
      </trkpt>
      <trkpt lat="47.89041" lon="2.15347">
        <ele>116</ele>
        <time>2017-04-30T09:20:41Z</time>
      </trkpt>
      <trkpt lat="47.89041" lon="2.15347">
        <ele>116</ele>
        <time>2017-04-30T09:20:43Z</time>
      </trkpt>
      <trkpt lat="47.89041" lon="2.15347">
        <ele>116</ele>
        <time>2017-04-30T09:20:45Z</time>
      </trkpt>
      <trkpt lat="47.89041" lon="2.15347">
        <ele>116</ele>
        <time>2017-04-30T09:20:47Z</time>
      </trkpt>
      <trkpt lat="47.89041" lon="2.15347">
        <ele>116</ele>
        <time>2017-04-30T09:20:49Z</time>
      </trkpt>
      <trkpt lat="47.89041" lon="2.15347">
        <ele>116</ele>
        <time>2017-04-30T09:20:51Z</time>
      </trkpt>
      <trkpt lat="47.89041" lon="2.15347">
        <ele>116</ele>
        <time>2017-04-30T09:20:53Z</time>
      </trkpt>
      <trkpt lat="47.89041" lon="2.15347">
        <ele>116</ele>
        <time>2017-04-30T09:20:55Z</time>
      </trkpt>
      <trkpt lat="47.88988" lon="2.1536">
        <ele>116</ele>
        <time>2017-04-30T09:21:01Z</time>
      </trkpt>
      <trkpt lat="47.88957" lon="2.15368">
        <ele>115</ele>
        <time>2017-04-30T09:21:03Z</time>
      </trkpt>
      <trkpt lat="47.88937" lon="2.1537">
        <ele>115</ele>
        <time>2017-04-30T09:21:05Z</time>
      </trkpt>
      <trkpt lat="47.88924" lon="2.1537">
        <ele>115</ele>
        <time>2017-04-30T09:21:07Z</time>
      </trkpt>
      <trkpt lat="47.88913" lon="2.15368">
        <ele>115</ele>
        <time>2017-04-30T09:21:09Z</time>
      </trkpt>
      <trkpt lat="47.88893" lon="2.15361">
        <ele>115</ele>
        <time>2017-04-30T09:21:11Z</time>
      </trkpt>
      <trkpt lat="47.88876" lon="2.15353">
        <ele>116</ele>
        <time>2017-04-30T09:21:15Z</time>
      </trkpt>
      <trkpt lat="47.88876" lon="2.15353">
        <ele>116</ele>
        <time>2017-04-30T09:21:17Z</time>
      </trkpt>
      <trkpt lat="47.88876" lon="2.15353">
        <ele>116</ele>
        <time>2017-04-30T09:21:19Z</time>
      </trkpt>
      <trkpt lat="47.88876" lon="2.15353">
        <ele>116</ele>
        <time>2017-04-30T09:21:21Z</time>
      </trkpt>
      <trkpt lat="47.8884" lon="2.15383">
        <ele>116</ele>
        <time>2017-04-30T09:21:25Z</time>
      </trkpt>
      <trkpt lat="47.88831" lon="2.15388">
        <ele>116</ele>
        <time>2017-04-30T09:21:27Z</time>
      </trkpt>
      <trkpt lat="47.88831" lon="2.15388">
        <ele>116</ele>
        <time>2017-04-30T09:21:29Z</time>
      </trkpt>
      <trkpt lat="47.88831" lon="2.15388">
        <ele>116</ele>
        <time>2017-04-30T09:21:31Z</time>
      </trkpt>
      <trkpt lat="47.88831" lon="2.15388">
        <ele>116</ele>
        <time>2017-04-30T09:21:33Z</time>
      </trkpt>
      <trkpt lat="47.88831" lon="2.15388">
        <ele>116</ele>
        <time>2017-04-30T09:21:35Z</time>
      </trkpt>
      <trkpt lat="47.88831" lon="2.15388">
        <ele>116</ele>
        <time>2017-04-30T09:21:39Z</time>
      </trkpt>
      <trkpt lat="47.88807" lon="2.15451">
        <ele>120</ele>
        <time>2017-04-30T09:21:41Z</time>
      </trkpt>
      <trkpt lat="47.88797" lon="2.15454">
        <ele>119</ele>
        <time>2017-04-30T09:21:43Z</time>
      </trkpt>
      <trkpt lat="47.88787" lon="2.15458">
        <ele>119</ele>
        <time>2017-04-30T09:21:45Z</time>
      </trkpt>
      <trkpt lat="47.88778" lon="2.15462">
        <ele>119</ele>
        <time>2017-04-30T09:21:47Z</time>
      </trkpt>
      <trkpt lat="47.88768" lon="2.15465">
        <ele>119</ele>
        <time>2017-04-30T09:21:49Z</time>
      </trkpt>
      <trkpt lat="47.88757" lon="2.15469">
        <ele>119</ele>
        <time>2017-04-30T09:21:51Z</time>
      </trkpt>
      <trkpt lat="47.88747" lon="2.15473">
        <ele>119</ele>
        <time>2017-04-30T09:21:53Z</time>
      </trkpt>
      <trkpt lat="47.88737" lon="2.15476">
        <ele>118</ele>
        <time>2017-04-30T09:21:55Z</time>
      </trkpt>
      <trkpt lat="47.88727" lon="2.1548">
        <ele>118</ele>
        <time>2017-04-30T09:21:57Z</time>
      </trkpt>
      <trkpt lat="47.88717" lon="2.15484">
        <ele>118</ele>
        <time>2017-04-30T09:21:59Z</time>
      </trkpt>
      <trkpt lat="47.88707" lon="2.15488">
        <ele>118</ele>
        <time>2017-04-30T09:22:01Z</time>
      </trkpt>
      <trkpt lat="47.88696" lon="2.15491">
        <ele>117</ele>
        <time>2017-04-30T09:22:03Z</time>
      </trkpt>
      <trkpt lat="47.88696" lon="2.15491">
        <ele>117</ele>
        <time>2017-04-30T09:22:05Z</time>
      </trkpt>
      <trkpt lat="47.88696" lon="2.15491">
        <ele>117</ele>
        <time>2017-04-30T09:22:07Z</time>
      </trkpt>
      <trkpt lat="47.88696" lon="2.15491">
        <ele>117</ele>
        <time>2017-04-30T09:22:09Z</time>
      </trkpt>
      <trkpt lat="47.88696" lon="2.15491">
        <ele>117</ele>
        <time>2017-04-30T09:22:11Z</time>
      </trkpt>
      <trkpt lat="47.88696" lon="2.15491">
        <ele>117</ele>
        <time>2017-04-30T09:22:13Z</time>
      </trkpt>
      <trkpt lat="47.88696" lon="2.15491">
        <ele>117</ele>
        <time>2017-04-30T09:22:15Z</time>
      </trkpt>
      <trkpt lat="47.88696" lon="2.15491">
        <ele>117</ele>
        <time>2017-04-30T09:22:17Z</time>
      </trkpt>
      <trkpt lat="47.88696" lon="2.15491">
        <ele>117</ele>
        <time>2017-04-30T09:22:19Z</time>
      </trkpt>
      <trkpt lat="47.88696" lon="2.15491">
        <ele>117</ele>
        <time>2017-04-30T09:22:21Z</time>
      </trkpt>
      <trkpt lat="47.88696" lon="2.15491">
        <ele>117</ele>
        <time>2017-04-30T09:22:23Z</time>
      </trkpt>
      <trkpt lat="47.88589" lon="2.15506">
        <ele>116</ele>
        <time>2017-04-30T09:22:27Z</time>
      </trkpt>
      <trkpt lat="47.88582" lon="2.15495">
        <ele>116</ele>
        <time>2017-04-30T09:22:29Z</time>
      </trkpt>
      <trkpt lat="47.88575" lon="2.15484">
        <ele>116</ele>
        <time>2017-04-30T09:22:31Z</time>
      </trkpt>
      <trkpt lat="47.88567" lon="2.15473">
        <ele>116</ele>
        <time>2017-04-30T09:22:33Z</time>
      </trkpt>
      <trkpt lat="47.8856" lon="2.15462">
        <ele>116</ele>
        <time>2017-04-30T09:22:35Z</time>
      </trkpt>
      <trkpt lat="47.88552" lon="2.15451">
        <ele>116</ele>
        <time>2017-04-30T09:22:37Z</time>
      </trkpt>
      <trkpt lat="47.88545" lon="2.1544">
        <ele>115</ele>
        <time>2017-04-30T09:22:39Z</time>
      </trkpt>
      <trkpt lat="47.88537" lon="2.1543">
        <ele>116</ele>
        <time>2017-04-30T09:22:41Z</time>
      </trkpt>
      <trkpt lat="47.88537" lon="2.1543">
        <ele>116</ele>
        <time>2017-04-30T09:22:43Z</time>
      </trkpt>
      <trkpt lat="47.88537" lon="2.1543">
        <ele>116</ele>
        <time>2017-04-30T09:22:45Z</time>
      </trkpt>
      <trkpt lat="47.88537" lon="2.1543">
        <ele>116</ele>
        <time>2017-04-30T09:22:47Z</time>
      </trkpt>
      <trkpt lat="47.88537" lon="2.1543">
        <ele>116</ele>
        <time>2017-04-30T09:22:49Z</time>
      </trkpt>
      <trkpt lat="47.88537" lon="2.1543">
        <ele>116</ele>
        <time>2017-04-30T09:22:51Z</time>
      </trkpt>
      <trkpt lat="47.88537" lon="2.1543">
        <ele>116</ele>
        <time>2017-04-30T09:22:53Z</time>
      </trkpt>
      <trkpt lat="47.8848" lon="2.15348">
        <ele>116</ele>
        <time>2017-04-30T09:22:57Z</time>
      </trkpt>
      <trkpt lat="47.88472" lon="2.15337">
        <ele>116</ele>
        <time>2017-04-30T09:22:59Z</time>
      </trkpt>
      <trkpt lat="47.88465" lon="2.15326">
        <ele>115</ele>
        <time>2017-04-30T09:23:01Z</time>
      </trkpt>
      <trkpt lat="47.88458" lon="2.15315">
        <ele>115</ele>
        <time>2017-04-30T09:23:03Z</time>
      </trkpt>
      <trkpt lat="47.8845" lon="2.15305">
        <ele>115</ele>
        <time>2017-04-30T09:23:05Z</time>
      </trkpt>
      <trkpt lat="47.88443" lon="2.15295">
        <ele>115</ele>
        <time>2017-04-30T09:23:07Z</time>
      </trkpt>
      <trkpt lat="47.88443" lon="2.15295">
        <ele>115</ele>
        <time>2017-04-30T09:23:09Z</time>
      </trkpt>
      <trkpt lat="47.88443" lon="2.15295">
        <ele>115</ele>
        <time>2017-04-30T09:23:11Z</time>
      </trkpt>
      <trkpt lat="47.88443" lon="2.15295">
        <ele>115</ele>
        <time>2017-04-30T09:23:13Z</time>
      </trkpt>
      <trkpt lat="47.88443" lon="2.15295">
        <ele>115</ele>
        <time>2017-04-30T09:23:15Z</time>
      </trkpt>
      <trkpt lat="47.88443" lon="2.15295">
        <ele>115</ele>
        <time>2017-04-30T09:23:17Z</time>
      </trkpt>
      <trkpt lat="47.88416" lon="2.15255">
        <ele>115</ele>
        <time>2017-04-30T09:23:23Z</time>
      </trkpt>
      <trkpt lat="47.88398" lon="2.1523">
        <ele>115</ele>
        <time>2017-04-30T09:23:25Z</time>
      </trkpt>
      <trkpt lat="47.88386" lon="2.15213">
        <ele>115</ele>
        <time>2017-04-30T09:23:27Z</time>
      </trkpt>
      <trkpt lat="47.88377" lon="2.15199">
        <ele>115</ele>
        <time>2017-04-30T09:23:29Z</time>
      </trkpt>
      <trkpt lat="47.88368" lon="2.15187">
        <ele>115</ele>
        <time>2017-04-30T09:23:31Z</time>
      </trkpt>
      <trkpt lat="47.88353" lon="2.15165">
        <ele>115</ele>
        <time>2017-04-30T09:23:33Z</time>
      </trkpt>
      <trkpt lat="47.88345" lon="2.15154">
        <ele>115</ele>
        <time>2017-04-30T09:23:35Z</time>
      </trkpt>
      <trkpt lat="47.88338" lon="2.15144">
        <ele>115</ele>
        <time>2017-04-30T09:23:37Z</time>
      </trkpt>
      <trkpt lat="47.88331" lon="2.15134">
        <ele>115</ele>
        <time>2017-04-30T09:23:39Z</time>
      </trkpt>
      <trkpt lat="47.88324" lon="2.15123">
        <ele>115</ele>
        <time>2017-04-30T09:23:41Z</time>
      </trkpt>
      <trkpt lat="47.88317" lon="2.15113">
        <ele>115</ele>
        <time>2017-04-30T09:23:43Z</time>
      </trkpt>
      <trkpt lat="47.88317" lon="2.15113">
        <ele>115</ele>
        <time>2017-04-30T09:23:45Z</time>
      </trkpt>
      <trkpt lat="47.88317" lon="2.15113">
        <ele>115</ele>
        <time>2017-04-30T09:23:47Z</time>
      </trkpt>
      <trkpt lat="47.88317" lon="2.15113">
        <ele>115</ele>
        <time>2017-04-30T09:23:53Z</time>
      </trkpt>
      <trkpt lat="47.88266" lon="2.15041">
        <ele>114</ele>
        <time>2017-04-30T09:23:57Z</time>
      </trkpt>
      <trkpt lat="47.88259" lon="2.15031">
        <ele>114</ele>
        <time>2017-04-30T09:23:59Z</time>
      </trkpt>
      <trkpt lat="47.88252" lon="2.15021">
        <ele>114</ele>
        <time>2017-04-30T09:24:01Z</time>
      </trkpt>
      <trkpt lat="47.88252" lon="2.15021">
        <ele>114</ele>
        <time>2017-04-30T09:24:03Z</time>
      </trkpt>
      <trkpt lat="47.88252" lon="2.15021">
        <ele>114</ele>
        <time>2017-04-30T09:24:05Z</time>
      </trkpt>
      <trkpt lat="47.88252" lon="2.15021">
        <ele>114</ele>
        <time>2017-04-30T09:24:07Z</time>
      </trkpt>
      <trkpt lat="47.88252" lon="2.15021">
        <ele>114</ele>
        <time>2017-04-30T09:24:09Z</time>
      </trkpt>
      <trkpt lat="47.88202" lon="2.1495">
        <ele>114</ele>
        <time>2017-04-30T09:24:15Z</time>
      </trkpt>
      <trkpt lat="47.88195" lon="2.14939">
        <ele>114</ele>
        <time>2017-04-30T09:24:17Z</time>
      </trkpt>
      <trkpt lat="47.88187" lon="2.14929">
        <ele>114</ele>
        <time>2017-04-30T09:24:19Z</time>
      </trkpt>
      <trkpt lat="47.8818" lon="2.14918">
        <ele>114</ele>
        <time>2017-04-30T09:24:21Z</time>
      </trkpt>
      <trkpt lat="47.88172" lon="2.14907">
        <ele>114</ele>
        <time>2017-04-30T09:24:23Z</time>
      </trkpt>
      <trkpt lat="47.88164" lon="2.14895">
        <ele>114</ele>
        <time>2017-04-30T09:24:25Z</time>
      </trkpt>
      <trkpt lat="47.88156" lon="2.14883">
        <ele>114</ele>
        <time>2017-04-30T09:24:27Z</time>
      </trkpt>
      <trkpt lat="47.88148" lon="2.14872">
        <ele>114</ele>
        <time>2017-04-30T09:24:29Z</time>
      </trkpt>
      <trkpt lat="47.8814" lon="2.1486">
        <ele>113</ele>
        <time>2017-04-30T09:24:31Z</time>
      </trkpt>
      <trkpt lat="47.88132" lon="2.14848">
        <ele>114</ele>
        <time>2017-04-30T09:24:33Z</time>
      </trkpt>
      <trkpt lat="47.88123" lon="2.14838">
        <ele>113</ele>
        <time>2017-04-30T09:24:35Z</time>
      </trkpt>
      <trkpt lat="47.88115" lon="2.14826">
        <ele>113</ele>
        <time>2017-04-30T09:24:37Z</time>
      </trkpt>
      <trkpt lat="47.88106" lon="2.14815">
        <ele>113</ele>
        <time>2017-04-30T09:24:39Z</time>
      </trkpt>
      <trkpt lat="47.88098" lon="2.14802">
        <ele>113</ele>
        <time>2017-04-30T09:24:41Z</time>
      </trkpt>
      <trkpt lat="47.8809" lon="2.1479">
        <ele>114</ele>
        <time>2017-04-30T09:24:43Z</time>
      </trkpt>
      <trkpt lat="47.88081" lon="2.14777">
        <ele>114</ele>
        <time>2017-04-30T09:24:45Z</time>
      </trkpt>
      <trkpt lat="47.88073" lon="2.14765">
        <ele>114</ele>
        <time>2017-04-30T09:24:47Z</time>
      </trkpt>
      <trkpt lat="47.88065" lon="2.14752">
        <ele>115</ele>
        <time>2017-04-30T09:24:49Z</time>
      </trkpt>
      <trkpt lat="47.88057" lon="2.1474">
        <ele>115</ele>
        <time>2017-04-30T09:24:51Z</time>
      </trkpt>
      <trkpt lat="47.88049" lon="2.14727">
        <ele>116</ele>
        <time>2017-04-30T09:24:53Z</time>
      </trkpt>
      <trkpt lat="47.88042" lon="2.14715">
        <ele>117</ele>
        <time>2017-04-30T09:24:55Z</time>
      </trkpt>
      <trkpt lat="47.88033" lon="2.14703">
        <ele>116</ele>
        <time>2017-04-30T09:24:57Z</time>
      </trkpt>
      <trkpt lat="47.88023" lon="2.14692">
        <ele>116</ele>
        <time>2017-04-30T09:24:59Z</time>
      </trkpt>
      <trkpt lat="47.88015" lon="2.14681">
        <ele>117</ele>
        <time>2017-04-30T09:25:01Z</time>
      </trkpt>
      <trkpt lat="47.88006" lon="2.14669">
        <ele>116</ele>
        <time>2017-04-30T09:25:03Z</time>
      </trkpt>
      <trkpt lat="47.88006" lon="2.14669">
        <ele>116</ele>
        <time>2017-04-30T09:25:05Z</time>
      </trkpt>
      <trkpt lat="47.88006" lon="2.14669">
        <ele>116</ele>
        <time>2017-04-30T09:25:07Z</time>
      </trkpt>
      <trkpt lat="47.88006" lon="2.14669">
        <ele>116</ele>
        <time>2017-04-30T09:25:09Z</time>
      </trkpt>
      <trkpt lat="47.88006" lon="2.14669">
        <ele>116</ele>
        <time>2017-04-30T09:25:11Z</time>
      </trkpt>
      <trkpt lat="47.87982" lon="2.14715">
        <ele>119</ele>
        <time>2017-04-30T09:25:15Z</time>
      </trkpt>
      <trkpt lat="47.87981" lon="2.14732">
        <ele>119</ele>
        <time>2017-04-30T09:25:17Z</time>
      </trkpt>
      <trkpt lat="47.87981" lon="2.14748">
        <ele>121</ele>
        <time>2017-04-30T09:25:19Z</time>
      </trkpt>
      <trkpt lat="47.8798" lon="2.14764">
        <ele>122</ele>
        <time>2017-04-30T09:25:21Z</time>
      </trkpt>
      <trkpt lat="47.87979" lon="2.1478">
        <ele>123</ele>
        <time>2017-04-30T09:25:23Z</time>
      </trkpt>
      <trkpt lat="47.87977" lon="2.14797">
        <ele>123</ele>
        <time>2017-04-30T09:25:25Z</time>
      </trkpt>
      <trkpt lat="47.87976" lon="2.14813">
        <ele>125</ele>
        <time>2017-04-30T09:25:27Z</time>
      </trkpt>
      <trkpt lat="47.87975" lon="2.14829">
        <ele>126</ele>
        <time>2017-04-30T09:25:29Z</time>
      </trkpt>
      <trkpt lat="47.87973" lon="2.14844">
        <ele>127</ele>
        <time>2017-04-30T09:25:31Z</time>
      </trkpt>
      <trkpt lat="47.87972" lon="2.1486">
        <ele>128</ele>
        <time>2017-04-30T09:25:33Z</time>
      </trkpt>
      <trkpt lat="47.87971" lon="2.14876">
        <ele>127</ele>
        <time>2017-04-30T09:25:35Z</time>
      </trkpt>
      <trkpt lat="47.8797" lon="2.14892">
        <ele>126</ele>
        <time>2017-04-30T09:25:37Z</time>
      </trkpt>
      <trkpt lat="47.87968" lon="2.14908">
        <ele>125</ele>
        <time>2017-04-30T09:25:39Z</time>
      </trkpt>
      <trkpt lat="47.87967" lon="2.14924">
        <ele>125</ele>
        <time>2017-04-30T09:25:41Z</time>
      </trkpt>
      <trkpt lat="47.87965" lon="2.14941">
        <ele>125</ele>
        <time>2017-04-30T09:25:43Z</time>
      </trkpt>
      <trkpt lat="47.87963" lon="2.14957">
        <ele>124</ele>
        <time>2017-04-30T09:25:45Z</time>
      </trkpt>
      <trkpt lat="47.87962" lon="2.14974">
        <ele>125</ele>
        <time>2017-04-30T09:25:47Z</time>
      </trkpt>
      <trkpt lat="47.8796" lon="2.1499">
        <ele>125</ele>
        <time>2017-04-30T09:25:49Z</time>
      </trkpt>
      <trkpt lat="47.87957" lon="2.15007">
        <ele>125</ele>
        <time>2017-04-30T09:25:51Z</time>
      </trkpt>
      <trkpt lat="47.87954" lon="2.15023">
        <ele>125</ele>
        <time>2017-04-30T09:25:53Z</time>
      </trkpt>
      <trkpt lat="47.87951" lon="2.15041">
        <ele>125</ele>
        <time>2017-04-30T09:25:55Z</time>
      </trkpt>
      <trkpt lat="47.87949" lon="2.15058">
        <ele>125</ele>
        <time>2017-04-30T09:25:57Z</time>
      </trkpt>
      <trkpt lat="47.87947" lon="2.15076">
        <ele>123</ele>
        <time>2017-04-30T09:25:59Z</time>
      </trkpt>
      <trkpt lat="47.87946" lon="2.15094">
        <ele>122</ele>
        <time>2017-04-30T09:26:01Z</time>
      </trkpt>
      <trkpt lat="47.87944" lon="2.15112">
        <ele>120</ele>
        <time>2017-04-30T09:26:03Z</time>
      </trkpt>
      <trkpt lat="47.87942" lon="2.1513">
        <ele>119</ele>
        <time>2017-04-30T09:26:05Z</time>
      </trkpt>
      <trkpt lat="47.87941" lon="2.15148">
        <ele>119</ele>
        <time>2017-04-30T09:26:07Z</time>
      </trkpt>
      <trkpt lat="47.87939" lon="2.15167">
        <ele>119</ele>
        <time>2017-04-30T09:26:09Z</time>
      </trkpt>
      <trkpt lat="47.87938" lon="2.15185">
        <ele>119</ele>
        <time>2017-04-30T09:26:11Z</time>
      </trkpt>
      <trkpt lat="47.87937" lon="2.15203">
        <ele>119</ele>
        <time>2017-04-30T09:26:13Z</time>
      </trkpt>
      <trkpt lat="47.87936" lon="2.15221">
        <ele>119</ele>
        <time>2017-04-30T09:26:15Z</time>
      </trkpt>
      <trkpt lat="47.87935" lon="2.15238">
        <ele>120</ele>
        <time>2017-04-30T09:26:17Z</time>
      </trkpt>
      <trkpt lat="47.87934" lon="2.15257">
        <ele>120</ele>
        <time>2017-04-30T09:26:19Z</time>
      </trkpt>
      <trkpt lat="47.87933" lon="2.15275">
        <ele>121</ele>
        <time>2017-04-30T09:26:21Z</time>
      </trkpt>
      <trkpt lat="47.87932" lon="2.15293">
        <ele>121</ele>
        <time>2017-04-30T09:26:23Z</time>
      </trkpt>
      <trkpt lat="47.87931" lon="2.15311">
        <ele>121</ele>
        <time>2017-04-30T09:26:25Z</time>
      </trkpt>
      <trkpt lat="47.8793" lon="2.15329">
        <ele>121</ele>
        <time>2017-04-30T09:26:27Z</time>
      </trkpt>
      <trkpt lat="47.87929" lon="2.15346">
        <ele>121</ele>
        <time>2017-04-30T09:26:29Z</time>
      </trkpt>
      <trkpt lat="47.87929" lon="2.15364">
        <ele>122</ele>
        <time>2017-04-30T09:26:31Z</time>
      </trkpt>
      <trkpt lat="47.87928" lon="2.15382">
        <ele>121</ele>
        <time>2017-04-30T09:26:33Z</time>
      </trkpt>
      <trkpt lat="47.87927" lon="2.15399">
        <ele>122</ele>
        <time>2017-04-30T09:26:35Z</time>
      </trkpt>
      <trkpt lat="47.87924" lon="2.15416">
        <ele>122</ele>
        <time>2017-04-30T09:26:37Z</time>
      </trkpt>
      <trkpt lat="47.87922" lon="2.15432">
        <ele>122</ele>
        <time>2017-04-30T09:26:39Z</time>
      </trkpt>
      <trkpt lat="47.87919" lon="2.15448">
        <ele>122</ele>
        <time>2017-04-30T09:26:41Z</time>
      </trkpt>
      <trkpt lat="47.87916" lon="2.15463">
        <ele>124</ele>
        <time>2017-04-30T09:26:43Z</time>
      </trkpt>
      <trkpt lat="47.87911" lon="2.15479">
        <ele>123</ele>
        <time>2017-04-30T09:26:45Z</time>
      </trkpt>
      <trkpt lat="47.87905" lon="2.15494">
        <ele>124</ele>
        <time>2017-04-30T09:26:47Z</time>
      </trkpt>
      <trkpt lat="47.87897" lon="2.15508">
        <ele>125</ele>
        <time>2017-04-30T09:26:49Z</time>
      </trkpt>
      <trkpt lat="47.8789" lon="2.15521">
        <ele>127</ele>
        <time>2017-04-30T09:26:51Z</time>
      </trkpt>
      <trkpt lat="47.87882" lon="2.15533">
        <ele>129</ele>
        <time>2017-04-30T09:26:53Z</time>
      </trkpt>
      <trkpt lat="47.87873" lon="2.15544">
        <ele>130</ele>
        <time>2017-04-30T09:26:55Z</time>
      </trkpt>
      <trkpt lat="47.87863" lon="2.15555">
        <ele>129</ele>
        <time>2017-04-30T09:26:57Z</time>
      </trkpt>
      <trkpt lat="47.87853" lon="2.15565">
        <ele>128</ele>
        <time>2017-04-30T09:26:59Z</time>
      </trkpt>
      <trkpt lat="47.87843" lon="2.15575">
        <ele>128</ele>
        <time>2017-04-30T09:27:01Z</time>
      </trkpt>
      <trkpt lat="47.87833" lon="2.15584">
        <ele>128</ele>
        <time>2017-04-30T09:27:03Z</time>
      </trkpt>
      <trkpt lat="47.87822" lon="2.15593">
        <ele>128</ele>
        <time>2017-04-30T09:27:05Z</time>
      </trkpt>
      <trkpt lat="47.87812" lon="2.15602">
        <ele>127</ele>
        <time>2017-04-30T09:27:07Z</time>
      </trkpt>
      <trkpt lat="47.87802" lon="2.15611">
        <ele>128</ele>
        <time>2017-04-30T09:27:09Z</time>
      </trkpt>
      <trkpt lat="47.87791" lon="2.15618">
        <ele>127</ele>
        <time>2017-04-30T09:27:11Z</time>
      </trkpt>
      <trkpt lat="47.87781" lon="2.15624">
        <ele>128</ele>
        <time>2017-04-30T09:27:13Z</time>
      </trkpt>
      <trkpt lat="47.8777" lon="2.15628">
        <ele>128</ele>
        <time>2017-04-30T09:27:15Z</time>
      </trkpt>
      <trkpt lat="47.8777" lon="2.15628">
        <ele>128</ele>
        <time>2017-04-30T09:27:17Z</time>
      </trkpt>
      <trkpt lat="47.8777" lon="2.15628">
        <ele>128</ele>
        <time>2017-04-30T09:27:19Z</time>
      </trkpt>
      <trkpt lat="47.87717" lon="2.15641">
        <ele>127</ele>
        <time>2017-04-30T09:27:25Z</time>
      </trkpt>
      <trkpt lat="47.87717" lon="2.15641">
        <ele>127</ele>
        <time>2017-04-30T09:27:27Z</time>
      </trkpt>
      <trkpt lat="47.87717" lon="2.15641">
        <ele>127</ele>
        <time>2017-04-30T09:27:29Z</time>
      </trkpt>
      <trkpt lat="47.87717" lon="2.15641">
        <ele>127</ele>
        <time>2017-04-30T09:27:31Z</time>
      </trkpt>
      <trkpt lat="47.87717" lon="2.15641">
        <ele>127</ele>
        <time>2017-04-30T09:27:33Z</time>
      </trkpt>
      <trkpt lat="47.87717" lon="2.15641">
        <ele>127</ele>
        <time>2017-04-30T09:27:37Z</time>
      </trkpt>
      <trkpt lat="47.87717" lon="2.15641">
        <ele>127</ele>
        <time>2017-04-30T09:27:39Z</time>
      </trkpt>
      <trkpt lat="47.87717" lon="2.15641">
        <ele>127</ele>
        <time>2017-04-30T09:27:41Z</time>
      </trkpt>
      <trkpt lat="47.87622" lon="2.15642">
        <ele>121</ele>
        <time>2017-04-30T09:27:43Z</time>
      </trkpt>
      <trkpt lat="47.87612" lon="2.15633">
        <ele>121</ele>
        <time>2017-04-30T09:27:45Z</time>
      </trkpt>
      <trkpt lat="47.87601" lon="2.15625">
        <ele>120</ele>
        <time>2017-04-30T09:27:47Z</time>
      </trkpt>
      <trkpt lat="47.87589" lon="2.1562">
        <ele>119</ele>
        <time>2017-04-30T09:27:49Z</time>
      </trkpt>
      <trkpt lat="47.87576" lon="2.1562">
        <ele>118</ele>
        <time>2017-04-30T09:27:51Z</time>
      </trkpt>
      <trkpt lat="47.87563" lon="2.15624">
        <ele>118</ele>
        <time>2017-04-30T09:27:53Z</time>
      </trkpt>
      <trkpt lat="47.87551" lon="2.15632">
        <ele>118</ele>
        <time>2017-04-30T09:27:55Z</time>
      </trkpt>
      <trkpt lat="47.8754" lon="2.15641">
        <ele>118</ele>
        <time>2017-04-30T09:27:57Z</time>
      </trkpt>
      <trkpt lat="47.87529" lon="2.15652">
        <ele>117</ele>
        <time>2017-04-30T09:27:59Z</time>
      </trkpt>
      <trkpt lat="47.8752" lon="2.15668">
        <ele>116</ele>
        <time>2017-04-30T09:28:01Z</time>
      </trkpt>
      <trkpt lat="47.87511" lon="2.15686">
        <ele>115</ele>
        <time>2017-04-30T09:28:03Z</time>
      </trkpt>
      <trkpt lat="47.87503" lon="2.15708">
        <ele>113</ele>
        <time>2017-04-30T09:28:05Z</time>
      </trkpt>
      <trkpt lat="47.87494" lon="2.1573">
        <ele>113</ele>
        <time>2017-04-30T09:28:07Z</time>
      </trkpt>
      <trkpt lat="47.87484" lon="2.15753">
        <ele>112</ele>
        <time>2017-04-30T09:28:09Z</time>
      </trkpt>
      <trkpt lat="47.87475" lon="2.15775">
        <ele>112</ele>
        <time>2017-04-30T09:28:11Z</time>
      </trkpt>
      <trkpt lat="47.87467" lon="2.15796">
        <ele>112</ele>
        <time>2017-04-30T09:28:13Z</time>
      </trkpt>
      <trkpt lat="47.87459" lon="2.15816">
        <ele>114</ele>
        <time>2017-04-30T09:28:15Z</time>
      </trkpt>
      <trkpt lat="47.87451" lon="2.15834">
        <ele>114</ele>
        <time>2017-04-30T09:28:17Z</time>
      </trkpt>
      <trkpt lat="47.87444" lon="2.1585">
        <ele>115</ele>
        <time>2017-04-30T09:28:19Z</time>
      </trkpt>
      <trkpt lat="47.87438" lon="2.15865">
        <ele>115</ele>
        <time>2017-04-30T09:28:21Z</time>
      </trkpt>
      <trkpt lat="47.87433" lon="2.1588">
        <ele>114</ele>
        <time>2017-04-30T09:28:23Z</time>
      </trkpt>
      <trkpt lat="47.87433" lon="2.1588">
        <ele>114</ele>
        <time>2017-04-30T09:28:25Z</time>
      </trkpt>
      <trkpt lat="47.87433" lon="2.1588">
        <ele>114</ele>
        <time>2017-04-30T09:28:27Z</time>
      </trkpt>
      <trkpt lat="47.87433" lon="2.1588">
        <ele>114</ele>
        <time>2017-04-30T09:28:29Z</time>
      </trkpt>
      <trkpt lat="47.87433" lon="2.1588">
        <ele>114</ele>
        <time>2017-04-30T09:28:31Z</time>
      </trkpt>
      <trkpt lat="47.87433" lon="2.1588">
        <ele>114</ele>
        <time>2017-04-30T09:28:33Z</time>
      </trkpt>
      <trkpt lat="47.87433" lon="2.1588">
        <ele>114</ele>
        <time>2017-04-30T09:28:37Z</time>
      </trkpt>
      <trkpt lat="47.87433" lon="2.1588">
        <ele>114</ele>
        <time>2017-04-30T09:28:39Z</time>
      </trkpt>
      <trkpt lat="47.87433" lon="2.1588">
        <ele>114</ele>
        <time>2017-04-30T09:28:41Z</time>
      </trkpt>
      <trkpt lat="47.87433" lon="2.1588">
        <ele>114</ele>
        <time>2017-04-30T09:28:43Z</time>
      </trkpt>
      <trkpt lat="47.87433" lon="2.1588">
        <ele>114</ele>
        <time>2017-04-30T09:28:45Z</time>
      </trkpt>
      <trkpt lat="47.87433" lon="2.1588">
        <ele>114</ele>
        <time>2017-04-30T09:28:47Z</time>
      </trkpt>
      <trkpt lat="47.87398" lon="2.15923">
        <ele>116</ele>
        <time>2017-04-30T09:28:54Z</time>
      </trkpt>
      <trkpt lat="47.87378" lon="2.15941">
        <ele>118</ele>
        <time>2017-04-30T09:28:55Z</time>
      </trkpt>
      <trkpt lat="47.87365" lon="2.15947">
        <ele>119</ele>
        <time>2017-04-30T09:28:57Z</time>
      </trkpt>
      <trkpt lat="47.87365" lon="2.15947">
        <ele>119</ele>
        <time>2017-04-30T09:28:59Z</time>
      </trkpt>
      <trkpt lat="47.87351" lon="2.15939">
        <ele>120</ele>
        <time>2017-04-30T09:29:03Z</time>
      </trkpt>
      <trkpt lat="47.8734" lon="2.1593">
        <ele>121</ele>
        <time>2017-04-30T09:29:05Z</time>
      </trkpt>
      <trkpt lat="47.87332" lon="2.15922">
        <ele>120</ele>
        <time>2017-04-30T09:29:07Z</time>
      </trkpt>
      <trkpt lat="47.87325" lon="2.15913">
        <ele>120</ele>
        <time>2017-04-30T09:29:09Z</time>
      </trkpt>
      <trkpt lat="47.87318" lon="2.15903">
        <ele>121</ele>
        <time>2017-04-30T09:29:11Z</time>
      </trkpt>
      <trkpt lat="47.87304" lon="2.15881">
        <ele>119</ele>
        <time>2017-04-30T09:29:13Z</time>
      </trkpt>
      <trkpt lat="47.87297" lon="2.15869">
        <ele>118</ele>
        <time>2017-04-30T09:29:15Z</time>
      </trkpt>
      <trkpt lat="47.87289" lon="2.15858">
        <ele>118</ele>
        <time>2017-04-30T09:29:17Z</time>
      </trkpt>
      <trkpt lat="47.8728" lon="2.15847">
        <ele>118</ele>
        <time>2017-04-30T09:29:19Z</time>
      </trkpt>
      <trkpt lat="47.87272" lon="2.15836">
        <ele>117</ele>
        <time>2017-04-30T09:29:21Z</time>
      </trkpt>
      <trkpt lat="47.87264" lon="2.15825">
        <ele>116</ele>
        <time>2017-04-30T09:29:23Z</time>
      </trkpt>
      <trkpt lat="47.87256" lon="2.15814">
        <ele>116</ele>
        <time>2017-04-30T09:29:25Z</time>
      </trkpt>
      <trkpt lat="47.87247" lon="2.15803">
        <ele>115</ele>
        <time>2017-04-30T09:29:27Z</time>
      </trkpt>
      <trkpt lat="47.87239" lon="2.15791">
        <ele>115</ele>
        <time>2017-04-30T09:29:29Z</time>
      </trkpt>
      <trkpt lat="47.8723" lon="2.15779">
        <ele>115</ele>
        <time>2017-04-30T09:29:31Z</time>
      </trkpt>
      <trkpt lat="47.87222" lon="2.15767">
        <ele>115</ele>
        <time>2017-04-30T09:29:33Z</time>
      </trkpt>
      <trkpt lat="47.87213" lon="2.15755">
        <ele>114</ele>
        <time>2017-04-30T09:29:35Z</time>
      </trkpt>
      <trkpt lat="47.87204" lon="2.15743">
        <ele>114</ele>
        <time>2017-04-30T09:29:37Z</time>
      </trkpt>
      <trkpt lat="47.87194" lon="2.15732">
        <ele>113</ele>
        <time>2017-04-30T09:29:39Z</time>
      </trkpt>
      <trkpt lat="47.87185" lon="2.1572">
        <ele>113</ele>
        <time>2017-04-30T09:29:41Z</time>
      </trkpt>
      <trkpt lat="47.87177" lon="2.15707">
        <ele>112</ele>
        <time>2017-04-30T09:29:43Z</time>
      </trkpt>
      <trkpt lat="47.87169" lon="2.15694">
        <ele>112</ele>
        <time>2017-04-30T09:29:45Z</time>
      </trkpt>
      <trkpt lat="47.87159" lon="2.15683">
        <ele>111</ele>
        <time>2017-04-30T09:29:47Z</time>
      </trkpt>
      <trkpt lat="47.8715" lon="2.1567">
        <ele>111</ele>
        <time>2017-04-30T09:29:49Z</time>
      </trkpt>
      <trkpt lat="47.8714" lon="2.15659">
        <ele>110</ele>
        <time>2017-04-30T09:29:51Z</time>
      </trkpt>
      <trkpt lat="47.87131" lon="2.15646">
        <ele>109</ele>
        <time>2017-04-30T09:29:53Z</time>
      </trkpt>
      <trkpt lat="47.87122" lon="2.15635">
        <ele>108</ele>
        <time>2017-04-30T09:29:55Z</time>
      </trkpt>
      <trkpt lat="47.87114" lon="2.15623">
        <ele>108</ele>
        <time>2017-04-30T09:29:57Z</time>
      </trkpt>
      <trkpt lat="47.87105" lon="2.15611">
        <ele>108</ele>
        <time>2017-04-30T09:29:59Z</time>
      </trkpt>
      <trkpt lat="47.87096" lon="2.15598">
        <ele>107</ele>
        <time>2017-04-30T09:30:01Z</time>
      </trkpt>
      <trkpt lat="47.87087" lon="2.15585">
        <ele>108</ele>
        <time>2017-04-30T09:30:03Z</time>
      </trkpt>
      <trkpt lat="47.87078" lon="2.15572">
        <ele>109</ele>
        <time>2017-04-30T09:30:05Z</time>
      </trkpt>
      <trkpt lat="47.87069" lon="2.15559">
        <ele>109</ele>
        <time>2017-04-30T09:30:07Z</time>
      </trkpt>
      <trkpt lat="47.87059" lon="2.15546">
        <ele>109</ele>
        <time>2017-04-30T09:30:09Z</time>
      </trkpt>
      <trkpt lat="47.87049" lon="2.15531">
        <ele>110</ele>
        <time>2017-04-30T09:30:11Z</time>
      </trkpt>
      <trkpt lat="47.87039" lon="2.15517">
        <ele>109</ele>
        <time>2017-04-30T09:30:13Z</time>
      </trkpt>
      <trkpt lat="47.87029" lon="2.15502">
        <ele>109</ele>
        <time>2017-04-30T09:30:15Z</time>
      </trkpt>
      <trkpt lat="47.87018" lon="2.15487">
        <ele>109</ele>
        <time>2017-04-30T09:30:17Z</time>
      </trkpt>
      <trkpt lat="47.87007" lon="2.15471">
        <ele>108</ele>
        <time>2017-04-30T09:30:19Z</time>
      </trkpt>
      <trkpt lat="47.86997" lon="2.15457">
        <ele>107</ele>
        <time>2017-04-30T09:30:21Z</time>
      </trkpt>
      <trkpt lat="47.86988" lon="2.15444">
        <ele>107</ele>
        <time>2017-04-30T09:30:23Z</time>
      </trkpt>
      <trkpt lat="47.8698" lon="2.15432">
        <ele>107</ele>
        <time>2017-04-30T09:30:25Z</time>
      </trkpt>
      <trkpt lat="47.86971" lon="2.15422">
        <ele>106</ele>
        <time>2017-04-30T09:30:27Z</time>
      </trkpt>
      <trkpt lat="47.86961" lon="2.15412">
        <ele>106</ele>
        <time>2017-04-30T09:30:29Z</time>
      </trkpt>
      <trkpt lat="47.86953" lon="2.15404">
        <ele>106</ele>
        <time>2017-04-30T09:30:31Z</time>
      </trkpt>
      <trkpt lat="47.86953" lon="2.15404">
        <ele>106</ele>
        <time>2017-04-30T09:30:33Z</time>
      </trkpt>
      <trkpt lat="47.86953" lon="2.15404">
        <ele>106</ele>
        <time>2017-04-30T09:30:35Z</time>
      </trkpt>
      <trkpt lat="47.86953" lon="2.15404">
        <ele>106</ele>
        <time>2017-04-30T09:30:37Z</time>
      </trkpt>
      <trkpt lat="47.86953" lon="2.15404">
        <ele>106</ele>
        <time>2017-04-30T09:30:39Z</time>
      </trkpt>
      <trkpt lat="47.86953" lon="2.15404">
        <ele>106</ele>
        <time>2017-04-30T09:30:41Z</time>
      </trkpt>
      <trkpt lat="47.86953" lon="2.15404">
        <ele>106</ele>
        <time>2017-04-30T09:30:43Z</time>
      </trkpt>
      <trkpt lat="47.86953" lon="2.15404">
        <ele>106</ele>
        <time>2017-04-30T09:30:45Z</time>
      </trkpt>
      <trkpt lat="47.86953" lon="2.15404">
        <ele>106</ele>
        <time>2017-04-30T09:30:47Z</time>
      </trkpt>
      <trkpt lat="47.86953" lon="2.15404">
        <ele>106</ele>
        <time>2017-04-30T09:30:49Z</time>
      </trkpt>
      <trkpt lat="47.86953" lon="2.15404">
        <ele>106</ele>
        <time>2017-04-30T09:30:51Z</time>
      </trkpt>
      <trkpt lat="47.86953" lon="2.15404">
        <ele>106</ele>
        <time>2017-04-30T09:30:53Z</time>
      </trkpt>
      <trkpt lat="47.86953" lon="2.15404">
        <ele>106</ele>
        <time>2017-04-30T09:30:55Z</time>
      </trkpt>
      <trkpt lat="47.86953" lon="2.15404">
        <ele>106</ele>
        <time>2017-04-30T09:30:57Z</time>
      </trkpt>
      <trkpt lat="47.86953" lon="2.15404">
        <ele>106</ele>
        <time>2017-04-30T09:30:59Z</time>
      </trkpt>
      <trkpt lat="47.86953" lon="2.15404">
        <ele>106</ele>
        <time>2017-04-30T09:31:01Z</time>
      </trkpt>
      <trkpt lat="47.86811" lon="2.15347">
        <ele>117</ele>
        <time>2017-04-30T09:31:05Z</time>
      </trkpt>
      <trkpt lat="47.86794" lon="2.15336">
        <ele>120</ele>
        <time>2017-04-30T09:31:09Z</time>
      </trkpt>
      <trkpt lat="47.86784" lon="2.1533">
        <ele>121</ele>
        <time>2017-04-30T09:31:11Z</time>
      </trkpt>
      <trkpt lat="47.86774" lon="2.15323">
        <ele>122</ele>
        <time>2017-04-30T09:31:13Z</time>
      </trkpt>
      <trkpt lat="47.86761" lon="2.15318">
        <ele>123</ele>
        <time>2017-04-30T09:31:15Z</time>
      </trkpt>
      <trkpt lat="47.86749" lon="2.15316">
        <ele>123</ele>
        <time>2017-04-30T09:31:17Z</time>
      </trkpt>
      <trkpt lat="47.86732" lon="2.15318">
        <ele>123</ele>
        <time>2017-04-30T09:31:19Z</time>
      </trkpt>
      <trkpt lat="47.86718" lon="2.1532">
        <ele>123</ele>
        <time>2017-04-30T09:31:21Z</time>
      </trkpt>
      <trkpt lat="47.86703" lon="2.15319">
        <ele>121</ele>
        <time>2017-04-30T09:31:23Z</time>
      </trkpt>
      <trkpt lat="47.86692" lon="2.15313">
        <ele>120</ele>
        <time>2017-04-30T09:31:25Z</time>
      </trkpt>
      <trkpt lat="47.86692" lon="2.15313">
        <ele>120</ele>
        <time>2017-04-30T09:31:27Z</time>
      </trkpt>
      <trkpt lat="47.86692" lon="2.15313">
        <ele>120</ele>
        <time>2017-04-30T09:31:29Z</time>
      </trkpt>
      <trkpt lat="47.86692" lon="2.15313">
        <ele>120</ele>
        <time>2017-04-30T09:31:31Z</time>
      </trkpt>
      <trkpt lat="47.86648" lon="2.15266">
        <ele>119</ele>
        <time>2017-04-30T09:31:35Z</time>
      </trkpt>
      <trkpt lat="47.86639" lon="2.15254">
        <ele>118</ele>
        <time>2017-04-30T09:31:37Z</time>
      </trkpt>
      <trkpt lat="47.8663" lon="2.15244">
        <ele>118</ele>
        <time>2017-04-30T09:31:39Z</time>
      </trkpt>
      <trkpt lat="47.8662" lon="2.15233">
        <ele>117</ele>
        <time>2017-04-30T09:31:41Z</time>
      </trkpt>
      <trkpt lat="47.86608" lon="2.15222">
        <ele>117</ele>
        <time>2017-04-30T09:31:43Z</time>
      </trkpt>
      <trkpt lat="47.86596" lon="2.15211">
        <ele>117</ele>
        <time>2017-04-30T09:31:45Z</time>
      </trkpt>
      <trkpt lat="47.86584" lon="2.15201">
        <ele>117</ele>
        <time>2017-04-30T09:31:47Z</time>
      </trkpt>
      <trkpt lat="47.86573" lon="2.1519">
        <ele>115</ele>
        <time>2017-04-30T09:31:49Z</time>
      </trkpt>
      <trkpt lat="47.86561" lon="2.1518">
        <ele>114</ele>
        <time>2017-04-30T09:31:51Z</time>
      </trkpt>
      <trkpt lat="47.86548" lon="2.15169">
        <ele>113</ele>
        <time>2017-04-30T09:31:53Z</time>
      </trkpt>
      <trkpt lat="47.86535" lon="2.15157">
        <ele>111</ele>
        <time>2017-04-30T09:31:55Z</time>
      </trkpt>
      <trkpt lat="47.86522" lon="2.15145">
        <ele>109</ele>
        <time>2017-04-30T09:31:57Z</time>
      </trkpt>
      <trkpt lat="47.86508" lon="2.15135">
        <ele>109</ele>
        <time>2017-04-30T09:31:59Z</time>
      </trkpt>
      <trkpt lat="47.86495" lon="2.15125">
        <ele>107</ele>
        <time>2017-04-30T09:32:01Z</time>
      </trkpt>
      <trkpt lat="47.86483" lon="2.15116">
        <ele>106</ele>
        <time>2017-04-30T09:32:03Z</time>
      </trkpt>
      <trkpt lat="47.86474" lon="2.15108">
        <ele>106</ele>
        <time>2017-04-30T09:32:05Z</time>
      </trkpt>
      <trkpt lat="47.86474" lon="2.15108">
        <ele>106</ele>
        <time>2017-04-30T09:32:07Z</time>
      </trkpt>
      <trkpt lat="47.86474" lon="2.15108">
        <ele>106</ele>
        <time>2017-04-30T09:32:09Z</time>
      </trkpt>
      <trkpt lat="47.86474" lon="2.15108">
        <ele>106</ele>
        <time>2017-04-30T09:32:11Z</time>
      </trkpt>
      <trkpt lat="47.86474" lon="2.15108">
        <ele>106</ele>
        <time>2017-04-30T09:32:13Z</time>
      </trkpt>
      <trkpt lat="47.86443" lon="2.15083">
        <ele>104</ele>
        <time>2017-04-30T09:32:17Z</time>
      </trkpt>
      <trkpt lat="47.8643" lon="2.15067">
        <ele>105</ele>
        <time>2017-04-30T09:32:21Z</time>
      </trkpt>
      <trkpt lat="47.86416" lon="2.1505">
        <ele>106</ele>
        <time>2017-04-30T09:32:25Z</time>
      </trkpt>
      <trkpt lat="47.86402" lon="2.15033">
        <ele>106</ele>
        <time>2017-04-30T09:32:29Z</time>
      </trkpt>
      <trkpt lat="47.86395" lon="2.15024">
        <ele>107</ele>
        <time>2017-04-30T09:32:31Z</time>
      </trkpt>
      <trkpt lat="47.86388" lon="2.15015">
        <ele>107</ele>
        <time>2017-04-30T09:32:33Z</time>
      </trkpt>
      <trkpt lat="47.8638" lon="2.15006">
        <ele>107</ele>
        <time>2017-04-30T09:32:35Z</time>
      </trkpt>
      <trkpt lat="47.86373" lon="2.14998">
        <ele>108</ele>
        <time>2017-04-30T09:32:37Z</time>
      </trkpt>
      <trkpt lat="47.86366" lon="2.14989">
        <ele>108</ele>
        <time>2017-04-30T09:32:39Z</time>
      </trkpt>
      <trkpt lat="47.86358" lon="2.1498">
        <ele>108</ele>
        <time>2017-04-30T09:32:41Z</time>
      </trkpt>
      <trkpt lat="47.86351" lon="2.14972">
        <ele>109</ele>
        <time>2017-04-30T09:32:43Z</time>
      </trkpt>
      <trkpt lat="47.86343" lon="2.14963">
        <ele>109</ele>
        <time>2017-04-30T09:32:45Z</time>
      </trkpt>
      <trkpt lat="47.86335" lon="2.14954">
        <ele>109</ele>
        <time>2017-04-30T09:32:47Z</time>
      </trkpt>
      <trkpt lat="47.86328" lon="2.14946">
        <ele>109</ele>
        <time>2017-04-30T09:32:49Z</time>
      </trkpt>
      <trkpt lat="47.86328" lon="2.14946">
        <ele>109</ele>
        <time>2017-04-30T09:32:51Z</time>
      </trkpt>
      <trkpt lat="47.86328" lon="2.14946">
        <ele>109</ele>
        <time>2017-04-30T09:32:53Z</time>
      </trkpt>
      <trkpt lat="47.86328" lon="2.14946">
        <ele>109</ele>
        <time>2017-04-30T09:32:55Z</time>
      </trkpt>
      <trkpt lat="47.86328" lon="2.14946">
        <ele>109</ele>
        <time>2017-04-30T09:32:57Z</time>
      </trkpt>
      <trkpt lat="47.86328" lon="2.14946">
        <ele>109</ele>
        <time>2017-04-30T09:33:01Z</time>
      </trkpt>
      <trkpt lat="47.86328" lon="2.14946">
        <ele>109</ele>
        <time>2017-04-30T09:33:03Z</time>
      </trkpt>
      <trkpt lat="47.8631" lon="2.14912">
        <ele>110</ele>
        <time>2017-04-30T09:33:05Z</time>
      </trkpt>
      <trkpt lat="47.86301" lon="2.14887">
        <ele>109</ele>
        <time>2017-04-30T09:33:07Z</time>
      </trkpt>
      <trkpt lat="47.86292" lon="2.14867">
        <ele>108</ele>
        <time>2017-04-30T09:33:09Z</time>
      </trkpt>
      <trkpt lat="47.86283" lon="2.14851">
        <ele>109</ele>
        <time>2017-04-30T09:33:11Z</time>
      </trkpt>
      <trkpt lat="47.86277" lon="2.14835">
        <ele>109</ele>
        <time>2017-04-30T09:33:13Z</time>
      </trkpt>
      <trkpt lat="47.86276" lon="2.14803">
        <ele>108</ele>
        <time>2017-04-30T09:33:15Z</time>
      </trkpt>
      <trkpt lat="47.86285" lon="2.14787">
        <ele>107</ele>
        <time>2017-04-30T09:33:17Z</time>
      </trkpt>
      <trkpt lat="47.86296" lon="2.14771">
        <ele>106</ele>
        <time>2017-04-30T09:33:19Z</time>
      </trkpt>
      <trkpt lat="47.86307" lon="2.14753">
        <ele>105</ele>
        <time>2017-04-30T09:33:21Z</time>
      </trkpt>
      <trkpt lat="47.86319" lon="2.14735">
        <ele>104</ele>
        <time>2017-04-30T09:33:23Z</time>
      </trkpt>
      <trkpt lat="47.8633" lon="2.14717">
        <ele>104</ele>
        <time>2017-04-30T09:33:25Z</time>
      </trkpt>
      <trkpt lat="47.86341" lon="2.147">
        <ele>104</ele>
        <time>2017-04-30T09:33:27Z</time>
      </trkpt>
      <trkpt lat="47.86352" lon="2.14683">
        <ele>104</ele>
        <time>2017-04-30T09:33:29Z</time>
      </trkpt>
      <trkpt lat="47.86362" lon="2.14666">
        <ele>104</ele>
        <time>2017-04-30T09:33:31Z</time>
      </trkpt>
      <trkpt lat="47.86372" lon="2.1465">
        <ele>104</ele>
        <time>2017-04-30T09:33:33Z</time>
      </trkpt>
      <trkpt lat="47.86382" lon="2.14635">
        <ele>105</ele>
        <time>2017-04-30T09:33:35Z</time>
      </trkpt>
      <trkpt lat="47.86391" lon="2.1462">
        <ele>106</ele>
        <time>2017-04-30T09:33:37Z</time>
      </trkpt>
      <trkpt lat="47.86399" lon="2.14607">
        <ele>106</ele>
        <time>2017-04-30T09:33:39Z</time>
      </trkpt>
      <trkpt lat="47.86406" lon="2.14595">
        <ele>107</ele>
        <time>2017-04-30T09:33:41Z</time>
      </trkpt>
      <trkpt lat="47.86412" lon="2.14582">
        <ele>108</ele>
        <time>2017-04-30T09:33:43Z</time>
      </trkpt>
      <trkpt lat="47.86412" lon="2.14582">
        <ele>108</ele>
        <time>2017-04-30T09:33:45Z</time>
      </trkpt>
      <trkpt lat="47.86412" lon="2.14582">
        <ele>108</ele>
        <time>2017-04-30T09:33:47Z</time>
      </trkpt>
      <trkpt lat="47.86412" lon="2.14582">
        <ele>108</ele>
        <time>2017-04-30T09:33:49Z</time>
      </trkpt>
      <trkpt lat="47.86412" lon="2.14582">
        <ele>108</ele>
        <time>2017-04-30T09:33:51Z</time>
      </trkpt>
      <trkpt lat="47.86412" lon="2.14582">
        <ele>108</ele>
        <time>2017-04-30T09:33:53Z</time>
      </trkpt>
      <trkpt lat="47.86412" lon="2.14582">
        <ele>108</ele>
        <time>2017-04-30T09:33:55Z</time>
      </trkpt>
      <trkpt lat="47.86412" lon="2.14582">
        <ele>108</ele>
        <time>2017-04-30T09:34:01Z</time>
      </trkpt>
      <trkpt lat="47.86412" lon="2.14582">
        <ele>108</ele>
        <time>2017-04-30T09:34:03Z</time>
      </trkpt>
      <trkpt lat="47.86412" lon="2.14582">
        <ele>108</ele>
        <time>2017-04-30T09:34:05Z</time>
      </trkpt>
      <trkpt lat="47.86412" lon="2.14582">
        <ele>108</ele>
        <time>2017-04-30T09:34:07Z</time>
      </trkpt>
      <trkpt lat="47.86412" lon="2.14582">
        <ele>108</ele>
        <time>2017-04-30T09:34:09Z</time>
      </trkpt>
      <trkpt lat="47.86412" lon="2.14582">
        <ele>108</ele>
        <time>2017-04-30T09:34:11Z</time>
      </trkpt>
      <trkpt lat="47.86412" lon="2.14582">
        <ele>108</ele>
        <time>2017-04-30T09:34:13Z</time>
      </trkpt>
      <trkpt lat="47.86485" lon="2.14404">
        <ele>113</ele>
        <time>2017-04-30T09:34:17Z</time>
      </trkpt>
      <trkpt lat="47.86494" lon="2.14382">
        <ele>113</ele>
        <time>2017-04-30T09:34:21Z</time>
      </trkpt>
      <trkpt lat="47.86499" lon="2.14369">
        <ele>112</ele>
        <time>2017-04-30T09:34:23Z</time>
      </trkpt>
      <trkpt lat="47.86504" lon="2.14356">
        <ele>112</ele>
        <time>2017-04-30T09:34:25Z</time>
      </trkpt>
      <trkpt lat="47.86509" lon="2.14342">
        <ele>112</ele>
        <time>2017-04-30T09:34:27Z</time>
      </trkpt>
      <trkpt lat="47.86515" lon="2.14328">
        <ele>112</ele>
        <time>2017-04-30T09:34:29Z</time>
      </trkpt>
      <trkpt lat="47.8652" lon="2.14314">
        <ele>112</ele>
        <time>2017-04-30T09:34:31Z</time>
      </trkpt>
      <trkpt lat="47.86526" lon="2.143">
        <ele>112</ele>
        <time>2017-04-30T09:34:33Z</time>
      </trkpt>
      <trkpt lat="47.86532" lon="2.14285">
        <ele>112</ele>
        <time>2017-04-30T09:34:35Z</time>
      </trkpt>
      <trkpt lat="47.86538" lon="2.14271">
        <ele>112</ele>
        <time>2017-04-30T09:34:37Z</time>
      </trkpt>
      <trkpt lat="47.86544" lon="2.14256">
        <ele>112</ele>
        <time>2017-04-30T09:34:39Z</time>
      </trkpt>
      <trkpt lat="47.86549" lon="2.1424">
        <ele>112</ele>
        <time>2017-04-30T09:34:41Z</time>
      </trkpt>
      <trkpt lat="47.86555" lon="2.14226">
        <ele>112</ele>
        <time>2017-04-30T09:34:43Z</time>
      </trkpt>
      <trkpt lat="47.86561" lon="2.1421">
        <ele>112</ele>
        <time>2017-04-30T09:34:45Z</time>
      </trkpt>
      <trkpt lat="47.86567" lon="2.14195">
        <ele>112</ele>
        <time>2017-04-30T09:34:47Z</time>
      </trkpt>
      <trkpt lat="47.86573" lon="2.14179">
        <ele>112</ele>
        <time>2017-04-30T09:34:49Z</time>
      </trkpt>
      <trkpt lat="47.86578" lon="2.14163">
        <ele>112</ele>
        <time>2017-04-30T09:34:51Z</time>
      </trkpt>
      <trkpt lat="47.86584" lon="2.14148">
        <ele>112</ele>
        <time>2017-04-30T09:34:53Z</time>
      </trkpt>
      <trkpt lat="47.86591" lon="2.14133">
        <ele>112</ele>
        <time>2017-04-30T09:34:55Z</time>
      </trkpt>
      <trkpt lat="47.86597" lon="2.14119">
        <ele>112</ele>
        <time>2017-04-30T09:34:57Z</time>
      </trkpt>
      <trkpt lat="47.86602" lon="2.14103">
        <ele>113</ele>
        <time>2017-04-30T09:34:59Z</time>
      </trkpt>
      <trkpt lat="47.86608" lon="2.14088">
        <ele>113</ele>
        <time>2017-04-30T09:35:01Z</time>
      </trkpt>
      <trkpt lat="47.86613" lon="2.14071">
        <ele>113</ele>
        <time>2017-04-30T09:35:03Z</time>
      </trkpt>
      <trkpt lat="47.86618" lon="2.14055">
        <ele>113</ele>
        <time>2017-04-30T09:35:05Z</time>
      </trkpt>
      <trkpt lat="47.86622" lon="2.14038">
        <ele>113</ele>
        <time>2017-04-30T09:35:07Z</time>
      </trkpt>
      <trkpt lat="47.86625" lon="2.14021">
        <ele>113</ele>
        <time>2017-04-30T09:35:09Z</time>
      </trkpt>
      <trkpt lat="47.86629" lon="2.14004">
        <ele>113</ele>
        <time>2017-04-30T09:35:11Z</time>
      </trkpt>
      <trkpt lat="47.86631" lon="2.13987">
        <ele>113</ele>
        <time>2017-04-30T09:35:13Z</time>
      </trkpt>
      <trkpt lat="47.86633" lon="2.1397">
        <ele>113</ele>
        <time>2017-04-30T09:35:15Z</time>
      </trkpt>
      <trkpt lat="47.86636" lon="2.13952">
        <ele>113</ele>
        <time>2017-04-30T09:35:17Z</time>
      </trkpt>
      <trkpt lat="47.86637" lon="2.13934">
        <ele>113</ele>
        <time>2017-04-30T09:35:19Z</time>
      </trkpt>
      <trkpt lat="47.86639" lon="2.13916">
        <ele>112</ele>
        <time>2017-04-30T09:35:21Z</time>
      </trkpt>
      <trkpt lat="47.86641" lon="2.13898">
        <ele>112</ele>
        <time>2017-04-30T09:35:23Z</time>
      </trkpt>
      <trkpt lat="47.86643" lon="2.13879">
        <ele>112</ele>
        <time>2017-04-30T09:35:25Z</time>
      </trkpt>
      <trkpt lat="47.86645" lon="2.13861">
        <ele>112</ele>
        <time>2017-04-30T09:35:27Z</time>
      </trkpt>
      <trkpt lat="47.86647" lon="2.13843">
        <ele>112</ele>
        <time>2017-04-30T09:35:29Z</time>
      </trkpt>
      <trkpt lat="47.86649" lon="2.13826">
        <ele>112</ele>
        <time>2017-04-30T09:35:31Z</time>
      </trkpt>
      <trkpt lat="47.86651" lon="2.13809">
        <ele>113</ele>
        <time>2017-04-30T09:35:33Z</time>
      </trkpt>
      <trkpt lat="47.86655" lon="2.13793">
        <ele>113</ele>
        <time>2017-04-30T09:35:35Z</time>
      </trkpt>
      <trkpt lat="47.86661" lon="2.13777">
        <ele>113</ele>
        <time>2017-04-30T09:35:37Z</time>
      </trkpt>
      <trkpt lat="47.86667" lon="2.13762">
        <ele>113</ele>
        <time>2017-04-30T09:35:39Z</time>
      </trkpt>
      <trkpt lat="47.86673" lon="2.13747">
        <ele>113</ele>
        <time>2017-04-30T09:35:41Z</time>
      </trkpt>
      <trkpt lat="47.86678" lon="2.13732">
        <ele>113</ele>
        <time>2017-04-30T09:35:43Z</time>
      </trkpt>
      <trkpt lat="47.86684" lon="2.13718">
        <ele>113</ele>
        <time>2017-04-30T09:35:45Z</time>
      </trkpt>
      <trkpt lat="47.8669" lon="2.13704">
        <ele>113</ele>
        <time>2017-04-30T09:35:47Z</time>
      </trkpt>
      <trkpt lat="47.86699" lon="2.13697">
        <ele>112</ele>
        <time>2017-04-30T09:35:49Z</time>
      </trkpt>
      <trkpt lat="47.86699" lon="2.13697">
        <ele>112</ele>
        <time>2017-04-30T09:35:51Z</time>
      </trkpt>
      <trkpt lat="47.86699" lon="2.13697">
        <ele>112</ele>
        <time>2017-04-30T09:35:53Z</time>
      </trkpt>
      <trkpt lat="47.86699" lon="2.13697">
        <ele>112</ele>
        <time>2017-04-30T09:35:55Z</time>
      </trkpt>
      <trkpt lat="47.86699" lon="2.13697">
        <ele>112</ele>
        <time>2017-04-30T09:35:59Z</time>
      </trkpt>
      <trkpt lat="47.86699" lon="2.13697">
        <ele>112</ele>
        <time>2017-04-30T09:36:01Z</time>
      </trkpt>
      <trkpt lat="47.86699" lon="2.13697">
        <ele>112</ele>
        <time>2017-04-30T09:36:03Z</time>
      </trkpt>
      <trkpt lat="47.86699" lon="2.13697">
        <ele>112</ele>
        <time>2017-04-30T09:36:05Z</time>
      </trkpt>
      <trkpt lat="47.86774" lon="2.13703">
        <ele>112</ele>
        <time>2017-04-30T09:36:07Z</time>
      </trkpt>
      <trkpt lat="47.8678" lon="2.13688">
        <ele>111</ele>
        <time>2017-04-30T09:36:09Z</time>
      </trkpt>
      <trkpt lat="47.86786" lon="2.13672">
        <ele>111</ele>
        <time>2017-04-30T09:36:11Z</time>
      </trkpt>
      <trkpt lat="47.86791" lon="2.13654">
        <ele>110</ele>
        <time>2017-04-30T09:36:13Z</time>
      </trkpt>
      <trkpt lat="47.86795" lon="2.13637">
        <ele>110</ele>
        <time>2017-04-30T09:36:15Z</time>
      </trkpt>
      <trkpt lat="47.86797" lon="2.13619">
        <ele>110</ele>
        <time>2017-04-30T09:36:17Z</time>
      </trkpt>
      <trkpt lat="47.86798" lon="2.136">
        <ele>110</ele>
        <time>2017-04-30T09:36:19Z</time>
      </trkpt>
      <trkpt lat="47.86798" lon="2.13581">
        <ele>110</ele>
        <time>2017-04-30T09:36:21Z</time>
      </trkpt>
      <trkpt lat="47.86797" lon="2.13563">
        <ele>110</ele>
        <time>2017-04-30T09:36:23Z</time>
      </trkpt>
      <trkpt lat="47.86794" lon="2.13544">
        <ele>111</ele>
        <time>2017-04-30T09:36:25Z</time>
      </trkpt>
      <trkpt lat="47.86791" lon="2.13527">
        <ele>111</ele>
        <time>2017-04-30T09:36:27Z</time>
      </trkpt>
      <trkpt lat="47.86789" lon="2.13508">
        <ele>111</ele>
        <time>2017-04-30T09:36:29Z</time>
      </trkpt>
      <trkpt lat="47.86789" lon="2.13491">
        <ele>111</ele>
        <time>2017-04-30T09:36:31Z</time>
      </trkpt>
      <trkpt lat="47.86789" lon="2.13473">
        <ele>112</ele>
        <time>2017-04-30T09:36:33Z</time>
      </trkpt>
      <trkpt lat="47.86791" lon="2.13456">
        <ele>112</ele>
        <time>2017-04-30T09:36:35Z</time>
      </trkpt>
      <trkpt lat="47.86793" lon="2.13439">
        <ele>113</ele>
        <time>2017-04-30T09:36:37Z</time>
      </trkpt>
      <trkpt lat="47.86797" lon="2.13422">
        <ele>113</ele>
        <time>2017-04-30T09:36:39Z</time>
      </trkpt>
      <trkpt lat="47.86801" lon="2.13406">
        <ele>114</ele>
        <time>2017-04-30T09:36:41Z</time>
      </trkpt>
      <trkpt lat="47.86806" lon="2.1339">
        <ele>114</ele>
        <time>2017-04-30T09:36:43Z</time>
      </trkpt>
      <trkpt lat="47.86811" lon="2.13377">
        <ele>114</ele>
        <time>2017-04-30T09:36:45Z</time>
      </trkpt>
      <trkpt lat="47.86817" lon="2.13364">
        <ele>114</ele>
        <time>2017-04-30T09:36:47Z</time>
      </trkpt>
      <trkpt lat="47.86824" lon="2.13351">
        <ele>114</ele>
        <time>2017-04-30T09:36:49Z</time>
      </trkpt>
      <trkpt lat="47.86832" lon="2.13339">
        <ele>114</ele>
        <time>2017-04-30T09:36:51Z</time>
      </trkpt>
      <trkpt lat="47.86841" lon="2.13328">
        <ele>113</ele>
        <time>2017-04-30T09:36:53Z</time>
      </trkpt>
      <trkpt lat="47.8685" lon="2.13318">
        <ele>113</ele>
        <time>2017-04-30T09:36:55Z</time>
      </trkpt>
      <trkpt lat="47.8686" lon="2.13308">
        <ele>113</ele>
        <time>2017-04-30T09:36:57Z</time>
      </trkpt>
      <trkpt lat="47.86869" lon="2.13298">
        <ele>112</ele>
        <time>2017-04-30T09:36:59Z</time>
      </trkpt>
      <trkpt lat="47.86878" lon="2.13286">
        <ele>113</ele>
        <time>2017-04-30T09:37:01Z</time>
      </trkpt>
      <trkpt lat="47.86887" lon="2.13275">
        <ele>113</ele>
        <time>2017-04-30T09:37:03Z</time>
      </trkpt>
      <trkpt lat="47.86895" lon="2.13264">
        <ele>113</ele>
        <time>2017-04-30T09:37:05Z</time>
      </trkpt>
      <trkpt lat="47.86903" lon="2.13253">
        <ele>112</ele>
        <time>2017-04-30T09:37:07Z</time>
      </trkpt>
      <trkpt lat="47.86903" lon="2.13253">
        <ele>112</ele>
        <time>2017-04-30T09:37:09Z</time>
      </trkpt>
      <trkpt lat="47.86919" lon="2.1323">
        <ele>112</ele>
        <time>2017-04-30T09:37:11Z</time>
      </trkpt>
      <trkpt lat="47.86927" lon="2.13218">
        <ele>113</ele>
        <time>2017-04-30T09:37:13Z</time>
      </trkpt>
      <trkpt lat="47.86934" lon="2.13206">
        <ele>113</ele>
        <time>2017-04-30T09:37:15Z</time>
      </trkpt>
      <trkpt lat="47.86941" lon="2.13193">
        <ele>113</ele>
        <time>2017-04-30T09:37:17Z</time>
      </trkpt>
      <trkpt lat="47.86947" lon="2.13181">
        <ele>113</ele>
        <time>2017-04-30T09:37:19Z</time>
      </trkpt>
      <trkpt lat="47.86947" lon="2.13181">
        <ele>113</ele>
        <time>2017-04-30T09:37:21Z</time>
      </trkpt>
      <trkpt lat="47.86947" lon="2.13181">
        <ele>113</ele>
        <time>2017-04-30T09:37:23Z</time>
      </trkpt>
      <trkpt lat="47.86947" lon="2.13181">
        <ele>113</ele>
        <time>2017-04-30T09:37:25Z</time>
      </trkpt>
      <trkpt lat="47.86947" lon="2.13181">
        <ele>113</ele>
        <time>2017-04-30T09:37:27Z</time>
      </trkpt>
      <trkpt lat="47.86947" lon="2.13181">
        <ele>113</ele>
        <time>2017-04-30T09:37:29Z</time>
      </trkpt>
      <trkpt lat="47.86947" lon="2.13181">
        <ele>113</ele>
        <time>2017-04-30T09:37:31Z</time>
      </trkpt>
      <trkpt lat="47.86947" lon="2.13181">
        <ele>113</ele>
        <time>2017-04-30T09:37:33Z</time>
      </trkpt>
      <trkpt lat="47.86947" lon="2.13181">
        <ele>113</ele>
        <time>2017-04-30T09:37:35Z</time>
      </trkpt>
      <trkpt lat="47.86947" lon="2.13181">
        <ele>113</ele>
        <time>2017-04-30T09:37:37Z</time>
      </trkpt>
      <trkpt lat="47.86947" lon="2.13181">
        <ele>113</ele>
        <time>2017-04-30T09:37:39Z</time>
      </trkpt>
      <trkpt lat="47.86978" lon="2.13131">
        <ele>115</ele>
        <time>2017-04-30T09:37:43Z</time>
      </trkpt>
      <trkpt lat="47.86995" lon="2.131">
        <ele>115</ele>
        <time>2017-04-30T09:37:45Z</time>
      </trkpt>
      <trkpt lat="47.87005" lon="2.13077">
        <ele>115</ele>
        <time>2017-04-30T09:37:47Z</time>
      </trkpt>
      <trkpt lat="47.87012" lon="2.13059">
        <ele>115</ele>
        <time>2017-04-30T09:37:49Z</time>
      </trkpt>
      <trkpt lat="47.87017" lon="2.13043">
        <ele>115</ele>
        <time>2017-04-30T09:37:51Z</time>
      </trkpt>
      <trkpt lat="47.87027" lon="2.13014">
        <ele>115</ele>
        <time>2017-04-30T09:37:53Z</time>
      </trkpt>
      <trkpt lat="47.87032" lon="2.12999">
        <ele>115</ele>
        <time>2017-04-30T09:37:55Z</time>
      </trkpt>
      <trkpt lat="47.87036" lon="2.12984">
        <ele>115</ele>
        <time>2017-04-30T09:37:57Z</time>
      </trkpt>
      <trkpt lat="47.8704" lon="2.12969">
        <ele>115</ele>
        <time>2017-04-30T09:37:59Z</time>
      </trkpt>
      <trkpt lat="47.87044" lon="2.12954">
        <ele>114</ele>
        <time>2017-04-30T09:38:01Z</time>
      </trkpt>
      <trkpt lat="47.87048" lon="2.12939">
        <ele>114</ele>
        <time>2017-04-30T09:38:03Z</time>
      </trkpt>
      <trkpt lat="47.87048" lon="2.12939">
        <ele>114</ele>
        <time>2017-04-30T09:38:05Z</time>
      </trkpt>
      <trkpt lat="47.87048" lon="2.12939">
        <ele>114</ele>
        <time>2017-04-30T09:38:07Z</time>
      </trkpt>
      <trkpt lat="47.87048" lon="2.12939">
        <ele>114</ele>
        <time>2017-04-30T09:38:09Z</time>
      </trkpt>
      <trkpt lat="47.87048" lon="2.12939">
        <ele>114</ele>
        <time>2017-04-30T09:38:13Z</time>
      </trkpt>
      <trkpt lat="47.87048" lon="2.12939">
        <ele>114</ele>
        <time>2017-04-30T09:38:15Z</time>
      </trkpt>
      <trkpt lat="47.87048" lon="2.12939">
        <ele>114</ele>
        <time>2017-04-30T09:38:17Z</time>
      </trkpt>
      <trkpt lat="47.87048" lon="2.12939">
        <ele>114</ele>
        <time>2017-04-30T09:38:19Z</time>
      </trkpt>
      <trkpt lat="47.87048" lon="2.12939">
        <ele>114</ele>
        <time>2017-04-30T09:38:21Z</time>
      </trkpt>
      <trkpt lat="47.87092" lon="2.12795">
        <ele>114</ele>
        <time>2017-04-30T09:38:25Z</time>
      </trkpt>
      <trkpt lat="47.87097" lon="2.12781">
        <ele>113</ele>
        <time>2017-04-30T09:38:27Z</time>
      </trkpt>
      <trkpt lat="47.87101" lon="2.12767">
        <ele>113</ele>
        <time>2017-04-30T09:38:29Z</time>
      </trkpt>
      <trkpt lat="47.87107" lon="2.12756">
        <ele>114</ele>
        <time>2017-04-30T09:38:31Z</time>
      </trkpt>
      <trkpt lat="47.87115" lon="2.12748">
        <ele>114</ele>
        <time>2017-04-30T09:38:33Z</time>
      </trkpt>
      <trkpt lat="47.87125" lon="2.12741">
        <ele>114</ele>
        <time>2017-04-30T09:38:35Z</time>
      </trkpt>
      <trkpt lat="47.87125" lon="2.12741">
        <ele>114</ele>
        <time>2017-04-30T09:38:37Z</time>
      </trkpt>
      <trkpt lat="47.87125" lon="2.12741">
        <ele>114</ele>
        <time>2017-04-30T09:38:39Z</time>
      </trkpt>
      <trkpt lat="47.87125" lon="2.12741">
        <ele>114</ele>
        <time>2017-04-30T09:38:41Z</time>
      </trkpt>
      <trkpt lat="47.87125" lon="2.12741">
        <ele>114</ele>
        <time>2017-04-30T09:38:43Z</time>
      </trkpt>
      <trkpt lat="47.87125" lon="2.12741">
        <ele>114</ele>
        <time>2017-04-30T09:38:45Z</time>
      </trkpt>
      <trkpt lat="47.87125" lon="2.12741">
        <ele>114</ele>
        <time>2017-04-30T09:38:47Z</time>
      </trkpt>
      <trkpt lat="47.87125" lon="2.12741">
        <ele>114</ele>
        <time>2017-04-30T09:38:49Z</time>
      </trkpt>
      <trkpt lat="47.87151" lon="2.12664">
        <ele>114</ele>
        <time>2017-04-30T09:39:00Z</time>
      </trkpt>
      <trkpt lat="47.87146" lon="2.12643">
        <ele>115</ele>
        <time>2017-04-30T09:39:04Z</time>
      </trkpt>
      <trkpt lat="47.87138" lon="2.12637">
        <ele>114</ele>
        <time>2017-04-30T09:39:06Z</time>
      </trkpt>
      <trkpt lat="47.87128" lon="2.12632">
        <ele>114</ele>
        <time>2017-04-30T09:39:08Z</time>
      </trkpt>
      <trkpt lat="47.87119" lon="2.12628">
        <ele>114</ele>
        <time>2017-04-30T09:39:10Z</time>
      </trkpt>
      <trkpt lat="47.87108" lon="2.12623">
        <ele>113</ele>
        <time>2017-04-30T09:39:12Z</time>
      </trkpt>
      <trkpt lat="47.87097" lon="2.12618">
        <ele>113</ele>
        <time>2017-04-30T09:39:14Z</time>
      </trkpt>
      <trkpt lat="47.87084" lon="2.12612">
        <ele>112</ele>
        <time>2017-04-30T09:39:16Z</time>
      </trkpt>
      <trkpt lat="47.87071" lon="2.12604">
        <ele>110</ele>
        <time>2017-04-30T09:39:18Z</time>
      </trkpt>
      <trkpt lat="47.87056" lon="2.12595">
        <ele>109</ele>
        <time>2017-04-30T09:39:20Z</time>
      </trkpt>
      <trkpt lat="47.8704" lon="2.12586">
        <ele>108</ele>
        <time>2017-04-30T09:39:22Z</time>
      </trkpt>
      <trkpt lat="47.87025" lon="2.12579">
        <ele>108</ele>
        <time>2017-04-30T09:39:24Z</time>
      </trkpt>
      <trkpt lat="47.87011" lon="2.1257">
        <ele>109</ele>
        <time>2017-04-30T09:39:26Z</time>
      </trkpt>
      <trkpt lat="47.86998" lon="2.12563">
        <ele>109</ele>
        <time>2017-04-30T09:39:28Z</time>
      </trkpt>
      <trkpt lat="47.86984" lon="2.12555">
        <ele>108</ele>
        <time>2017-04-30T09:39:30Z</time>
      </trkpt>
      <trkpt lat="47.86971" lon="2.12548">
        <ele>108</ele>
        <time>2017-04-30T09:39:32Z</time>
      </trkpt>
      <trkpt lat="47.86958" lon="2.1254">
        <ele>108</ele>
        <time>2017-04-30T09:39:34Z</time>
      </trkpt>
      <trkpt lat="47.86944" lon="2.12532">
        <ele>108</ele>
        <time>2017-04-30T09:39:36Z</time>
      </trkpt>
      <trkpt lat="47.86931" lon="2.12525">
        <ele>108</ele>
        <time>2017-04-30T09:39:38Z</time>
      </trkpt>
      <trkpt lat="47.86918" lon="2.12518">
        <ele>108</ele>
        <time>2017-04-30T09:39:40Z</time>
      </trkpt>
      <trkpt lat="47.86906" lon="2.12511">
        <ele>108</ele>
        <time>2017-04-30T09:39:42Z</time>
      </trkpt>
      <trkpt lat="47.86893" lon="2.12504">
        <ele>107</ele>
        <time>2017-04-30T09:39:44Z</time>
      </trkpt>
      <trkpt lat="47.8688" lon="2.12496">
        <ele>107</ele>
        <time>2017-04-30T09:39:46Z</time>
      </trkpt>
      <trkpt lat="47.86868" lon="2.12489">
        <ele>107</ele>
        <time>2017-04-30T09:39:48Z</time>
      </trkpt>
      <trkpt lat="47.86855" lon="2.12482">
        <ele>107</ele>
        <time>2017-04-30T09:39:50Z</time>
      </trkpt>
      <trkpt lat="47.86842" lon="2.12475">
        <ele>106</ele>
        <time>2017-04-30T09:39:52Z</time>
      </trkpt>
      <trkpt lat="47.8683" lon="2.12468">
        <ele>106</ele>
        <time>2017-04-30T09:39:54Z</time>
      </trkpt>
      <trkpt lat="47.86818" lon="2.12461">
        <ele>106</ele>
        <time>2017-04-30T09:39:56Z</time>
      </trkpt>
      <trkpt lat="47.86805" lon="2.12455">
        <ele>105</ele>
        <time>2017-04-30T09:39:58Z</time>
      </trkpt>
      <trkpt lat="47.86793" lon="2.12448">
        <ele>105</ele>
        <time>2017-04-30T09:40:00Z</time>
      </trkpt>
      <trkpt lat="47.86781" lon="2.12441">
        <ele>105</ele>
        <time>2017-04-30T09:40:02Z</time>
      </trkpt>
      <trkpt lat="47.86769" lon="2.12435">
        <ele>105</ele>
        <time>2017-04-30T09:40:04Z</time>
      </trkpt>
      <trkpt lat="47.8676" lon="2.1243">
        <ele>105</ele>
        <time>2017-04-30T09:40:06Z</time>
      </trkpt>
      <trkpt lat="47.8676" lon="2.1243">
        <ele>105</ele>
        <time>2017-04-30T09:40:08Z</time>
      </trkpt>
      <trkpt lat="47.8676" lon="2.1243">
        <ele>105</ele>
        <time>2017-04-30T09:40:10Z</time>
      </trkpt>
      <trkpt lat="47.8676" lon="2.1243">
        <ele>105</ele>
        <time>2017-04-30T09:40:12Z</time>
      </trkpt>
      <trkpt lat="47.8676" lon="2.1243">
        <ele>105</ele>
        <time>2017-04-30T09:40:14Z</time>
      </trkpt>
      <trkpt lat="47.8676" lon="2.1243">
        <ele>105</ele>
        <time>2017-04-30T09:40:16Z</time>
      </trkpt>
      <trkpt lat="47.8676" lon="2.1243">
        <ele>105</ele>
        <time>2017-04-30T09:40:18Z</time>
      </trkpt>
      <trkpt lat="47.8676" lon="2.1243">
        <ele>105</ele>
        <time>2017-04-30T09:40:20Z</time>
      </trkpt>
      <trkpt lat="47.8676" lon="2.1243">
        <ele>105</ele>
        <time>2017-04-30T09:40:24Z</time>
      </trkpt>
      <trkpt lat="47.8676" lon="2.1243">
        <ele>105</ele>
        <time>2017-04-30T09:40:26Z</time>
      </trkpt>
      <trkpt lat="47.86757" lon="2.1236">
        <ele>103</ele>
        <time>2017-04-30T09:40:32Z</time>
      </trkpt>
      <trkpt lat="47.86766" lon="2.12351">
        <ele>105</ele>
        <time>2017-04-30T09:40:36Z</time>
      </trkpt>
      <trkpt lat="47.86769" lon="2.12329">
        <ele>105</ele>
        <time>2017-04-30T09:40:40Z</time>
      </trkpt>
      <trkpt lat="47.86773" lon="2.12305">
        <ele>106</ele>
        <time>2017-04-30T09:40:44Z</time>
      </trkpt>
      <trkpt lat="47.86777" lon="2.12281">
        <ele>105</ele>
        <time>2017-04-30T09:40:48Z</time>
      </trkpt>
      <trkpt lat="47.86781" lon="2.12257">
        <ele>105</ele>
        <time>2017-04-30T09:40:52Z</time>
      </trkpt>
      <trkpt lat="47.86781" lon="2.12257">
        <ele>105</ele>
        <time>2017-04-30T09:40:54Z</time>
      </trkpt>
      <trkpt lat="47.86781" lon="2.12257">
        <ele>105</ele>
        <time>2017-04-30T09:40:56Z</time>
      </trkpt>
      <trkpt lat="47.86781" lon="2.12257">
        <ele>105</ele>
        <time>2017-04-30T09:40:58Z</time>
      </trkpt>
      <trkpt lat="47.86781" lon="2.12257">
        <ele>105</ele>
        <time>2017-04-30T09:41:00Z</time>
      </trkpt>
      <trkpt lat="47.86783" lon="2.12276">
        <ele>103</ele>
        <time>2017-04-30T09:41:06Z</time>
      </trkpt>
      <trkpt lat="47.8678" lon="2.12295">
        <ele>102</ele>
        <time>2017-04-30T09:41:08Z</time>
      </trkpt>
      <trkpt lat="47.86777" lon="2.12315">
        <ele>101</ele>
        <time>2017-04-30T09:41:10Z</time>
      </trkpt>
      <trkpt lat="47.86774" lon="2.12336">
        <ele>100</ele>
        <time>2017-04-30T09:41:12Z</time>
      </trkpt>
      <trkpt lat="47.86772" lon="2.12354">
        <ele>100</ele>
        <time>2017-04-30T09:41:14Z</time>
      </trkpt>
      <trkpt lat="47.8677" lon="2.12372">
        <ele>100</ele>
        <time>2017-04-30T09:41:16Z</time>
      </trkpt>
      <trkpt lat="47.86769" lon="2.12388">
        <ele>101</ele>
        <time>2017-04-30T09:41:18Z</time>
      </trkpt>
      <trkpt lat="47.86768" lon="2.12405">
        <ele>101</ele>
        <time>2017-04-30T09:41:20Z</time>
      </trkpt>
      <trkpt lat="47.86767" lon="2.12422">
        <ele>101</ele>
        <time>2017-04-30T09:41:22Z</time>
      </trkpt>
      <trkpt lat="47.86766" lon="2.12439">
        <ele>100</ele>
        <time>2017-04-30T09:41:24Z</time>
      </trkpt>
      <trkpt lat="47.86763" lon="2.12456">
        <ele>100</ele>
        <time>2017-04-30T09:41:26Z</time>
      </trkpt>
      <trkpt lat="47.86761" lon="2.12473">
        <ele>99</ele>
        <time>2017-04-30T09:41:28Z</time>
      </trkpt>
      <trkpt lat="47.86759" lon="2.1249">
        <ele>99</ele>
        <time>2017-04-30T09:41:30Z</time>
      </trkpt>
      <trkpt lat="47.86757" lon="2.12507">
        <ele>99</ele>
        <time>2017-04-30T09:41:32Z</time>
      </trkpt>
      <trkpt lat="47.86755" lon="2.12524">
        <ele>99</ele>
        <time>2017-04-30T09:41:34Z</time>
      </trkpt>
      <trkpt lat="47.86752" lon="2.12541">
        <ele>98</ele>
        <time>2017-04-30T09:41:36Z</time>
      </trkpt>
      <trkpt lat="47.86749" lon="2.12558">
        <ele>98</ele>
        <time>2017-04-30T09:41:38Z</time>
      </trkpt>
      <trkpt lat="47.86745" lon="2.12574">
        <ele>97</ele>
        <time>2017-04-30T09:41:40Z</time>
      </trkpt>
      <trkpt lat="47.86742" lon="2.12589">
        <ele>96</ele>
        <time>2017-04-30T09:41:42Z</time>
      </trkpt>
      <trkpt lat="47.86738" lon="2.12605">
        <ele>97</ele>
        <time>2017-04-30T09:41:44Z</time>
      </trkpt>
      <trkpt lat="47.86735" lon="2.12621">
        <ele>97</ele>
        <time>2017-04-30T09:41:46Z</time>
      </trkpt>
      <trkpt lat="47.86731" lon="2.12636">
        <ele>97</ele>
        <time>2017-04-30T09:41:48Z</time>
      </trkpt>
      <trkpt lat="47.86728" lon="2.12652">
        <ele>97</ele>
        <time>2017-04-30T09:41:50Z</time>
      </trkpt>
      <trkpt lat="47.86725" lon="2.12667">
        <ele>97</ele>
        <time>2017-04-30T09:41:52Z</time>
      </trkpt>
      <trkpt lat="47.86722" lon="2.12683">
        <ele>97</ele>
        <time>2017-04-30T09:41:54Z</time>
      </trkpt>
      <trkpt lat="47.86722" lon="2.12683">
        <ele>97</ele>
        <time>2017-04-30T09:41:56Z</time>
      </trkpt>
      <trkpt lat="47.86722" lon="2.12683">
        <ele>97</ele>
        <time>2017-04-30T09:41:58Z</time>
      </trkpt>
      <trkpt lat="47.86722" lon="2.12683">
        <ele>97</ele>
        <time>2017-04-30T09:42:00Z</time>
      </trkpt>
      <trkpt lat="47.86722" lon="2.12683">
        <ele>97</ele>
        <time>2017-04-30T09:42:02Z</time>
      </trkpt>
      <trkpt lat="47.86692" lon="2.12761">
        <ele>95</ele>
        <time>2017-04-30T09:42:06Z</time>
      </trkpt>
      <trkpt lat="47.86686" lon="2.12774">
        <ele>95</ele>
        <time>2017-04-30T09:42:08Z</time>
      </trkpt>
      <trkpt lat="47.8668" lon="2.12785">
        <ele>95</ele>
        <time>2017-04-30T09:42:10Z</time>
      </trkpt>
      <trkpt lat="47.8668" lon="2.12785">
        <ele>95</ele>
        <time>2017-04-30T09:42:12Z</time>
      </trkpt>
      <trkpt lat="47.8668" lon="2.12785">
        <ele>95</ele>
        <time>2017-04-30T09:42:14Z</time>
      </trkpt>
      <trkpt lat="47.8668" lon="2.12785">
        <ele>95</ele>
        <time>2017-04-30T09:42:16Z</time>
      </trkpt>
      <trkpt lat="47.8668" lon="2.12785">
        <ele>95</ele>
        <time>2017-04-30T09:42:18Z</time>
      </trkpt>
      <trkpt lat="47.8668" lon="2.12785">
        <ele>95</ele>
        <time>2017-04-30T09:42:20Z</time>
      </trkpt>
      <trkpt lat="47.8668" lon="2.12785">
        <ele>95</ele>
        <time>2017-04-30T09:42:22Z</time>
      </trkpt>
      <trkpt lat="47.8668" lon="2.12785">
        <ele>95</ele>
        <time>2017-04-30T09:42:24Z</time>
      </trkpt>
      <trkpt lat="47.86652" lon="2.12833">
        <ele>95</ele>
        <time>2017-04-30T09:42:28Z</time>
      </trkpt>
      <trkpt lat="47.86634" lon="2.12862">
        <ele>96</ele>
        <time>2017-04-30T09:42:30Z</time>
      </trkpt>
      <trkpt lat="47.86622" lon="2.12882">
        <ele>96</ele>
        <time>2017-04-30T09:42:32Z</time>
      </trkpt>
      <trkpt lat="47.86622" lon="2.12882">
        <ele>96</ele>
        <time>2017-04-30T09:42:34Z</time>
      </trkpt>
      <trkpt lat="47.86606" lon="2.12907">
        <ele>95</ele>
        <time>2017-04-30T09:42:38Z</time>
      </trkpt>
      <trkpt lat="47.86594" lon="2.12924">
        <ele>95</ele>
        <time>2017-04-30T09:42:40Z</time>
      </trkpt>
      <trkpt lat="47.86584" lon="2.12937">
        <ele>95</ele>
        <time>2017-04-30T09:42:42Z</time>
      </trkpt>
      <trkpt lat="47.86575" lon="2.12948">
        <ele>96</ele>
        <time>2017-04-30T09:42:44Z</time>
      </trkpt>
      <trkpt lat="47.86575" lon="2.12948">
        <ele>96</ele>
        <time>2017-04-30T09:42:46Z</time>
      </trkpt>
      <trkpt lat="47.86575" lon="2.12948">
        <ele>96</ele>
        <time>2017-04-30T09:42:48Z</time>
      </trkpt>
      <trkpt lat="47.86575" lon="2.12948">
        <ele>96</ele>
        <time>2017-04-30T09:42:50Z</time>
      </trkpt>
      <trkpt lat="47.86575" lon="2.12948">
        <ele>96</ele>
        <time>2017-04-30T09:42:52Z</time>
      </trkpt>
      <trkpt lat="47.86575" lon="2.12948">
        <ele>96</ele>
        <time>2017-04-30T09:42:54Z</time>
      </trkpt>
      <trkpt lat="47.86575" lon="2.12948">
        <ele>96</ele>
        <time>2017-04-30T09:42:56Z</time>
      </trkpt>
      <trkpt lat="47.86575" lon="2.12948">
        <ele>96</ele>
        <time>2017-04-30T09:42:58Z</time>
      </trkpt>
      <trkpt lat="47.86575" lon="2.12948">
        <ele>96</ele>
        <time>2017-04-30T09:43:00Z</time>
      </trkpt>
      <trkpt lat="47.86575" lon="2.12948">
        <ele>96</ele>
        <time>2017-04-30T09:43:02Z</time>
      </trkpt>
      <trkpt lat="47.86555" lon="2.12965">
        <ele>99</ele>
        <time>2017-04-30T09:43:06Z</time>
      </trkpt>
      <trkpt lat="47.86547" lon="2.12969">
        <ele>100</ele>
        <time>2017-04-30T09:43:08Z</time>
      </trkpt>
      <trkpt lat="47.86547" lon="2.12969">
        <ele>100</ele>
        <time>2017-04-30T09:43:12Z</time>
      </trkpt>
      <trkpt lat="47.86547" lon="2.12969">
        <ele>100</ele>
        <time>2017-04-30T09:43:14Z</time>
      </trkpt>
      <trkpt lat="47.86547" lon="2.12969">
        <ele>100</ele>
        <time>2017-04-30T09:43:16Z</time>
      </trkpt>
      <trkpt lat="47.86547" lon="2.12969">
        <ele>100</ele>
        <time>2017-04-30T09:43:18Z</time>
      </trkpt>
      <trkpt lat="47.86547" lon="2.12969">
        <ele>100</ele>
        <time>2017-04-30T09:43:20Z</time>
      </trkpt>
      <trkpt lat="47.86546" lon="2.12957">
        <ele>103</ele>
        <time>2017-04-30T09:43:24Z</time>
      </trkpt>
      <trkpt lat="47.86538" lon="2.12957">
        <ele>103</ele>
        <time>2017-04-30T09:43:28Z</time>
      </trkpt>
      <trkpt lat="47.86532" lon="2.12961">
        <ele>103</ele>
        <time>2017-04-30T09:43:30Z</time>
      </trkpt>
      <trkpt lat="47.86525" lon="2.12967">
        <ele>103</ele>
        <time>2017-04-30T09:43:32Z</time>
      </trkpt>
      <trkpt lat="47.86519" lon="2.12974">
        <ele>103</ele>
        <time>2017-04-30T09:43:34Z</time>
      </trkpt>
      <trkpt lat="47.86513" lon="2.12982">
        <ele>103</ele>
        <time>2017-04-30T09:43:36Z</time>
      </trkpt>
      <trkpt lat="47.86499" lon="2.13">
        <ele>102</ele>
        <time>2017-04-30T09:43:38Z</time>
      </trkpt>
      <trkpt lat="47.86492" lon="2.1301">
        <ele>102</ele>
        <time>2017-04-30T09:43:40Z</time>
      </trkpt>
      <trkpt lat="47.86486" lon="2.13019">
        <ele>102</ele>
        <time>2017-04-30T09:43:42Z</time>
      </trkpt>
      <trkpt lat="47.8648" lon="2.1303">
        <ele>102</ele>
        <time>2017-04-30T09:43:44Z</time>
      </trkpt>
      <trkpt lat="47.86473" lon="2.13039">
        <ele>102</ele>
        <time>2017-04-30T09:43:46Z</time>
      </trkpt>
      <trkpt lat="47.86467" lon="2.1305">
        <ele>102</ele>
        <time>2017-04-30T09:43:48Z</time>
      </trkpt>
      <trkpt lat="47.8646" lon="2.13061">
        <ele>102</ele>
        <time>2017-04-30T09:43:50Z</time>
      </trkpt>
      <trkpt lat="47.86453" lon="2.13072">
        <ele>102</ele>
        <time>2017-04-30T09:43:52Z</time>
      </trkpt>
      <trkpt lat="47.86446" lon="2.13083">
        <ele>102</ele>
        <time>2017-04-30T09:43:54Z</time>
      </trkpt>
      <trkpt lat="47.8644" lon="2.13094">
        <ele>102</ele>
        <time>2017-04-30T09:43:56Z</time>
      </trkpt>
      <trkpt lat="47.86433" lon="2.13105">
        <ele>102</ele>
        <time>2017-04-30T09:43:58Z</time>
      </trkpt>
      <trkpt lat="47.86426" lon="2.13116">
        <ele>102</ele>
        <time>2017-04-30T09:44:00Z</time>
      </trkpt>
      <trkpt lat="47.86426" lon="2.13116">
        <ele>102</ele>
        <time>2017-04-30T09:44:02Z</time>
      </trkpt>
      <trkpt lat="47.86426" lon="2.13116">
        <ele>102</ele>
        <time>2017-04-30T09:44:04Z</time>
      </trkpt>
      <trkpt lat="47.86426" lon="2.13116">
        <ele>102</ele>
        <time>2017-04-30T09:44:06Z</time>
      </trkpt>
      <trkpt lat="47.86426" lon="2.13116">
        <ele>102</ele>
        <time>2017-04-30T09:44:08Z</time>
      </trkpt>
      <trkpt lat="47.86383" lon="2.13175">
        <ele>100</ele>
        <time>2017-04-30T09:44:12Z</time>
      </trkpt>
      <trkpt lat="47.86372" lon="2.13184">
        <ele>99</ele>
        <time>2017-04-30T09:44:14Z</time>
      </trkpt>
      <trkpt lat="47.86361" lon="2.13194">
        <ele>99</ele>
        <time>2017-04-30T09:44:16Z</time>
      </trkpt>
      <trkpt lat="47.86349" lon="2.13204">
        <ele>99</ele>
        <time>2017-04-30T09:44:18Z</time>
      </trkpt>
      <trkpt lat="47.86339" lon="2.13214">
        <ele>99</ele>
        <time>2017-04-30T09:44:20Z</time>
      </trkpt>
      <trkpt lat="47.86328" lon="2.13223">
        <ele>98</ele>
        <time>2017-04-30T09:44:22Z</time>
      </trkpt>
      <trkpt lat="47.86317" lon="2.13231">
        <ele>98</ele>
        <time>2017-04-30T09:44:24Z</time>
      </trkpt>
      <trkpt lat="47.86306" lon="2.13238">
        <ele>98</ele>
        <time>2017-04-30T09:44:26Z</time>
      </trkpt>
      <trkpt lat="47.86295" lon="2.13243">
        <ele>97</ele>
        <time>2017-04-30T09:44:28Z</time>
      </trkpt>
      <trkpt lat="47.86284" lon="2.13245">
        <ele>97</ele>
        <time>2017-04-30T09:44:30Z</time>
      </trkpt>
      <trkpt lat="47.86273" lon="2.13248">
        <ele>97</ele>
        <time>2017-04-30T09:44:32Z</time>
      </trkpt>
      <trkpt lat="47.86262" lon="2.13254">
        <ele>97</ele>
        <time>2017-04-30T09:44:34Z</time>
      </trkpt>
      <trkpt lat="47.86251" lon="2.13259">
        <ele>96</ele>
        <time>2017-04-30T09:44:36Z</time>
      </trkpt>
      <trkpt lat="47.86239" lon="2.13265">
        <ele>96</ele>
        <time>2017-04-30T09:44:38Z</time>
      </trkpt>
      <trkpt lat="47.86227" lon="2.1327">
        <ele>96</ele>
        <time>2017-04-30T09:44:40Z</time>
      </trkpt>
      <trkpt lat="47.86216" lon="2.13275">
        <ele>96</ele>
        <time>2017-04-30T09:44:42Z</time>
      </trkpt>
      <trkpt lat="47.86204" lon="2.13279">
        <ele>96</ele>
        <time>2017-04-30T09:44:44Z</time>
      </trkpt>
      <trkpt lat="47.86192" lon="2.13285">
        <ele>96</ele>
        <time>2017-04-30T09:44:46Z</time>
      </trkpt>
      <trkpt lat="47.8618" lon="2.1329">
        <ele>96</ele>
        <time>2017-04-30T09:44:48Z</time>
      </trkpt>
      <trkpt lat="47.86169" lon="2.13294">
        <ele>96</ele>
        <time>2017-04-30T09:44:50Z</time>
      </trkpt>
      <trkpt lat="47.86157" lon="2.13297">
        <ele>96</ele>
        <time>2017-04-30T09:44:52Z</time>
      </trkpt>
      <trkpt lat="47.86145" lon="2.133">
        <ele>96</ele>
        <time>2017-04-30T09:44:54Z</time>
      </trkpt>
      <trkpt lat="47.86133" lon="2.13303">
        <ele>96</ele>
        <time>2017-04-30T09:44:56Z</time>
      </trkpt>
      <trkpt lat="47.86122" lon="2.13306">
        <ele>97</ele>
        <time>2017-04-30T09:44:58Z</time>
      </trkpt>
      <trkpt lat="47.86111" lon="2.13309">
        <ele>98</ele>
        <time>2017-04-30T09:45:00Z</time>
      </trkpt>
      <trkpt lat="47.861" lon="2.13311">
        <ele>98</ele>
        <time>2017-04-30T09:45:02Z</time>
      </trkpt>
      <trkpt lat="47.861" lon="2.13311">
        <ele>98</ele>
        <time>2017-04-30T09:45:04Z</time>
      </trkpt>
      <trkpt lat="47.861" lon="2.13311">
        <ele>98</ele>
        <time>2017-04-30T09:45:06Z</time>
      </trkpt>
      <trkpt lat="47.861" lon="2.13311">
        <ele>98</ele>
        <time>2017-04-30T09:45:08Z</time>
      </trkpt>
      <trkpt lat="47.861" lon="2.13311">
        <ele>98</ele>
        <time>2017-04-30T09:45:10Z</time>
      </trkpt>
      <trkpt lat="47.861" lon="2.13311">
        <ele>98</ele>
        <time>2017-04-30T09:45:12Z</time>
      </trkpt>
      <trkpt lat="47.861" lon="2.13311">
        <ele>98</ele>
        <time>2017-04-30T09:45:14Z</time>
      </trkpt>
      <trkpt lat="47.861" lon="2.13311">
        <ele>98</ele>
        <time>2017-04-30T09:45:16Z</time>
      </trkpt>
      <trkpt lat="47.861" lon="2.13311">
        <ele>98</ele>
        <time>2017-04-30T09:45:18Z</time>
      </trkpt>
      <trkpt lat="47.861" lon="2.13311">
        <ele>98</ele>
        <time>2017-04-30T09:45:20Z</time>
      </trkpt>
      <trkpt lat="47.861" lon="2.13311">
        <ele>98</ele>
        <time>2017-04-30T09:45:22Z</time>
      </trkpt>
      <trkpt lat="47.861" lon="2.13311">
        <ele>98</ele>
        <time>2017-04-30T09:45:24Z</time>
      </trkpt>
      <trkpt lat="47.861" lon="2.13311">
        <ele>98</ele>
        <time>2017-04-30T09:45:26Z</time>
      </trkpt>
      <trkpt lat="47.861" lon="2.13311">
        <ele>98</ele>
        <time>2017-04-30T09:45:28Z</time>
      </trkpt>
      <trkpt lat="47.861" lon="2.13311">
        <ele>98</ele>
        <time>2017-04-30T09:45:30Z</time>
      </trkpt>
      <trkpt lat="47.861" lon="2.13311">
        <ele>98</ele>
        <time>2017-04-30T09:45:32Z</time>
      </trkpt>
      <trkpt lat="47.861" lon="2.13311">
        <ele>98</ele>
        <time>2017-04-30T09:45:34Z</time>
      </trkpt>
      <trkpt lat="47.861" lon="2.13311">
        <ele>98</ele>
        <time>2017-04-30T09:45:36Z</time>
      </trkpt>
      <trkpt lat="47.861" lon="2.13311">
        <ele>98</ele>
        <time>2017-04-30T09:45:44Z</time>
      </trkpt>
      <trkpt lat="47.861" lon="2.13311">
        <ele>98</ele>
        <time>2017-04-30T09:45:46Z</time>
      </trkpt>
      <trkpt lat="47.861" lon="2.13311">
        <ele>98</ele>
        <time>2017-04-30T09:45:48Z</time>
      </trkpt>
      <trkpt lat="47.861" lon="2.13311">
        <ele>98</ele>
        <time>2017-04-30T09:45:50Z</time>
      </trkpt>
      <trkpt lat="47.861" lon="2.13311">
        <ele>98</ele>
        <time>2017-04-30T09:45:52Z</time>
      </trkpt>
    </trkseg>
  </trk>
</gpx>